<?xml version="1.0" encoding="UTF-8" standalone="no" ?>
<gpx xmlns="http://www.topografix.com/GPX/1/1" xmlns:xsi="http://www.w3.org/2001/XMLSchema-instance" xsi:schemaLocation="http://www.topografix.com/GPX/1/1 http://www.topografix.com/GPX/1/1/gpx.xsd" version="1.1" creator="VisuGPX - https://www.visugpx.com">
  <metadata>
    <name>casthellrock2020</name>
  </metadata>
  <trk>
    <name><![CDATA[casthellrock2020_1]]></name>
    <trkseg>
      <trkpt lat="48.18584" lon="-4.0871">
        <ele>67.199996948242</ele>
        <time>2018-06-03T06:48:25.000Z</time>
      </trkpt>
      <trkpt lat="48.18579" lon="-4.08692">
        <ele>67.199996948242</ele>
        <time>2018-06-03T06:48:30.000Z</time>
      </trkpt>
      <trkpt lat="48.18577" lon="-4.0869">
        <ele>67</ele>
        <time>2018-06-03T06:48:31.000Z</time>
      </trkpt>
      <trkpt lat="48.18555" lon="-4.08689">
        <ele>66.599998474121</ele>
        <time>2018-06-03T06:48:41.000Z</time>
      </trkpt>
      <trkpt lat="48.18548" lon="-4.08696">
        <ele>66.599998474121</ele>
        <time>2018-06-03T06:48:45.000Z</time>
      </trkpt>
      <trkpt lat="48.18539" lon="-4.08689">
        <ele>66.599998474121</ele>
        <time>2018-06-03T06:48:50.000Z</time>
      </trkpt>
      <trkpt lat="48.18536" lon="-4.08687">
        <ele>66.599998474121</ele>
        <time>2018-06-03T06:48:51.000Z</time>
      </trkpt>
      <trkpt lat="48.18503" lon="-4.08708">
        <ele>67.400001525879</ele>
        <time>2018-06-03T06:49:02.000Z</time>
      </trkpt>
      <trkpt lat="48.1847" lon="-4.08714">
        <ele>68.199996948242</ele>
        <time>2018-06-03T06:49:13.000Z</time>
      </trkpt>
      <trkpt lat="48.18466" lon="-4.08708">
        <ele>68.800003051758</ele>
        <time>2018-06-03T06:49:15.000Z</time>
      </trkpt>
      <trkpt lat="48.1845" lon="-4.087">
        <ele>69.599998474121</ele>
        <time>2018-06-03T06:49:21.000Z</time>
      </trkpt>
      <trkpt lat="48.18441" lon="-4.08691">
        <ele>71</ele>
        <time>2018-06-03T06:49:28.000Z</time>
      </trkpt>
      <trkpt lat="48.18439" lon="-4.08689">
        <ele>71.199996948242</ele>
        <time>2018-06-03T06:49:29.000Z</time>
      </trkpt>
      <trkpt lat="48.18433" lon="-4.08687">
        <ele>72</ele>
        <time>2018-06-03T06:49:32.000Z</time>
      </trkpt>
      <trkpt lat="48.18429" lon="-4.08686">
        <ele>72.400001525879</ele>
        <time>2018-06-03T06:49:34.000Z</time>
      </trkpt>
      <trkpt lat="48.18417" lon="-4.08686">
        <ele>73.599998474121</ele>
        <time>2018-06-03T06:49:40.000Z</time>
      </trkpt>
      <trkpt lat="48.18403" lon="-4.08679">
        <ele>75</ele>
        <time>2018-06-03T06:49:49.000Z</time>
      </trkpt>
      <trkpt lat="48.18395" lon="-4.08682">
        <ele>76</ele>
        <time>2018-06-03T06:49:54.000Z</time>
      </trkpt>
      <trkpt lat="48.18393" lon="-4.08682">
        <ele>76.199996948242</ele>
        <time>2018-06-03T06:49:55.000Z</time>
      </trkpt>
      <trkpt lat="48.18381" lon="-4.08686">
        <ele>77.400001525879</ele>
        <time>2018-06-03T06:50:04.000Z</time>
      </trkpt>
      <trkpt lat="48.18338" lon="-4.087">
        <ele>79.199996948242</ele>
        <time>2018-06-03T06:50:36.000Z</time>
      </trkpt>
      <trkpt lat="48.18283" lon="-4.08718">
        <ele>80.400001525879</ele>
        <time>2018-06-03T06:51:08.000Z</time>
      </trkpt>
      <trkpt lat="48.18253" lon="-4.08736">
        <ele>81</ele>
        <time>2018-06-03T06:51:29.000Z</time>
      </trkpt>
      <trkpt lat="48.18234" lon="-4.08757">
        <ele>81.599998474121</ele>
        <time>2018-06-03T06:51:46.000Z</time>
      </trkpt>
      <trkpt lat="48.18204" lon="-4.08779">
        <ele>82</ele>
        <time>2018-06-03T06:52:11.000Z</time>
      </trkpt>
      <trkpt lat="48.18151" lon="-4.08785">
        <ele>82.199996948242</ele>
        <time>2018-06-03T06:52:40.000Z</time>
      </trkpt>
      <trkpt lat="48.18094" lon="-4.08768">
        <ele>82</ele>
        <time>2018-06-03T06:53:09.000Z</time>
      </trkpt>
      <trkpt lat="48.1804" lon="-4.08741">
        <ele>82.800003051758</ele>
        <time>2018-06-03T06:53:40.000Z</time>
      </trkpt>
      <trkpt lat="48.17985" lon="-4.08713">
        <ele>83</ele>
        <time>2018-06-03T06:54:10.000Z</time>
      </trkpt>
      <trkpt lat="48.17946" lon="-4.08668">
        <ele>83.199996948242</ele>
        <time>2018-06-03T06:54:39.000Z</time>
      </trkpt>
      <trkpt lat="48.17933" lon="-4.08639">
        <ele>83.199996948242</ele>
        <time>2018-06-03T06:54:51.000Z</time>
      </trkpt>
      <trkpt lat="48.17909" lon="-4.08625">
        <ele>82.400001525879</ele>
        <time>2018-06-03T06:55:00.000Z</time>
      </trkpt>
      <trkpt lat="48.17896" lon="-4.08619">
        <ele>82</ele>
        <time>2018-06-03T06:55:03.000Z</time>
      </trkpt>
      <trkpt lat="48.17869" lon="-4.08599">
        <ele>80.800003051758</ele>
        <time>2018-06-03T06:55:12.000Z</time>
      </trkpt>
      <trkpt lat="48.17869" lon="-4.08596">
        <ele>80.599998474121</ele>
        <time>2018-06-03T06:55:13.000Z</time>
      </trkpt>
      <trkpt lat="48.17871" lon="-4.08582">
        <ele>80.199996948242</ele>
        <time>2018-06-03T06:55:18.000Z</time>
      </trkpt>
      <trkpt lat="48.17876" lon="-4.08561">
        <ele>79.800003051758</ele>
        <time>2018-06-03T06:55:27.000Z</time>
      </trkpt>
      <trkpt lat="48.17884" lon="-4.08531">
        <ele>79.199996948242</ele>
        <time>2018-06-03T06:56:02.000Z</time>
      </trkpt>
      <trkpt lat="48.17893" lon="-4.08425">
        <ele>79</ele>
        <time>2018-06-03T06:56:30.000Z</time>
      </trkpt>
      <trkpt lat="48.17893" lon="-4.08388">
        <ele>78.800003051758</ele>
        <time>2018-06-03T06:56:39.000Z</time>
      </trkpt>
      <trkpt lat="48.17886" lon="-4.08306">
        <ele>77.800003051758</ele>
        <time>2018-06-03T06:56:58.000Z</time>
      </trkpt>
      <trkpt lat="48.17885" lon="-4.08288">
        <ele>77.400001525879</ele>
        <time>2018-06-03T06:57:03.000Z</time>
      </trkpt>
      <trkpt lat="48.17882" lon="-4.08201">
        <ele>76.400001525879</ele>
        <time>2018-06-03T06:57:24.000Z</time>
      </trkpt>
      <trkpt lat="48.17881" lon="-4.08173">
        <ele>76.199996948242</ele>
        <time>2018-06-03T06:57:30.000Z</time>
      </trkpt>
      <trkpt lat="48.17881" lon="-4.08169">
        <ele>76.199996948242</ele>
        <time>2018-06-03T06:57:31.000Z</time>
      </trkpt>
      <trkpt lat="48.17895" lon="-4.08156">
        <ele>75.800003051758</ele>
        <time>2018-06-03T06:57:37.000Z</time>
      </trkpt>
      <trkpt lat="48.17922" lon="-4.0814">
        <ele>75</ele>
        <time>2018-06-03T06:57:49.000Z</time>
      </trkpt>
      <trkpt lat="48.17975" lon="-4.08136">
        <ele>73.599998474121</ele>
        <time>2018-06-03T06:58:15.000Z</time>
      </trkpt>
      <trkpt lat="48.18028" lon="-4.0815">
        <ele>72.599998474121</ele>
        <time>2018-06-03T06:58:44.000Z</time>
      </trkpt>
      <trkpt lat="48.18052" lon="-4.08148">
        <ele>71.800003051758</ele>
        <time>2018-06-03T06:58:57.000Z</time>
      </trkpt>
      <trkpt lat="48.18097" lon="-4.08111">
        <ele>71.400001525879</ele>
        <time>2018-06-03T06:59:20.000Z</time>
      </trkpt>
      <trkpt lat="48.1814" lon="-4.08061">
        <ele>71</ele>
        <time>2018-06-03T06:59:30.000Z</time>
      </trkpt>
      <trkpt lat="48.18158" lon="-4.08046">
        <ele>70.599998474121</ele>
        <time>2018-06-03T06:59:34.000Z</time>
      </trkpt>
      <trkpt lat="48.18161" lon="-4.07997">
        <ele>69.800003051758</ele>
        <time>2018-06-03T06:59:41.000Z</time>
      </trkpt>
      <trkpt lat="48.1816" lon="-4.07977">
        <ele>69.599998474121</ele>
        <time>2018-06-03T06:59:43.000Z</time>
      </trkpt>
      <trkpt lat="48.18155" lon="-4.07892">
        <ele>69.199996948242</ele>
        <time>2018-06-03T06:59:50.000Z</time>
      </trkpt>
      <trkpt lat="48.18148" lon="-4.07828">
        <ele>68.800003051758</ele>
        <time>2018-06-03T06:59:56.000Z</time>
      </trkpt>
      <trkpt lat="48.18153" lon="-4.07765">
        <ele>68.199996948242</ele>
        <time>2018-06-03T07:00:04.000Z</time>
      </trkpt>
      <trkpt lat="48.18152" lon="-4.0769">
        <ele>67.599998474121</ele>
        <time>2018-06-03T07:00:11.000Z</time>
      </trkpt>
      <trkpt lat="48.18179" lon="-4.07605">
        <ele>67.199996948242</ele>
        <time>2018-06-03T07:00:22.000Z</time>
      </trkpt>
      <trkpt lat="48.18191" lon="-4.07557">
        <ele>66.800003051758</ele>
        <time>2018-06-03T07:00:32.000Z</time>
      </trkpt>
      <trkpt lat="48.18193" lon="-4.07556">
        <ele>64</ele>
        <time>2018-06-03T07:01:41.000Z</time>
      </trkpt>
      <trkpt lat="48.18195" lon="-4.07555">
        <ele>64</ele>
        <time>2018-06-03T07:01:44.000Z</time>
      </trkpt>
      <trkpt lat="48.18203" lon="-4.0756">
        <ele>63.599998474121</ele>
        <time>2018-06-03T07:01:48.000Z</time>
      </trkpt>
      <trkpt lat="48.18216" lon="-4.07575">
        <ele>63.200000762939</ele>
        <time>2018-06-03T07:01:54.000Z</time>
      </trkpt>
      <trkpt lat="48.18224" lon="-4.07596">
        <ele>62.799999237061</ele>
        <time>2018-06-03T07:01:59.000Z</time>
      </trkpt>
      <trkpt lat="48.18225" lon="-4.07601">
        <ele>62.799999237061</ele>
        <time>2018-06-03T07:02:00.000Z</time>
      </trkpt>
      <trkpt lat="48.18226" lon="-4.07605">
        <ele>62.400001525879</ele>
        <time>2018-06-03T07:02:01.000Z</time>
      </trkpt>
      <trkpt lat="48.18228" lon="-4.07628">
        <ele>62.200000762939</ele>
        <time>2018-06-03T07:02:06.000Z</time>
      </trkpt>
      <trkpt lat="48.18238" lon="-4.07644">
        <ele>61.599998474121</ele>
        <time>2018-06-03T07:02:12.000Z</time>
      </trkpt>
      <trkpt lat="48.18241" lon="-4.07645">
        <ele>61.599998474121</ele>
        <time>2018-06-03T07:02:13.000Z</time>
      </trkpt>
      <trkpt lat="48.18252" lon="-4.07646">
        <ele>61.400001525879</ele>
        <time>2018-06-03T07:02:16.000Z</time>
      </trkpt>
      <trkpt lat="48.18261" lon="-4.0764">
        <ele>61</ele>
        <time>2018-06-03T07:02:20.000Z</time>
      </trkpt>
      <trkpt lat="48.18266" lon="-4.07633">
        <ele>61</ele>
        <time>2018-06-03T07:02:22.000Z</time>
      </trkpt>
      <trkpt lat="48.18269" lon="-4.07625">
        <ele>60.799999237061</ele>
        <time>2018-06-03T07:02:24.000Z</time>
      </trkpt>
      <trkpt lat="48.18281" lon="-4.07584">
        <ele>60.599998474121</ele>
        <time>2018-06-03T07:02:31.000Z</time>
      </trkpt>
      <trkpt lat="48.18285" lon="-4.07566">
        <ele>60.599998474121</ele>
        <time>2018-06-03T07:02:33.000Z</time>
      </trkpt>
      <trkpt lat="48.18288" lon="-4.07549">
        <ele>60.599998474121</ele>
        <time>2018-06-03T07:02:35.000Z</time>
      </trkpt>
      <trkpt lat="48.18292" lon="-4.07533">
        <ele>60.599998474121</ele>
        <time>2018-06-03T07:02:37.000Z</time>
      </trkpt>
      <trkpt lat="48.18298" lon="-4.07515">
        <ele>60.400001525879</ele>
        <time>2018-06-03T07:02:40.000Z</time>
      </trkpt>
      <trkpt lat="48.18299" lon="-4.07509">
        <ele>60.400001525879</ele>
        <time>2018-06-03T07:02:41.000Z</time>
      </trkpt>
      <trkpt lat="48.18304" lon="-4.07484">
        <ele>60.400001525879</ele>
        <time>2018-06-03T07:02:45.000Z</time>
      </trkpt>
      <trkpt lat="48.18321" lon="-4.07442">
        <ele>60.200000762939</ele>
        <time>2018-06-03T07:02:50.000Z</time>
      </trkpt>
      <trkpt lat="48.18325" lon="-4.07426">
        <ele>60</ele>
        <time>2018-06-03T07:02:52.000Z</time>
      </trkpt>
      <trkpt lat="48.18337" lon="-4.07381">
        <ele>60</ele>
        <time>2018-06-03T07:02:57.000Z</time>
      </trkpt>
      <trkpt lat="48.18343" lon="-4.07359">
        <ele>59.799999237061</ele>
        <time>2018-06-03T07:03:00.000Z</time>
      </trkpt>
      <trkpt lat="48.18348" lon="-4.07341">
        <ele>59.799999237061</ele>
        <time>2018-06-03T07:03:02.000Z</time>
      </trkpt>
      <trkpt lat="48.18362" lon="-4.07301">
        <ele>59.599998474121</ele>
        <time>2018-06-03T07:03:08.000Z</time>
      </trkpt>
      <trkpt lat="48.18379" lon="-4.07286">
        <ele>59.400001525879</ele>
        <time>2018-06-03T07:03:12.000Z</time>
      </trkpt>
      <trkpt lat="48.18389" lon="-4.07278">
        <ele>59.200000762939</ele>
        <time>2018-06-03T07:03:14.000Z</time>
      </trkpt>
      <trkpt lat="48.18408" lon="-4.07275">
        <ele>59</ele>
        <time>2018-06-03T07:03:17.000Z</time>
      </trkpt>
      <trkpt lat="48.1845" lon="-4.07278">
        <ele>58.200000762939</ele>
        <time>2018-06-03T07:03:24.000Z</time>
      </trkpt>
      <trkpt lat="48.18456" lon="-4.07279">
        <ele>58.200000762939</ele>
        <time>2018-06-03T07:03:25.000Z</time>
      </trkpt>
      <trkpt lat="48.18514" lon="-4.07291">
        <ele>58.200000762939</ele>
        <time>2018-06-03T07:03:35.000Z</time>
      </trkpt>
      <trkpt lat="48.18575" lon="-4.07309">
        <ele>58.200000762939</ele>
        <time>2018-06-03T07:03:45.000Z</time>
      </trkpt>
      <trkpt lat="48.18595" lon="-4.07311">
        <ele>57.799999237061</ele>
        <time>2018-06-03T07:03:49.000Z</time>
      </trkpt>
      <trkpt lat="48.18598" lon="-4.07308">
        <ele>57.799999237061</ele>
        <time>2018-06-03T07:03:50.000Z</time>
      </trkpt>
      <trkpt lat="48.18619" lon="-4.0728">
        <ele>57.599998474121</ele>
        <time>2018-06-03T07:03:58.000Z</time>
      </trkpt>
      <trkpt lat="48.1866" lon="-4.07265">
        <ele>58.799999237061</ele>
        <time>2018-06-03T07:04:09.000Z</time>
      </trkpt>
      <trkpt lat="48.18675" lon="-4.0726">
        <ele>60.200000762939</ele>
        <time>2018-06-03T07:04:13.000Z</time>
      </trkpt>
      <trkpt lat="48.18692" lon="-4.07244">
        <ele>61.400001525879</ele>
        <time>2018-06-03T07:04:19.000Z</time>
      </trkpt>
      <trkpt lat="48.18701" lon="-4.07223">
        <ele>62.400001525879</ele>
        <time>2018-06-03T07:04:25.000Z</time>
      </trkpt>
      <trkpt lat="48.18723" lon="-4.07146">
        <ele>63</ele>
        <time>2018-06-03T07:04:46.000Z</time>
      </trkpt>
      <trkpt lat="48.18766" lon="-4.071">
        <ele>62.200000762939</ele>
        <time>2018-06-03T07:05:07.000Z</time>
      </trkpt>
      <trkpt lat="48.18784" lon="-4.07078">
        <ele>62.200000762939</ele>
        <time>2018-06-03T07:05:13.000Z</time>
      </trkpt>
      <trkpt lat="48.18793" lon="-4.07062">
        <ele>62</ele>
        <time>2018-06-03T07:05:16.000Z</time>
      </trkpt>
      <trkpt lat="48.18797" lon="-4.07049">
        <ele>61.799999237061</ele>
        <time>2018-06-03T07:05:18.000Z</time>
      </trkpt>
      <trkpt lat="48.18822" lon="-4.06968">
        <ele>61</ele>
        <time>2018-06-03T07:05:30.000Z</time>
      </trkpt>
      <trkpt lat="48.18824" lon="-4.06961">
        <ele>60.799999237061</ele>
        <time>2018-06-03T07:05:31.000Z</time>
      </trkpt>
      <trkpt lat="48.18848" lon="-4.06897">
        <ele>60.200000762939</ele>
        <time>2018-06-03T07:05:40.000Z</time>
      </trkpt>
      <trkpt lat="48.18864" lon="-4.06846">
        <ele>59.799999237061</ele>
        <time>2018-06-03T07:05:46.000Z</time>
      </trkpt>
      <trkpt lat="48.18887" lon="-4.06773">
        <ele>59.200000762939</ele>
        <time>2018-06-03T07:05:54.000Z</time>
      </trkpt>
      <trkpt lat="48.189" lon="-4.06729">
        <ele>59</ele>
        <time>2018-06-03T07:05:59.000Z</time>
      </trkpt>
      <trkpt lat="48.18923" lon="-4.06646">
        <ele>58</ele>
        <time>2018-06-03T07:06:10.000Z</time>
      </trkpt>
      <trkpt lat="48.18927" lon="-4.06632">
        <ele>58</ele>
        <time>2018-06-03T07:06:12.000Z</time>
      </trkpt>
      <trkpt lat="48.18946" lon="-4.0656">
        <ele>56.599998474121</ele>
        <time>2018-06-03T07:06:24.000Z</time>
      </trkpt>
      <trkpt lat="48.18952" lon="-4.06538">
        <ele>55.599998474121</ele>
        <time>2018-06-03T07:06:28.000Z</time>
      </trkpt>
      <trkpt lat="48.18973" lon="-4.06462">
        <ele>54.799999237061</ele>
        <time>2018-06-03T07:06:42.000Z</time>
      </trkpt>
      <trkpt lat="48.1898" lon="-4.06435">
        <ele>54.799999237061</ele>
        <time>2018-06-03T07:06:47.000Z</time>
      </trkpt>
      <trkpt lat="48.19001" lon="-4.06357">
        <ele>54.200000762939</ele>
        <time>2018-06-03T07:07:02.000Z</time>
      </trkpt>
      <trkpt lat="48.19009" lon="-4.06324">
        <ele>53.799999237061</ele>
        <time>2018-06-03T07:07:09.000Z</time>
      </trkpt>
      <trkpt lat="48.19012" lon="-4.06288">
        <ele>53.400001525879</ele>
        <time>2018-06-03T07:07:17.000Z</time>
      </trkpt>
      <trkpt lat="48.19" lon="-4.06282">
        <ele>53.400001525879</ele>
        <time>2018-06-03T07:07:24.000Z</time>
      </trkpt>
      <trkpt lat="48.19003" lon="-4.06285">
        <ele>37.200000762939</ele>
        <time>2018-06-03T07:13:33.000Z</time>
      </trkpt>
      <trkpt lat="48.19005" lon="-4.06285">
        <ele>37.200000762939</ele>
        <time>2018-06-03T07:13:34.000Z</time>
      </trkpt>
      <trkpt lat="48.19007" lon="-4.06284">
        <ele>37</ele>
        <time>2018-06-03T07:13:35.000Z</time>
      </trkpt>
      <trkpt lat="48.1901" lon="-4.06282">
        <ele>37</ele>
        <time>2018-06-03T07:13:37.000Z</time>
      </trkpt>
      <trkpt lat="48.19011" lon="-4.06267">
        <ele>37</ele>
        <time>2018-06-03T07:13:41.000Z</time>
      </trkpt>
      <trkpt lat="48.19007" lon="-4.06183">
        <ele>36</ele>
        <time>2018-06-03T07:14:01.000Z</time>
      </trkpt>
      <trkpt lat="48.18978" lon="-4.06123">
        <ele>37.799999237061</ele>
        <time>2018-06-03T07:14:22.000Z</time>
      </trkpt>
      <trkpt lat="48.18951" lon="-4.06112">
        <ele>38.599998474121</ele>
        <time>2018-06-03T07:14:33.000Z</time>
      </trkpt>
      <trkpt lat="48.18916" lon="-4.06107">
        <ele>39.599998474121</ele>
        <time>2018-06-03T07:14:46.000Z</time>
      </trkpt>
      <trkpt lat="48.18879" lon="-4.06105">
        <ele>40.400001525879</ele>
        <time>2018-06-03T07:15:00.000Z</time>
      </trkpt>
      <trkpt lat="48.18835" lon="-4.06103">
        <ele>41.200000762939</ele>
        <time>2018-06-03T07:15:18.000Z</time>
      </trkpt>
      <trkpt lat="48.18795" lon="-4.06099">
        <ele>42</ele>
        <time>2018-06-03T07:15:36.000Z</time>
      </trkpt>
      <trkpt lat="48.18761" lon="-4.06093">
        <ele>43</ele>
        <time>2018-06-03T07:15:52.000Z</time>
      </trkpt>
      <trkpt lat="48.18728" lon="-4.06087">
        <ele>43.799999237061</ele>
        <time>2018-06-03T07:16:07.000Z</time>
      </trkpt>
      <trkpt lat="48.18689" lon="-4.06079">
        <ele>44.599998474121</ele>
        <time>2018-06-03T07:16:25.000Z</time>
      </trkpt>
      <trkpt lat="48.18657" lon="-4.06072">
        <ele>45.200000762939</ele>
        <time>2018-06-03T07:16:40.000Z</time>
      </trkpt>
      <trkpt lat="48.18633" lon="-4.06068">
        <ele>46</ele>
        <time>2018-06-03T07:16:52.000Z</time>
      </trkpt>
      <trkpt lat="48.18604" lon="-4.06062">
        <ele>46.599998474121</ele>
        <time>2018-06-03T07:17:07.000Z</time>
      </trkpt>
      <trkpt lat="48.18558" lon="-4.06054">
        <ele>47.599998474121</ele>
        <time>2018-06-03T07:17:30.000Z</time>
      </trkpt>
      <trkpt lat="48.18509" lon="-4.06044">
        <ele>48.200000762939</ele>
        <time>2018-06-03T07:17:55.000Z</time>
      </trkpt>
      <trkpt lat="48.18496" lon="-4.06036">
        <ele>48.400001525879</ele>
        <time>2018-06-03T07:18:02.000Z</time>
      </trkpt>
      <trkpt lat="48.18494" lon="-4.06002">
        <ele>48.599998474121</ele>
        <time>2018-06-03T07:18:13.000Z</time>
      </trkpt>
      <trkpt lat="48.1849" lon="-4.05997">
        <ele>48.799999237061</ele>
        <time>2018-06-03T07:18:16.000Z</time>
      </trkpt>
      <trkpt lat="48.18485" lon="-4.05983">
        <ele>49.400001525879</ele>
        <time>2018-06-03T07:18:26.000Z</time>
      </trkpt>
      <trkpt lat="48.18481" lon="-4.05975">
        <ele>50.400001525879</ele>
        <time>2018-06-03T07:18:32.000Z</time>
      </trkpt>
      <trkpt lat="48.18478" lon="-4.05966">
        <ele>51</ele>
        <time>2018-06-03T07:18:42.000Z</time>
      </trkpt>
      <trkpt lat="48.18468" lon="-4.05942">
        <ele>52</ele>
        <time>2018-06-03T07:18:53.000Z</time>
      </trkpt>
      <trkpt lat="48.18459" lon="-4.05919">
        <ele>52.799999237061</ele>
        <time>2018-06-03T07:19:06.000Z</time>
      </trkpt>
      <trkpt lat="48.18446" lon="-4.05891">
        <ele>53.599998474121</ele>
        <time>2018-06-03T07:19:20.000Z</time>
      </trkpt>
      <trkpt lat="48.18436" lon="-4.05873">
        <ele>54.200000762939</ele>
        <time>2018-06-03T07:19:30.000Z</time>
      </trkpt>
      <trkpt lat="48.18435" lon="-4.0587">
        <ele>54.400001525879</ele>
        <time>2018-06-03T07:19:32.000Z</time>
      </trkpt>
      <trkpt lat="48.18427" lon="-4.05847">
        <ele>55</ele>
        <time>2018-06-03T07:19:47.000Z</time>
      </trkpt>
      <trkpt lat="48.18416" lon="-4.05823">
        <ele>56</ele>
        <time>2018-06-03T07:20:02.000Z</time>
      </trkpt>
      <trkpt lat="48.18408" lon="-4.05807">
        <ele>56.599998474121</ele>
        <time>2018-06-03T07:20:14.000Z</time>
      </trkpt>
      <trkpt lat="48.18395" lon="-4.05789">
        <ele>57.400001525879</ele>
        <time>2018-06-03T07:20:28.000Z</time>
      </trkpt>
      <trkpt lat="48.1839" lon="-4.05781">
        <ele>57.599998474121</ele>
        <time>2018-06-03T07:20:33.000Z</time>
      </trkpt>
      <trkpt lat="48.1838" lon="-4.05771">
        <ele>58</ele>
        <time>2018-06-03T07:20:42.000Z</time>
      </trkpt>
      <trkpt lat="48.18371" lon="-4.05757">
        <ele>59</ele>
        <time>2018-06-03T07:20:54.000Z</time>
      </trkpt>
      <trkpt lat="48.18365" lon="-4.05739">
        <ele>59.599998474121</ele>
        <time>2018-06-03T07:21:06.000Z</time>
      </trkpt>
      <trkpt lat="48.18356" lon="-4.05711">
        <ele>60.200000762939</ele>
        <time>2018-06-03T07:21:24.000Z</time>
      </trkpt>
      <trkpt lat="48.18345" lon="-4.0568">
        <ele>60.599998474121</ele>
        <time>2018-06-03T07:21:41.000Z</time>
      </trkpt>
      <trkpt lat="48.18335" lon="-4.05654">
        <ele>61.400001525879</ele>
        <time>2018-06-03T07:21:57.000Z</time>
      </trkpt>
      <trkpt lat="48.18336" lon="-4.05642">
        <ele>61.799999237061</ele>
        <time>2018-06-03T07:22:11.000Z</time>
      </trkpt>
      <trkpt lat="48.18329" lon="-4.05602">
        <ele>60.799999237061</ele>
        <time>2018-06-03T07:22:35.000Z</time>
      </trkpt>
      <trkpt lat="48.1833" lon="-4.0559">
        <ele>61</ele>
        <time>2018-06-03T07:22:40.000Z</time>
      </trkpt>
      <trkpt lat="48.18334" lon="-4.05583">
        <ele>60.799999237061</ele>
        <time>2018-06-03T07:22:44.000Z</time>
      </trkpt>
      <trkpt lat="48.18338" lon="-4.05581">
        <ele>61</ele>
        <time>2018-06-03T07:22:50.000Z</time>
      </trkpt>
      <trkpt lat="48.18339" lon="-4.05579">
        <ele>61</ele>
        <time>2018-06-03T07:22:52.000Z</time>
      </trkpt>
      <trkpt lat="48.18341" lon="-4.05577">
        <ele>61.200000762939</ele>
        <time>2018-06-03T07:22:55.000Z</time>
      </trkpt>
      <trkpt lat="48.18343" lon="-4.05576">
        <ele>61</ele>
        <time>2018-06-03T07:22:58.000Z</time>
      </trkpt>
      <trkpt lat="48.18346" lon="-4.05575">
        <ele>61</ele>
        <time>2018-06-03T07:23:03.000Z</time>
      </trkpt>
      <trkpt lat="48.18348" lon="-4.05574">
        <ele>60.400001525879</ele>
        <time>2018-06-03T07:23:09.000Z</time>
      </trkpt>
      <trkpt lat="48.18348" lon="-4.05573">
        <ele>60.400001525879</ele>
        <time>2018-06-03T07:23:10.000Z</time>
      </trkpt>
      <trkpt lat="48.18349" lon="-4.05573">
        <ele>60.200000762939</ele>
        <time>2018-06-03T07:23:11.000Z</time>
      </trkpt>
      <trkpt lat="48.18354" lon="-4.05568">
        <ele>59.599998474121</ele>
        <time>2018-06-03T07:23:57.000Z</time>
      </trkpt>
      <trkpt lat="48.18354" lon="-4.05567">
        <ele>59.799999237061</ele>
        <time>2018-06-03T07:23:59.000Z</time>
      </trkpt>
      <trkpt lat="48.18357" lon="-4.05566">
        <ele>59.799999237061</ele>
        <time>2018-06-03T07:24:06.000Z</time>
      </trkpt>
      <trkpt lat="48.18358" lon="-4.05564">
        <ele>59.400001525879</ele>
        <time>2018-06-03T07:24:09.000Z</time>
      </trkpt>
      <trkpt lat="48.1836" lon="-4.05558">
        <ele>47</ele>
        <time>2018-06-03T07:24:49.000Z</time>
      </trkpt>
      <trkpt lat="48.18362" lon="-4.05554">
        <ele>45.799999237061</ele>
        <time>2018-06-03T07:24:55.000Z</time>
      </trkpt>
      <trkpt lat="48.18362" lon="-4.05553">
        <ele>45.599998474121</ele>
        <time>2018-06-03T07:24:56.000Z</time>
      </trkpt>
      <trkpt lat="48.18363" lon="-4.05551">
        <ele>45.200000762939</ele>
        <time>2018-06-03T07:24:59.000Z</time>
      </trkpt>
      <trkpt lat="48.18363" lon="-4.0555">
        <ele>44.799999237061</ele>
        <time>2018-06-03T07:25:01.000Z</time>
      </trkpt>
      <trkpt lat="48.18363" lon="-4.05549">
        <ele>44.400001525879</ele>
        <time>2018-06-03T07:25:03.000Z</time>
      </trkpt>
      <trkpt lat="48.18364" lon="-4.05547">
        <ele>44.400001525879</ele>
        <time>2018-06-03T07:25:05.000Z</time>
      </trkpt>
      <trkpt lat="48.18364" lon="-4.05547">
        <ele>44.400001525879</ele>
        <time>2018-06-03T07:25:06.000Z</time>
      </trkpt>
      <trkpt lat="48.18365" lon="-4.05546">
        <ele>44.200000762939</ele>
        <time>2018-06-03T07:25:09.000Z</time>
      </trkpt>
      <trkpt lat="48.18365" lon="-4.05545">
        <ele>44</ele>
        <time>2018-06-03T07:25:12.000Z</time>
      </trkpt>
      <trkpt lat="48.18366" lon="-4.05543">
        <ele>44</ele>
        <time>2018-06-03T07:25:15.000Z</time>
      </trkpt>
      <trkpt lat="48.1837" lon="-4.05534">
        <ele>43.400001525879</ele>
        <time>2018-06-03T07:25:24.000Z</time>
      </trkpt>
      <trkpt lat="48.1837" lon="-4.05534">
        <ele>43.200000762939</ele>
        <time>2018-06-03T07:25:25.000Z</time>
      </trkpt>
      <trkpt lat="48.1837" lon="-4.05532">
        <ele>43.200000762939</ele>
        <time>2018-06-03T07:25:27.000Z</time>
      </trkpt>
      <trkpt lat="48.1837" lon="-4.05531">
        <ele>43</ele>
        <time>2018-06-03T07:25:29.000Z</time>
      </trkpt>
      <trkpt lat="48.1837" lon="-4.05529">
        <ele>42.799999237061</ele>
        <time>2018-06-03T07:25:32.000Z</time>
      </trkpt>
      <trkpt lat="48.1837" lon="-4.05529">
        <ele>42.799999237061</ele>
        <time>2018-06-03T07:25:35.000Z</time>
      </trkpt>
      <trkpt lat="48.1837" lon="-4.05529">
        <ele>42.799999237061</ele>
        <time>2018-06-03T07:25:37.000Z</time>
      </trkpt>
      <trkpt lat="48.1837" lon="-4.05527">
        <ele>42.599998474121</ele>
        <time>2018-06-03T07:25:39.000Z</time>
      </trkpt>
      <trkpt lat="48.18371" lon="-4.05525">
        <ele>42.599998474121</ele>
        <time>2018-06-03T07:25:42.000Z</time>
      </trkpt>
      <trkpt lat="48.18371" lon="-4.05523">
        <ele>42.599998474121</ele>
        <time>2018-06-03T07:25:44.000Z</time>
      </trkpt>
      <trkpt lat="48.18371" lon="-4.05521">
        <ele>42.400001525879</ele>
        <time>2018-06-03T07:25:45.000Z</time>
      </trkpt>
      <trkpt lat="48.18372" lon="-4.0552">
        <ele>42.200000762939</ele>
        <time>2018-06-03T07:25:47.000Z</time>
      </trkpt>
      <trkpt lat="48.18367" lon="-4.05504">
        <ele>41.599998474121</ele>
        <time>2018-06-03T07:26:02.000Z</time>
      </trkpt>
      <trkpt lat="48.18363" lon="-4.05488">
        <ele>40.400001525879</ele>
        <time>2018-06-03T07:26:51.000Z</time>
      </trkpt>
      <trkpt lat="48.18363" lon="-4.05486">
        <ele>40.400001525879</ele>
        <time>2018-06-03T07:26:54.000Z</time>
      </trkpt>
      <trkpt lat="48.18362" lon="-4.05484">
        <ele>40.200000762939</ele>
        <time>2018-06-03T07:26:57.000Z</time>
      </trkpt>
      <trkpt lat="48.18358" lon="-4.05475">
        <ele>40</ele>
        <time>2018-06-03T07:27:04.000Z</time>
      </trkpt>
      <trkpt lat="48.18354" lon="-4.05469">
        <ele>40</ele>
        <time>2018-06-03T07:27:12.000Z</time>
      </trkpt>
      <trkpt lat="48.18353" lon="-4.05468">
        <ele>39.799999237061</ele>
        <time>2018-06-03T07:27:14.000Z</time>
      </trkpt>
      <trkpt lat="48.18353" lon="-4.05468">
        <ele>39.799999237061</ele>
        <time>2018-06-03T07:27:15.000Z</time>
      </trkpt>
      <trkpt lat="48.18352" lon="-4.05465">
        <ele>39.799999237061</ele>
        <time>2018-06-03T07:27:19.000Z</time>
      </trkpt>
      <trkpt lat="48.18351" lon="-4.05459">
        <ele>39</ele>
        <time>2018-06-03T07:27:32.000Z</time>
      </trkpt>
      <trkpt lat="48.1835" lon="-4.05458">
        <ele>39</ele>
        <time>2018-06-03T07:27:34.000Z</time>
      </trkpt>
      <trkpt lat="48.1835" lon="-4.05457">
        <ele>39</ele>
        <time>2018-06-03T07:27:36.000Z</time>
      </trkpt>
      <trkpt lat="48.18335" lon="-4.0544">
        <ele>38.599998474121</ele>
        <time>2018-06-03T07:27:57.000Z</time>
      </trkpt>
      <trkpt lat="48.18332" lon="-4.05436">
        <ele>38.400001525879</ele>
        <time>2018-06-03T07:28:01.000Z</time>
      </trkpt>
      <trkpt lat="48.18331" lon="-4.05435">
        <ele>38.400001525879</ele>
        <time>2018-06-03T07:28:04.000Z</time>
      </trkpt>
      <trkpt lat="48.18323" lon="-4.05429">
        <ele>38.400001525879</ele>
        <time>2018-06-03T07:28:18.000Z</time>
      </trkpt>
      <trkpt lat="48.18318" lon="-4.05425">
        <ele>38</ele>
        <time>2018-06-03T07:28:25.000Z</time>
      </trkpt>
      <trkpt lat="48.18312" lon="-4.05413">
        <ele>37.599998474121</ele>
        <time>2018-06-03T07:28:38.000Z</time>
      </trkpt>
      <trkpt lat="48.18308" lon="-4.05408">
        <ele>37</ele>
        <time>2018-06-03T07:28:55.000Z</time>
      </trkpt>
      <trkpt lat="48.18306" lon="-4.05401">
        <ele>37</ele>
        <time>2018-06-03T07:29:02.000Z</time>
      </trkpt>
      <trkpt lat="48.18301" lon="-4.05393">
        <ele>36.400001525879</ele>
        <time>2018-06-03T07:29:22.000Z</time>
      </trkpt>
      <trkpt lat="48.18295" lon="-4.05386">
        <ele>35.599998474121</ele>
        <time>2018-06-03T07:29:32.000Z</time>
      </trkpt>
      <trkpt lat="48.18292" lon="-4.05379">
        <ele>35.400001525879</ele>
        <time>2018-06-03T07:29:46.000Z</time>
      </trkpt>
      <trkpt lat="48.1829" lon="-4.05374">
        <ele>35.400001525879</ele>
        <time>2018-06-03T07:29:50.000Z</time>
      </trkpt>
      <trkpt lat="48.18258" lon="-4.05334">
        <ele>34.599998474121</ele>
        <time>2018-06-03T07:30:13.000Z</time>
      </trkpt>
      <trkpt lat="48.18256" lon="-4.05333">
        <ele>34.799999237061</ele>
        <time>2018-06-03T07:30:14.000Z</time>
      </trkpt>
      <trkpt lat="48.18235" lon="-4.05313">
        <ele>35.400001525879</ele>
        <time>2018-06-03T07:30:25.000Z</time>
      </trkpt>
      <trkpt lat="48.18224" lon="-4.05303">
        <ele>35.799999237061</ele>
        <time>2018-06-03T07:30:30.000Z</time>
      </trkpt>
      <trkpt lat="48.18218" lon="-4.05298">
        <ele>36.200000762939</ele>
        <time>2018-06-03T07:30:34.000Z</time>
      </trkpt>
      <trkpt lat="48.18203" lon="-4.05284">
        <ele>37</ele>
        <time>2018-06-03T07:30:43.000Z</time>
      </trkpt>
      <trkpt lat="48.18187" lon="-4.05265">
        <ele>37.599998474121</ele>
        <time>2018-06-03T07:30:55.000Z</time>
      </trkpt>
      <trkpt lat="48.18181" lon="-4.0526">
        <ele>37.599998474121</ele>
        <time>2018-06-03T07:30:59.000Z</time>
      </trkpt>
      <trkpt lat="48.1818" lon="-4.05259">
        <ele>37.599998474121</ele>
        <time>2018-06-03T07:31:01.000Z</time>
      </trkpt>
      <trkpt lat="48.18169" lon="-4.0525">
        <ele>38.200000762939</ele>
        <time>2018-06-03T07:31:11.000Z</time>
      </trkpt>
      <trkpt lat="48.18166" lon="-4.05232">
        <ele>44.400001525879</ele>
        <time>2018-06-03T07:31:38.000Z</time>
      </trkpt>
      <trkpt lat="48.18166" lon="-4.0523">
        <ele>45.400001525879</ele>
        <time>2018-06-03T07:31:40.000Z</time>
      </trkpt>
      <trkpt lat="48.1817" lon="-4.05212">
        <ele>44.200000762939</ele>
        <time>2018-06-03T07:31:54.000Z</time>
      </trkpt>
      <trkpt lat="48.18171" lon="-4.05208">
        <ele>43.799999237061</ele>
        <time>2018-06-03T07:31:58.000Z</time>
      </trkpt>
      <trkpt lat="48.18172" lon="-4.05196">
        <ele>43</ele>
        <time>2018-06-03T07:32:21.000Z</time>
      </trkpt>
      <trkpt lat="48.18171" lon="-4.05195">
        <ele>43</ele>
        <time>2018-06-03T07:32:22.000Z</time>
      </trkpt>
      <trkpt lat="48.1817" lon="-4.05192">
        <ele>42.799999237061</ele>
        <time>2018-06-03T07:32:28.000Z</time>
      </trkpt>
      <trkpt lat="48.18161" lon="-4.05181">
        <ele>42.400001525879</ele>
        <time>2018-06-03T07:32:37.000Z</time>
      </trkpt>
      <trkpt lat="48.18154" lon="-4.05168">
        <ele>41.799999237061</ele>
        <time>2018-06-03T07:32:45.000Z</time>
      </trkpt>
      <trkpt lat="48.18153" lon="-4.05165">
        <ele>41.799999237061</ele>
        <time>2018-06-03T07:32:47.000Z</time>
      </trkpt>
      <trkpt lat="48.18153" lon="-4.05164">
        <ele>41.799999237061</ele>
        <time>2018-06-03T07:32:48.000Z</time>
      </trkpt>
      <trkpt lat="48.18153" lon="-4.05158">
        <ele>41.799999237061</ele>
        <time>2018-06-03T07:32:53.000Z</time>
      </trkpt>
      <trkpt lat="48.18152" lon="-4.05155">
        <ele>41.599998474121</ele>
        <time>2018-06-03T07:32:56.000Z</time>
      </trkpt>
      <trkpt lat="48.18151" lon="-4.05147">
        <ele>41.599998474121</ele>
        <time>2018-06-03T07:33:04.000Z</time>
      </trkpt>
      <trkpt lat="48.1814" lon="-4.05124">
        <ele>40.599998474121</ele>
        <time>2018-06-03T07:33:17.000Z</time>
      </trkpt>
      <trkpt lat="48.18134" lon="-4.05106">
        <ele>40</ele>
        <time>2018-06-03T07:33:27.000Z</time>
      </trkpt>
      <trkpt lat="48.18134" lon="-4.05102">
        <ele>40</ele>
        <time>2018-06-03T07:33:30.000Z</time>
      </trkpt>
      <trkpt lat="48.18137" lon="-4.05088">
        <ele>40</ele>
        <time>2018-06-03T07:33:39.000Z</time>
      </trkpt>
      <trkpt lat="48.18138" lon="-4.05085">
        <ele>40.200000762939</ele>
        <time>2018-06-03T07:33:43.000Z</time>
      </trkpt>
      <trkpt lat="48.18135" lon="-4.05071">
        <ele>40</ele>
        <time>2018-06-03T07:33:55.000Z</time>
      </trkpt>
      <trkpt lat="48.18134" lon="-4.05066">
        <ele>39.599998474121</ele>
        <time>2018-06-03T07:34:14.000Z</time>
      </trkpt>
      <trkpt lat="48.18131" lon="-4.05063">
        <ele>39.599998474121</ele>
        <time>2018-06-03T07:34:17.000Z</time>
      </trkpt>
      <trkpt lat="48.18114" lon="-4.05041">
        <ele>38.599998474121</ele>
        <time>2018-06-03T07:34:38.000Z</time>
      </trkpt>
      <trkpt lat="48.18113" lon="-4.05039">
        <ele>38.599998474121</ele>
        <time>2018-06-03T07:34:40.000Z</time>
      </trkpt>
      <trkpt lat="48.18108" lon="-4.05034">
        <ele>38.799999237061</ele>
        <time>2018-06-03T07:34:45.000Z</time>
      </trkpt>
      <trkpt lat="48.18106" lon="-4.05031">
        <ele>38.799999237061</ele>
        <time>2018-06-03T07:34:48.000Z</time>
      </trkpt>
      <trkpt lat="48.18103" lon="-4.05028">
        <ele>39</ele>
        <time>2018-06-03T07:34:51.000Z</time>
      </trkpt>
      <trkpt lat="48.181" lon="-4.05025">
        <ele>39</ele>
        <time>2018-06-03T07:34:54.000Z</time>
      </trkpt>
      <trkpt lat="48.18091" lon="-4.05015">
        <ele>39.200000762939</ele>
        <time>2018-06-03T07:35:03.000Z</time>
      </trkpt>
      <trkpt lat="48.18089" lon="-4.05014">
        <ele>39.200000762939</ele>
        <time>2018-06-03T07:35:04.000Z</time>
      </trkpt>
      <trkpt lat="48.18088" lon="-4.05013">
        <ele>38.799999237061</ele>
        <time>2018-06-03T07:35:06.000Z</time>
      </trkpt>
      <trkpt lat="48.18087" lon="-4.05012">
        <ele>38.799999237061</ele>
        <time>2018-06-03T07:35:07.000Z</time>
      </trkpt>
      <trkpt lat="48.18081" lon="-4.05008">
        <ele>38.599998474121</ele>
        <time>2018-06-03T07:35:14.000Z</time>
      </trkpt>
      <trkpt lat="48.1807" lon="-4.04994">
        <ele>38.200000762939</ele>
        <time>2018-06-03T07:35:33.000Z</time>
      </trkpt>
      <trkpt lat="48.18067" lon="-4.0499">
        <ele>38.200000762939</ele>
        <time>2018-06-03T07:35:37.000Z</time>
      </trkpt>
      <trkpt lat="48.18064" lon="-4.04986">
        <ele>38</ele>
        <time>2018-06-03T07:35:44.000Z</time>
      </trkpt>
      <trkpt lat="48.18064" lon="-4.04985">
        <ele>38</ele>
        <time>2018-06-03T07:35:46.000Z</time>
      </trkpt>
      <trkpt lat="48.18067" lon="-4.04971">
        <ele>37.400001525879</ele>
        <time>2018-06-03T07:36:44.000Z</time>
      </trkpt>
      <trkpt lat="48.18067" lon="-4.04969">
        <ele>37.400001525879</ele>
        <time>2018-06-03T07:36:47.000Z</time>
      </trkpt>
      <trkpt lat="48.18066" lon="-4.04965">
        <ele>37.400001525879</ele>
        <time>2018-06-03T07:36:53.000Z</time>
      </trkpt>
      <trkpt lat="48.18065" lon="-4.04964">
        <ele>37.400001525879</ele>
        <time>2018-06-03T07:36:54.000Z</time>
      </trkpt>
      <trkpt lat="48.18064" lon="-4.04963">
        <ele>37.400001525879</ele>
        <time>2018-06-03T07:36:55.000Z</time>
      </trkpt>
      <trkpt lat="48.18032" lon="-4.0492">
        <ele>36.799999237061</ele>
        <time>2018-06-03T07:37:29.000Z</time>
      </trkpt>
      <trkpt lat="48.1801" lon="-4.04885">
        <ele>37.200000762939</ele>
        <time>2018-06-03T07:37:53.000Z</time>
      </trkpt>
      <trkpt lat="48.17998" lon="-4.04856">
        <ele>37.599998474121</ele>
        <time>2018-06-03T07:38:09.000Z</time>
      </trkpt>
      <trkpt lat="48.17997" lon="-4.04853">
        <ele>37.599998474121</ele>
        <time>2018-06-03T07:38:11.000Z</time>
      </trkpt>
      <trkpt lat="48.17996" lon="-4.04843">
        <ele>37.599998474121</ele>
        <time>2018-06-03T07:38:16.000Z</time>
      </trkpt>
      <trkpt lat="48.17992" lon="-4.04825">
        <ele>38</ele>
        <time>2018-06-03T07:38:28.000Z</time>
      </trkpt>
      <trkpt lat="48.17992" lon="-4.04822">
        <ele>38</ele>
        <time>2018-06-03T07:38:31.000Z</time>
      </trkpt>
      <trkpt lat="48.1799" lon="-4.0482">
        <ele>37.400001525879</ele>
        <time>2018-06-03T07:38:34.000Z</time>
      </trkpt>
      <trkpt lat="48.17991" lon="-4.04816">
        <ele>37.400001525879</ele>
        <time>2018-06-03T07:38:37.000Z</time>
      </trkpt>
      <trkpt lat="48.17991" lon="-4.04814">
        <ele>37.200000762939</ele>
        <time>2018-06-03T07:38:39.000Z</time>
      </trkpt>
      <trkpt lat="48.1799" lon="-4.04804">
        <ele>36.799999237061</ele>
        <time>2018-06-03T07:38:47.000Z</time>
      </trkpt>
      <trkpt lat="48.17992" lon="-4.04787">
        <ele>35</ele>
        <time>2018-06-03T07:39:23.000Z</time>
      </trkpt>
      <trkpt lat="48.17992" lon="-4.04785">
        <ele>35</ele>
        <time>2018-06-03T07:39:26.000Z</time>
      </trkpt>
      <trkpt lat="48.17992" lon="-4.04784">
        <ele>35</ele>
        <time>2018-06-03T07:39:27.000Z</time>
      </trkpt>
      <trkpt lat="48.17992" lon="-4.04769">
        <ele>33.799999237061</ele>
        <time>2018-06-03T07:39:41.000Z</time>
      </trkpt>
      <trkpt lat="48.17993" lon="-4.04768">
        <ele>33.799999237061</ele>
        <time>2018-06-03T07:39:43.000Z</time>
      </trkpt>
      <trkpt lat="48.17994" lon="-4.04765">
        <ele>33.599998474121</ele>
        <time>2018-06-03T07:39:47.000Z</time>
      </trkpt>
      <trkpt lat="48.17995" lon="-4.04764">
        <ele>33.599998474121</ele>
        <time>2018-06-03T07:39:48.000Z</time>
      </trkpt>
      <trkpt lat="48.17996" lon="-4.04763">
        <ele>33.400001525879</ele>
        <time>2018-06-03T07:39:50.000Z</time>
      </trkpt>
      <trkpt lat="48.17999" lon="-4.0476">
        <ele>33.200000762939</ele>
        <time>2018-06-03T07:39:56.000Z</time>
      </trkpt>
      <trkpt lat="48.18" lon="-4.04758">
        <ele>32.400001525879</ele>
        <time>2018-06-03T07:39:58.000Z</time>
      </trkpt>
      <trkpt lat="48.18" lon="-4.04757">
        <ele>32.400001525879</ele>
        <time>2018-06-03T07:39:59.000Z</time>
      </trkpt>
      <trkpt lat="48.18001" lon="-4.04756">
        <ele>32.200000762939</ele>
        <time>2018-06-03T07:40:01.000Z</time>
      </trkpt>
      <trkpt lat="48.18005" lon="-4.04749">
        <ele>31.60000038147</ele>
        <time>2018-06-03T07:40:10.000Z</time>
      </trkpt>
      <trkpt lat="48.18004" lon="-4.04746">
        <ele>31.39999961853</ele>
        <time>2018-06-03T07:40:13.000Z</time>
      </trkpt>
      <trkpt lat="48.18003" lon="-4.04742">
        <ele>31.200000762939</ele>
        <time>2018-06-03T07:40:17.000Z</time>
      </trkpt>
      <trkpt lat="48.18001" lon="-4.04737">
        <ele>31</ele>
        <time>2018-06-03T07:40:24.000Z</time>
      </trkpt>
      <trkpt lat="48.18002" lon="-4.04735">
        <ele>30.60000038147</ele>
        <time>2018-06-03T07:40:26.000Z</time>
      </trkpt>
      <trkpt lat="48.18002" lon="-4.04733">
        <ele>30.60000038147</ele>
        <time>2018-06-03T07:40:29.000Z</time>
      </trkpt>
      <trkpt lat="48.18003" lon="-4.04729">
        <ele>30.39999961853</ele>
        <time>2018-06-03T07:40:35.000Z</time>
      </trkpt>
      <trkpt lat="48.18" lon="-4.04725">
        <ele>29.799999237061</ele>
        <time>2018-06-03T07:40:42.000Z</time>
      </trkpt>
      <trkpt lat="48.17999" lon="-4.04724">
        <ele>29.60000038147</ele>
        <time>2018-06-03T07:40:46.000Z</time>
      </trkpt>
      <trkpt lat="48.17997" lon="-4.04719">
        <ele>29.39999961853</ele>
        <time>2018-06-03T07:40:53.000Z</time>
      </trkpt>
      <trkpt lat="48.17998" lon="-4.04717">
        <ele>29.200000762939</ele>
        <time>2018-06-03T07:40:56.000Z</time>
      </trkpt>
      <trkpt lat="48.17998" lon="-4.04715">
        <ele>29.200000762939</ele>
        <time>2018-06-03T07:40:58.000Z</time>
      </trkpt>
      <trkpt lat="48.17999" lon="-4.04713">
        <ele>29.200000762939</ele>
        <time>2018-06-03T07:41:01.000Z</time>
      </trkpt>
      <trkpt lat="48.18" lon="-4.04709">
        <ele>28.60000038147</ele>
        <time>2018-06-03T07:41:08.000Z</time>
      </trkpt>
      <trkpt lat="48.18" lon="-4.04709">
        <ele>28.60000038147</ele>
        <time>2018-06-03T07:41:10.000Z</time>
      </trkpt>
      <trkpt lat="48.18001" lon="-4.04703">
        <ele>27.39999961853</ele>
        <time>2018-06-03T07:41:29.000Z</time>
      </trkpt>
      <trkpt lat="48.18003" lon="-4.047">
        <ele>27.200000762939</ele>
        <time>2018-06-03T07:41:33.000Z</time>
      </trkpt>
      <trkpt lat="48.18004" lon="-4.04698">
        <ele>26.799999237061</ele>
        <time>2018-06-03T07:41:35.000Z</time>
      </trkpt>
      <trkpt lat="48.18005" lon="-4.04694">
        <ele>26.39999961853</ele>
        <time>2018-06-03T07:41:38.000Z</time>
      </trkpt>
      <trkpt lat="48.18007" lon="-4.0469">
        <ele>26</ele>
        <time>2018-06-03T07:41:44.000Z</time>
      </trkpt>
      <trkpt lat="48.18007" lon="-4.04689">
        <ele>26</ele>
        <time>2018-06-03T07:41:45.000Z</time>
      </trkpt>
      <trkpt lat="48.18013" lon="-4.04683">
        <ele>25.60000038147</ele>
        <time>2018-06-03T07:41:55.000Z</time>
      </trkpt>
      <trkpt lat="48.18012" lon="-4.04674">
        <ele>24.60000038147</ele>
        <time>2018-06-03T07:42:06.000Z</time>
      </trkpt>
      <trkpt lat="48.18" lon="-4.04639">
        <ele>24.60000038147</ele>
        <time>2018-06-03T07:42:44.000Z</time>
      </trkpt>
      <trkpt lat="48.17994" lon="-4.04627">
        <ele>24.200000762939</ele>
        <time>2018-06-03T07:43:00.000Z</time>
      </trkpt>
      <trkpt lat="48.17996" lon="-4.04613">
        <ele>23.39999961853</ele>
        <time>2018-06-03T07:43:16.000Z</time>
      </trkpt>
      <trkpt lat="48.17997" lon="-4.04613">
        <ele>23.200000762939</ele>
        <time>2018-06-03T07:43:18.000Z</time>
      </trkpt>
      <trkpt lat="48.17997" lon="-4.04612">
        <ele>23.200000762939</ele>
        <time>2018-06-03T07:43:20.000Z</time>
      </trkpt>
      <trkpt lat="48.17999" lon="-4.0461">
        <ele>23.200000762939</ele>
        <time>2018-06-03T07:43:24.000Z</time>
      </trkpt>
      <trkpt lat="48.18" lon="-4.04609">
        <ele>23</ele>
        <time>2018-06-03T07:43:27.000Z</time>
      </trkpt>
      <trkpt lat="48.18001" lon="-4.04609">
        <ele>23</ele>
        <time>2018-06-03T07:43:28.000Z</time>
      </trkpt>
      <trkpt lat="48.18001" lon="-4.04608">
        <ele>22.799999237061</ele>
        <time>2018-06-03T07:43:29.000Z</time>
      </trkpt>
      <trkpt lat="48.18003" lon="-4.04607">
        <ele>22.60000038147</ele>
        <time>2018-06-03T07:43:31.000Z</time>
      </trkpt>
      <trkpt lat="48.18004" lon="-4.04607">
        <ele>22.60000038147</ele>
        <time>2018-06-03T07:43:32.000Z</time>
      </trkpt>
      <trkpt lat="48.18013" lon="-4.04608">
        <ele>21.60000038147</ele>
        <time>2018-06-03T07:43:43.000Z</time>
      </trkpt>
      <trkpt lat="48.18013" lon="-4.04608">
        <ele>21.60000038147</ele>
        <time>2018-06-03T07:43:44.000Z</time>
      </trkpt>
      <trkpt lat="48.18015" lon="-4.04606">
        <ele>21.39999961853</ele>
        <time>2018-06-03T07:43:47.000Z</time>
      </trkpt>
      <trkpt lat="48.18015" lon="-4.04605">
        <ele>21.39999961853</ele>
        <time>2018-06-03T07:43:48.000Z</time>
      </trkpt>
      <trkpt lat="48.18013" lon="-4.04587">
        <ele>20.39999961853</ele>
        <time>2018-06-03T07:44:03.000Z</time>
      </trkpt>
      <trkpt lat="48.18006" lon="-4.04577">
        <ele>19.799999237061</ele>
        <time>2018-06-03T07:44:14.000Z</time>
      </trkpt>
      <trkpt lat="48.18005" lon="-4.04576">
        <ele>19.799999237061</ele>
        <time>2018-06-03T07:44:15.000Z</time>
      </trkpt>
      <trkpt lat="48.18005" lon="-4.04575">
        <ele>19.799999237061</ele>
        <time>2018-06-03T07:44:17.000Z</time>
      </trkpt>
      <trkpt lat="48.18005" lon="-4.04574">
        <ele>19.799999237061</ele>
        <time>2018-06-03T07:44:18.000Z</time>
      </trkpt>
      <trkpt lat="48.18005" lon="-4.0457">
        <ele>19.799999237061</ele>
        <time>2018-06-03T07:44:27.000Z</time>
      </trkpt>
      <trkpt lat="48.18007" lon="-4.04563">
        <ele>17.200000762939</ele>
        <time>2018-06-03T07:45:19.000Z</time>
      </trkpt>
      <trkpt lat="48.18006" lon="-4.04559">
        <ele>17</ele>
        <time>2018-06-03T07:45:22.000Z</time>
      </trkpt>
      <trkpt lat="48.18006" lon="-4.04555">
        <ele>17</ele>
        <time>2018-06-03T07:45:24.000Z</time>
      </trkpt>
      <trkpt lat="48.18007" lon="-4.04547">
        <ele>16.39999961853</ele>
        <time>2018-06-03T07:45:31.000Z</time>
      </trkpt>
      <trkpt lat="48.18006" lon="-4.04543">
        <ele>15.800000190735</ele>
        <time>2018-06-03T07:45:35.000Z</time>
      </trkpt>
      <trkpt lat="48.18005" lon="-4.04542">
        <ele>15.60000038147</ele>
        <time>2018-06-03T07:45:37.000Z</time>
      </trkpt>
      <trkpt lat="48.18003" lon="-4.0454">
        <ele>15.60000038147</ele>
        <time>2018-06-03T07:45:39.000Z</time>
      </trkpt>
      <trkpt lat="48.17998" lon="-4.04537">
        <ele>15.39999961853</ele>
        <time>2018-06-03T07:45:42.000Z</time>
      </trkpt>
      <trkpt lat="48.17981" lon="-4.04529">
        <ele>14.60000038147</ele>
        <time>2018-06-03T07:45:50.000Z</time>
      </trkpt>
      <trkpt lat="48.17957" lon="-4.04508">
        <ele>15.60000038147</ele>
        <time>2018-06-03T07:46:07.000Z</time>
      </trkpt>
      <trkpt lat="48.17955" lon="-4.04506">
        <ele>15.800000190735</ele>
        <time>2018-06-03T07:46:09.000Z</time>
      </trkpt>
      <trkpt lat="48.17953" lon="-4.04504">
        <ele>16</ele>
        <time>2018-06-03T07:46:11.000Z</time>
      </trkpt>
      <trkpt lat="48.17952" lon="-4.04505">
        <ele>16.200000762939</ele>
        <time>2018-06-03T07:46:13.000Z</time>
      </trkpt>
      <trkpt lat="48.17951" lon="-4.04507">
        <ele>16.39999961853</ele>
        <time>2018-06-03T07:46:15.000Z</time>
      </trkpt>
      <trkpt lat="48.17951" lon="-4.04509">
        <ele>16.39999961853</ele>
        <time>2018-06-03T07:46:16.000Z</time>
      </trkpt>
      <trkpt lat="48.1795" lon="-4.04513">
        <ele>16.799999237061</ele>
        <time>2018-06-03T07:46:20.000Z</time>
      </trkpt>
      <trkpt lat="48.1795" lon="-4.04515">
        <ele>17</ele>
        <time>2018-06-03T07:46:22.000Z</time>
      </trkpt>
      <trkpt lat="48.17938" lon="-4.04541">
        <ele>18.200000762939</ele>
        <time>2018-06-03T07:47:06.000Z</time>
      </trkpt>
      <trkpt lat="48.17933" lon="-4.0454">
        <ele>18.799999237061</ele>
        <time>2018-06-03T07:47:17.000Z</time>
      </trkpt>
      <trkpt lat="48.1793" lon="-4.04533">
        <ele>19.200000762939</ele>
        <time>2018-06-03T07:47:25.000Z</time>
      </trkpt>
      <trkpt lat="48.17924" lon="-4.04524">
        <ele>19.39999961853</ele>
        <time>2018-06-03T07:47:34.000Z</time>
      </trkpt>
      <trkpt lat="48.17917" lon="-4.0451">
        <ele>18.200000762939</ele>
        <time>2018-06-03T07:47:42.000Z</time>
      </trkpt>
      <trkpt lat="48.17904" lon="-4.04477">
        <ele>18</ele>
        <time>2018-06-03T07:47:53.000Z</time>
      </trkpt>
      <trkpt lat="48.17903" lon="-4.04476">
        <ele>18</ele>
        <time>2018-06-03T07:47:54.000Z</time>
      </trkpt>
      <trkpt lat="48.179" lon="-4.0447">
        <ele>18.200000762939</ele>
        <time>2018-06-03T07:47:58.000Z</time>
      </trkpt>
      <trkpt lat="48.17898" lon="-4.04469">
        <ele>18.39999961853</ele>
        <time>2018-06-03T07:48:00.000Z</time>
      </trkpt>
      <trkpt lat="48.17895" lon="-4.04468">
        <ele>19.200000762939</ele>
        <time>2018-06-03T07:48:10.000Z</time>
      </trkpt>
      <trkpt lat="48.17895" lon="-4.04467">
        <ele>19.200000762939</ele>
        <time>2018-06-03T07:48:14.000Z</time>
      </trkpt>
      <trkpt lat="48.17895" lon="-4.04467">
        <ele>19</ele>
        <time>2018-06-03T07:48:15.000Z</time>
      </trkpt>
      <trkpt lat="48.17895" lon="-4.04467">
        <ele>19</ele>
        <time>2018-06-03T07:48:18.000Z</time>
      </trkpt>
      <trkpt lat="48.17894" lon="-4.04466">
        <ele>18.799999237061</ele>
        <time>2018-06-03T07:48:28.000Z</time>
      </trkpt>
      <trkpt lat="48.17884" lon="-4.04456">
        <ele>18</ele>
        <time>2018-06-03T07:48:38.000Z</time>
      </trkpt>
      <trkpt lat="48.17875" lon="-4.0445">
        <ele>17.799999237061</ele>
        <time>2018-06-03T07:48:51.000Z</time>
      </trkpt>
      <trkpt lat="48.17873" lon="-4.04449">
        <ele>17.799999237061</ele>
        <time>2018-06-03T07:48:53.000Z</time>
      </trkpt>
      <trkpt lat="48.17872" lon="-4.04448">
        <ele>17.799999237061</ele>
        <time>2018-06-03T07:48:55.000Z</time>
      </trkpt>
      <trkpt lat="48.17854" lon="-4.04436">
        <ele>17.200000762939</ele>
        <time>2018-06-03T07:49:14.000Z</time>
      </trkpt>
      <trkpt lat="48.17849" lon="-4.04436">
        <ele>17.200000762939</ele>
        <time>2018-06-03T07:49:30.000Z</time>
      </trkpt>
      <trkpt lat="48.17848" lon="-4.04436">
        <ele>17.200000762939</ele>
        <time>2018-06-03T07:49:31.000Z</time>
      </trkpt>
      <trkpt lat="48.17819" lon="-4.04425">
        <ele>18.60000038147</ele>
        <time>2018-06-03T07:49:58.000Z</time>
      </trkpt>
      <trkpt lat="48.17813" lon="-4.04423">
        <ele>19.39999961853</ele>
        <time>2018-06-03T07:50:02.000Z</time>
      </trkpt>
      <trkpt lat="48.17811" lon="-4.04422">
        <ele>19.60000038147</ele>
        <time>2018-06-03T07:50:03.000Z</time>
      </trkpt>
      <trkpt lat="48.17805" lon="-4.04419">
        <ele>20.799999237061</ele>
        <time>2018-06-03T07:50:07.000Z</time>
      </trkpt>
      <trkpt lat="48.17795" lon="-4.04415">
        <ele>21.799999237061</ele>
        <time>2018-06-03T07:50:13.000Z</time>
      </trkpt>
      <trkpt lat="48.17789" lon="-4.04412">
        <ele>23</ele>
        <time>2018-06-03T07:50:19.000Z</time>
      </trkpt>
      <trkpt lat="48.17784" lon="-4.04411">
        <ele>24.200000762939</ele>
        <time>2018-06-03T07:50:25.000Z</time>
      </trkpt>
      <trkpt lat="48.17776" lon="-4.04408">
        <ele>25.200000762939</ele>
        <time>2018-06-03T07:50:31.000Z</time>
      </trkpt>
      <trkpt lat="48.17768" lon="-4.04406">
        <ele>26.200000762939</ele>
        <time>2018-06-03T07:50:37.000Z</time>
      </trkpt>
      <trkpt lat="48.17757" lon="-4.04402">
        <ele>27.200000762939</ele>
        <time>2018-06-03T07:50:45.000Z</time>
      </trkpt>
      <trkpt lat="48.17747" lon="-4.044">
        <ele>28.39999961853</ele>
        <time>2018-06-03T07:50:54.000Z</time>
      </trkpt>
      <trkpt lat="48.1774" lon="-4.04398">
        <ele>29.60000038147</ele>
        <time>2018-06-03T07:51:01.000Z</time>
      </trkpt>
      <trkpt lat="48.17733" lon="-4.04396">
        <ele>31.39999961853</ele>
        <time>2018-06-03T07:51:16.000Z</time>
      </trkpt>
      <trkpt lat="48.1773" lon="-4.04393">
        <ele>31.39999961853</ele>
        <time>2018-06-03T07:51:20.000Z</time>
      </trkpt>
      <trkpt lat="48.17726" lon="-4.04392">
        <ele>31.39999961853</ele>
        <time>2018-06-03T07:51:25.000Z</time>
      </trkpt>
      <trkpt lat="48.17688" lon="-4.04373">
        <ele>31.60000038147</ele>
        <time>2018-06-03T07:51:49.000Z</time>
      </trkpt>
      <trkpt lat="48.17679" lon="-4.04369">
        <ele>32.200000762939</ele>
        <time>2018-06-03T07:51:55.000Z</time>
      </trkpt>
      <trkpt lat="48.17678" lon="-4.04368">
        <ele>32.200000762939</ele>
        <time>2018-06-03T07:51:56.000Z</time>
      </trkpt>
      <trkpt lat="48.17676" lon="-4.04365">
        <ele>32.599998474121</ele>
        <time>2018-06-03T07:51:59.000Z</time>
      </trkpt>
      <trkpt lat="48.17676" lon="-4.04364">
        <ele>32.799999237061</ele>
        <time>2018-06-03T07:52:00.000Z</time>
      </trkpt>
      <trkpt lat="48.17663" lon="-4.04357">
        <ele>33.200000762939</ele>
        <time>2018-06-03T07:52:15.000Z</time>
      </trkpt>
      <trkpt lat="48.17657" lon="-4.04355">
        <ele>33.599998474121</ele>
        <time>2018-06-03T07:52:29.000Z</time>
      </trkpt>
      <trkpt lat="48.17615" lon="-4.04352">
        <ele>33.799999237061</ele>
        <time>2018-06-03T07:52:56.000Z</time>
      </trkpt>
      <trkpt lat="48.17613" lon="-4.04352">
        <ele>34</ele>
        <time>2018-06-03T07:52:58.000Z</time>
      </trkpt>
      <trkpt lat="48.17606" lon="-4.0435">
        <ele>35.200000762939</ele>
        <time>2018-06-03T07:53:08.000Z</time>
      </trkpt>
      <trkpt lat="48.17605" lon="-4.0435">
        <ele>35.599998474121</ele>
        <time>2018-06-03T07:53:10.000Z</time>
      </trkpt>
      <trkpt lat="48.17605" lon="-4.0435">
        <ele>35.799999237061</ele>
        <time>2018-06-03T07:53:12.000Z</time>
      </trkpt>
      <trkpt lat="48.17599" lon="-4.04352">
        <ele>35.799999237061</ele>
        <time>2018-06-03T07:53:18.000Z</time>
      </trkpt>
      <trkpt lat="48.17586" lon="-4.04355">
        <ele>35</ele>
        <time>2018-06-03T07:53:29.000Z</time>
      </trkpt>
      <trkpt lat="48.17575" lon="-4.04361">
        <ele>36.200000762939</ele>
        <time>2018-06-03T07:53:53.000Z</time>
      </trkpt>
      <trkpt lat="48.1754" lon="-4.04379">
        <ele>36.200000762939</ele>
        <time>2018-06-03T07:54:22.000Z</time>
      </trkpt>
      <trkpt lat="48.17539" lon="-4.0438">
        <ele>36.400001525879</ele>
        <time>2018-06-03T07:54:23.000Z</time>
      </trkpt>
      <trkpt lat="48.17538" lon="-4.04381">
        <ele>36.400001525879</ele>
        <time>2018-06-03T07:54:25.000Z</time>
      </trkpt>
      <trkpt lat="48.17533" lon="-4.04384">
        <ele>37.400001525879</ele>
        <time>2018-06-03T07:54:33.000Z</time>
      </trkpt>
      <trkpt lat="48.17532" lon="-4.04382">
        <ele>37.599998474121</ele>
        <time>2018-06-03T07:54:36.000Z</time>
      </trkpt>
      <trkpt lat="48.17531" lon="-4.0438">
        <ele>37.599998474121</ele>
        <time>2018-06-03T07:54:40.000Z</time>
      </trkpt>
      <trkpt lat="48.17531" lon="-4.04378">
        <ele>37.599998474121</ele>
        <time>2018-06-03T07:54:44.000Z</time>
      </trkpt>
      <trkpt lat="48.17531" lon="-4.04378">
        <ele>37.599998474121</ele>
        <time>2018-06-03T07:54:45.000Z</time>
      </trkpt>
      <trkpt lat="48.17531" lon="-4.04377">
        <ele>37.799999237061</ele>
        <time>2018-06-03T07:54:50.000Z</time>
      </trkpt>
      <trkpt lat="48.1753" lon="-4.04376">
        <ele>37.799999237061</ele>
        <time>2018-06-03T07:54:51.000Z</time>
      </trkpt>
      <trkpt lat="48.1753" lon="-4.04376">
        <ele>37.599998474121</ele>
        <time>2018-06-03T07:54:52.000Z</time>
      </trkpt>
      <trkpt lat="48.17528" lon="-4.04373">
        <ele>37.599998474121</ele>
        <time>2018-06-03T07:54:53.000Z</time>
      </trkpt>
      <trkpt lat="48.17527" lon="-4.0437">
        <ele>37.599998474121</ele>
        <time>2018-06-03T07:54:55.000Z</time>
      </trkpt>
      <trkpt lat="48.17526" lon="-4.04369">
        <ele>37.599998474121</ele>
        <time>2018-06-03T07:54:56.000Z</time>
      </trkpt>
      <trkpt lat="48.17525" lon="-4.04367">
        <ele>37.599998474121</ele>
        <time>2018-06-03T07:54:59.000Z</time>
      </trkpt>
      <trkpt lat="48.17521" lon="-4.0437">
        <ele>37.200000762939</ele>
        <time>2018-06-03T07:55:21.000Z</time>
      </trkpt>
      <trkpt lat="48.1752" lon="-4.0437">
        <ele>37.200000762939</ele>
        <time>2018-06-03T07:55:23.000Z</time>
      </trkpt>
      <trkpt lat="48.17514" lon="-4.04374">
        <ele>37</ele>
        <time>2018-06-03T07:55:33.000Z</time>
      </trkpt>
      <trkpt lat="48.17513" lon="-4.04374">
        <ele>36.799999237061</ele>
        <time>2018-06-03T07:55:35.000Z</time>
      </trkpt>
      <trkpt lat="48.17512" lon="-4.04374">
        <ele>36.799999237061</ele>
        <time>2018-06-03T07:55:36.000Z</time>
      </trkpt>
      <trkpt lat="48.17511" lon="-4.04374">
        <ele>36.799999237061</ele>
        <time>2018-06-03T07:55:37.000Z</time>
      </trkpt>
      <trkpt lat="48.17509" lon="-4.04374">
        <ele>36.599998474121</ele>
        <time>2018-06-03T07:55:41.000Z</time>
      </trkpt>
      <trkpt lat="48.17509" lon="-4.04374">
        <ele>36.599998474121</ele>
        <time>2018-06-03T07:55:42.000Z</time>
      </trkpt>
      <trkpt lat="48.17503" lon="-4.04381">
        <ele>36</ele>
        <time>2018-06-03T07:56:00.000Z</time>
      </trkpt>
      <trkpt lat="48.17501" lon="-4.04385">
        <ele>35.599998474121</ele>
        <time>2018-06-03T07:56:04.000Z</time>
      </trkpt>
      <trkpt lat="48.17499" lon="-4.04387">
        <ele>35.400001525879</ele>
        <time>2018-06-03T07:56:07.000Z</time>
      </trkpt>
      <trkpt lat="48.17498" lon="-4.04387">
        <ele>35.400001525879</ele>
        <time>2018-06-03T07:56:10.000Z</time>
      </trkpt>
      <trkpt lat="48.17497" lon="-4.04387">
        <ele>35.400001525879</ele>
        <time>2018-06-03T07:56:11.000Z</time>
      </trkpt>
      <trkpt lat="48.17495" lon="-4.04386">
        <ele>35.400001525879</ele>
        <time>2018-06-03T07:56:16.000Z</time>
      </trkpt>
      <trkpt lat="48.17495" lon="-4.04386">
        <ele>35.400001525879</ele>
        <time>2018-06-03T07:56:17.000Z</time>
      </trkpt>
      <trkpt lat="48.17493" lon="-4.0439">
        <ele>35.599998474121</ele>
        <time>2018-06-03T07:56:29.000Z</time>
      </trkpt>
      <trkpt lat="48.17486" lon="-4.04393">
        <ele>35.200000762939</ele>
        <time>2018-06-03T07:56:39.000Z</time>
      </trkpt>
      <trkpt lat="48.17486" lon="-4.04394">
        <ele>35.200000762939</ele>
        <time>2018-06-03T07:56:40.000Z</time>
      </trkpt>
      <trkpt lat="48.17483" lon="-4.04395">
        <ele>34.799999237061</ele>
        <time>2018-06-03T07:56:43.000Z</time>
      </trkpt>
      <trkpt lat="48.1748" lon="-4.04395">
        <ele>34.799999237061</ele>
        <time>2018-06-03T07:56:47.000Z</time>
      </trkpt>
      <trkpt lat="48.17479" lon="-4.04396">
        <ele>34.799999237061</ele>
        <time>2018-06-03T07:56:48.000Z</time>
      </trkpt>
      <trkpt lat="48.17479" lon="-4.04396">
        <ele>34.799999237061</ele>
        <time>2018-06-03T07:56:49.000Z</time>
      </trkpt>
      <trkpt lat="48.17458" lon="-4.04402">
        <ele>35.400001525879</ele>
        <time>2018-06-03T07:57:16.000Z</time>
      </trkpt>
      <trkpt lat="48.17458" lon="-4.04402">
        <ele>35.799999237061</ele>
        <time>2018-06-03T07:57:18.000Z</time>
      </trkpt>
      <trkpt lat="48.17455" lon="-4.04401">
        <ele>36.200000762939</ele>
        <time>2018-06-03T07:57:22.000Z</time>
      </trkpt>
      <trkpt lat="48.17448" lon="-4.04414">
        <ele>37</ele>
        <time>2018-06-03T07:58:37.000Z</time>
      </trkpt>
      <trkpt lat="48.17448" lon="-4.04414">
        <ele>37</ele>
        <time>2018-06-03T07:58:38.000Z</time>
      </trkpt>
      <trkpt lat="48.17447" lon="-4.04415">
        <ele>37.200000762939</ele>
        <time>2018-06-03T07:58:40.000Z</time>
      </trkpt>
      <trkpt lat="48.17445" lon="-4.04415">
        <ele>37.200000762939</ele>
        <time>2018-06-03T07:58:43.000Z</time>
      </trkpt>
      <trkpt lat="48.17444" lon="-4.04415">
        <ele>37.200000762939</ele>
        <time>2018-06-03T07:58:44.000Z</time>
      </trkpt>
      <trkpt lat="48.17439" lon="-4.04417">
        <ele>38.200000762939</ele>
        <time>2018-06-03T07:59:10.000Z</time>
      </trkpt>
      <trkpt lat="48.17433" lon="-4.04418">
        <ele>38</ele>
        <time>2018-06-03T07:59:14.000Z</time>
      </trkpt>
      <trkpt lat="48.17416" lon="-4.04427">
        <ele>37.799999237061</ele>
        <time>2018-06-03T07:59:29.000Z</time>
      </trkpt>
      <trkpt lat="48.17413" lon="-4.04428">
        <ele>38</ele>
        <time>2018-06-03T07:59:32.000Z</time>
      </trkpt>
      <trkpt lat="48.17408" lon="-4.04433">
        <ele>38.799999237061</ele>
        <time>2018-06-03T07:59:39.000Z</time>
      </trkpt>
      <trkpt lat="48.17396" lon="-4.04437">
        <ele>39.799999237061</ele>
        <time>2018-06-03T07:59:52.000Z</time>
      </trkpt>
      <trkpt lat="48.17393" lon="-4.04437">
        <ele>40.400001525879</ele>
        <time>2018-06-03T07:59:57.000Z</time>
      </trkpt>
      <trkpt lat="48.17393" lon="-4.04438">
        <ele>40.400001525879</ele>
        <time>2018-06-03T07:59:58.000Z</time>
      </trkpt>
      <trkpt lat="48.17392" lon="-4.04439">
        <ele>40.400001525879</ele>
        <time>2018-06-03T07:59:59.000Z</time>
      </trkpt>
      <trkpt lat="48.1739" lon="-4.04441">
        <ele>41</ele>
        <time>2018-06-03T08:00:03.000Z</time>
      </trkpt>
      <trkpt lat="48.17387" lon="-4.04443">
        <ele>41</ele>
        <time>2018-06-03T08:00:07.000Z</time>
      </trkpt>
      <trkpt lat="48.17382" lon="-4.04443">
        <ele>41</ele>
        <time>2018-06-03T08:00:10.000Z</time>
      </trkpt>
      <trkpt lat="48.17377" lon="-4.04448">
        <ele>41</ele>
        <time>2018-06-03T08:00:15.000Z</time>
      </trkpt>
      <trkpt lat="48.17375" lon="-4.0445">
        <ele>41</ele>
        <time>2018-06-03T08:00:22.000Z</time>
      </trkpt>
      <trkpt lat="48.17374" lon="-4.0445">
        <ele>41</ele>
        <time>2018-06-03T08:00:25.000Z</time>
      </trkpt>
      <trkpt lat="48.17373" lon="-4.04454">
        <ele>41.599998474121</ele>
        <time>2018-06-03T08:00:35.000Z</time>
      </trkpt>
      <trkpt lat="48.17334" lon="-4.04503">
        <ele>42</ele>
        <time>2018-06-03T08:01:07.000Z</time>
      </trkpt>
      <trkpt lat="48.1733" lon="-4.04518">
        <ele>42.400001525879</ele>
        <time>2018-06-03T08:01:15.000Z</time>
      </trkpt>
      <trkpt lat="48.17327" lon="-4.04525">
        <ele>42.799999237061</ele>
        <time>2018-06-03T08:01:19.000Z</time>
      </trkpt>
      <trkpt lat="48.17322" lon="-4.04532">
        <ele>43</ele>
        <time>2018-06-03T08:01:24.000Z</time>
      </trkpt>
      <trkpt lat="48.17313" lon="-4.04519">
        <ele>44.200000762939</ele>
        <time>2018-06-03T08:01:40.000Z</time>
      </trkpt>
      <trkpt lat="48.17312" lon="-4.04518">
        <ele>44.200000762939</ele>
        <time>2018-06-03T08:01:41.000Z</time>
      </trkpt>
      <trkpt lat="48.17307" lon="-4.04518">
        <ele>44.400001525879</ele>
        <time>2018-06-03T08:01:45.000Z</time>
      </trkpt>
      <trkpt lat="48.17299" lon="-4.04515">
        <ele>44.599998474121</ele>
        <time>2018-06-03T08:01:52.000Z</time>
      </trkpt>
      <trkpt lat="48.17296" lon="-4.04528">
        <ele>44.799999237061</ele>
        <time>2018-06-03T08:02:00.000Z</time>
      </trkpt>
      <trkpt lat="48.17297" lon="-4.04546">
        <ele>45</ele>
        <time>2018-06-03T08:02:08.000Z</time>
      </trkpt>
      <trkpt lat="48.17289" lon="-4.04563">
        <ele>45</ele>
        <time>2018-06-03T08:02:17.000Z</time>
      </trkpt>
      <trkpt lat="48.17283" lon="-4.04569">
        <ele>45.400001525879</ele>
        <time>2018-06-03T08:02:22.000Z</time>
      </trkpt>
      <trkpt lat="48.1724" lon="-4.04606">
        <ele>46.799999237061</ele>
        <time>2018-06-03T08:02:55.000Z</time>
      </trkpt>
      <trkpt lat="48.17218" lon="-4.04592">
        <ele>48</ele>
        <time>2018-06-03T08:03:22.000Z</time>
      </trkpt>
      <trkpt lat="48.1721" lon="-4.04592">
        <ele>48.599998474121</ele>
        <time>2018-06-03T08:03:29.000Z</time>
      </trkpt>
      <trkpt lat="48.17203" lon="-4.04597">
        <ele>48.599998474121</ele>
        <time>2018-06-03T08:03:38.000Z</time>
      </trkpt>
      <trkpt lat="48.172" lon="-4.04597">
        <ele>48.599998474121</ele>
        <time>2018-06-03T08:03:42.000Z</time>
      </trkpt>
      <trkpt lat="48.17197" lon="-4.04598">
        <ele>48.200000762939</ele>
        <time>2018-06-03T08:03:49.000Z</time>
      </trkpt>
      <trkpt lat="48.17197" lon="-4.04598">
        <ele>48.200000762939</ele>
        <time>2018-06-03T08:03:51.000Z</time>
      </trkpt>
      <trkpt lat="48.17196" lon="-4.04599">
        <ele>48.200000762939</ele>
        <time>2018-06-03T08:03:52.000Z</time>
      </trkpt>
      <trkpt lat="48.17193" lon="-4.04602">
        <ele>48.200000762939</ele>
        <time>2018-06-03T08:03:56.000Z</time>
      </trkpt>
      <trkpt lat="48.17187" lon="-4.04609">
        <ele>47.400001525879</ele>
        <time>2018-06-03T08:04:01.000Z</time>
      </trkpt>
      <trkpt lat="48.17169" lon="-4.04622">
        <ele>47</ele>
        <time>2018-06-03T08:04:15.000Z</time>
      </trkpt>
      <trkpt lat="48.17163" lon="-4.04624">
        <ele>47</ele>
        <time>2018-06-03T08:04:19.000Z</time>
      </trkpt>
      <trkpt lat="48.17161" lon="-4.04624">
        <ele>47</ele>
        <time>2018-06-03T08:04:21.000Z</time>
      </trkpt>
      <trkpt lat="48.17154" lon="-4.04628">
        <ele>47.599998474121</ele>
        <time>2018-06-03T08:04:28.000Z</time>
      </trkpt>
      <trkpt lat="48.17154" lon="-4.04629">
        <ele>47.599998474121</ele>
        <time>2018-06-03T08:04:30.000Z</time>
      </trkpt>
      <trkpt lat="48.17152" lon="-4.04631">
        <ele>47.599998474121</ele>
        <time>2018-06-03T08:04:32.000Z</time>
      </trkpt>
      <trkpt lat="48.17151" lon="-4.04632">
        <ele>47.599998474121</ele>
        <time>2018-06-03T08:04:34.000Z</time>
      </trkpt>
      <trkpt lat="48.17149" lon="-4.04635">
        <ele>47.400001525879</ele>
        <time>2018-06-03T08:04:38.000Z</time>
      </trkpt>
      <trkpt lat="48.17148" lon="-4.04637">
        <ele>47.200000762939</ele>
        <time>2018-06-03T08:04:41.000Z</time>
      </trkpt>
      <trkpt lat="48.17147" lon="-4.04637">
        <ele>47.200000762939</ele>
        <time>2018-06-03T08:04:42.000Z</time>
      </trkpt>
      <trkpt lat="48.17147" lon="-4.0464">
        <ele>46.599998474121</ele>
        <time>2018-06-03T08:04:49.000Z</time>
      </trkpt>
      <trkpt lat="48.17147" lon="-4.04639">
        <ele>46.599998474121</ele>
        <time>2018-06-03T08:04:51.000Z</time>
      </trkpt>
      <trkpt lat="48.17146" lon="-4.0464">
        <ele>46.400001525879</ele>
        <time>2018-06-03T08:04:53.000Z</time>
      </trkpt>
      <trkpt lat="48.17144" lon="-4.04644">
        <ele>46.400001525879</ele>
        <time>2018-06-03T08:04:57.000Z</time>
      </trkpt>
      <trkpt lat="48.17142" lon="-4.04645">
        <ele>46</ele>
        <time>2018-06-03T08:05:03.000Z</time>
      </trkpt>
      <trkpt lat="48.17141" lon="-4.04646">
        <ele>46</ele>
        <time>2018-06-03T08:05:05.000Z</time>
      </trkpt>
      <trkpt lat="48.1714" lon="-4.04647">
        <ele>46</ele>
        <time>2018-06-03T08:05:06.000Z</time>
      </trkpt>
      <trkpt lat="48.17131" lon="-4.04657">
        <ele>45.400001525879</ele>
        <time>2018-06-03T08:05:15.000Z</time>
      </trkpt>
      <trkpt lat="48.17128" lon="-4.04659">
        <ele>45.200000762939</ele>
        <time>2018-06-03T08:05:19.000Z</time>
      </trkpt>
      <trkpt lat="48.171" lon="-4.04685">
        <ele>45.400001525879</ele>
        <time>2018-06-03T08:05:54.000Z</time>
      </trkpt>
      <trkpt lat="48.17097" lon="-4.04689">
        <ele>45.799999237061</ele>
        <time>2018-06-03T08:06:00.000Z</time>
      </trkpt>
      <trkpt lat="48.17087" lon="-4.047">
        <ele>46.200000762939</ele>
        <time>2018-06-03T08:06:11.000Z</time>
      </trkpt>
      <trkpt lat="48.17085" lon="-4.04703">
        <ele>46.400001525879</ele>
        <time>2018-06-03T08:06:15.000Z</time>
      </trkpt>
      <trkpt lat="48.17078" lon="-4.04713">
        <ele>46.599998474121</ele>
        <time>2018-06-03T08:06:25.000Z</time>
      </trkpt>
      <trkpt lat="48.17074" lon="-4.04717">
        <ele>46.799999237061</ele>
        <time>2018-06-03T08:06:34.000Z</time>
      </trkpt>
      <trkpt lat="48.17059" lon="-4.0474">
        <ele>46.599998474121</ele>
        <time>2018-06-03T08:06:55.000Z</time>
      </trkpt>
      <trkpt lat="48.17058" lon="-4.04742">
        <ele>46.599998474121</ele>
        <time>2018-06-03T08:06:56.000Z</time>
      </trkpt>
      <trkpt lat="48.17056" lon="-4.04745">
        <ele>46.799999237061</ele>
        <time>2018-06-03T08:06:59.000Z</time>
      </trkpt>
      <trkpt lat="48.17032" lon="-4.04751">
        <ele>48</ele>
        <time>2018-06-03T08:07:24.000Z</time>
      </trkpt>
      <trkpt lat="48.1699" lon="-4.0478">
        <ele>48.400001525879</ele>
        <time>2018-06-03T08:07:55.000Z</time>
      </trkpt>
      <trkpt lat="48.16987" lon="-4.04772">
        <ele>47.799999237061</ele>
        <time>2018-06-03T08:08:00.000Z</time>
      </trkpt>
      <trkpt lat="48.16975" lon="-4.04759">
        <ele>47</ele>
        <time>2018-06-03T08:08:12.000Z</time>
      </trkpt>
      <trkpt lat="48.16972" lon="-4.04759">
        <ele>46.599998474121</ele>
        <time>2018-06-03T08:08:15.000Z</time>
      </trkpt>
      <trkpt lat="48.16959" lon="-4.04763">
        <ele>45.599998474121</ele>
        <time>2018-06-03T08:08:25.000Z</time>
      </trkpt>
      <trkpt lat="48.16945" lon="-4.0477">
        <ele>44.599998474121</ele>
        <time>2018-06-03T08:08:36.000Z</time>
      </trkpt>
      <trkpt lat="48.16933" lon="-4.04775">
        <ele>43.200000762939</ele>
        <time>2018-06-03T08:08:45.000Z</time>
      </trkpt>
      <trkpt lat="48.16924" lon="-4.04778">
        <ele>42.200000762939</ele>
        <time>2018-06-03T08:08:51.000Z</time>
      </trkpt>
      <trkpt lat="48.16907" lon="-4.04785">
        <ele>41</ele>
        <time>2018-06-03T08:09:03.000Z</time>
      </trkpt>
      <trkpt lat="48.16896" lon="-4.04787">
        <ele>39.799999237061</ele>
        <time>2018-06-03T08:09:11.000Z</time>
      </trkpt>
      <trkpt lat="48.16878" lon="-4.04791">
        <ele>38.599998474121</ele>
        <time>2018-06-03T08:09:22.000Z</time>
      </trkpt>
      <trkpt lat="48.16848" lon="-4.04796">
        <ele>37.400001525879</ele>
        <time>2018-06-03T08:09:40.000Z</time>
      </trkpt>
      <trkpt lat="48.16818" lon="-4.04797">
        <ele>36</ele>
        <time>2018-06-03T08:09:56.000Z</time>
      </trkpt>
      <trkpt lat="48.16768" lon="-4.04796">
        <ele>34.599998474121</ele>
        <time>2018-06-03T08:10:20.000Z</time>
      </trkpt>
      <trkpt lat="48.16713" lon="-4.04792">
        <ele>33.799999237061</ele>
        <time>2018-06-03T08:10:44.000Z</time>
      </trkpt>
      <trkpt lat="48.16697" lon="-4.04805">
        <ele>33.200000762939</ele>
        <time>2018-06-03T08:10:51.000Z</time>
      </trkpt>
      <trkpt lat="48.16652" lon="-4.04853">
        <ele>32.599998474121</ele>
        <time>2018-06-03T08:11:22.000Z</time>
      </trkpt>
      <trkpt lat="48.16612" lon="-4.04883">
        <ele>31</ele>
        <time>2018-06-03T08:11:54.000Z</time>
      </trkpt>
      <trkpt lat="48.16589" lon="-4.04906">
        <ele>29.60000038147</ele>
        <time>2018-06-03T08:12:14.000Z</time>
      </trkpt>
      <trkpt lat="48.16554" lon="-4.04924">
        <ele>28</ele>
        <time>2018-06-03T08:12:41.000Z</time>
      </trkpt>
      <trkpt lat="48.16513" lon="-4.04959">
        <ele>26.39999961853</ele>
        <time>2018-06-03T08:13:07.000Z</time>
      </trkpt>
      <trkpt lat="48.1646" lon="-4.04982">
        <ele>25.200000762939</ele>
        <time>2018-06-03T08:13:28.000Z</time>
      </trkpt>
      <trkpt lat="48.16405" lon="-4.04965">
        <ele>25.200000762939</ele>
        <time>2018-06-03T08:13:48.000Z</time>
      </trkpt>
      <trkpt lat="48.1635" lon="-4.04945">
        <ele>25.200000762939</ele>
        <time>2018-06-03T08:14:06.000Z</time>
      </trkpt>
      <trkpt lat="48.16332" lon="-4.05022">
        <ele>25.200000762939</ele>
        <time>2018-06-03T08:14:31.000Z</time>
      </trkpt>
      <trkpt lat="48.16321" lon="-4.05101">
        <ele>24</ele>
        <time>2018-06-03T08:14:58.000Z</time>
      </trkpt>
      <trkpt lat="48.16308" lon="-4.0518">
        <ele>23</ele>
        <time>2018-06-03T08:15:25.000Z</time>
      </trkpt>
      <trkpt lat="48.163" lon="-4.05212">
        <ele>22</ele>
        <time>2018-06-03T08:15:37.000Z</time>
      </trkpt>
      <trkpt lat="48.16283" lon="-4.05256">
        <ele>20.39999961853</ele>
        <time>2018-06-03T08:15:53.000Z</time>
      </trkpt>
      <trkpt lat="48.16262" lon="-4.05297">
        <ele>19</ele>
        <time>2018-06-03T08:16:06.000Z</time>
      </trkpt>
      <trkpt lat="48.16226" lon="-4.05357">
        <ele>17.39999961853</ele>
        <time>2018-06-03T08:16:24.000Z</time>
      </trkpt>
      <trkpt lat="48.16191" lon="-4.05419">
        <ele>16.60000038147</ele>
        <time>2018-06-03T08:16:40.000Z</time>
      </trkpt>
      <trkpt lat="48.16187" lon="-4.05443">
        <ele>16.39999961853</ele>
        <time>2018-06-03T08:16:44.000Z</time>
      </trkpt>
      <trkpt lat="48.16188" lon="-4.05456">
        <ele>16</ele>
        <time>2018-06-03T08:16:46.000Z</time>
      </trkpt>
      <trkpt lat="48.16199" lon="-4.05538">
        <ele>16</ele>
        <time>2018-06-03T08:16:58.000Z</time>
      </trkpt>
      <trkpt lat="48.1621" lon="-4.05622">
        <ele>16.200000762939</ele>
        <time>2018-06-03T08:17:12.000Z</time>
      </trkpt>
      <trkpt lat="48.16212" lon="-4.05639">
        <ele>16.200000762939</ele>
        <time>2018-06-03T08:17:15.000Z</time>
      </trkpt>
      <trkpt lat="48.1622" lon="-4.05693">
        <ele>16.799999237061</ele>
        <time>2018-06-03T08:17:25.000Z</time>
      </trkpt>
      <trkpt lat="48.16226" lon="-4.05748">
        <ele>17.39999961853</ele>
        <time>2018-06-03T08:17:36.000Z</time>
      </trkpt>
      <trkpt lat="48.16217" lon="-4.05831">
        <ele>17</ele>
        <time>2018-06-03T08:17:52.000Z</time>
      </trkpt>
      <trkpt lat="48.16216" lon="-4.05843">
        <ele>17</ele>
        <time>2018-06-03T08:17:54.000Z</time>
      </trkpt>
      <trkpt lat="48.16225" lon="-4.05892">
        <ele>16.60000038147</ele>
        <time>2018-06-03T08:18:02.000Z</time>
      </trkpt>
      <trkpt lat="48.16261" lon="-4.05948">
        <ele>16.200000762939</ele>
        <time>2018-06-03T08:18:14.000Z</time>
      </trkpt>
      <trkpt lat="48.16299" lon="-4.05992">
        <ele>16.799999237061</ele>
        <time>2018-06-03T08:18:25.000Z</time>
      </trkpt>
      <trkpt lat="48.16328" lon="-4.06023">
        <ele>17.60000038147</ele>
        <time>2018-06-03T08:18:33.000Z</time>
      </trkpt>
      <trkpt lat="48.16357" lon="-4.06056">
        <ele>18.200000762939</ele>
        <time>2018-06-03T08:18:41.000Z</time>
      </trkpt>
      <trkpt lat="48.16403" lon="-4.06107">
        <ele>19</ele>
        <time>2018-06-03T08:18:54.000Z</time>
      </trkpt>
      <trkpt lat="48.16417" lon="-4.06122">
        <ele>19</ele>
        <time>2018-06-03T08:18:58.000Z</time>
      </trkpt>
      <trkpt lat="48.16432" lon="-4.06134">
        <ele>19</ele>
        <time>2018-06-03T08:19:02.000Z</time>
      </trkpt>
      <trkpt lat="48.16463" lon="-4.06171">
        <ele>19.200000762939</ele>
        <time>2018-06-03T08:19:13.000Z</time>
      </trkpt>
      <trkpt lat="48.16466" lon="-4.06188">
        <ele>19.39999961853</ele>
        <time>2018-06-03T08:19:16.000Z</time>
      </trkpt>
      <trkpt lat="48.16473" lon="-4.06246">
        <ele>19.799999237061</ele>
        <time>2018-06-03T08:19:27.000Z</time>
      </trkpt>
      <trkpt lat="48.16491" lon="-4.06302">
        <ele>20.200000762939</ele>
        <time>2018-06-03T08:19:43.000Z</time>
      </trkpt>
      <trkpt lat="48.16496" lon="-4.06322">
        <ele>21</ele>
        <time>2018-06-03T08:19:50.000Z</time>
      </trkpt>
      <trkpt lat="48.16498" lon="-4.06335">
        <ele>22</ele>
        <time>2018-06-03T08:19:55.000Z</time>
      </trkpt>
      <trkpt lat="48.16497" lon="-4.06349">
        <ele>22.60000038147</ele>
        <time>2018-06-03T08:20:00.000Z</time>
      </trkpt>
      <trkpt lat="48.16494" lon="-4.06356">
        <ele>22.799999237061</ele>
        <time>2018-06-03T08:20:03.000Z</time>
      </trkpt>
      <trkpt lat="48.16481" lon="-4.06373">
        <ele>23.60000038147</ele>
        <time>2018-06-03T08:20:11.000Z</time>
      </trkpt>
      <trkpt lat="48.1647" lon="-4.06388">
        <ele>24.200000762939</ele>
        <time>2018-06-03T08:20:20.000Z</time>
      </trkpt>
      <trkpt lat="48.16466" lon="-4.06395">
        <ele>24.200000762939</ele>
        <time>2018-06-03T08:20:24.000Z</time>
      </trkpt>
      <trkpt lat="48.16453" lon="-4.0641">
        <ele>25</ele>
        <time>2018-06-03T08:20:32.000Z</time>
      </trkpt>
      <trkpt lat="48.16452" lon="-4.06411">
        <ele>25.200000762939</ele>
        <time>2018-06-03T08:20:33.000Z</time>
      </trkpt>
      <trkpt lat="48.16437" lon="-4.06428">
        <ele>26</ele>
        <time>2018-06-03T08:20:43.000Z</time>
      </trkpt>
      <trkpt lat="48.16425" lon="-4.06445">
        <ele>26.60000038147</ele>
        <time>2018-06-03T08:20:51.000Z</time>
      </trkpt>
      <trkpt lat="48.16417" lon="-4.06465">
        <ele>27.799999237061</ele>
        <time>2018-06-03T08:20:58.000Z</time>
      </trkpt>
      <trkpt lat="48.16415" lon="-4.06472">
        <ele>28</ele>
        <time>2018-06-03T08:21:01.000Z</time>
      </trkpt>
      <trkpt lat="48.16414" lon="-4.06488">
        <ele>28.39999961853</ele>
        <time>2018-06-03T08:21:08.000Z</time>
      </trkpt>
      <trkpt lat="48.16415" lon="-4.0649">
        <ele>28.39999961853</ele>
        <time>2018-06-03T08:21:09.000Z</time>
      </trkpt>
      <trkpt lat="48.1643" lon="-4.06508">
        <ele>29</ele>
        <time>2018-06-03T08:21:21.000Z</time>
      </trkpt>
      <trkpt lat="48.16441" lon="-4.06517">
        <ele>29</ele>
        <time>2018-06-03T08:21:28.000Z</time>
      </trkpt>
      <trkpt lat="48.16456" lon="-4.0653">
        <ele>29.39999961853</ele>
        <time>2018-06-03T08:21:38.000Z</time>
      </trkpt>
      <trkpt lat="48.16471" lon="-4.06547">
        <ele>30</ele>
        <time>2018-06-03T08:21:52.000Z</time>
      </trkpt>
      <trkpt lat="48.16476" lon="-4.06563">
        <ele>30.799999237061</ele>
        <time>2018-06-03T08:22:03.000Z</time>
      </trkpt>
      <trkpt lat="48.16477" lon="-4.0657">
        <ele>31</ele>
        <time>2018-06-03T08:22:06.000Z</time>
      </trkpt>
      <trkpt lat="48.16478" lon="-4.06581">
        <ele>31.39999961853</ele>
        <time>2018-06-03T08:22:11.000Z</time>
      </trkpt>
      <trkpt lat="48.16478" lon="-4.06583">
        <ele>31.39999961853</ele>
        <time>2018-06-03T08:22:12.000Z</time>
      </trkpt>
      <trkpt lat="48.16484" lon="-4.06587">
        <ele>31.799999237061</ele>
        <time>2018-06-03T08:22:19.000Z</time>
      </trkpt>
      <trkpt lat="48.16485" lon="-4.06587">
        <ele>29</ele>
        <time>2018-06-03T08:22:54.000Z</time>
      </trkpt>
      <trkpt lat="48.16488" lon="-4.06582">
        <ele>28.799999237061</ele>
        <time>2018-06-03T08:22:56.000Z</time>
      </trkpt>
      <trkpt lat="48.16522" lon="-4.06539">
        <ele>27.39999961853</ele>
        <time>2018-06-03T08:23:05.000Z</time>
      </trkpt>
      <trkpt lat="48.16545" lon="-4.06514">
        <ele>26</ele>
        <time>2018-06-03T08:23:10.000Z</time>
      </trkpt>
      <trkpt lat="48.16568" lon="-4.06487">
        <ele>24.60000038147</ele>
        <time>2018-06-03T08:23:16.000Z</time>
      </trkpt>
      <trkpt lat="48.16585" lon="-4.06473">
        <ele>24.200000762939</ele>
        <time>2018-06-03T08:23:22.000Z</time>
      </trkpt>
      <trkpt lat="48.16593" lon="-4.06482">
        <ele>24</ele>
        <time>2018-06-03T08:23:27.000Z</time>
      </trkpt>
      <trkpt lat="48.16605" lon="-4.06503">
        <ele>25</ele>
        <time>2018-06-03T08:23:40.000Z</time>
      </trkpt>
      <trkpt lat="48.16616" lon="-4.06524">
        <ele>25.799999237061</ele>
        <time>2018-06-03T08:23:49.000Z</time>
      </trkpt>
      <trkpt lat="48.16625" lon="-4.06544">
        <ele>26.60000038147</ele>
        <time>2018-06-03T08:23:58.000Z</time>
      </trkpt>
      <trkpt lat="48.16634" lon="-4.06559">
        <ele>27.39999961853</ele>
        <time>2018-06-03T08:24:05.000Z</time>
      </trkpt>
      <trkpt lat="48.16646" lon="-4.06581">
        <ele>28.200000762939</ele>
        <time>2018-06-03T08:24:15.000Z</time>
      </trkpt>
      <trkpt lat="48.16657" lon="-4.06599">
        <ele>28.799999237061</ele>
        <time>2018-06-03T08:24:23.000Z</time>
      </trkpt>
      <trkpt lat="48.16659" lon="-4.066">
        <ele>29</ele>
        <time>2018-06-03T08:24:24.000Z</time>
      </trkpt>
      <trkpt lat="48.16668" lon="-4.06616">
        <ele>29.799999237061</ele>
        <time>2018-06-03T08:24:32.000Z</time>
      </trkpt>
      <trkpt lat="48.16676" lon="-4.06642">
        <ele>30.799999237061</ele>
        <time>2018-06-03T08:24:42.000Z</time>
      </trkpt>
      <trkpt lat="48.16675" lon="-4.06644">
        <ele>31</ele>
        <time>2018-06-03T08:24:43.000Z</time>
      </trkpt>
      <trkpt lat="48.16671" lon="-4.06649">
        <ele>31.39999961853</ele>
        <time>2018-06-03T08:24:47.000Z</time>
      </trkpt>
      <trkpt lat="48.16662" lon="-4.06664">
        <ele>31.60000038147</ele>
        <time>2018-06-03T08:24:57.000Z</time>
      </trkpt>
      <trkpt lat="48.16662" lon="-4.06664">
        <ele>30.60000038147</ele>
        <time>2018-06-03T08:25:02.000Z</time>
      </trkpt>
      <trkpt lat="48.16662" lon="-4.06664">
        <ele>30.60000038147</ele>
        <time>2018-06-03T08:25:03.000Z</time>
      </trkpt>
      <trkpt lat="48.16661" lon="-4.06667">
        <ele>28.799999237061</ele>
        <time>2018-06-03T08:25:17.000Z</time>
      </trkpt>
      <trkpt lat="48.16655" lon="-4.06673">
        <ele>27.60000038147</ele>
        <time>2018-06-03T08:25:23.000Z</time>
      </trkpt>
      <trkpt lat="48.16651" lon="-4.0668">
        <ele>26.39999961853</ele>
        <time>2018-06-03T08:25:29.000Z</time>
      </trkpt>
      <trkpt lat="48.16645" lon="-4.06688">
        <ele>25</ele>
        <time>2018-06-03T08:25:36.000Z</time>
      </trkpt>
      <trkpt lat="48.1663" lon="-4.06706">
        <ele>23.39999961853</ele>
        <time>2018-06-03T08:25:53.000Z</time>
      </trkpt>
      <trkpt lat="48.16625" lon="-4.06712">
        <ele>22.799999237061</ele>
        <time>2018-06-03T08:25:59.000Z</time>
      </trkpt>
      <trkpt lat="48.16623" lon="-4.0671">
        <ele>22.60000038147</ele>
        <time>2018-06-03T08:26:02.000Z</time>
      </trkpt>
      <trkpt lat="48.16616" lon="-4.06704">
        <ele>21.60000038147</ele>
        <time>2018-06-03T08:26:09.000Z</time>
      </trkpt>
      <trkpt lat="48.16615" lon="-4.06705">
        <ele>21.60000038147</ele>
        <time>2018-06-03T08:26:11.000Z</time>
      </trkpt>
      <trkpt lat="48.16613" lon="-4.06708">
        <ele>22</ele>
        <time>2018-06-03T08:26:25.000Z</time>
      </trkpt>
      <trkpt lat="48.16617" lon="-4.06726">
        <ele>21.39999961853</ele>
        <time>2018-06-03T08:26:36.000Z</time>
      </trkpt>
      <trkpt lat="48.16626" lon="-4.06753">
        <ele>21.799999237061</ele>
        <time>2018-06-03T08:26:49.000Z</time>
      </trkpt>
      <trkpt lat="48.16627" lon="-4.06757">
        <ele>22</ele>
        <time>2018-06-03T08:26:53.000Z</time>
      </trkpt>
      <trkpt lat="48.1663" lon="-4.06766">
        <ele>23</ele>
        <time>2018-06-03T08:26:58.000Z</time>
      </trkpt>
      <trkpt lat="48.16634" lon="-4.06777">
        <ele>23.799999237061</ele>
        <time>2018-06-03T08:27:04.000Z</time>
      </trkpt>
      <trkpt lat="48.16645" lon="-4.06798">
        <ele>24.60000038147</ele>
        <time>2018-06-03T08:27:16.000Z</time>
      </trkpt>
      <trkpt lat="48.16649" lon="-4.06808">
        <ele>25.39999961853</ele>
        <time>2018-06-03T08:27:20.000Z</time>
      </trkpt>
      <trkpt lat="48.16652" lon="-4.06817">
        <ele>26.39999961853</ele>
        <time>2018-06-03T08:27:25.000Z</time>
      </trkpt>
      <trkpt lat="48.16657" lon="-4.06827">
        <ele>27.200000762939</ele>
        <time>2018-06-03T08:27:31.000Z</time>
      </trkpt>
      <trkpt lat="48.16661" lon="-4.06839">
        <ele>28</ele>
        <time>2018-06-03T08:27:37.000Z</time>
      </trkpt>
      <trkpt lat="48.16665" lon="-4.0685">
        <ele>29</ele>
        <time>2018-06-03T08:27:43.000Z</time>
      </trkpt>
      <trkpt lat="48.16673" lon="-4.06865">
        <ele>30</ele>
        <time>2018-06-03T08:27:52.000Z</time>
      </trkpt>
      <trkpt lat="48.16675" lon="-4.06867">
        <ele>30.39999961853</ele>
        <time>2018-06-03T08:27:53.000Z</time>
      </trkpt>
      <trkpt lat="48.1668" lon="-4.06875">
        <ele>30.799999237061</ele>
        <time>2018-06-03T08:27:57.000Z</time>
      </trkpt>
      <trkpt lat="48.16683" lon="-4.0688">
        <ele>31</ele>
        <time>2018-06-03T08:27:59.000Z</time>
      </trkpt>
      <trkpt lat="48.16694" lon="-4.06903">
        <ele>31.200000762939</ele>
        <time>2018-06-03T08:28:08.000Z</time>
      </trkpt>
      <trkpt lat="48.16695" lon="-4.06905">
        <ele>31.200000762939</ele>
        <time>2018-06-03T08:28:09.000Z</time>
      </trkpt>
      <trkpt lat="48.16696" lon="-4.06908">
        <ele>31.39999961853</ele>
        <time>2018-06-03T08:28:12.000Z</time>
      </trkpt>
      <trkpt lat="48.16718" lon="-4.06949">
        <ele>31.60000038147</ele>
        <time>2018-06-03T08:28:39.000Z</time>
      </trkpt>
      <trkpt lat="48.16724" lon="-4.06957">
        <ele>32</ele>
        <time>2018-06-03T08:28:47.000Z</time>
      </trkpt>
      <trkpt lat="48.16725" lon="-4.06962">
        <ele>32.200000762939</ele>
        <time>2018-06-03T08:28:52.000Z</time>
      </trkpt>
      <trkpt lat="48.16726" lon="-4.06972">
        <ele>32.400001525879</ele>
        <time>2018-06-03T08:28:59.000Z</time>
      </trkpt>
      <trkpt lat="48.16723" lon="-4.06978">
        <ele>32.400001525879</ele>
        <time>2018-06-03T08:29:04.000Z</time>
      </trkpt>
      <trkpt lat="48.16723" lon="-4.0698">
        <ele>32.599998474121</ele>
        <time>2018-06-03T08:29:07.000Z</time>
      </trkpt>
      <trkpt lat="48.16711" lon="-4.06998">
        <ele>32.200000762939</ele>
        <time>2018-06-03T08:29:29.000Z</time>
      </trkpt>
      <trkpt lat="48.16708" lon="-4.07002">
        <ele>32.200000762939</ele>
        <time>2018-06-03T08:29:33.000Z</time>
      </trkpt>
      <trkpt lat="48.16706" lon="-4.07006">
        <ele>33.200000762939</ele>
        <time>2018-06-03T08:29:40.000Z</time>
      </trkpt>
      <trkpt lat="48.16706" lon="-4.07007">
        <ele>33.400001525879</ele>
        <time>2018-06-03T08:29:42.000Z</time>
      </trkpt>
      <trkpt lat="48.16706" lon="-4.07008">
        <ele>33.400001525879</ele>
        <time>2018-06-03T08:29:43.000Z</time>
      </trkpt>
      <trkpt lat="48.16699" lon="-4.07016">
        <ele>33.799999237061</ele>
        <time>2018-06-03T08:29:54.000Z</time>
      </trkpt>
      <trkpt lat="48.1669" lon="-4.0703">
        <ele>34.200000762939</ele>
        <time>2018-06-03T08:30:07.000Z</time>
      </trkpt>
      <trkpt lat="48.16683" lon="-4.07038">
        <ele>35</ele>
        <time>2018-06-03T08:30:14.000Z</time>
      </trkpt>
      <trkpt lat="48.16674" lon="-4.07057">
        <ele>35.799999237061</ele>
        <time>2018-06-03T08:30:26.000Z</time>
      </trkpt>
      <trkpt lat="48.16671" lon="-4.07062">
        <ele>36.200000762939</ele>
        <time>2018-06-03T08:30:29.000Z</time>
      </trkpt>
      <trkpt lat="48.16669" lon="-4.07066">
        <ele>36.400001525879</ele>
        <time>2018-06-03T08:30:32.000Z</time>
      </trkpt>
      <trkpt lat="48.16669" lon="-4.07066">
        <ele>36.599998474121</ele>
        <time>2018-06-03T08:30:33.000Z</time>
      </trkpt>
      <trkpt lat="48.16668" lon="-4.07069">
        <ele>37</ele>
        <time>2018-06-03T08:30:36.000Z</time>
      </trkpt>
      <trkpt lat="48.16664" lon="-4.07077">
        <ele>37</ele>
        <time>2018-06-03T08:30:41.000Z</time>
      </trkpt>
      <trkpt lat="48.16656" lon="-4.07095">
        <ele>37.200000762939</ele>
        <time>2018-06-03T08:30:51.000Z</time>
      </trkpt>
      <trkpt lat="48.16655" lon="-4.07096">
        <ele>37.200000762939</ele>
        <time>2018-06-03T08:30:52.000Z</time>
      </trkpt>
      <trkpt lat="48.16643" lon="-4.07126">
        <ele>35.200000762939</ele>
        <time>2018-06-03T08:31:11.000Z</time>
      </trkpt>
      <trkpt lat="48.16641" lon="-4.07128">
        <ele>35</ele>
        <time>2018-06-03T08:31:15.000Z</time>
      </trkpt>
      <trkpt lat="48.1664" lon="-4.07131">
        <ele>34.599998474121</ele>
        <time>2018-06-03T08:31:18.000Z</time>
      </trkpt>
      <trkpt lat="48.16638" lon="-4.07135">
        <ele>33.799999237061</ele>
        <time>2018-06-03T08:31:34.000Z</time>
      </trkpt>
      <trkpt lat="48.16631" lon="-4.07163">
        <ele>32.200000762939</ele>
        <time>2018-06-03T08:31:46.000Z</time>
      </trkpt>
      <trkpt lat="48.16629" lon="-4.07182">
        <ele>30.799999237061</ele>
        <time>2018-06-03T08:31:53.000Z</time>
      </trkpt>
      <trkpt lat="48.16622" lon="-4.0725">
        <ele>31</ele>
        <time>2018-06-03T08:32:18.000Z</time>
      </trkpt>
      <trkpt lat="48.16579" lon="-4.07293">
        <ele>31.200000762939</ele>
        <time>2018-06-03T08:32:35.000Z</time>
      </trkpt>
      <trkpt lat="48.16563" lon="-4.0737">
        <ele>31.39999961853</ele>
        <time>2018-06-03T08:32:50.000Z</time>
      </trkpt>
      <trkpt lat="48.1656" lon="-4.07407">
        <ele>31.60000038147</ele>
        <time>2018-06-03T08:32:57.000Z</time>
      </trkpt>
      <trkpt lat="48.16547" lon="-4.07463">
        <ele>31.799999237061</ele>
        <time>2018-06-03T08:33:10.000Z</time>
      </trkpt>
      <trkpt lat="48.16524" lon="-4.07542">
        <ele>31.39999961853</ele>
        <time>2018-06-03T08:33:34.000Z</time>
      </trkpt>
      <trkpt lat="48.16475" lon="-4.07533">
        <ele>29</ele>
        <time>2018-06-03T08:33:59.000Z</time>
      </trkpt>
      <trkpt lat="48.16469" lon="-4.07529">
        <ele>29</ele>
        <time>2018-06-03T08:34:02.000Z</time>
      </trkpt>
      <trkpt lat="48.16421" lon="-4.07493">
        <ele>28.200000762939</ele>
        <time>2018-06-03T08:34:26.000Z</time>
      </trkpt>
      <trkpt lat="48.16374" lon="-4.07451">
        <ele>27.60000038147</ele>
        <time>2018-06-03T08:34:48.000Z</time>
      </trkpt>
      <trkpt lat="48.16331" lon="-4.07406">
        <ele>27.39999961853</ele>
        <time>2018-06-03T08:35:05.000Z</time>
      </trkpt>
      <trkpt lat="48.16284" lon="-4.07414">
        <ele>27.60000038147</ele>
        <time>2018-06-03T08:35:23.000Z</time>
      </trkpt>
      <trkpt lat="48.16237" lon="-4.07424">
        <ele>27.799999237061</ele>
        <time>2018-06-03T08:35:43.000Z</time>
      </trkpt>
      <trkpt lat="48.162" lon="-4.07431">
        <ele>28.200000762939</ele>
        <time>2018-06-03T08:36:00.000Z</time>
      </trkpt>
      <trkpt lat="48.1619" lon="-4.07432">
        <ele>29</ele>
        <time>2018-06-03T08:36:05.000Z</time>
      </trkpt>
      <trkpt lat="48.16169" lon="-4.07435">
        <ele>29.39999961853</ele>
        <time>2018-06-03T08:36:16.000Z</time>
      </trkpt>
      <trkpt lat="48.16115" lon="-4.0745">
        <ele>29</ele>
        <time>2018-06-03T08:36:45.000Z</time>
      </trkpt>
      <trkpt lat="48.1606" lon="-4.07459">
        <ele>27.799999237061</ele>
        <time>2018-06-03T08:37:16.000Z</time>
      </trkpt>
      <trkpt lat="48.16059" lon="-4.07459">
        <ele>28</ele>
        <time>2018-06-03T08:37:17.000Z</time>
      </trkpt>
      <trkpt lat="48.16047" lon="-4.07462">
        <ele>28.60000038147</ele>
        <time>2018-06-03T08:37:25.000Z</time>
      </trkpt>
      <trkpt lat="48.16028" lon="-4.07463">
        <ele>29</ele>
        <time>2018-06-03T08:37:36.000Z</time>
      </trkpt>
      <trkpt lat="48.16018" lon="-4.07464">
        <ele>29.799999237061</ele>
        <time>2018-06-03T08:37:42.000Z</time>
      </trkpt>
      <trkpt lat="48.15993" lon="-4.0747">
        <ele>30.39999961853</ele>
        <time>2018-06-03T08:37:55.000Z</time>
      </trkpt>
      <trkpt lat="48.15987" lon="-4.07469">
        <ele>30.799999237061</ele>
        <time>2018-06-03T08:37:58.000Z</time>
      </trkpt>
      <trkpt lat="48.15977" lon="-4.0747">
        <ele>31</ele>
        <time>2018-06-03T08:38:04.000Z</time>
      </trkpt>
      <trkpt lat="48.15969" lon="-4.07468">
        <ele>31.60000038147</ele>
        <time>2018-06-03T08:38:08.000Z</time>
      </trkpt>
      <trkpt lat="48.15964" lon="-4.07467">
        <ele>31.799999237061</ele>
        <time>2018-06-03T08:38:10.000Z</time>
      </trkpt>
      <trkpt lat="48.15948" lon="-4.07475">
        <ele>32.400001525879</ele>
        <time>2018-06-03T08:38:18.000Z</time>
      </trkpt>
      <trkpt lat="48.15941" lon="-4.07478">
        <ele>32.599998474121</ele>
        <time>2018-06-03T08:38:22.000Z</time>
      </trkpt>
      <trkpt lat="48.1594" lon="-4.07479">
        <ele>32.400001525879</ele>
        <time>2018-06-03T08:38:23.000Z</time>
      </trkpt>
      <trkpt lat="48.15927" lon="-4.07481">
        <ele>33</ele>
        <time>2018-06-03T08:38:30.000Z</time>
      </trkpt>
      <trkpt lat="48.15924" lon="-4.07482">
        <ele>33</ele>
        <time>2018-06-03T08:38:31.000Z</time>
      </trkpt>
      <trkpt lat="48.15917" lon="-4.07492">
        <ele>33.599998474121</ele>
        <time>2018-06-03T08:38:36.000Z</time>
      </trkpt>
      <trkpt lat="48.15916" lon="-4.07494">
        <ele>33.799999237061</ele>
        <time>2018-06-03T08:38:37.000Z</time>
      </trkpt>
      <trkpt lat="48.15914" lon="-4.07498">
        <ele>34</ele>
        <time>2018-06-03T08:38:40.000Z</time>
      </trkpt>
      <trkpt lat="48.15912" lon="-4.07499">
        <ele>36.400001525879</ele>
        <time>2018-06-03T08:38:49.000Z</time>
      </trkpt>
      <trkpt lat="48.15912" lon="-4.075">
        <ele>36.799999237061</ele>
        <time>2018-06-03T08:38:54.000Z</time>
      </trkpt>
      <trkpt lat="48.15907" lon="-4.07512">
        <ele>36.599998474121</ele>
        <time>2018-06-03T08:38:59.000Z</time>
      </trkpt>
      <trkpt lat="48.15903" lon="-4.07514">
        <ele>36.599998474121</ele>
        <time>2018-06-03T08:39:01.000Z</time>
      </trkpt>
      <trkpt lat="48.15895" lon="-4.07515">
        <ele>17.60000038147</ele>
        <time>2018-06-03T08:41:46.000Z</time>
      </trkpt>
      <trkpt lat="48.15869" lon="-4.07514">
        <ele>16.39999961853</ele>
        <time>2018-06-03T08:41:56.000Z</time>
      </trkpt>
      <trkpt lat="48.1586" lon="-4.07524">
        <ele>16</ele>
        <time>2018-06-03T08:42:00.000Z</time>
      </trkpt>
      <trkpt lat="48.15839" lon="-4.07573">
        <ele>17.200000762939</ele>
        <time>2018-06-03T08:42:18.000Z</time>
      </trkpt>
      <trkpt lat="48.15835" lon="-4.07592">
        <ele>18</ele>
        <time>2018-06-03T08:42:25.000Z</time>
      </trkpt>
      <trkpt lat="48.15832" lon="-4.07615">
        <ele>18.60000038147</ele>
        <time>2018-06-03T08:42:34.000Z</time>
      </trkpt>
      <trkpt lat="48.15829" lon="-4.07639">
        <ele>19.39999961853</ele>
        <time>2018-06-03T08:42:43.000Z</time>
      </trkpt>
      <trkpt lat="48.15828" lon="-4.07675">
        <ele>19.60000038147</ele>
        <time>2018-06-03T08:42:58.000Z</time>
      </trkpt>
      <trkpt lat="48.15828" lon="-4.077">
        <ele>20</ele>
        <time>2018-06-03T08:43:09.000Z</time>
      </trkpt>
      <trkpt lat="48.15836" lon="-4.07755">
        <ele>20</ele>
        <time>2018-06-03T08:43:34.000Z</time>
      </trkpt>
      <trkpt lat="48.15842" lon="-4.07775">
        <ele>20.39999961853</ele>
        <time>2018-06-03T08:43:44.000Z</time>
      </trkpt>
      <trkpt lat="48.15842" lon="-4.07807">
        <ele>20.799999237061</ele>
        <time>2018-06-03T08:43:58.000Z</time>
      </trkpt>
      <trkpt lat="48.15839" lon="-4.07843">
        <ele>21</ele>
        <time>2018-06-03T08:44:13.000Z</time>
      </trkpt>
      <trkpt lat="48.1584" lon="-4.07861">
        <ele>21.799999237061</ele>
        <time>2018-06-03T08:44:21.000Z</time>
      </trkpt>
      <trkpt lat="48.15841" lon="-4.07882">
        <ele>22.200000762939</ele>
        <time>2018-06-03T08:44:31.000Z</time>
      </trkpt>
      <trkpt lat="48.15843" lon="-4.07902">
        <ele>22.799999237061</ele>
        <time>2018-06-03T08:44:42.000Z</time>
      </trkpt>
      <trkpt lat="48.15847" lon="-4.07953">
        <ele>22.200000762939</ele>
        <time>2018-06-03T08:45:12.000Z</time>
      </trkpt>
      <trkpt lat="48.15848" lon="-4.07958">
        <ele>22.39999961853</ele>
        <time>2018-06-03T08:45:15.000Z</time>
      </trkpt>
      <trkpt lat="48.1585" lon="-4.07976">
        <ele>22.799999237061</ele>
        <time>2018-06-03T08:45:24.000Z</time>
      </trkpt>
      <trkpt lat="48.15863" lon="-4.08056">
        <ele>21.39999961853</ele>
        <time>2018-06-03T08:46:05.000Z</time>
      </trkpt>
      <trkpt lat="48.15874" lon="-4.08118">
        <ele>19.60000038147</ele>
        <time>2018-06-03T08:46:37.000Z</time>
      </trkpt>
      <trkpt lat="48.15888" lon="-4.08197">
        <ele>17.200000762939</ele>
        <time>2018-06-03T08:47:16.000Z</time>
      </trkpt>
      <trkpt lat="48.15895" lon="-4.08236">
        <ele>17.200000762939</ele>
        <time>2018-06-03T08:47:34.000Z</time>
      </trkpt>
      <trkpt lat="48.15901" lon="-4.08267">
        <ele>17.39999961853</ele>
        <time>2018-06-03T08:47:46.000Z</time>
      </trkpt>
      <trkpt lat="48.15931" lon="-4.08311">
        <ele>17</ele>
        <time>2018-06-03T08:48:11.000Z</time>
      </trkpt>
      <trkpt lat="48.15941" lon="-4.08322">
        <ele>17.60000038147</ele>
        <time>2018-06-03T08:48:18.000Z</time>
      </trkpt>
      <trkpt lat="48.15952" lon="-4.08334">
        <ele>18.39999961853</ele>
        <time>2018-06-03T08:48:26.000Z</time>
      </trkpt>
      <trkpt lat="48.15959" lon="-4.08342">
        <ele>19</ele>
        <time>2018-06-03T08:48:31.000Z</time>
      </trkpt>
      <trkpt lat="48.1597" lon="-4.08354">
        <ele>19.799999237061</ele>
        <time>2018-06-03T08:48:39.000Z</time>
      </trkpt>
      <trkpt lat="48.15983" lon="-4.08369">
        <ele>20.39999961853</ele>
        <time>2018-06-03T08:48:48.000Z</time>
      </trkpt>
      <trkpt lat="48.15997" lon="-4.08387">
        <ele>20.799999237061</ele>
        <time>2018-06-03T08:48:58.000Z</time>
      </trkpt>
      <trkpt lat="48.16008" lon="-4.08399">
        <ele>21.60000038147</ele>
        <time>2018-06-03T08:49:05.000Z</time>
      </trkpt>
      <trkpt lat="48.1602" lon="-4.08405">
        <ele>21.799999237061</ele>
        <time>2018-06-03T08:49:12.000Z</time>
      </trkpt>
      <trkpt lat="48.16022" lon="-4.08403">
        <ele>22.39999961853</ele>
        <time>2018-06-03T08:49:36.000Z</time>
      </trkpt>
      <trkpt lat="48.16028" lon="-4.08389">
        <ele>22.39999961853</ele>
        <time>2018-06-03T08:49:42.000Z</time>
      </trkpt>
      <trkpt lat="48.16043" lon="-4.08363">
        <ele>22.799999237061</ele>
        <time>2018-06-03T08:49:53.000Z</time>
      </trkpt>
      <trkpt lat="48.16057" lon="-4.08349">
        <ele>23.39999961853</ele>
        <time>2018-06-03T08:50:01.000Z</time>
      </trkpt>
      <trkpt lat="48.16068" lon="-4.08344">
        <ele>24.200000762939</ele>
        <time>2018-06-03T08:50:07.000Z</time>
      </trkpt>
      <trkpt lat="48.16082" lon="-4.0835">
        <ele>25</ele>
        <time>2018-06-03T08:50:15.000Z</time>
      </trkpt>
      <trkpt lat="48.16087" lon="-4.08361">
        <ele>25.200000762939</ele>
        <time>2018-06-03T08:50:19.000Z</time>
      </trkpt>
      <trkpt lat="48.1609" lon="-4.08363">
        <ele>25.60000038147</ele>
        <time>2018-06-03T08:50:21.000Z</time>
      </trkpt>
      <trkpt lat="48.16096" lon="-4.08332">
        <ele>26.39999961853</ele>
        <time>2018-06-03T08:50:29.000Z</time>
      </trkpt>
      <trkpt lat="48.16108" lon="-4.08328">
        <ele>26.200000762939</ele>
        <time>2018-06-03T08:50:34.000Z</time>
      </trkpt>
      <trkpt lat="48.16119" lon="-4.08331">
        <ele>29.39999961853</ele>
        <time>2018-06-03T08:50:38.000Z</time>
      </trkpt>
      <trkpt lat="48.16122" lon="-4.08331">
        <ele>56.799999237061</ele>
        <time>2018-06-03T08:50:39.000Z</time>
      </trkpt>
      <trkpt lat="48.16125" lon="-4.08331">
        <ele>97.599998474121</ele>
        <time>2018-06-03T08:50:40.000Z</time>
      </trkpt>
      <trkpt lat="48.16128" lon="-4.0833">
        <ele>136.60000610352</ele>
        <time>2018-06-03T08:50:41.000Z</time>
      </trkpt>
      <trkpt lat="48.16131" lon="-4.08328">
        <ele>168.39999389648</ele>
        <time>2018-06-03T08:50:42.000Z</time>
      </trkpt>
      <trkpt lat="48.16133" lon="-4.08326">
        <ele>191.60000610352</ele>
        <time>2018-06-03T08:50:43.000Z</time>
      </trkpt>
      <trkpt lat="48.16135" lon="-4.08324">
        <ele>218.80000305176</ele>
        <time>2018-06-03T08:50:44.000Z</time>
      </trkpt>
      <trkpt lat="48.16138" lon="-4.08322">
        <ele>225.60000610352</ele>
        <time>2018-06-03T08:50:45.000Z</time>
      </trkpt>
      <trkpt lat="48.1614" lon="-4.08319">
        <ele>230</ele>
        <time>2018-06-03T08:50:46.000Z</time>
      </trkpt>
      <trkpt lat="48.16143" lon="-4.08316">
        <ele>232.60000610352</ele>
        <time>2018-06-03T08:50:47.000Z</time>
      </trkpt>
      <trkpt lat="48.16145" lon="-4.08314">
        <ele>234</ele>
        <time>2018-06-03T08:50:48.000Z</time>
      </trkpt>
      <trkpt lat="48.16153" lon="-4.08306">
        <ele>235</ele>
        <time>2018-06-03T08:50:51.000Z</time>
      </trkpt>
      <trkpt lat="48.16157" lon="-4.083">
        <ele>235.19999694824</ele>
        <time>2018-06-03T08:50:53.000Z</time>
      </trkpt>
      <trkpt lat="48.16149" lon="-4.0826">
        <ele>234.60000610352</ele>
        <time>2018-06-03T08:51:01.000Z</time>
      </trkpt>
      <trkpt lat="48.16146" lon="-4.08255">
        <ele>234.19999694824</ele>
        <time>2018-06-03T08:51:02.000Z</time>
      </trkpt>
      <trkpt lat="48.16137" lon="-4.08245">
        <ele>233.39999389648</ele>
        <time>2018-06-03T08:51:06.000Z</time>
      </trkpt>
      <trkpt lat="48.16126" lon="-4.0821">
        <ele>233</ele>
        <time>2018-06-03T08:51:16.000Z</time>
      </trkpt>
      <trkpt lat="48.1614" lon="-4.08175">
        <ele>232.39999389648</ele>
        <time>2018-06-03T08:51:24.000Z</time>
      </trkpt>
      <trkpt lat="48.1615" lon="-4.0817">
        <ele>231.19999694824</ele>
        <time>2018-06-03T08:51:27.000Z</time>
      </trkpt>
      <trkpt lat="48.16157" lon="-4.08171">
        <ele>230.39999389648</ele>
        <time>2018-06-03T08:51:29.000Z</time>
      </trkpt>
      <trkpt lat="48.16161" lon="-4.08171">
        <ele>229.60000610352</ele>
        <time>2018-06-03T08:51:30.000Z</time>
      </trkpt>
      <trkpt lat="48.16164" lon="-4.08172">
        <ele>229</ele>
        <time>2018-06-03T08:51:31.000Z</time>
      </trkpt>
      <trkpt lat="48.16172" lon="-4.08175">
        <ele>227.80000305176</ele>
        <time>2018-06-03T08:51:33.000Z</time>
      </trkpt>
      <trkpt lat="48.1618" lon="-4.08179">
        <ele>227</ele>
        <time>2018-06-03T08:51:35.000Z</time>
      </trkpt>
      <trkpt lat="48.16193" lon="-4.08186">
        <ele>225.60000610352</ele>
        <time>2018-06-03T08:51:38.000Z</time>
      </trkpt>
      <trkpt lat="48.16202" lon="-4.08192">
        <ele>224.19999694824</ele>
        <time>2018-06-03T08:51:40.000Z</time>
      </trkpt>
      <trkpt lat="48.16211" lon="-4.08198">
        <ele>223.19999694824</ele>
        <time>2018-06-03T08:51:42.000Z</time>
      </trkpt>
      <trkpt lat="48.16222" lon="-4.08201">
        <ele>222</ele>
        <time>2018-06-03T08:51:44.000Z</time>
      </trkpt>
      <trkpt lat="48.16233" lon="-4.082">
        <ele>220.80000305176</ele>
        <time>2018-06-03T08:51:46.000Z</time>
      </trkpt>
      <trkpt lat="48.16244" lon="-4.08197">
        <ele>219.60000610352</ele>
        <time>2018-06-03T08:51:48.000Z</time>
      </trkpt>
      <trkpt lat="48.16255" lon="-4.08194">
        <ele>218.60000610352</ele>
        <time>2018-06-03T08:51:50.000Z</time>
      </trkpt>
      <trkpt lat="48.1626" lon="-4.08194">
        <ele>218</ele>
        <time>2018-06-03T08:51:51.000Z</time>
      </trkpt>
      <trkpt lat="48.16265" lon="-4.08194">
        <ele>217.39999389648</ele>
        <time>2018-06-03T08:51:52.000Z</time>
      </trkpt>
      <trkpt lat="48.1627" lon="-4.08196">
        <ele>216</ele>
        <time>2018-06-03T08:51:53.000Z</time>
      </trkpt>
      <trkpt lat="48.16281" lon="-4.082">
        <ele>214.80000305176</ele>
        <time>2018-06-03T08:51:55.000Z</time>
      </trkpt>
      <trkpt lat="48.16291" lon="-4.08206">
        <ele>213.80000305176</ele>
        <time>2018-06-03T08:51:57.000Z</time>
      </trkpt>
      <trkpt lat="48.16301" lon="-4.08212">
        <ele>213</ele>
        <time>2018-06-03T08:51:59.000Z</time>
      </trkpt>
      <trkpt lat="48.16312" lon="-4.08216">
        <ele>211.60000610352</ele>
        <time>2018-06-03T08:52:01.000Z</time>
      </trkpt>
      <trkpt lat="48.16317" lon="-4.08217">
        <ele>211.39999389648</ele>
        <time>2018-06-03T08:52:02.000Z</time>
      </trkpt>
      <trkpt lat="48.16329" lon="-4.08219">
        <ele>210.60000610352</ele>
        <time>2018-06-03T08:52:04.000Z</time>
      </trkpt>
      <trkpt lat="48.16345" lon="-4.0822">
        <ele>209.60000610352</ele>
        <time>2018-06-03T08:52:07.000Z</time>
      </trkpt>
      <trkpt lat="48.16355" lon="-4.08219">
        <ele>209</ele>
        <time>2018-06-03T08:52:09.000Z</time>
      </trkpt>
      <trkpt lat="48.16361" lon="-4.08218">
        <ele>208.80000305176</ele>
        <time>2018-06-03T08:52:10.000Z</time>
      </trkpt>
      <trkpt lat="48.16386" lon="-4.0821">
        <ele>208.39999389648</ele>
        <time>2018-06-03T08:52:15.000Z</time>
      </trkpt>
      <trkpt lat="48.16409" lon="-4.08215">
        <ele>208.60000610352</ele>
        <time>2018-06-03T08:52:23.000Z</time>
      </trkpt>
      <trkpt lat="48.16411" lon="-4.08251">
        <ele>209</ele>
        <time>2018-06-03T08:52:33.000Z</time>
      </trkpt>
      <trkpt lat="48.16411" lon="-4.08252">
        <ele>208.60000610352</ele>
        <time>2018-06-03T08:52:35.000Z</time>
      </trkpt>
      <trkpt lat="48.16412" lon="-4.08252">
        <ele>207.80000305176</ele>
        <time>2018-06-03T08:52:37.000Z</time>
      </trkpt>
      <trkpt lat="48.16414" lon="-4.08253">
        <ele>207.39999389648</ele>
        <time>2018-06-03T08:52:41.000Z</time>
      </trkpt>
      <trkpt lat="48.16415" lon="-4.0825">
        <ele>207.39999389648</ele>
        <time>2018-06-03T08:52:44.000Z</time>
      </trkpt>
      <trkpt lat="48.16417" lon="-4.08243">
        <ele>207</ele>
        <time>2018-06-03T08:52:49.000Z</time>
      </trkpt>
      <trkpt lat="48.16427" lon="-4.08229">
        <ele>207.19999694824</ele>
        <time>2018-06-03T08:52:56.000Z</time>
      </trkpt>
      <trkpt lat="48.16428" lon="-4.08225">
        <ele>207.19999694824</ele>
        <time>2018-06-03T08:52:58.000Z</time>
      </trkpt>
      <trkpt lat="48.16431" lon="-4.08219">
        <ele>207.19999694824</ele>
        <time>2018-06-03T08:53:01.000Z</time>
      </trkpt>
      <trkpt lat="48.16441" lon="-4.08215">
        <ele>208</ele>
        <time>2018-06-03T08:53:06.000Z</time>
      </trkpt>
      <trkpt lat="48.16492" lon="-4.0818">
        <ele>209.39999389648</ele>
        <time>2018-06-03T08:53:24.000Z</time>
      </trkpt>
      <trkpt lat="48.16536" lon="-4.08162">
        <ele>210</ele>
        <time>2018-06-03T08:53:38.000Z</time>
      </trkpt>
      <trkpt lat="48.16556" lon="-4.08156">
        <ele>209.60000610352</ele>
        <time>2018-06-03T08:53:45.000Z</time>
      </trkpt>
      <trkpt lat="48.16563" lon="-4.0815">
        <ele>209.60000610352</ele>
        <time>2018-06-03T08:53:49.000Z</time>
      </trkpt>
      <trkpt lat="48.1656" lon="-4.08143">
        <ele>209.60000610352</ele>
        <time>2018-06-03T08:53:53.000Z</time>
      </trkpt>
      <trkpt lat="48.16557" lon="-4.08143">
        <ele>209.39999389648</ele>
        <time>2018-06-03T08:53:55.000Z</time>
      </trkpt>
      <trkpt lat="48.16553" lon="-4.08143">
        <ele>209.39999389648</ele>
        <time>2018-06-03T08:53:57.000Z</time>
      </trkpt>
      <trkpt lat="48.16539" lon="-4.08147">
        <ele>209.39999389648</ele>
        <time>2018-06-03T08:54:08.000Z</time>
      </trkpt>
      <trkpt lat="48.1653" lon="-4.0815">
        <ele>208.80000305176</ele>
        <time>2018-06-03T08:54:16.000Z</time>
      </trkpt>
      <trkpt lat="48.16523" lon="-4.08151">
        <ele>208.19999694824</ele>
        <time>2018-06-03T08:54:22.000Z</time>
      </trkpt>
      <trkpt lat="48.16511" lon="-4.08155">
        <ele>208</ele>
        <time>2018-06-03T08:54:32.000Z</time>
      </trkpt>
      <trkpt lat="48.16503" lon="-4.08156">
        <ele>207.60000610352</ele>
        <time>2018-06-03T08:54:40.000Z</time>
      </trkpt>
      <trkpt lat="48.16496" lon="-4.08157">
        <ele>206.80000305176</ele>
        <time>2018-06-03T08:54:46.000Z</time>
      </trkpt>
      <trkpt lat="48.16491" lon="-4.08158">
        <ele>206</ele>
        <time>2018-06-03T08:54:51.000Z</time>
      </trkpt>
      <trkpt lat="48.1649" lon="-4.08158">
        <ele>206.19999694824</ele>
        <time>2018-06-03T08:54:52.000Z</time>
      </trkpt>
      <trkpt lat="48.16471" lon="-4.08164">
        <ele>206.39999389648</ele>
        <time>2018-06-03T08:55:11.000Z</time>
      </trkpt>
      <trkpt lat="48.16463" lon="-4.08164">
        <ele>206.60000610352</ele>
        <time>2018-06-03T08:55:18.000Z</time>
      </trkpt>
      <trkpt lat="48.16458" lon="-4.08159">
        <ele>207</ele>
        <time>2018-06-03T08:55:24.000Z</time>
      </trkpt>
      <trkpt lat="48.16452" lon="-4.0815">
        <ele>207.60000610352</ele>
        <time>2018-06-03T08:55:30.000Z</time>
      </trkpt>
      <trkpt lat="48.16449" lon="-4.08135">
        <ele>208</ele>
        <time>2018-06-03T08:55:38.000Z</time>
      </trkpt>
      <trkpt lat="48.16452" lon="-4.08111">
        <ele>208.39999389648</ele>
        <time>2018-06-03T08:55:46.000Z</time>
      </trkpt>
      <trkpt lat="48.16448" lon="-4.08105">
        <ele>208.60000610352</ele>
        <time>2018-06-03T08:55:50.000Z</time>
      </trkpt>
      <trkpt lat="48.16448" lon="-4.08105">
        <ele>208.80000305176</ele>
        <time>2018-06-03T08:55:53.000Z</time>
      </trkpt>
      <trkpt lat="48.16447" lon="-4.08106">
        <ele>209</ele>
        <time>2018-06-03T08:55:56.000Z</time>
      </trkpt>
      <trkpt lat="48.16444" lon="-4.08118">
        <ele>209.19999694824</ele>
        <time>2018-06-03T08:56:05.000Z</time>
      </trkpt>
      <trkpt lat="48.16445" lon="-4.0812">
        <ele>209.19999694824</ele>
        <time>2018-06-03T08:56:06.000Z</time>
      </trkpt>
      <trkpt lat="48.16446" lon="-4.08126">
        <ele>209.19999694824</ele>
        <time>2018-06-03T08:56:09.000Z</time>
      </trkpt>
      <trkpt lat="48.16439" lon="-4.08122">
        <ele>209.60000610352</ele>
        <time>2018-06-03T08:56:23.000Z</time>
      </trkpt>
      <trkpt lat="48.16436" lon="-4.08104">
        <ele>209.80000305176</ele>
        <time>2018-06-03T08:56:30.000Z</time>
      </trkpt>
      <trkpt lat="48.16428" lon="-4.08088">
        <ele>210.19999694824</ele>
        <time>2018-06-03T08:56:36.000Z</time>
      </trkpt>
      <trkpt lat="48.16419" lon="-4.08062">
        <ele>210.60000610352</ele>
        <time>2018-06-03T08:56:44.000Z</time>
      </trkpt>
      <trkpt lat="48.16421" lon="-4.08055">
        <ele>210.80000305176</ele>
        <time>2018-06-03T08:56:46.000Z</time>
      </trkpt>
      <trkpt lat="48.16432" lon="-4.08051">
        <ele>210.60000610352</ele>
        <time>2018-06-03T08:56:51.000Z</time>
      </trkpt>
      <trkpt lat="48.16456" lon="-4.08046">
        <ele>210.39999389648</ele>
        <time>2018-06-03T08:56:59.000Z</time>
      </trkpt>
      <trkpt lat="48.16486" lon="-4.08052">
        <ele>210</ele>
        <time>2018-06-03T08:57:08.000Z</time>
      </trkpt>
      <trkpt lat="48.16496" lon="-4.08049">
        <ele>209.39999389648</ele>
        <time>2018-06-03T08:57:11.000Z</time>
      </trkpt>
      <trkpt lat="48.165" lon="-4.08048">
        <ele>209</ele>
        <time>2018-06-03T08:57:12.000Z</time>
      </trkpt>
      <trkpt lat="48.16513" lon="-4.08046">
        <ele>208.19999694824</ele>
        <time>2018-06-03T08:57:15.000Z</time>
      </trkpt>
      <trkpt lat="48.16516" lon="-4.08045">
        <ele>208</ele>
        <time>2018-06-03T08:57:16.000Z</time>
      </trkpt>
      <trkpt lat="48.16535" lon="-4.08035">
        <ele>207.39999389648</ele>
        <time>2018-06-03T08:57:22.000Z</time>
      </trkpt>
      <trkpt lat="48.16549" lon="-4.08034">
        <ele>207.19999694824</ele>
        <time>2018-06-03T08:57:26.000Z</time>
      </trkpt>
      <trkpt lat="48.16555" lon="-4.08033">
        <ele>206.60000610352</ele>
        <time>2018-06-03T08:57:28.000Z</time>
      </trkpt>
      <trkpt lat="48.16564" lon="-4.08036">
        <ele>205.80000305176</ele>
        <time>2018-06-03T08:57:31.000Z</time>
      </trkpt>
      <trkpt lat="48.16567" lon="-4.08035">
        <ele>205.60000610352</ele>
        <time>2018-06-03T08:57:32.000Z</time>
      </trkpt>
      <trkpt lat="48.16584" lon="-4.08037">
        <ele>205.19999694824</ele>
        <time>2018-06-03T08:57:37.000Z</time>
      </trkpt>
      <trkpt lat="48.16587" lon="-4.08039">
        <ele>205</ele>
        <time>2018-06-03T08:57:38.000Z</time>
      </trkpt>
      <trkpt lat="48.16605" lon="-4.08046">
        <ele>204.19999694824</ele>
        <time>2018-06-03T08:57:44.000Z</time>
      </trkpt>
      <trkpt lat="48.16616" lon="-4.08042">
        <ele>203.39999389648</ele>
        <time>2018-06-03T08:57:47.000Z</time>
      </trkpt>
      <trkpt lat="48.16629" lon="-4.08032">
        <ele>202.39999389648</ele>
        <time>2018-06-03T08:57:51.000Z</time>
      </trkpt>
      <trkpt lat="48.16639" lon="-4.08028">
        <ele>201.60000610352</ele>
        <time>2018-06-03T08:57:54.000Z</time>
      </trkpt>
      <trkpt lat="48.16649" lon="-4.08022">
        <ele>200.80000305176</ele>
        <time>2018-06-03T08:57:58.000Z</time>
      </trkpt>
      <trkpt lat="48.16662" lon="-4.08004">
        <ele>200</ele>
        <time>2018-06-03T08:58:05.000Z</time>
      </trkpt>
      <trkpt lat="48.16666" lon="-4.07993">
        <ele>199.39999389648</ele>
        <time>2018-06-03T08:58:08.000Z</time>
      </trkpt>
      <trkpt lat="48.16672" lon="-4.07989">
        <ele>199.39999389648</ele>
        <time>2018-06-03T08:58:10.000Z</time>
      </trkpt>
      <trkpt lat="48.16714" lon="-4.07969">
        <ele>198.80000305176</ele>
        <time>2018-06-03T08:58:19.000Z</time>
      </trkpt>
      <trkpt lat="48.16759" lon="-4.07951">
        <ele>198.60000610352</ele>
        <time>2018-06-03T08:58:28.000Z</time>
      </trkpt>
      <trkpt lat="48.16796" lon="-4.07933">
        <ele>197.80000305176</ele>
        <time>2018-06-03T08:58:35.000Z</time>
      </trkpt>
      <trkpt lat="48.1681" lon="-4.07925">
        <ele>196.60000610352</ele>
        <time>2018-06-03T08:58:38.000Z</time>
      </trkpt>
      <trkpt lat="48.16825" lon="-4.07917">
        <ele>195.80000305176</ele>
        <time>2018-06-03T08:58:41.000Z</time>
      </trkpt>
      <trkpt lat="48.16838" lon="-4.07908">
        <ele>195.19999694824</ele>
        <time>2018-06-03T08:58:44.000Z</time>
      </trkpt>
      <trkpt lat="48.16852" lon="-4.07889">
        <ele>194</ele>
        <time>2018-06-03T08:58:48.000Z</time>
      </trkpt>
      <trkpt lat="48.16861" lon="-4.07872">
        <ele>193.39999389648</ele>
        <time>2018-06-03T08:58:51.000Z</time>
      </trkpt>
      <trkpt lat="48.16869" lon="-4.07855">
        <ele>192.19999694824</ele>
        <time>2018-06-03T08:58:54.000Z</time>
      </trkpt>
      <trkpt lat="48.16878" lon="-4.07847">
        <ele>191.60000610352</ele>
        <time>2018-06-03T08:58:57.000Z</time>
      </trkpt>
      <trkpt lat="48.16882" lon="-4.07848">
        <ele>191.19999694824</ele>
        <time>2018-06-03T08:58:58.000Z</time>
      </trkpt>
      <trkpt lat="48.16894" lon="-4.07863">
        <ele>190.60000610352</ele>
        <time>2018-06-03T08:59:02.000Z</time>
      </trkpt>
      <trkpt lat="48.16909" lon="-4.07889">
        <ele>190</ele>
        <time>2018-06-03T08:59:07.000Z</time>
      </trkpt>
      <trkpt lat="48.1693" lon="-4.07923">
        <ele>189.19999694824</ele>
        <time>2018-06-03T08:59:13.000Z</time>
      </trkpt>
      <trkpt lat="48.16944" lon="-4.07947">
        <ele>188.19999694824</ele>
        <time>2018-06-03T08:59:17.000Z</time>
      </trkpt>
      <trkpt lat="48.16954" lon="-4.07964">
        <ele>187.19999694824</ele>
        <time>2018-06-03T08:59:20.000Z</time>
      </trkpt>
      <trkpt lat="48.16964" lon="-4.07981">
        <ele>186.19999694824</ele>
        <time>2018-06-03T08:59:23.000Z</time>
      </trkpt>
      <trkpt lat="48.16974" lon="-4.07998">
        <ele>185.39999389648</ele>
        <time>2018-06-03T08:59:26.000Z</time>
      </trkpt>
      <trkpt lat="48.16986" lon="-4.0802">
        <ele>184.39999389648</ele>
        <time>2018-06-03T08:59:30.000Z</time>
      </trkpt>
      <trkpt lat="48.17" lon="-4.08042">
        <ele>183.80000305176</ele>
        <time>2018-06-03T08:59:34.000Z</time>
      </trkpt>
      <trkpt lat="48.17024" lon="-4.08078">
        <ele>183.19999694824</ele>
        <time>2018-06-03T08:59:40.000Z</time>
      </trkpt>
      <trkpt lat="48.17028" lon="-4.08084">
        <ele>183.39999389648</ele>
        <time>2018-06-03T08:59:41.000Z</time>
      </trkpt>
      <trkpt lat="48.17047" lon="-4.08114">
        <ele>182.39999389648</ele>
        <time>2018-06-03T08:59:46.000Z</time>
      </trkpt>
      <trkpt lat="48.17054" lon="-4.08124">
        <ele>182</ele>
        <time>2018-06-03T08:59:48.000Z</time>
      </trkpt>
      <trkpt lat="48.17063" lon="-4.0814">
        <ele>181.60000610352</ele>
        <time>2018-06-03T08:59:51.000Z</time>
      </trkpt>
      <trkpt lat="48.17073" lon="-4.08162">
        <ele>181.39999389648</ele>
        <time>2018-06-03T08:59:55.000Z</time>
      </trkpt>
      <trkpt lat="48.17075" lon="-4.08167">
        <ele>181.19999694824</ele>
        <time>2018-06-03T08:59:56.000Z</time>
      </trkpt>
      <trkpt lat="48.17081" lon="-4.08177">
        <ele>181</ele>
        <time>2018-06-03T08:59:58.000Z</time>
      </trkpt>
      <trkpt lat="48.17084" lon="-4.08181">
        <ele>181</ele>
        <time>2018-06-03T08:59:59.000Z</time>
      </trkpt>
      <trkpt lat="48.17095" lon="-4.08193">
        <ele>180.80000305176</ele>
        <time>2018-06-03T09:00:02.000Z</time>
      </trkpt>
      <trkpt lat="48.17119" lon="-4.082">
        <ele>180.60000610352</ele>
        <time>2018-06-03T09:00:07.000Z</time>
      </trkpt>
      <trkpt lat="48.17124" lon="-4.08199">
        <ele>180.60000610352</ele>
        <time>2018-06-03T09:00:08.000Z</time>
      </trkpt>
      <trkpt lat="48.17151" lon="-4.08192">
        <ele>180</ele>
        <time>2018-06-03T09:00:12.000Z</time>
      </trkpt>
      <trkpt lat="48.17174" lon="-4.08191">
        <ele>179.19999694824</ele>
        <time>2018-06-03T09:00:15.000Z</time>
      </trkpt>
      <trkpt lat="48.17196" lon="-4.08191">
        <ele>178.19999694824</ele>
        <time>2018-06-03T09:00:18.000Z</time>
      </trkpt>
      <trkpt lat="48.17238" lon="-4.08192">
        <ele>177.39999389648</ele>
        <time>2018-06-03T09:00:24.000Z</time>
      </trkpt>
      <trkpt lat="48.1725" lon="-4.08192">
        <ele>176.60000610352</ele>
        <time>2018-06-03T09:00:26.000Z</time>
      </trkpt>
      <trkpt lat="48.17265" lon="-4.08192">
        <ele>175.39999389648</ele>
        <time>2018-06-03T09:00:29.000Z</time>
      </trkpt>
      <trkpt lat="48.17284" lon="-4.08193">
        <ele>174.60000610352</ele>
        <time>2018-06-03T09:00:34.000Z</time>
      </trkpt>
      <trkpt lat="48.17291" lon="-4.08207">
        <ele>173.60000610352</ele>
        <time>2018-06-03T09:00:39.000Z</time>
      </trkpt>
      <trkpt lat="48.1729" lon="-4.08215">
        <ele>173.39999389648</ele>
        <time>2018-06-03T09:00:43.000Z</time>
      </trkpt>
      <trkpt lat="48.17287" lon="-4.08219">
        <ele>170.80000305176</ele>
        <time>2018-06-03T09:01:04.000Z</time>
      </trkpt>
      <trkpt lat="48.17283" lon="-4.08227">
        <ele>169.60000610352</ele>
        <time>2018-06-03T09:01:07.000Z</time>
      </trkpt>
      <trkpt lat="48.1728" lon="-4.08234">
        <ele>168.80000305176</ele>
        <time>2018-06-03T09:01:09.000Z</time>
      </trkpt>
      <trkpt lat="48.17276" lon="-4.08242">
        <ele>167.39999389648</ele>
        <time>2018-06-03T09:01:12.000Z</time>
      </trkpt>
      <trkpt lat="48.17272" lon="-4.08248">
        <ele>155.39999389648</ele>
        <time>2018-06-03T09:01:48.000Z</time>
      </trkpt>
      <trkpt lat="48.17268" lon="-4.08255">
        <ele>154.39999389648</ele>
        <time>2018-06-03T09:01:51.000Z</time>
      </trkpt>
      <trkpt lat="48.17257" lon="-4.08269">
        <ele>153.60000610352</ele>
        <time>2018-06-03T09:01:56.000Z</time>
      </trkpt>
      <trkpt lat="48.1724" lon="-4.08291">
        <ele>152.39999389648</ele>
        <time>2018-06-03T09:02:01.000Z</time>
      </trkpt>
      <trkpt lat="48.17231" lon="-4.08302">
        <ele>151.19999694824</ele>
        <time>2018-06-03T09:02:03.000Z</time>
      </trkpt>
      <trkpt lat="48.17221" lon="-4.08315">
        <ele>149.60000610352</ele>
        <time>2018-06-03T09:02:05.000Z</time>
      </trkpt>
      <trkpt lat="48.17209" lon="-4.0833">
        <ele>148.39999389648</ele>
        <time>2018-06-03T09:02:07.000Z</time>
      </trkpt>
      <trkpt lat="48.17196" lon="-4.08345">
        <ele>146.80000305176</ele>
        <time>2018-06-03T09:02:09.000Z</time>
      </trkpt>
      <trkpt lat="48.17176" lon="-4.0837">
        <ele>145.80000305176</ele>
        <time>2018-06-03T09:02:12.000Z</time>
      </trkpt>
      <trkpt lat="48.17156" lon="-4.08394">
        <ele>145.19999694824</ele>
        <time>2018-06-03T09:02:15.000Z</time>
      </trkpt>
      <trkpt lat="48.17111" lon="-4.08452">
        <ele>147.19999694824</ele>
        <time>2018-06-03T09:02:31.000Z</time>
      </trkpt>
      <trkpt lat="48.17103" lon="-4.08462">
        <ele>148.80000305176</ele>
        <time>2018-06-03T09:02:36.000Z</time>
      </trkpt>
      <trkpt lat="48.17074" lon="-4.08497">
        <ele>149</ele>
        <time>2018-06-03T09:02:56.000Z</time>
      </trkpt>
      <trkpt lat="48.17069" lon="-4.08504">
        <ele>148.19999694824</ele>
        <time>2018-06-03T09:03:00.000Z</time>
      </trkpt>
      <trkpt lat="48.17063" lon="-4.0851">
        <ele>147.19999694824</ele>
        <time>2018-06-03T09:03:04.000Z</time>
      </trkpt>
      <trkpt lat="48.17058" lon="-4.08517">
        <ele>146.39999389648</ele>
        <time>2018-06-03T09:03:08.000Z</time>
      </trkpt>
      <trkpt lat="48.17052" lon="-4.08524">
        <ele>145.39999389648</ele>
        <time>2018-06-03T09:03:12.000Z</time>
      </trkpt>
      <trkpt lat="48.17046" lon="-4.08532">
        <ele>144.39999389648</ele>
        <time>2018-06-03T09:03:17.000Z</time>
      </trkpt>
      <trkpt lat="48.17033" lon="-4.08554">
        <ele>144</ele>
        <time>2018-06-03T09:03:28.000Z</time>
      </trkpt>
      <trkpt lat="48.1702" lon="-4.08584">
        <ele>143.60000610352</ele>
        <time>2018-06-03T09:03:39.000Z</time>
      </trkpt>
      <trkpt lat="48.17007" lon="-4.08617">
        <ele>143</ele>
        <time>2018-06-03T09:03:48.000Z</time>
      </trkpt>
      <trkpt lat="48.16977" lon="-4.08689">
        <ele>143</ele>
        <time>2018-06-03T09:04:06.000Z</time>
      </trkpt>
      <trkpt lat="48.16971" lon="-4.08731">
        <ele>142.80000305176</ele>
        <time>2018-06-03T09:04:18.000Z</time>
      </trkpt>
      <trkpt lat="48.16975" lon="-4.08771">
        <ele>142.19999694824</ele>
        <time>2018-06-03T09:04:31.000Z</time>
      </trkpt>
      <trkpt lat="48.16979" lon="-4.08783">
        <ele>141.60000610352</ele>
        <time>2018-06-03T09:04:35.000Z</time>
      </trkpt>
      <trkpt lat="48.17" lon="-4.0882">
        <ele>141.19999694824</ele>
        <time>2018-06-03T09:04:49.000Z</time>
      </trkpt>
      <trkpt lat="48.17015" lon="-4.08841">
        <ele>140.19999694824</ele>
        <time>2018-06-03T09:04:56.000Z</time>
      </trkpt>
      <trkpt lat="48.17023" lon="-4.0885">
        <ele>139.19999694824</ele>
        <time>2018-06-03T09:04:59.000Z</time>
      </trkpt>
      <trkpt lat="48.17036" lon="-4.08861">
        <ele>138.19999694824</ele>
        <time>2018-06-03T09:05:03.000Z</time>
      </trkpt>
      <trkpt lat="48.1705" lon="-4.0887">
        <ele>137.39999389648</ele>
        <time>2018-06-03T09:05:07.000Z</time>
      </trkpt>
      <trkpt lat="48.17093" lon="-4.08893">
        <ele>136.80000305176</ele>
        <time>2018-06-03T09:05:17.000Z</time>
      </trkpt>
      <trkpt lat="48.17148" lon="-4.0892">
        <ele>138.19999694824</ele>
        <time>2018-06-03T09:05:34.000Z</time>
      </trkpt>
      <trkpt lat="48.1715" lon="-4.08921">
        <ele>138.80000305176</ele>
        <time>2018-06-03T09:05:35.000Z</time>
      </trkpt>
      <trkpt lat="48.17161" lon="-4.08926">
        <ele>140.19999694824</ele>
        <time>2018-06-03T09:05:41.000Z</time>
      </trkpt>
      <trkpt lat="48.17163" lon="-4.0893">
        <ele>140.60000610352</ele>
        <time>2018-06-03T09:05:43.000Z</time>
      </trkpt>
      <trkpt lat="48.17166" lon="-4.08935">
        <ele>141.19999694824</ele>
        <time>2018-06-03T09:05:46.000Z</time>
      </trkpt>
      <trkpt lat="48.17167" lon="-4.08936">
        <ele>141.39999389648</ele>
        <time>2018-06-03T09:05:47.000Z</time>
      </trkpt>
      <trkpt lat="48.17168" lon="-4.08936">
        <ele>141.60000610352</ele>
        <time>2018-06-03T09:05:48.000Z</time>
      </trkpt>
      <trkpt lat="48.17167" lon="-4.08938">
        <ele>143.60000610352</ele>
        <time>2018-06-03T09:05:54.000Z</time>
      </trkpt>
      <trkpt lat="48.17168" lon="-4.08939">
        <ele>144.39999389648</ele>
        <time>2018-06-03T09:05:56.000Z</time>
      </trkpt>
      <trkpt lat="48.17168" lon="-4.08939">
        <ele>145.39999389648</ele>
        <time>2018-06-03T09:05:59.000Z</time>
      </trkpt>
      <trkpt lat="48.17168" lon="-4.08939">
        <ele>145.39999389648</ele>
        <time>2018-06-03T09:06:00.000Z</time>
      </trkpt>
      <trkpt lat="48.17168" lon="-4.0894">
        <ele>146.39999389648</ele>
        <time>2018-06-03T09:06:13.000Z</time>
      </trkpt>
      <trkpt lat="48.17168" lon="-4.0894">
        <ele>146.80000305176</ele>
        <time>2018-06-03T09:06:17.000Z</time>
      </trkpt>
      <trkpt lat="48.17168" lon="-4.08939">
        <ele>147.60000610352</ele>
        <time>2018-06-03T09:06:20.000Z</time>
      </trkpt>
      <trkpt lat="48.17168" lon="-4.08939">
        <ele>149.39999389648</ele>
        <time>2018-06-03T09:06:35.000Z</time>
      </trkpt>
      <trkpt lat="48.17168" lon="-4.0894">
        <ele>150.80000305176</ele>
        <time>2018-06-03T09:06:41.000Z</time>
      </trkpt>
      <trkpt lat="48.17169" lon="-4.08941">
        <ele>152</ele>
        <time>2018-06-03T09:06:46.000Z</time>
      </trkpt>
      <trkpt lat="48.17169" lon="-4.08941">
        <ele>153.80000305176</ele>
        <time>2018-06-03T09:06:55.000Z</time>
      </trkpt>
      <trkpt lat="48.17169" lon="-4.08941">
        <ele>155</ele>
        <time>2018-06-03T09:07:00.000Z</time>
      </trkpt>
      <trkpt lat="48.17169" lon="-4.08941">
        <ele>156.39999389648</ele>
        <time>2018-06-03T09:07:06.000Z</time>
      </trkpt>
      <trkpt lat="48.17169" lon="-4.08942">
        <ele>157.80000305176</ele>
        <time>2018-06-03T09:07:12.000Z</time>
      </trkpt>
      <trkpt lat="48.17169" lon="-4.08942">
        <ele>159.39999389648</ele>
        <time>2018-06-03T09:07:20.000Z</time>
      </trkpt>
      <trkpt lat="48.17169" lon="-4.08943">
        <ele>160.80000305176</ele>
        <time>2018-06-03T09:07:29.000Z</time>
      </trkpt>
      <trkpt lat="48.1717" lon="-4.08944">
        <ele>162.39999389648</ele>
        <time>2018-06-03T09:07:38.000Z</time>
      </trkpt>
      <trkpt lat="48.17175" lon="-4.08965">
        <ele>163.80000305176</ele>
        <time>2018-06-03T09:07:50.000Z</time>
      </trkpt>
      <trkpt lat="48.17176" lon="-4.08974">
        <ele>164.39999389648</ele>
        <time>2018-06-03T09:07:53.000Z</time>
      </trkpt>
      <trkpt lat="48.17208" lon="-4.09067">
        <ele>166.60000610352</ele>
        <time>2018-06-03T09:08:21.000Z</time>
      </trkpt>
      <trkpt lat="48.17213" lon="-4.09088">
        <ele>166.60000610352</ele>
        <time>2018-06-03T09:08:26.000Z</time>
      </trkpt>
      <trkpt lat="48.1722" lon="-4.09113">
        <ele>167.60000610352</ele>
        <time>2018-06-03T09:08:31.000Z</time>
      </trkpt>
      <trkpt lat="48.17221" lon="-4.0912">
        <ele>168.19999694824</ele>
        <time>2018-06-03T09:08:33.000Z</time>
      </trkpt>
      <trkpt lat="48.17232" lon="-4.09153">
        <ele>169.60000610352</ele>
        <time>2018-06-03T09:08:40.000Z</time>
      </trkpt>
      <trkpt lat="48.17246" lon="-4.09208">
        <ele>171.19999694824</ele>
        <time>2018-06-03T09:08:54.000Z</time>
      </trkpt>
      <trkpt lat="48.17249" lon="-4.09217">
        <ele>171.80000305176</ele>
        <time>2018-06-03T09:08:59.000Z</time>
      </trkpt>
      <trkpt lat="48.17246" lon="-4.09274">
        <ele>174</ele>
        <time>2018-06-03T09:09:25.000Z</time>
      </trkpt>
      <trkpt lat="48.17237" lon="-4.09299">
        <ele>175.80000305176</ele>
        <time>2018-06-03T09:09:37.000Z</time>
      </trkpt>
      <trkpt lat="48.17231" lon="-4.09325">
        <ele>177.80000305176</ele>
        <time>2018-06-03T09:09:51.000Z</time>
      </trkpt>
      <trkpt lat="48.17242" lon="-4.09384">
        <ele>180</ele>
        <time>2018-06-03T09:10:16.000Z</time>
      </trkpt>
      <trkpt lat="48.17233" lon="-4.09409">
        <ele>181.60000610352</ele>
        <time>2018-06-03T09:10:33.000Z</time>
      </trkpt>
      <trkpt lat="48.1723" lon="-4.09415">
        <ele>182.19999694824</ele>
        <time>2018-06-03T09:10:38.000Z</time>
      </trkpt>
      <trkpt lat="48.17229" lon="-4.09417">
        <ele>182.39999389648</ele>
        <time>2018-06-03T09:10:41.000Z</time>
      </trkpt>
      <trkpt lat="48.17216" lon="-4.09442">
        <ele>183.60000610352</ele>
        <time>2018-06-03T09:11:05.000Z</time>
      </trkpt>
      <trkpt lat="48.17217" lon="-4.09446">
        <ele>183.39999389648</ele>
        <time>2018-06-03T09:11:10.000Z</time>
      </trkpt>
      <trkpt lat="48.1722" lon="-4.09449">
        <ele>183.80000305176</ele>
        <time>2018-06-03T09:11:14.000Z</time>
      </trkpt>
      <trkpt lat="48.17225" lon="-4.09449">
        <ele>183.80000305176</ele>
        <time>2018-06-03T09:11:19.000Z</time>
      </trkpt>
      <trkpt lat="48.17237" lon="-4.09445">
        <ele>183.80000305176</ele>
        <time>2018-06-03T09:11:29.000Z</time>
      </trkpt>
      <trkpt lat="48.17243" lon="-4.09453">
        <ele>184</ele>
        <time>2018-06-03T09:11:35.000Z</time>
      </trkpt>
      <trkpt lat="48.1725" lon="-4.09466">
        <ele>184.80000305176</ele>
        <time>2018-06-03T09:11:43.000Z</time>
      </trkpt>
      <trkpt lat="48.17261" lon="-4.09508">
        <ele>184.19999694824</ele>
        <time>2018-06-03T09:11:58.000Z</time>
      </trkpt>
      <trkpt lat="48.1726" lon="-4.09521">
        <ele>184.19999694824</ele>
        <time>2018-06-03T09:12:05.000Z</time>
      </trkpt>
      <trkpt lat="48.1726" lon="-4.09529">
        <ele>184.19999694824</ele>
        <time>2018-06-03T09:12:09.000Z</time>
      </trkpt>
      <trkpt lat="48.17229" lon="-4.09589">
        <ele>185.60000610352</ele>
        <time>2018-06-03T09:12:41.000Z</time>
      </trkpt>
      <trkpt lat="48.17228" lon="-4.09591">
        <ele>185.39999389648</ele>
        <time>2018-06-03T09:12:42.000Z</time>
      </trkpt>
      <trkpt lat="48.17228" lon="-4.09593">
        <ele>185.19999694824</ele>
        <time>2018-06-03T09:12:43.000Z</time>
      </trkpt>
      <trkpt lat="48.17226" lon="-4.09597">
        <ele>185.39999389648</ele>
        <time>2018-06-03T09:12:45.000Z</time>
      </trkpt>
      <trkpt lat="48.17221" lon="-4.09609">
        <ele>185</ele>
        <time>2018-06-03T09:12:51.000Z</time>
      </trkpt>
      <trkpt lat="48.17219" lon="-4.09614">
        <ele>185</ele>
        <time>2018-06-03T09:12:54.000Z</time>
      </trkpt>
      <trkpt lat="48.17206" lon="-4.09639">
        <ele>184.60000610352</ele>
        <time>2018-06-03T09:13:09.000Z</time>
      </trkpt>
      <trkpt lat="48.17204" lon="-4.09641">
        <ele>184.60000610352</ele>
        <time>2018-06-03T09:13:11.000Z</time>
      </trkpt>
      <trkpt lat="48.17201" lon="-4.09643">
        <ele>184.80000305176</ele>
        <time>2018-06-03T09:13:15.000Z</time>
      </trkpt>
      <trkpt lat="48.17199" lon="-4.09657">
        <ele>184.80000305176</ele>
        <time>2018-06-03T09:13:25.000Z</time>
      </trkpt>
      <trkpt lat="48.17196" lon="-4.09663">
        <ele>184.80000305176</ele>
        <time>2018-06-03T09:13:33.000Z</time>
      </trkpt>
      <trkpt lat="48.17196" lon="-4.09663">
        <ele>184.80000305176</ele>
        <time>2018-06-03T09:13:34.000Z</time>
      </trkpt>
      <trkpt lat="48.17194" lon="-4.09666">
        <ele>184.60000610352</ele>
        <time>2018-06-03T09:13:36.000Z</time>
      </trkpt>
      <trkpt lat="48.17191" lon="-4.09679">
        <ele>184.39999389648</ele>
        <time>2018-06-03T09:13:47.000Z</time>
      </trkpt>
      <trkpt lat="48.17188" lon="-4.09718">
        <ele>185.19999694824</ele>
        <time>2018-06-03T09:14:15.000Z</time>
      </trkpt>
      <trkpt lat="48.17188" lon="-4.09724">
        <ele>186</ele>
        <time>2018-06-03T09:14:36.000Z</time>
      </trkpt>
      <trkpt lat="48.17187" lon="-4.09729">
        <ele>186</ele>
        <time>2018-06-03T09:14:40.000Z</time>
      </trkpt>
      <trkpt lat="48.17184" lon="-4.09734">
        <ele>186</ele>
        <time>2018-06-03T09:14:45.000Z</time>
      </trkpt>
      <trkpt lat="48.17182" lon="-4.0974">
        <ele>186</ele>
        <time>2018-06-03T09:14:51.000Z</time>
      </trkpt>
      <trkpt lat="48.17181" lon="-4.09741">
        <ele>186</ele>
        <time>2018-06-03T09:14:53.000Z</time>
      </trkpt>
      <trkpt lat="48.17181" lon="-4.09743">
        <ele>186.19999694824</ele>
        <time>2018-06-03T09:14:56.000Z</time>
      </trkpt>
      <trkpt lat="48.1718" lon="-4.0975">
        <ele>186</ele>
        <time>2018-06-03T09:15:01.000Z</time>
      </trkpt>
      <trkpt lat="48.17179" lon="-4.09761">
        <ele>185.19999694824</ele>
        <time>2018-06-03T09:15:08.000Z</time>
      </trkpt>
      <trkpt lat="48.17172" lon="-4.09775">
        <ele>185</ele>
        <time>2018-06-03T09:15:19.000Z</time>
      </trkpt>
      <trkpt lat="48.17171" lon="-4.09777">
        <ele>185.19999694824</ele>
        <time>2018-06-03T09:15:21.000Z</time>
      </trkpt>
      <trkpt lat="48.17151" lon="-4.09812">
        <ele>187.60000610352</ele>
        <time>2018-06-03T09:15:53.000Z</time>
      </trkpt>
      <trkpt lat="48.17146" lon="-4.09821">
        <ele>188.39999389648</ele>
        <time>2018-06-03T09:16:07.000Z</time>
      </trkpt>
      <trkpt lat="48.17114" lon="-4.09877">
        <ele>189.80000305176</ele>
        <time>2018-06-03T09:16:53.000Z</time>
      </trkpt>
      <trkpt lat="48.17111" lon="-4.09885">
        <ele>190.19999694824</ele>
        <time>2018-06-03T09:16:57.000Z</time>
      </trkpt>
      <trkpt lat="48.17102" lon="-4.09911">
        <ele>191</ele>
        <time>2018-06-03T09:17:16.000Z</time>
      </trkpt>
      <trkpt lat="48.17099" lon="-4.09917">
        <ele>191</ele>
        <time>2018-06-03T09:17:20.000Z</time>
      </trkpt>
      <trkpt lat="48.17082" lon="-4.09947">
        <ele>192.80000305176</ele>
        <time>2018-06-03T09:17:48.000Z</time>
      </trkpt>
      <trkpt lat="48.1708" lon="-4.0995">
        <ele>193</ele>
        <time>2018-06-03T09:17:51.000Z</time>
      </trkpt>
      <trkpt lat="48.17062" lon="-4.0998">
        <ele>194.19999694824</ele>
        <time>2018-06-03T09:18:22.000Z</time>
      </trkpt>
      <trkpt lat="48.17061" lon="-4.09982">
        <ele>194.39999389648</ele>
        <time>2018-06-03T09:18:25.000Z</time>
      </trkpt>
      <trkpt lat="48.17047" lon="-4.10018">
        <ele>196.60000610352</ele>
        <time>2018-06-03T09:19:00.000Z</time>
      </trkpt>
      <trkpt lat="48.17046" lon="-4.10021">
        <ele>196.60000610352</ele>
        <time>2018-06-03T09:19:02.000Z</time>
      </trkpt>
      <trkpt lat="48.17046" lon="-4.10023">
        <ele>196.80000305176</ele>
        <time>2018-06-03T09:19:03.000Z</time>
      </trkpt>
      <trkpt lat="48.17046" lon="-4.10024">
        <ele>196.80000305176</ele>
        <time>2018-06-03T09:19:04.000Z</time>
      </trkpt>
      <trkpt lat="48.17042" lon="-4.10034">
        <ele>197.80000305176</ele>
        <time>2018-06-03T09:19:17.000Z</time>
      </trkpt>
      <trkpt lat="48.17029" lon="-4.1006">
        <ele>196.60000610352</ele>
        <time>2018-06-03T09:19:37.000Z</time>
      </trkpt>
      <trkpt lat="48.17025" lon="-4.10068">
        <ele>196.39999389648</ele>
        <time>2018-06-03T09:19:44.000Z</time>
      </trkpt>
      <trkpt lat="48.17022" lon="-4.10076">
        <ele>195.39999389648</ele>
        <time>2018-06-03T09:20:13.000Z</time>
      </trkpt>
      <trkpt lat="48.17" lon="-4.10135">
        <ele>196.39999389648</ele>
        <time>2018-06-03T09:20:51.000Z</time>
      </trkpt>
      <trkpt lat="48.16992" lon="-4.10155">
        <ele>197.80000305176</ele>
        <time>2018-06-03T09:21:02.000Z</time>
      </trkpt>
      <trkpt lat="48.16977" lon="-4.10184">
        <ele>198.60000610352</ele>
        <time>2018-06-03T09:21:16.000Z</time>
      </trkpt>
      <trkpt lat="48.16969" lon="-4.10201">
        <ele>199</ele>
        <time>2018-06-03T09:21:25.000Z</time>
      </trkpt>
      <trkpt lat="48.16967" lon="-4.10204">
        <ele>199.19999694824</ele>
        <time>2018-06-03T09:21:27.000Z</time>
      </trkpt>
      <trkpt lat="48.16953" lon="-4.10238">
        <ele>197.80000305176</ele>
        <time>2018-06-03T09:21:44.000Z</time>
      </trkpt>
      <trkpt lat="48.16949" lon="-4.10247">
        <ele>197</ele>
        <time>2018-06-03T09:21:49.000Z</time>
      </trkpt>
      <trkpt lat="48.16946" lon="-4.10255">
        <ele>195.80000305176</ele>
        <time>2018-06-03T09:21:54.000Z</time>
      </trkpt>
      <trkpt lat="48.16945" lon="-4.10258">
        <ele>195.39999389648</ele>
        <time>2018-06-03T09:21:56.000Z</time>
      </trkpt>
      <trkpt lat="48.16927" lon="-4.10297">
        <ele>195.80000305176</ele>
        <time>2018-06-03T09:22:23.000Z</time>
      </trkpt>
      <trkpt lat="48.16926" lon="-4.10298">
        <ele>195.60000610352</ele>
        <time>2018-06-03T09:22:25.000Z</time>
      </trkpt>
      <trkpt lat="48.16926" lon="-4.10299">
        <ele>195.60000610352</ele>
        <time>2018-06-03T09:22:27.000Z</time>
      </trkpt>
      <trkpt lat="48.16923" lon="-4.10303">
        <ele>194</ele>
        <time>2018-06-03T09:22:39.000Z</time>
      </trkpt>
      <trkpt lat="48.16923" lon="-4.10303">
        <ele>194</ele>
        <time>2018-06-03T09:22:40.000Z</time>
      </trkpt>
      <trkpt lat="48.16923" lon="-4.10306">
        <ele>194</ele>
        <time>2018-06-03T09:22:42.000Z</time>
      </trkpt>
      <trkpt lat="48.1692" lon="-4.10315">
        <ele>193.19999694824</ele>
        <time>2018-06-03T09:22:48.000Z</time>
      </trkpt>
      <trkpt lat="48.16918" lon="-4.10321">
        <ele>192.60000610352</ele>
        <time>2018-06-03T09:22:52.000Z</time>
      </trkpt>
      <trkpt lat="48.16917" lon="-4.10324">
        <ele>192.60000610352</ele>
        <time>2018-06-03T09:22:54.000Z</time>
      </trkpt>
      <trkpt lat="48.16916" lon="-4.10329">
        <ele>192.39999389648</ele>
        <time>2018-06-03T09:22:58.000Z</time>
      </trkpt>
      <trkpt lat="48.16915" lon="-4.10333">
        <ele>192.19999694824</ele>
        <time>2018-06-03T09:23:01.000Z</time>
      </trkpt>
      <trkpt lat="48.16914" lon="-4.10336">
        <ele>192.39999389648</ele>
        <time>2018-06-03T09:23:04.000Z</time>
      </trkpt>
      <trkpt lat="48.16914" lon="-4.1034">
        <ele>192.39999389648</ele>
        <time>2018-06-03T09:23:06.000Z</time>
      </trkpt>
      <trkpt lat="48.16912" lon="-4.10346">
        <ele>192.39999389648</ele>
        <time>2018-06-03T09:23:18.000Z</time>
      </trkpt>
      <trkpt lat="48.16912" lon="-4.10346">
        <ele>192.19999694824</ele>
        <time>2018-06-03T09:23:19.000Z</time>
      </trkpt>
      <trkpt lat="48.16912" lon="-4.10352">
        <ele>192</ele>
        <time>2018-06-03T09:23:29.000Z</time>
      </trkpt>
      <trkpt lat="48.16909" lon="-4.10366">
        <ele>191.19999694824</ele>
        <time>2018-06-03T09:23:39.000Z</time>
      </trkpt>
      <trkpt lat="48.16911" lon="-4.1038">
        <ele>191.39999389648</ele>
        <time>2018-06-03T09:23:54.000Z</time>
      </trkpt>
      <trkpt lat="48.16912" lon="-4.10385">
        <ele>191.60000610352</ele>
        <time>2018-06-03T09:23:57.000Z</time>
      </trkpt>
      <trkpt lat="48.16905" lon="-4.10424">
        <ele>191</ele>
        <time>2018-06-03T09:24:15.000Z</time>
      </trkpt>
      <trkpt lat="48.169" lon="-4.10438">
        <ele>189.80000305176</ele>
        <time>2018-06-03T09:24:22.000Z</time>
      </trkpt>
      <trkpt lat="48.16894" lon="-4.1045">
        <ele>189</ele>
        <time>2018-06-03T09:24:30.000Z</time>
      </trkpt>
      <trkpt lat="48.16889" lon="-4.10461">
        <ele>187.80000305176</ele>
        <time>2018-06-03T09:24:37.000Z</time>
      </trkpt>
      <trkpt lat="48.16884" lon="-4.10472">
        <ele>186.80000305176</ele>
        <time>2018-06-03T09:24:43.000Z</time>
      </trkpt>
      <trkpt lat="48.1688" lon="-4.10484">
        <ele>185.80000305176</ele>
        <time>2018-06-03T09:24:49.000Z</time>
      </trkpt>
      <trkpt lat="48.16877" lon="-4.10495">
        <ele>184.60000610352</ele>
        <time>2018-06-03T09:24:54.000Z</time>
      </trkpt>
      <trkpt lat="48.16872" lon="-4.10506">
        <ele>183.80000305176</ele>
        <time>2018-06-03T09:24:59.000Z</time>
      </trkpt>
      <trkpt lat="48.16867" lon="-4.10521">
        <ele>182.80000305176</ele>
        <time>2018-06-03T09:25:06.000Z</time>
      </trkpt>
      <trkpt lat="48.16859" lon="-4.1054">
        <ele>181.60000610352</ele>
        <time>2018-06-03T09:25:15.000Z</time>
      </trkpt>
      <trkpt lat="48.16852" lon="-4.10551">
        <ele>180.60000610352</ele>
        <time>2018-06-03T09:25:21.000Z</time>
      </trkpt>
      <trkpt lat="48.1685" lon="-4.10553">
        <ele>180.19999694824</ele>
        <time>2018-06-03T09:25:23.000Z</time>
      </trkpt>
      <trkpt lat="48.16849" lon="-4.10555">
        <ele>179.80000305176</ele>
        <time>2018-06-03T09:25:26.000Z</time>
      </trkpt>
      <trkpt lat="48.16848" lon="-4.10557">
        <ele>179.60000610352</ele>
        <time>2018-06-03T09:25:28.000Z</time>
      </trkpt>
      <trkpt lat="48.16848" lon="-4.1056">
        <ele>179.39999389648</ele>
        <time>2018-06-03T09:25:30.000Z</time>
      </trkpt>
      <trkpt lat="48.16838" lon="-4.1056">
        <ele>144.39999389648</ele>
        <time>2018-06-03T09:29:47.000Z</time>
      </trkpt>
      <trkpt lat="48.16833" lon="-4.10554">
        <ele>144.39999389648</ele>
        <time>2018-06-03T09:29:51.000Z</time>
      </trkpt>
      <trkpt lat="48.1683" lon="-4.10546">
        <ele>144.39999389648</ele>
        <time>2018-06-03T09:29:55.000Z</time>
      </trkpt>
      <trkpt lat="48.16837" lon="-4.10531">
        <ele>145.19999694824</ele>
        <time>2018-06-03T09:30:05.000Z</time>
      </trkpt>
      <trkpt lat="48.16843" lon="-4.10518">
        <ele>146.39999389648</ele>
        <time>2018-06-03T09:30:12.000Z</time>
      </trkpt>
      <trkpt lat="48.16847" lon="-4.10503">
        <ele>147.19999694824</ele>
        <time>2018-06-03T09:30:18.000Z</time>
      </trkpt>
      <trkpt lat="48.1685" lon="-4.10492">
        <ele>148.19999694824</ele>
        <time>2018-06-03T09:30:23.000Z</time>
      </trkpt>
      <trkpt lat="48.16852" lon="-4.10484">
        <ele>148.80000305176</ele>
        <time>2018-06-03T09:30:27.000Z</time>
      </trkpt>
      <trkpt lat="48.16853" lon="-4.10482">
        <ele>149.19999694824</ele>
        <time>2018-06-03T09:30:29.000Z</time>
      </trkpt>
      <trkpt lat="48.16853" lon="-4.1048">
        <ele>149.39999389648</ele>
        <time>2018-06-03T09:30:30.000Z</time>
      </trkpt>
      <trkpt lat="48.16853" lon="-4.10472">
        <ele>150.39999389648</ele>
        <time>2018-06-03T09:30:34.000Z</time>
      </trkpt>
      <trkpt lat="48.16853" lon="-4.10469">
        <ele>151.19999694824</ele>
        <time>2018-06-03T09:30:38.000Z</time>
      </trkpt>
      <trkpt lat="48.1685" lon="-4.10458">
        <ele>151.80000305176</ele>
        <time>2018-06-03T09:30:43.000Z</time>
      </trkpt>
      <trkpt lat="48.16841" lon="-4.10377">
        <ele>151.60000610352</ele>
        <time>2018-06-03T09:31:05.000Z</time>
      </trkpt>
      <trkpt lat="48.16848" lon="-4.10346">
        <ele>152</ele>
        <time>2018-06-03T09:31:12.000Z</time>
      </trkpt>
      <trkpt lat="48.16855" lon="-4.10319">
        <ele>152.39999389648</ele>
        <time>2018-06-03T09:31:17.000Z</time>
      </trkpt>
      <trkpt lat="48.16853" lon="-4.10288">
        <ele>152.60000610352</ele>
        <time>2018-06-03T09:31:22.000Z</time>
      </trkpt>
      <trkpt lat="48.16849" lon="-4.10271">
        <ele>153</ele>
        <time>2018-06-03T09:31:25.000Z</time>
      </trkpt>
      <trkpt lat="48.16837" lon="-4.10218">
        <ele>154</ele>
        <time>2018-06-03T09:31:37.000Z</time>
      </trkpt>
      <trkpt lat="48.16829" lon="-4.10198">
        <ele>154.80000305176</ele>
        <time>2018-06-03T09:31:43.000Z</time>
      </trkpt>
      <trkpt lat="48.16819" lon="-4.10187">
        <ele>156</ele>
        <time>2018-06-03T09:31:49.000Z</time>
      </trkpt>
      <trkpt lat="48.16805" lon="-4.10184">
        <ele>156.80000305176</ele>
        <time>2018-06-03T09:31:56.000Z</time>
      </trkpt>
      <trkpt lat="48.16785" lon="-4.10188">
        <ele>158</ele>
        <time>2018-06-03T09:32:06.000Z</time>
      </trkpt>
      <trkpt lat="48.16754" lon="-4.1019">
        <ele>158.80000305176</ele>
        <time>2018-06-03T09:32:22.000Z</time>
      </trkpt>
      <trkpt lat="48.16713" lon="-4.10147">
        <ele>159.19999694824</ele>
        <time>2018-06-03T09:32:48.000Z</time>
      </trkpt>
      <trkpt lat="48.16699" lon="-4.10097">
        <ele>159.39999389648</ele>
        <time>2018-06-03T09:33:03.000Z</time>
      </trkpt>
      <trkpt lat="48.1669" lon="-4.10055">
        <ele>160.60000610352</ele>
        <time>2018-06-03T09:33:15.000Z</time>
      </trkpt>
      <trkpt lat="48.16684" lon="-4.10021">
        <ele>161.39999389648</ele>
        <time>2018-06-03T09:33:25.000Z</time>
      </trkpt>
      <trkpt lat="48.16676" lon="-4.09993">
        <ele>162.39999389648</ele>
        <time>2018-06-03T09:33:33.000Z</time>
      </trkpt>
      <trkpt lat="48.16668" lon="-4.09954">
        <ele>163.19999694824</ele>
        <time>2018-06-03T09:33:43.000Z</time>
      </trkpt>
      <trkpt lat="48.16658" lon="-4.09894">
        <ele>164.19999694824</ele>
        <time>2018-06-03T09:33:58.000Z</time>
      </trkpt>
      <trkpt lat="48.16656" lon="-4.09874">
        <ele>165.39999389648</ele>
        <time>2018-06-03T09:34:03.000Z</time>
      </trkpt>
      <trkpt lat="48.16655" lon="-4.09865">
        <ele>166.39999389648</ele>
        <time>2018-06-03T09:34:05.000Z</time>
      </trkpt>
      <trkpt lat="48.16655" lon="-4.09837">
        <ele>167.60000610352</ele>
        <time>2018-06-03T09:34:12.000Z</time>
      </trkpt>
      <trkpt lat="48.16663" lon="-4.09819">
        <ele>168.19999694824</ele>
        <time>2018-06-03T09:34:17.000Z</time>
      </trkpt>
      <trkpt lat="48.16679" lon="-4.0981">
        <ele>168.60000610352</ele>
        <time>2018-06-03T09:34:21.000Z</time>
      </trkpt>
      <trkpt lat="48.16718" lon="-4.09791">
        <ele>169</ele>
        <time>2018-06-03T09:34:30.000Z</time>
      </trkpt>
      <trkpt lat="48.1673" lon="-4.09757">
        <ele>169.39999389648</ele>
        <time>2018-06-03T09:34:37.000Z</time>
      </trkpt>
      <trkpt lat="48.16729" lon="-4.09752">
        <ele>169.60000610352</ele>
        <time>2018-06-03T09:34:38.000Z</time>
      </trkpt>
      <trkpt lat="48.16713" lon="-4.09695">
        <ele>170.60000610352</ele>
        <time>2018-06-03T09:34:50.000Z</time>
      </trkpt>
      <trkpt lat="48.1669" lon="-4.09661">
        <ele>171.39999389648</ele>
        <time>2018-06-03T09:35:00.000Z</time>
      </trkpt>
      <trkpt lat="48.16657" lon="-4.09593">
        <ele>172.19999694824</ele>
        <time>2018-06-03T09:35:21.000Z</time>
      </trkpt>
      <trkpt lat="48.16653" lon="-4.09582">
        <ele>172.39999389648</ele>
        <time>2018-06-03T09:35:24.000Z</time>
      </trkpt>
      <trkpt lat="48.1663" lon="-4.09505">
        <ele>173</ele>
        <time>2018-06-03T09:35:44.000Z</time>
      </trkpt>
      <trkpt lat="48.16616" lon="-4.09464">
        <ele>173.19999694824</ele>
        <time>2018-06-03T09:35:55.000Z</time>
      </trkpt>
      <trkpt lat="48.16594" lon="-4.09417">
        <ele>174.39999389648</ele>
        <time>2018-06-03T09:36:12.000Z</time>
      </trkpt>
      <trkpt lat="48.16585" lon="-4.09408">
        <ele>175.39999389648</ele>
        <time>2018-06-03T09:36:19.000Z</time>
      </trkpt>
      <trkpt lat="48.16583" lon="-4.09408">
        <ele>175.60000610352</ele>
        <time>2018-06-03T09:36:20.000Z</time>
      </trkpt>
      <trkpt lat="48.16576" lon="-4.09413">
        <ele>176.60000610352</ele>
        <time>2018-06-03T09:36:28.000Z</time>
      </trkpt>
      <trkpt lat="48.16572" lon="-4.09415">
        <ele>177.60000610352</ele>
        <time>2018-06-03T09:36:36.000Z</time>
      </trkpt>
      <trkpt lat="48.16562" lon="-4.09412">
        <ele>178.19999694824</ele>
        <time>2018-06-03T09:36:44.000Z</time>
      </trkpt>
      <trkpt lat="48.16535" lon="-4.09337">
        <ele>177.60000610352</ele>
        <time>2018-06-03T09:37:08.000Z</time>
      </trkpt>
      <trkpt lat="48.16509" lon="-4.09262">
        <ele>177.19999694824</ele>
        <time>2018-06-03T09:37:29.000Z</time>
      </trkpt>
      <trkpt lat="48.16497" lon="-4.09208">
        <ele>177.80000305176</ele>
        <time>2018-06-03T09:37:44.000Z</time>
      </trkpt>
      <trkpt lat="48.16496" lon="-4.09206">
        <ele>177.80000305176</ele>
        <time>2018-06-03T09:37:46.000Z</time>
      </trkpt>
      <trkpt lat="48.16495" lon="-4.09206">
        <ele>177.80000305176</ele>
        <time>2018-06-03T09:37:47.000Z</time>
      </trkpt>
      <trkpt lat="48.16492" lon="-4.09207">
        <ele>178.19999694824</ele>
        <time>2018-06-03T09:37:54.000Z</time>
      </trkpt>
      <trkpt lat="48.16489" lon="-4.09206">
        <ele>178.39999389648</ele>
        <time>2018-06-03T09:37:59.000Z</time>
      </trkpt>
      <trkpt lat="48.16488" lon="-4.09206">
        <ele>178.60000610352</ele>
        <time>2018-06-03T09:38:02.000Z</time>
      </trkpt>
      <trkpt lat="48.16487" lon="-4.09205">
        <ele>178.60000610352</ele>
        <time>2018-06-03T09:38:04.000Z</time>
      </trkpt>
      <trkpt lat="48.16486" lon="-4.09205">
        <ele>178.60000610352</ele>
        <time>2018-06-03T09:38:10.000Z</time>
      </trkpt>
      <trkpt lat="48.16479" lon="-4.0919">
        <ele>177.80000305176</ele>
        <time>2018-06-03T09:38:17.000Z</time>
      </trkpt>
      <trkpt lat="48.16478" lon="-4.0918">
        <ele>177</ele>
        <time>2018-06-03T09:38:20.000Z</time>
      </trkpt>
      <trkpt lat="48.16475" lon="-4.09162">
        <ele>176</ele>
        <time>2018-06-03T09:38:25.000Z</time>
      </trkpt>
      <trkpt lat="48.16465" lon="-4.09135">
        <ele>175</ele>
        <time>2018-06-03T09:38:34.000Z</time>
      </trkpt>
      <trkpt lat="48.16438" lon="-4.09079">
        <ele>173.80000305176</ele>
        <time>2018-06-03T09:38:54.000Z</time>
      </trkpt>
      <trkpt lat="48.16412" lon="-4.09007">
        <ele>173.19999694824</ele>
        <time>2018-06-03T09:39:18.000Z</time>
      </trkpt>
      <trkpt lat="48.1636" lon="-4.08977">
        <ele>172.39999389648</ele>
        <time>2018-06-03T09:39:47.000Z</time>
      </trkpt>
      <trkpt lat="48.16355" lon="-4.08974">
        <ele>172.39999389648</ele>
        <time>2018-06-03T09:39:50.000Z</time>
      </trkpt>
      <trkpt lat="48.16321" lon="-4.08955">
        <ele>171</ele>
        <time>2018-06-03T09:40:09.000Z</time>
      </trkpt>
      <trkpt lat="48.16299" lon="-4.08941">
        <ele>169.80000305176</ele>
        <time>2018-06-03T09:40:22.000Z</time>
      </trkpt>
      <trkpt lat="48.16279" lon="-4.08929">
        <ele>168.60000610352</ele>
        <time>2018-06-03T09:40:33.000Z</time>
      </trkpt>
      <trkpt lat="48.16267" lon="-4.08909">
        <ele>167.19999694824</ele>
        <time>2018-06-03T09:40:43.000Z</time>
      </trkpt>
      <trkpt lat="48.16258" lon="-4.08877">
        <ele>166</ele>
        <time>2018-06-03T09:40:55.000Z</time>
      </trkpt>
      <trkpt lat="48.16234" lon="-4.08804">
        <ele>164.60000610352</ele>
        <time>2018-06-03T09:41:25.000Z</time>
      </trkpt>
      <trkpt lat="48.16232" lon="-4.08792">
        <ele>164.60000610352</ele>
        <time>2018-06-03T09:41:30.000Z</time>
      </trkpt>
      <trkpt lat="48.16213" lon="-4.08715">
        <ele>163.19999694824</ele>
        <time>2018-06-03T09:42:03.000Z</time>
      </trkpt>
      <trkpt lat="48.16212" lon="-4.08707">
        <ele>162.80000305176</ele>
        <time>2018-06-03T09:42:06.000Z</time>
      </trkpt>
      <trkpt lat="48.16198" lon="-4.08659">
        <ele>161.19999694824</ele>
        <time>2018-06-03T09:42:30.000Z</time>
      </trkpt>
      <trkpt lat="48.16183" lon="-4.08615">
        <ele>159.80000305176</ele>
        <time>2018-06-03T09:42:52.000Z</time>
      </trkpt>
      <trkpt lat="48.16163" lon="-4.08554">
        <ele>158.60000610352</ele>
        <time>2018-06-03T09:43:22.000Z</time>
      </trkpt>
      <trkpt lat="48.16151" lon="-4.0856">
        <ele>158</ele>
        <time>2018-06-03T09:43:33.000Z</time>
      </trkpt>
      <trkpt lat="48.16149" lon="-4.08555">
        <ele>157.80000305176</ele>
        <time>2018-06-03T09:43:36.000Z</time>
      </trkpt>
      <trkpt lat="48.16106" lon="-4.08508">
        <ele>156.19999694824</ele>
        <time>2018-06-03T09:44:21.000Z</time>
      </trkpt>
      <trkpt lat="48.1606" lon="-4.0846">
        <ele>155.60000610352</ele>
        <time>2018-06-03T09:45:02.000Z</time>
      </trkpt>
      <trkpt lat="48.16053" lon="-4.08457">
        <ele>155.39999389648</ele>
        <time>2018-06-03T09:45:07.000Z</time>
      </trkpt>
      <trkpt lat="48.16049" lon="-4.08465">
        <ele>155</ele>
        <time>2018-06-03T09:45:11.000Z</time>
      </trkpt>
      <trkpt lat="48.16034" lon="-4.085">
        <ele>155.39999389648</ele>
        <time>2018-06-03T09:45:25.000Z</time>
      </trkpt>
      <trkpt lat="48.16024" lon="-4.08514">
        <ele>155.39999389648</ele>
        <time>2018-06-03T09:45:30.000Z</time>
      </trkpt>
      <trkpt lat="48.16016" lon="-4.08508">
        <ele>155.19999694824</ele>
        <time>2018-06-03T09:45:34.000Z</time>
      </trkpt>
      <trkpt lat="48.15976" lon="-4.08466">
        <ele>155.19999694824</ele>
        <time>2018-06-03T09:45:54.000Z</time>
      </trkpt>
      <trkpt lat="48.15971" lon="-4.08468">
        <ele>155.39999389648</ele>
        <time>2018-06-03T09:45:56.000Z</time>
      </trkpt>
      <trkpt lat="48.15953" lon="-4.08483">
        <ele>156.19999694824</ele>
        <time>2018-06-03T09:46:03.000Z</time>
      </trkpt>
      <trkpt lat="48.15903" lon="-4.08524">
        <ele>155.19999694824</ele>
        <time>2018-06-03T09:46:16.000Z</time>
      </trkpt>
      <trkpt lat="48.15853" lon="-4.08563">
        <ele>155.39999389648</ele>
        <time>2018-06-03T09:46:32.000Z</time>
      </trkpt>
      <trkpt lat="48.15804" lon="-4.086">
        <ele>154.60000610352</ele>
        <time>2018-06-03T09:46:44.000Z</time>
      </trkpt>
      <trkpt lat="48.15755" lon="-4.08639">
        <ele>154</ele>
        <time>2018-06-03T09:46:59.000Z</time>
      </trkpt>
      <trkpt lat="48.15706" lon="-4.08678">
        <ele>153.60000610352</ele>
        <time>2018-06-03T09:47:14.000Z</time>
      </trkpt>
      <trkpt lat="48.15681" lon="-4.08696">
        <ele>153.39999389648</ele>
        <time>2018-06-03T09:47:23.000Z</time>
      </trkpt>
      <trkpt lat="48.1568" lon="-4.08699">
        <ele>146.19999694824</ele>
        <time>2018-06-03T09:48:23.000Z</time>
      </trkpt>
      <trkpt lat="48.15687" lon="-4.08713">
        <ele>146</ele>
        <time>2018-06-03T09:48:29.000Z</time>
      </trkpt>
      <trkpt lat="48.15695" lon="-4.08719">
        <ele>145.19999694824</ele>
        <time>2018-06-03T09:48:33.000Z</time>
      </trkpt>
      <trkpt lat="48.15703" lon="-4.08728">
        <ele>144.19999694824</ele>
        <time>2018-06-03T09:48:38.000Z</time>
      </trkpt>
      <trkpt lat="48.15705" lon="-4.08729">
        <ele>142.80000305176</ele>
        <time>2018-06-03T09:48:44.000Z</time>
      </trkpt>
      <trkpt lat="48.15705" lon="-4.08729">
        <ele>142.80000305176</ele>
        <time>2018-06-03T09:48:45.000Z</time>
      </trkpt>
      <trkpt lat="48.15705" lon="-4.0873">
        <ele>142.60000610352</ele>
        <time>2018-06-03T09:48:46.000Z</time>
      </trkpt>
      <trkpt lat="48.15725" lon="-4.08753">
        <ele>141.19999694824</ele>
        <time>2018-06-03T09:48:57.000Z</time>
      </trkpt>
      <trkpt lat="48.1574" lon="-4.08772">
        <ele>140.19999694824</ele>
        <time>2018-06-03T09:49:03.000Z</time>
      </trkpt>
      <trkpt lat="48.15772" lon="-4.08801">
        <ele>139.19999694824</ele>
        <time>2018-06-03T09:49:13.000Z</time>
      </trkpt>
      <trkpt lat="48.15809" lon="-4.0882">
        <ele>138.39999389648</ele>
        <time>2018-06-03T09:49:25.000Z</time>
      </trkpt>
      <trkpt lat="48.15802" lon="-4.08831">
        <ele>138.39999389648</ele>
        <time>2018-06-03T09:49:32.000Z</time>
      </trkpt>
      <trkpt lat="48.15772" lon="-4.08831">
        <ele>139.19999694824</ele>
        <time>2018-06-03T09:49:43.000Z</time>
      </trkpt>
      <trkpt lat="48.15751" lon="-4.0886">
        <ele>139.60000610352</ele>
        <time>2018-06-03T09:49:56.000Z</time>
      </trkpt>
      <trkpt lat="48.15724" lon="-4.08847">
        <ele>139.60000610352</ele>
        <time>2018-06-03T09:50:06.000Z</time>
      </trkpt>
      <trkpt lat="48.15714" lon="-4.08843">
        <ele>140</ele>
        <time>2018-06-03T09:50:10.000Z</time>
      </trkpt>
      <trkpt lat="48.15712" lon="-4.08848">
        <ele>140.39999389648</ele>
        <time>2018-06-03T09:50:13.000Z</time>
      </trkpt>
      <trkpt lat="48.15711" lon="-4.08859">
        <ele>141</ele>
        <time>2018-06-03T09:50:17.000Z</time>
      </trkpt>
      <trkpt lat="48.15709" lon="-4.08862">
        <ele>141</ele>
        <time>2018-06-03T09:50:18.000Z</time>
      </trkpt>
      <trkpt lat="48.15702" lon="-4.08872">
        <ele>141.39999389648</ele>
        <time>2018-06-03T09:50:21.000Z</time>
      </trkpt>
      <trkpt lat="48.15682" lon="-4.08896">
        <ele>142.39999389648</ele>
        <time>2018-06-03T09:50:29.000Z</time>
      </trkpt>
      <trkpt lat="48.15675" lon="-4.08909">
        <ele>143.39999389648</ele>
        <time>2018-06-03T09:50:35.000Z</time>
      </trkpt>
      <trkpt lat="48.15676" lon="-4.0891">
        <ele>143.80000305176</ele>
        <time>2018-06-03T09:50:37.000Z</time>
      </trkpt>
      <trkpt lat="48.1568" lon="-4.08914">
        <ele>145</ele>
        <time>2018-06-03T09:50:40.000Z</time>
      </trkpt>
      <trkpt lat="48.15681" lon="-4.08919">
        <ele>145.60000610352</ele>
        <time>2018-06-03T09:50:42.000Z</time>
      </trkpt>
      <trkpt lat="48.15683" lon="-4.08925">
        <ele>146</ele>
        <time>2018-06-03T09:50:44.000Z</time>
      </trkpt>
      <trkpt lat="48.15683" lon="-4.08929">
        <ele>146.60000610352</ele>
        <time>2018-06-03T09:50:46.000Z</time>
      </trkpt>
      <trkpt lat="48.1568" lon="-4.08942">
        <ele>147.39999389648</ele>
        <time>2018-06-03T09:50:50.000Z</time>
      </trkpt>
      <trkpt lat="48.15672" lon="-4.08951">
        <ele>148.60000610352</ele>
        <time>2018-06-03T09:50:57.000Z</time>
      </trkpt>
      <trkpt lat="48.15665" lon="-4.08951">
        <ele>149.80000305176</ele>
        <time>2018-06-03T09:51:02.000Z</time>
      </trkpt>
      <trkpt lat="48.15656" lon="-4.0895">
        <ele>150.60000610352</ele>
        <time>2018-06-03T09:51:07.000Z</time>
      </trkpt>
      <trkpt lat="48.15652" lon="-4.08948">
        <ele>151</ele>
        <time>2018-06-03T09:51:09.000Z</time>
      </trkpt>
      <trkpt lat="48.15647" lon="-4.08947">
        <ele>151.60000610352</ele>
        <time>2018-06-03T09:51:11.000Z</time>
      </trkpt>
      <trkpt lat="48.15642" lon="-4.08944">
        <ele>152.39999389648</ele>
        <time>2018-06-03T09:51:14.000Z</time>
      </trkpt>
      <trkpt lat="48.15637" lon="-4.08938">
        <ele>153.39999389648</ele>
        <time>2018-06-03T09:51:19.000Z</time>
      </trkpt>
      <trkpt lat="48.15631" lon="-4.08934">
        <ele>154.39999389648</ele>
        <time>2018-06-03T09:51:25.000Z</time>
      </trkpt>
      <trkpt lat="48.15623" lon="-4.08929">
        <ele>155</ele>
        <time>2018-06-03T09:51:29.000Z</time>
      </trkpt>
      <trkpt lat="48.15622" lon="-4.08927">
        <ele>155.19999694824</ele>
        <time>2018-06-03T09:51:30.000Z</time>
      </trkpt>
      <trkpt lat="48.15618" lon="-4.08924">
        <ele>155.80000305176</ele>
        <time>2018-06-03T09:51:33.000Z</time>
      </trkpt>
      <trkpt lat="48.15615" lon="-4.08921">
        <ele>156.80000305176</ele>
        <time>2018-06-03T09:51:38.000Z</time>
      </trkpt>
      <trkpt lat="48.15603" lon="-4.0891">
        <ele>158</ele>
        <time>2018-06-03T09:51:47.000Z</time>
      </trkpt>
      <trkpt lat="48.15598" lon="-4.08901">
        <ele>158.19999694824</ele>
        <time>2018-06-03T09:51:52.000Z</time>
      </trkpt>
      <trkpt lat="48.15592" lon="-4.08892">
        <ele>158.39999389648</ele>
        <time>2018-06-03T09:51:58.000Z</time>
      </trkpt>
      <trkpt lat="48.15584" lon="-4.0888">
        <ele>159.39999389648</ele>
        <time>2018-06-03T09:52:07.000Z</time>
      </trkpt>
      <trkpt lat="48.15575" lon="-4.08869">
        <ele>160.60000610352</ele>
        <time>2018-06-03T09:52:15.000Z</time>
      </trkpt>
      <trkpt lat="48.15563" lon="-4.08856">
        <ele>161.80000305176</ele>
        <time>2018-06-03T09:52:23.000Z</time>
      </trkpt>
      <trkpt lat="48.15548" lon="-4.08838">
        <ele>163.19999694824</ele>
        <time>2018-06-03T09:52:34.000Z</time>
      </trkpt>
      <trkpt lat="48.15532" lon="-4.0883">
        <ele>164.19999694824</ele>
        <time>2018-06-03T09:52:42.000Z</time>
      </trkpt>
      <trkpt lat="48.15524" lon="-4.0882">
        <ele>164.80000305176</ele>
        <time>2018-06-03T09:52:47.000Z</time>
      </trkpt>
      <trkpt lat="48.15499" lon="-4.08804">
        <ele>165.60000610352</ele>
        <time>2018-06-03T09:53:00.000Z</time>
      </trkpt>
      <trkpt lat="48.15485" lon="-4.08794">
        <ele>166</ele>
        <time>2018-06-03T09:53:06.000Z</time>
      </trkpt>
      <trkpt lat="48.1548" lon="-4.088">
        <ele>166.19999694824</ele>
        <time>2018-06-03T09:53:11.000Z</time>
      </trkpt>
      <trkpt lat="48.15478" lon="-4.08801">
        <ele>166.19999694824</ele>
        <time>2018-06-03T09:53:12.000Z</time>
      </trkpt>
      <trkpt lat="48.15475" lon="-4.08804">
        <ele>167</ele>
        <time>2018-06-03T09:53:15.000Z</time>
      </trkpt>
      <trkpt lat="48.15473" lon="-4.08807">
        <ele>167.19999694824</ele>
        <time>2018-06-03T09:53:17.000Z</time>
      </trkpt>
      <trkpt lat="48.15474" lon="-4.08823">
        <ele>168</ele>
        <time>2018-06-03T09:53:26.000Z</time>
      </trkpt>
      <trkpt lat="48.15478" lon="-4.08833">
        <ele>169.19999694824</ele>
        <time>2018-06-03T09:53:33.000Z</time>
      </trkpt>
      <trkpt lat="48.15479" lon="-4.08834">
        <ele>169.39999389648</ele>
        <time>2018-06-03T09:53:34.000Z</time>
      </trkpt>
      <trkpt lat="48.15489" lon="-4.08847">
        <ele>170.39999389648</ele>
        <time>2018-06-03T09:53:42.000Z</time>
      </trkpt>
      <trkpt lat="48.15498" lon="-4.08852">
        <ele>171.19999694824</ele>
        <time>2018-06-03T09:53:47.000Z</time>
      </trkpt>
      <trkpt lat="48.15501" lon="-4.08854">
        <ele>171.19999694824</ele>
        <time>2018-06-03T09:53:49.000Z</time>
      </trkpt>
      <trkpt lat="48.15506" lon="-4.08863">
        <ele>171.60000610352</ele>
        <time>2018-06-03T09:53:54.000Z</time>
      </trkpt>
      <trkpt lat="48.15507" lon="-4.08866">
        <ele>171.60000610352</ele>
        <time>2018-06-03T09:53:55.000Z</time>
      </trkpt>
      <trkpt lat="48.15508" lon="-4.08871">
        <ele>171.80000305176</ele>
        <time>2018-06-03T09:53:58.000Z</time>
      </trkpt>
      <trkpt lat="48.15513" lon="-4.08892">
        <ele>172.60000610352</ele>
        <time>2018-06-03T09:54:07.000Z</time>
      </trkpt>
      <trkpt lat="48.15512" lon="-4.08893">
        <ele>172.60000610352</ele>
        <time>2018-06-03T09:54:08.000Z</time>
      </trkpt>
      <trkpt lat="48.15512" lon="-4.08895">
        <ele>172.60000610352</ele>
        <time>2018-06-03T09:54:10.000Z</time>
      </trkpt>
      <trkpt lat="48.15506" lon="-4.08908">
        <ele>173</ele>
        <time>2018-06-03T09:54:18.000Z</time>
      </trkpt>
      <trkpt lat="48.15513" lon="-4.08949">
        <ele>174.60000610352</ele>
        <time>2018-06-03T09:54:49.000Z</time>
      </trkpt>
      <trkpt lat="48.15515" lon="-4.08952">
        <ele>174.80000305176</ele>
        <time>2018-06-03T09:54:52.000Z</time>
      </trkpt>
      <trkpt lat="48.15533" lon="-4.08985">
        <ele>176.19999694824</ele>
        <time>2018-06-03T09:55:16.000Z</time>
      </trkpt>
      <trkpt lat="48.15558" lon="-4.08982">
        <ele>177.60000610352</ele>
        <time>2018-06-03T09:55:37.000Z</time>
      </trkpt>
      <trkpt lat="48.15562" lon="-4.08995">
        <ele>177.80000305176</ele>
        <time>2018-06-03T09:55:49.000Z</time>
      </trkpt>
      <trkpt lat="48.15541" lon="-4.09009">
        <ele>177.39999389648</ele>
        <time>2018-06-03T09:56:10.000Z</time>
      </trkpt>
      <trkpt lat="48.15531" lon="-4.09012">
        <ele>177.39999389648</ele>
        <time>2018-06-03T09:56:15.000Z</time>
      </trkpt>
      <trkpt lat="48.15527" lon="-4.09012">
        <ele>177.60000610352</ele>
        <time>2018-06-03T09:56:17.000Z</time>
      </trkpt>
      <trkpt lat="48.15511" lon="-4.09016">
        <ele>177.39999389648</ele>
        <time>2018-06-03T09:56:24.000Z</time>
      </trkpt>
      <trkpt lat="48.15506" lon="-4.09019">
        <ele>177.39999389648</ele>
        <time>2018-06-03T09:56:27.000Z</time>
      </trkpt>
      <trkpt lat="48.15501" lon="-4.09029">
        <ele>177.60000610352</ele>
        <time>2018-06-03T09:56:31.000Z</time>
      </trkpt>
      <trkpt lat="48.155" lon="-4.09033">
        <ele>177.60000610352</ele>
        <time>2018-06-03T09:56:33.000Z</time>
      </trkpt>
      <trkpt lat="48.15499" lon="-4.09043">
        <ele>177.60000610352</ele>
        <time>2018-06-03T09:56:37.000Z</time>
      </trkpt>
      <trkpt lat="48.15495" lon="-4.09067">
        <ele>178</ele>
        <time>2018-06-03T09:56:47.000Z</time>
      </trkpt>
      <trkpt lat="48.15494" lon="-4.09073">
        <ele>178.19999694824</ele>
        <time>2018-06-03T09:56:49.000Z</time>
      </trkpt>
      <trkpt lat="48.15495" lon="-4.09089">
        <ele>178.39999389648</ele>
        <time>2018-06-03T09:56:53.000Z</time>
      </trkpt>
      <trkpt lat="48.15511" lon="-4.09132">
        <ele>178</ele>
        <time>2018-06-03T09:57:03.000Z</time>
      </trkpt>
      <trkpt lat="48.15523" lon="-4.09123">
        <ele>177.60000610352</ele>
        <time>2018-06-03T09:57:10.000Z</time>
      </trkpt>
      <trkpt lat="48.15524" lon="-4.09119">
        <ele>177.39999389648</ele>
        <time>2018-06-03T09:57:12.000Z</time>
      </trkpt>
      <trkpt lat="48.15527" lon="-4.09113">
        <ele>176.60000610352</ele>
        <time>2018-06-03T09:57:15.000Z</time>
      </trkpt>
      <trkpt lat="48.15527" lon="-4.09111">
        <ele>176.19999694824</ele>
        <time>2018-06-03T09:57:16.000Z</time>
      </trkpt>
      <trkpt lat="48.15532" lon="-4.09104">
        <ele>175.19999694824</ele>
        <time>2018-06-03T09:57:21.000Z</time>
      </trkpt>
      <trkpt lat="48.15551" lon="-4.0909">
        <ele>174.39999389648</ele>
        <time>2018-06-03T09:57:32.000Z</time>
      </trkpt>
      <trkpt lat="48.15559" lon="-4.09083">
        <ele>173</ele>
        <time>2018-06-03T09:57:38.000Z</time>
      </trkpt>
      <trkpt lat="48.15562" lon="-4.0908">
        <ele>171.39999389648</ele>
        <time>2018-06-03T09:57:40.000Z</time>
      </trkpt>
      <trkpt lat="48.15564" lon="-4.09078">
        <ele>170.39999389648</ele>
        <time>2018-06-03T09:57:42.000Z</time>
      </trkpt>
      <trkpt lat="48.15571" lon="-4.09074">
        <ele>169.19999694824</ele>
        <time>2018-06-03T09:57:46.000Z</time>
      </trkpt>
      <trkpt lat="48.15578" lon="-4.09068">
        <ele>168.19999694824</ele>
        <time>2018-06-03T09:57:51.000Z</time>
      </trkpt>
      <trkpt lat="48.15584" lon="-4.09063">
        <ele>167.19999694824</ele>
        <time>2018-06-03T09:57:55.000Z</time>
      </trkpt>
      <trkpt lat="48.15588" lon="-4.09059">
        <ele>166.19999694824</ele>
        <time>2018-06-03T09:57:58.000Z</time>
      </trkpt>
      <trkpt lat="48.15594" lon="-4.09054">
        <ele>165</ele>
        <time>2018-06-03T09:58:02.000Z</time>
      </trkpt>
      <trkpt lat="48.15598" lon="-4.09051">
        <ele>164</ele>
        <time>2018-06-03T09:58:05.000Z</time>
      </trkpt>
      <trkpt lat="48.15601" lon="-4.09048">
        <ele>163</ele>
        <time>2018-06-03T09:58:07.000Z</time>
      </trkpt>
      <trkpt lat="48.15606" lon="-4.09043">
        <ele>161.80000305176</ele>
        <time>2018-06-03T09:58:11.000Z</time>
      </trkpt>
      <trkpt lat="48.15613" lon="-4.09037">
        <ele>160.80000305176</ele>
        <time>2018-06-03T09:58:16.000Z</time>
      </trkpt>
      <trkpt lat="48.15618" lon="-4.09033">
        <ele>160</ele>
        <time>2018-06-03T09:58:20.000Z</time>
      </trkpt>
      <trkpt lat="48.15625" lon="-4.09027">
        <ele>159</ele>
        <time>2018-06-03T09:58:25.000Z</time>
      </trkpt>
      <trkpt lat="48.15632" lon="-4.09021">
        <ele>157.80000305176</ele>
        <time>2018-06-03T09:58:31.000Z</time>
      </trkpt>
      <trkpt lat="48.15639" lon="-4.09015">
        <ele>156.60000610352</ele>
        <time>2018-06-03T09:58:36.000Z</time>
      </trkpt>
      <trkpt lat="48.15644" lon="-4.09011">
        <ele>155.39999389648</ele>
        <time>2018-06-03T09:58:40.000Z</time>
      </trkpt>
      <trkpt lat="48.15648" lon="-4.09006">
        <ele>154.39999389648</ele>
        <time>2018-06-03T09:58:44.000Z</time>
      </trkpt>
      <trkpt lat="48.15655" lon="-4.09">
        <ele>153.39999389648</ele>
        <time>2018-06-03T09:58:49.000Z</time>
      </trkpt>
      <trkpt lat="48.1566" lon="-4.08995">
        <ele>152</ele>
        <time>2018-06-03T09:58:53.000Z</time>
      </trkpt>
      <trkpt lat="48.15665" lon="-4.08992">
        <ele>151</ele>
        <time>2018-06-03T09:58:56.000Z</time>
      </trkpt>
      <trkpt lat="48.15671" lon="-4.08988">
        <ele>149.60000610352</ele>
        <time>2018-06-03T09:59:00.000Z</time>
      </trkpt>
      <trkpt lat="48.15676" lon="-4.08985">
        <ele>148.39999389648</ele>
        <time>2018-06-03T09:59:03.000Z</time>
      </trkpt>
      <trkpt lat="48.15677" lon="-4.08984">
        <ele>147.60000610352</ele>
        <time>2018-06-03T09:59:05.000Z</time>
      </trkpt>
      <trkpt lat="48.1568" lon="-4.08983">
        <ele>129.39999389648</ele>
        <time>2018-06-03T10:00:40.000Z</time>
      </trkpt>
      <trkpt lat="48.15684" lon="-4.08987">
        <ele>128.39999389648</ele>
        <time>2018-06-03T10:00:44.000Z</time>
      </trkpt>
      <trkpt lat="48.15686" lon="-4.08989">
        <ele>128.39999389648</ele>
        <time>2018-06-03T10:00:45.000Z</time>
      </trkpt>
      <trkpt lat="48.15698" lon="-4.09005">
        <ele>126.80000305176</ele>
        <time>2018-06-03T10:00:52.000Z</time>
      </trkpt>
      <trkpt lat="48.15704" lon="-4.09013">
        <ele>125.59999847412</ele>
        <time>2018-06-03T10:00:55.000Z</time>
      </trkpt>
      <trkpt lat="48.15727" lon="-4.09043">
        <ele>124.40000152588</ele>
        <time>2018-06-03T10:01:05.000Z</time>
      </trkpt>
      <trkpt lat="48.1575" lon="-4.09074">
        <ele>123.19999694824</ele>
        <time>2018-06-03T10:01:15.000Z</time>
      </trkpt>
      <trkpt lat="48.15778" lon="-4.0911">
        <ele>122</ele>
        <time>2018-06-03T10:01:26.000Z</time>
      </trkpt>
      <trkpt lat="48.15818" lon="-4.09163">
        <ele>120.80000305176</ele>
        <time>2018-06-03T10:01:43.000Z</time>
      </trkpt>
      <trkpt lat="48.15836" lon="-4.09188">
        <ele>119.19999694824</ele>
        <time>2018-06-03T10:01:51.000Z</time>
      </trkpt>
      <trkpt lat="48.15866" lon="-4.09226">
        <ele>118</ele>
        <time>2018-06-03T10:02:03.000Z</time>
      </trkpt>
      <trkpt lat="48.15876" lon="-4.09238">
        <ele>116.80000305176</ele>
        <time>2018-06-03T10:02:07.000Z</time>
      </trkpt>
      <trkpt lat="48.15903" lon="-4.09267">
        <ele>116.80000305176</ele>
        <time>2018-06-03T10:02:22.000Z</time>
      </trkpt>
      <trkpt lat="48.15903" lon="-4.09269">
        <ele>117</ele>
        <time>2018-06-03T10:02:26.000Z</time>
      </trkpt>
      <trkpt lat="48.15906" lon="-4.09272">
        <ele>117.40000152588</ele>
        <time>2018-06-03T10:02:29.000Z</time>
      </trkpt>
      <trkpt lat="48.15928" lon="-4.09292">
        <ele>116</ele>
        <time>2018-06-03T10:02:44.000Z</time>
      </trkpt>
      <trkpt lat="48.15936" lon="-4.09306">
        <ele>115.19999694824</ele>
        <time>2018-06-03T10:02:51.000Z</time>
      </trkpt>
      <trkpt lat="48.15934" lon="-4.09315">
        <ele>114.59999847412</ele>
        <time>2018-06-03T10:02:54.000Z</time>
      </trkpt>
      <trkpt lat="48.15933" lon="-4.09359">
        <ele>113.19999694824</ele>
        <time>2018-06-03T10:03:11.000Z</time>
      </trkpt>
      <trkpt lat="48.15936" lon="-4.09367">
        <ele>112</ele>
        <time>2018-06-03T10:03:14.000Z</time>
      </trkpt>
      <trkpt lat="48.15939" lon="-4.09379">
        <ele>110.59999847412</ele>
        <time>2018-06-03T10:03:19.000Z</time>
      </trkpt>
      <trkpt lat="48.15944" lon="-4.09392">
        <ele>109.19999694824</ele>
        <time>2018-06-03T10:03:24.000Z</time>
      </trkpt>
      <trkpt lat="48.1595" lon="-4.09413">
        <ele>108</ele>
        <time>2018-06-03T10:03:31.000Z</time>
      </trkpt>
      <trkpt lat="48.15956" lon="-4.09434">
        <ele>106.80000305176</ele>
        <time>2018-06-03T10:03:37.000Z</time>
      </trkpt>
      <trkpt lat="48.15963" lon="-4.09453">
        <ele>105.59999847412</ele>
        <time>2018-06-03T10:03:44.000Z</time>
      </trkpt>
      <trkpt lat="48.15967" lon="-4.09471">
        <ele>104.40000152588</ele>
        <time>2018-06-03T10:03:51.000Z</time>
      </trkpt>
      <trkpt lat="48.15966" lon="-4.09489">
        <ele>103.19999694824</ele>
        <time>2018-06-03T10:03:56.000Z</time>
      </trkpt>
      <trkpt lat="48.15965" lon="-4.09519">
        <ele>102</ele>
        <time>2018-06-03T10:04:02.000Z</time>
      </trkpt>
      <trkpt lat="48.1596" lon="-4.09573">
        <ele>100.59999847412</ele>
        <time>2018-06-03T10:04:12.000Z</time>
      </trkpt>
      <trkpt lat="48.15926" lon="-4.0964">
        <ele>100</ele>
        <time>2018-06-03T10:04:29.000Z</time>
      </trkpt>
      <trkpt lat="48.15932" lon="-4.09647">
        <ele>100.19999694824</ele>
        <time>2018-06-03T10:04:33.000Z</time>
      </trkpt>
      <trkpt lat="48.15972" lon="-4.09675">
        <ele>98.599998474121</ele>
        <time>2018-06-03T10:04:59.000Z</time>
      </trkpt>
      <trkpt lat="48.15979" lon="-4.09672">
        <ele>97.400001525879</ele>
        <time>2018-06-03T10:05:05.000Z</time>
      </trkpt>
      <trkpt lat="48.15984" lon="-4.09669">
        <ele>96.800003051758</ele>
        <time>2018-06-03T10:05:10.000Z</time>
      </trkpt>
      <trkpt lat="48.15992" lon="-4.09664">
        <ele>96</ele>
        <time>2018-06-03T10:05:18.000Z</time>
      </trkpt>
      <trkpt lat="48.15993" lon="-4.09664">
        <ele>95.800003051758</ele>
        <time>2018-06-03T10:05:21.000Z</time>
      </trkpt>
      <trkpt lat="48.15996" lon="-4.09663">
        <ele>95</ele>
        <time>2018-06-03T10:05:26.000Z</time>
      </trkpt>
      <trkpt lat="48.16" lon="-4.0966">
        <ele>94.400001525879</ele>
        <time>2018-06-03T10:05:31.000Z</time>
      </trkpt>
      <trkpt lat="48.16005" lon="-4.09657">
        <ele>93.199996948242</ele>
        <time>2018-06-03T10:05:36.000Z</time>
      </trkpt>
      <trkpt lat="48.16011" lon="-4.09654">
        <ele>91.800003051758</ele>
        <time>2018-06-03T10:05:42.000Z</time>
      </trkpt>
      <trkpt lat="48.16017" lon="-4.09651">
        <ele>90.599998474121</ele>
        <time>2018-06-03T10:05:47.000Z</time>
      </trkpt>
      <trkpt lat="48.16028" lon="-4.09646">
        <ele>89</ele>
        <time>2018-06-03T10:06:00.000Z</time>
      </trkpt>
      <trkpt lat="48.16036" lon="-4.09645">
        <ele>87.800003051758</ele>
        <time>2018-06-03T10:06:08.000Z</time>
      </trkpt>
      <trkpt lat="48.16051" lon="-4.0965">
        <ele>86.400001525879</ele>
        <time>2018-06-03T10:06:23.000Z</time>
      </trkpt>
      <trkpt lat="48.16065" lon="-4.09652">
        <ele>85</ele>
        <time>2018-06-03T10:06:35.000Z</time>
      </trkpt>
      <trkpt lat="48.16084" lon="-4.09658">
        <ele>83.800003051758</ele>
        <time>2018-06-03T10:06:54.000Z</time>
      </trkpt>
      <trkpt lat="48.16085" lon="-4.09665">
        <ele>81.400001525879</ele>
        <time>2018-06-03T10:07:10.000Z</time>
      </trkpt>
      <trkpt lat="48.16083" lon="-4.09704">
        <ele>80</ele>
        <time>2018-06-03T10:07:22.000Z</time>
      </trkpt>
      <trkpt lat="48.16083" lon="-4.0972">
        <ele>78.800003051758</ele>
        <time>2018-06-03T10:07:26.000Z</time>
      </trkpt>
      <trkpt lat="48.16082" lon="-4.09754">
        <ele>77.199996948242</ele>
        <time>2018-06-03T10:07:34.000Z</time>
      </trkpt>
      <trkpt lat="48.16087" lon="-4.09837">
        <ele>75.800003051758</ele>
        <time>2018-06-03T10:07:53.000Z</time>
      </trkpt>
      <trkpt lat="48.16087" lon="-4.09842">
        <ele>75.800003051758</ele>
        <time>2018-06-03T10:07:54.000Z</time>
      </trkpt>
      <trkpt lat="48.16086" lon="-4.09889">
        <ele>75.400001525879</ele>
        <time>2018-06-03T10:08:05.000Z</time>
      </trkpt>
      <trkpt lat="48.16088" lon="-4.09919">
        <ele>74.400001525879</ele>
        <time>2018-06-03T10:08:13.000Z</time>
      </trkpt>
      <trkpt lat="48.16086" lon="-4.09923">
        <ele>74.400001525879</ele>
        <time>2018-06-03T10:08:18.000Z</time>
      </trkpt>
      <trkpt lat="48.16085" lon="-4.09927">
        <ele>75.400001525879</ele>
        <time>2018-06-03T10:08:25.000Z</time>
      </trkpt>
      <trkpt lat="48.16083" lon="-4.0993">
        <ele>75.800003051758</ele>
        <time>2018-06-03T10:08:26.000Z</time>
      </trkpt>
      <trkpt lat="48.1604" lon="-4.09976">
        <ele>75</ele>
        <time>2018-06-03T10:08:43.000Z</time>
      </trkpt>
      <trkpt lat="48.15996" lon="-4.10019">
        <ele>74.199996948242</ele>
        <time>2018-06-03T10:08:53.000Z</time>
      </trkpt>
      <trkpt lat="48.15991" lon="-4.10024">
        <ele>74.199996948242</ele>
        <time>2018-06-03T10:08:54.000Z</time>
      </trkpt>
      <trkpt lat="48.1595" lon="-4.10063">
        <ele>75.400001525879</ele>
        <time>2018-06-03T10:09:03.000Z</time>
      </trkpt>
      <trkpt lat="48.15938" lon="-4.10074">
        <ele>76.400001525879</ele>
        <time>2018-06-03T10:09:06.000Z</time>
      </trkpt>
      <trkpt lat="48.15922" lon="-4.10092">
        <ele>77.199996948242</ele>
        <time>2018-06-03T10:09:11.000Z</time>
      </trkpt>
      <trkpt lat="48.15921" lon="-4.10109">
        <ele>78.199996948242</ele>
        <time>2018-06-03T10:09:14.000Z</time>
      </trkpt>
      <trkpt lat="48.15926" lon="-4.10124">
        <ele>78.800003051758</ele>
        <time>2018-06-03T10:09:17.000Z</time>
      </trkpt>
      <trkpt lat="48.15929" lon="-4.10134">
        <ele>79.199996948242</ele>
        <time>2018-06-03T10:09:19.000Z</time>
      </trkpt>
      <trkpt lat="48.15934" lon="-4.10161">
        <ele>80.199996948242</ele>
        <time>2018-06-03T10:09:24.000Z</time>
      </trkpt>
      <trkpt lat="48.15925" lon="-4.1021">
        <ele>81.199996948242</ele>
        <time>2018-06-03T10:09:31.000Z</time>
      </trkpt>
      <trkpt lat="48.15919" lon="-4.10225">
        <ele>81.400001525879</ele>
        <time>2018-06-03T10:09:33.000Z</time>
      </trkpt>
      <trkpt lat="48.15911" lon="-4.10239">
        <ele>82</ele>
        <time>2018-06-03T10:09:35.000Z</time>
      </trkpt>
      <trkpt lat="48.15871" lon="-4.10284">
        <ele>82.599998474121</ele>
        <time>2018-06-03T10:09:44.000Z</time>
      </trkpt>
      <trkpt lat="48.15858" lon="-4.10301">
        <ele>82.800003051758</ele>
        <time>2018-06-03T10:09:47.000Z</time>
      </trkpt>
      <trkpt lat="48.15822" lon="-4.1036">
        <ele>83.599998474121</ele>
        <time>2018-06-03T10:09:58.000Z</time>
      </trkpt>
      <trkpt lat="48.15809" lon="-4.10383">
        <ele>85</ele>
        <time>2018-06-03T10:10:04.000Z</time>
      </trkpt>
      <trkpt lat="48.15805" lon="-4.10391">
        <ele>85.599998474121</ele>
        <time>2018-06-03T10:10:07.000Z</time>
      </trkpt>
      <trkpt lat="48.15806" lon="-4.10396">
        <ele>86</ele>
        <time>2018-06-03T10:10:09.000Z</time>
      </trkpt>
      <trkpt lat="48.15807" lon="-4.10401">
        <ele>86.800003051758</ele>
        <time>2018-06-03T10:10:11.000Z</time>
      </trkpt>
      <trkpt lat="48.15808" lon="-4.10403">
        <ele>87.199996948242</ele>
        <time>2018-06-03T10:10:13.000Z</time>
      </trkpt>
      <trkpt lat="48.15814" lon="-4.10418">
        <ele>88.400001525879</ele>
        <time>2018-06-03T10:10:19.000Z</time>
      </trkpt>
      <trkpt lat="48.15826" lon="-4.10435">
        <ele>88.800003051758</ele>
        <time>2018-06-03T10:10:26.000Z</time>
      </trkpt>
      <trkpt lat="48.15837" lon="-4.1043">
        <ele>89</ele>
        <time>2018-06-03T10:10:33.000Z</time>
      </trkpt>
      <trkpt lat="48.15846" lon="-4.10428">
        <ele>89.199996948242</ele>
        <time>2018-06-03T10:10:39.000Z</time>
      </trkpt>
      <trkpt lat="48.15856" lon="-4.10424">
        <ele>90.199996948242</ele>
        <time>2018-06-03T10:10:53.000Z</time>
      </trkpt>
      <trkpt lat="48.1586" lon="-4.10422">
        <ele>91.199996948242</ele>
        <time>2018-06-03T10:11:02.000Z</time>
      </trkpt>
      <trkpt lat="48.1587" lon="-4.10424">
        <ele>92</ele>
        <time>2018-06-03T10:11:07.000Z</time>
      </trkpt>
      <trkpt lat="48.15874" lon="-4.10427">
        <ele>92.400001525879</ele>
        <time>2018-06-03T10:11:09.000Z</time>
      </trkpt>
      <trkpt lat="48.15877" lon="-4.10431">
        <ele>92.400001525879</ele>
        <time>2018-06-03T10:11:11.000Z</time>
      </trkpt>
      <trkpt lat="48.15884" lon="-4.1044">
        <ele>93.199996948242</ele>
        <time>2018-06-03T10:11:17.000Z</time>
      </trkpt>
      <trkpt lat="48.15885" lon="-4.1044">
        <ele>93.199996948242</ele>
        <time>2018-06-03T10:11:18.000Z</time>
      </trkpt>
      <trkpt lat="48.15893" lon="-4.10438">
        <ele>93</ele>
        <time>2018-06-03T10:11:42.000Z</time>
      </trkpt>
      <trkpt lat="48.15899" lon="-4.10435">
        <ele>93</ele>
        <time>2018-06-03T10:11:49.000Z</time>
      </trkpt>
      <trkpt lat="48.159" lon="-4.10435">
        <ele>93</ele>
        <time>2018-06-03T10:11:50.000Z</time>
      </trkpt>
      <trkpt lat="48.15906" lon="-4.10438">
        <ele>93.800003051758</ele>
        <time>2018-06-03T10:11:58.000Z</time>
      </trkpt>
      <trkpt lat="48.15907" lon="-4.10443">
        <ele>94</ele>
        <time>2018-06-03T10:12:03.000Z</time>
      </trkpt>
      <trkpt lat="48.15912" lon="-4.10452">
        <ele>93.599998474121</ele>
        <time>2018-06-03T10:12:14.000Z</time>
      </trkpt>
      <trkpt lat="48.1591" lon="-4.10456">
        <ele>93.599998474121</ele>
        <time>2018-06-03T10:12:22.000Z</time>
      </trkpt>
      <trkpt lat="48.15909" lon="-4.10457">
        <ele>93.599998474121</ele>
        <time>2018-06-03T10:12:23.000Z</time>
      </trkpt>
      <trkpt lat="48.15908" lon="-4.10482">
        <ele>93.599998474121</ele>
        <time>2018-06-03T10:12:33.000Z</time>
      </trkpt>
      <trkpt lat="48.15908" lon="-4.10483">
        <ele>92.599998474121</ele>
        <time>2018-06-03T10:12:37.000Z</time>
      </trkpt>
      <trkpt lat="48.15907" lon="-4.10486">
        <ele>92</ele>
        <time>2018-06-03T10:12:41.000Z</time>
      </trkpt>
      <trkpt lat="48.15906" lon="-4.1049">
        <ele>91.199996948242</ele>
        <time>2018-06-03T10:12:46.000Z</time>
      </trkpt>
      <trkpt lat="48.15906" lon="-4.10492">
        <ele>91</ele>
        <time>2018-06-03T10:12:47.000Z</time>
      </trkpt>
      <trkpt lat="48.1591" lon="-4.10503">
        <ele>90</ele>
        <time>2018-06-03T10:12:52.000Z</time>
      </trkpt>
      <trkpt lat="48.15911" lon="-4.10507">
        <ele>89</ele>
        <time>2018-06-03T10:12:54.000Z</time>
      </trkpt>
      <trkpt lat="48.15912" lon="-4.10516">
        <ele>87.800003051758</ele>
        <time>2018-06-03T10:12:57.000Z</time>
      </trkpt>
      <trkpt lat="48.15912" lon="-4.10523">
        <ele>86.800003051758</ele>
        <time>2018-06-03T10:12:59.000Z</time>
      </trkpt>
      <trkpt lat="48.15911" lon="-4.10541">
        <ele>85.199996948242</ele>
        <time>2018-06-03T10:13:04.000Z</time>
      </trkpt>
      <trkpt lat="48.15915" lon="-4.10556">
        <ele>84.199996948242</ele>
        <time>2018-06-03T10:13:09.000Z</time>
      </trkpt>
      <trkpt lat="48.15927" lon="-4.10575">
        <ele>83</ele>
        <time>2018-06-03T10:13:21.000Z</time>
      </trkpt>
      <trkpt lat="48.15936" lon="-4.10582">
        <ele>81.800003051758</ele>
        <time>2018-06-03T10:13:29.000Z</time>
      </trkpt>
      <trkpt lat="48.15943" lon="-4.1058">
        <ele>80.400001525879</ele>
        <time>2018-06-03T10:13:35.000Z</time>
      </trkpt>
      <trkpt lat="48.15945" lon="-4.10584">
        <ele>79.400001525879</ele>
        <time>2018-06-03T10:13:39.000Z</time>
      </trkpt>
      <trkpt lat="48.15945" lon="-4.10585">
        <ele>79.199996948242</ele>
        <time>2018-06-03T10:13:40.000Z</time>
      </trkpt>
      <trkpt lat="48.15947" lon="-4.10607">
        <ele>79</ele>
        <time>2018-06-03T10:13:48.000Z</time>
      </trkpt>
      <trkpt lat="48.15955" lon="-4.10609">
        <ele>79</ele>
        <time>2018-06-03T10:13:53.000Z</time>
      </trkpt>
      <trkpt lat="48.15973" lon="-4.10606">
        <ele>77.599998474121</ele>
        <time>2018-06-03T10:14:02.000Z</time>
      </trkpt>
      <trkpt lat="48.1598" lon="-4.10604">
        <ele>76.400001525879</ele>
        <time>2018-06-03T10:14:06.000Z</time>
      </trkpt>
      <trkpt lat="48.1602" lon="-4.1058">
        <ele>77.199996948242</ele>
        <time>2018-06-03T10:14:28.000Z</time>
      </trkpt>
      <trkpt lat="48.16029" lon="-4.10574">
        <ele>78</ele>
        <time>2018-06-03T10:14:33.000Z</time>
      </trkpt>
      <trkpt lat="48.16066" lon="-4.10546">
        <ele>78.599998474121</ele>
        <time>2018-06-03T10:14:52.000Z</time>
      </trkpt>
      <trkpt lat="48.16115" lon="-4.1051">
        <ele>78.599998474121</ele>
        <time>2018-06-03T10:15:17.000Z</time>
      </trkpt>
      <trkpt lat="48.16134" lon="-4.10499">
        <ele>79</ele>
        <time>2018-06-03T10:15:26.000Z</time>
      </trkpt>
      <trkpt lat="48.16186" lon="-4.10472">
        <ele>78.599998474121</ele>
        <time>2018-06-03T10:15:53.000Z</time>
      </trkpt>
      <trkpt lat="48.16236" lon="-4.10451">
        <ele>78.400001525879</ele>
        <time>2018-06-03T10:16:21.000Z</time>
      </trkpt>
      <trkpt lat="48.16238" lon="-4.1045">
        <ele>78.599998474121</ele>
        <time>2018-06-03T10:16:22.000Z</time>
      </trkpt>
      <trkpt lat="48.16247" lon="-4.10449">
        <ele>79.800003051758</ele>
        <time>2018-06-03T10:16:27.000Z</time>
      </trkpt>
      <trkpt lat="48.16256" lon="-4.10448">
        <ele>80.800003051758</ele>
        <time>2018-06-03T10:16:32.000Z</time>
      </trkpt>
      <trkpt lat="48.16265" lon="-4.10447">
        <ele>81.800003051758</ele>
        <time>2018-06-03T10:16:37.000Z</time>
      </trkpt>
      <trkpt lat="48.16307" lon="-4.10395">
        <ele>81.400001525879</ele>
        <time>2018-06-03T10:17:08.000Z</time>
      </trkpt>
      <trkpt lat="48.16344" lon="-4.10335">
        <ele>79.199996948242</ele>
        <time>2018-06-03T10:17:39.000Z</time>
      </trkpt>
      <trkpt lat="48.16349" lon="-4.10325">
        <ele>77.800003051758</ele>
        <time>2018-06-03T10:17:44.000Z</time>
      </trkpt>
      <trkpt lat="48.16374" lon="-4.1028">
        <ele>75.400001525879</ele>
        <time>2018-06-03T10:18:06.000Z</time>
      </trkpt>
      <trkpt lat="48.16377" lon="-4.10279">
        <ele>74.800003051758</ele>
        <time>2018-06-03T10:18:08.000Z</time>
      </trkpt>
      <trkpt lat="48.16383" lon="-4.10283">
        <ele>74.199996948242</ele>
        <time>2018-06-03T10:18:12.000Z</time>
      </trkpt>
      <trkpt lat="48.16392" lon="-4.10279">
        <ele>75</ele>
        <time>2018-06-03T10:18:21.000Z</time>
      </trkpt>
      <trkpt lat="48.16396" lon="-4.10278">
        <ele>75.800003051758</ele>
        <time>2018-06-03T10:18:24.000Z</time>
      </trkpt>
      <trkpt lat="48.16398" lon="-4.10275">
        <ele>76.400001525879</ele>
        <time>2018-06-03T10:18:26.000Z</time>
      </trkpt>
      <trkpt lat="48.16402" lon="-4.10272">
        <ele>80.199996948242</ele>
        <time>2018-06-03T10:18:42.000Z</time>
      </trkpt>
      <trkpt lat="48.16402" lon="-4.10271">
        <ele>80.599998474121</ele>
        <time>2018-06-03T10:18:45.000Z</time>
      </trkpt>
      <trkpt lat="48.16404" lon="-4.10269">
        <ele>80.599998474121</ele>
        <time>2018-06-03T10:18:48.000Z</time>
      </trkpt>
      <trkpt lat="48.16404" lon="-4.10268">
        <ele>81</ele>
        <time>2018-06-03T10:18:50.000Z</time>
      </trkpt>
      <trkpt lat="48.16407" lon="-4.10265">
        <ele>81.400001525879</ele>
        <time>2018-06-03T10:18:58.000Z</time>
      </trkpt>
      <trkpt lat="48.16407" lon="-4.10264">
        <ele>81.400001525879</ele>
        <time>2018-06-03T10:19:00.000Z</time>
      </trkpt>
      <trkpt lat="48.16408" lon="-4.10263">
        <ele>81.400001525879</ele>
        <time>2018-06-03T10:19:01.000Z</time>
      </trkpt>
      <trkpt lat="48.16414" lon="-4.10261">
        <ele>81.400001525879</ele>
        <time>2018-06-03T10:19:07.000Z</time>
      </trkpt>
      <trkpt lat="48.16425" lon="-4.10251">
        <ele>81.400001525879</ele>
        <time>2018-06-03T10:19:16.000Z</time>
      </trkpt>
      <trkpt lat="48.16429" lon="-4.1025">
        <ele>81.400001525879</ele>
        <time>2018-06-03T10:19:19.000Z</time>
      </trkpt>
      <trkpt lat="48.16432" lon="-4.1025">
        <ele>81.400001525879</ele>
        <time>2018-06-03T10:19:21.000Z</time>
      </trkpt>
      <trkpt lat="48.16435" lon="-4.10249">
        <ele>81.800003051758</ele>
        <time>2018-06-03T10:19:24.000Z</time>
      </trkpt>
      <trkpt lat="48.16441" lon="-4.10255">
        <ele>82.800003051758</ele>
        <time>2018-06-03T10:19:29.000Z</time>
      </trkpt>
      <trkpt lat="48.16446" lon="-4.10261">
        <ele>83.599998474121</ele>
        <time>2018-06-03T10:19:33.000Z</time>
      </trkpt>
      <trkpt lat="48.16447" lon="-4.10263">
        <ele>84</ele>
        <time>2018-06-03T10:19:34.000Z</time>
      </trkpt>
      <trkpt lat="48.1645" lon="-4.10266">
        <ele>84.800003051758</ele>
        <time>2018-06-03T10:19:36.000Z</time>
      </trkpt>
      <trkpt lat="48.16456" lon="-4.10271">
        <ele>85.800003051758</ele>
        <time>2018-06-03T10:19:40.000Z</time>
      </trkpt>
      <trkpt lat="48.16462" lon="-4.10271">
        <ele>86.199996948242</ele>
        <time>2018-06-03T10:19:45.000Z</time>
      </trkpt>
      <trkpt lat="48.16467" lon="-4.10272">
        <ele>86.199996948242</ele>
        <time>2018-06-03T10:19:52.000Z</time>
      </trkpt>
      <trkpt lat="48.16467" lon="-4.10274">
        <ele>86.599998474121</ele>
        <time>2018-06-03T10:19:54.000Z</time>
      </trkpt>
      <trkpt lat="48.16472" lon="-4.1028">
        <ele>87.599998474121</ele>
        <time>2018-06-03T10:20:00.000Z</time>
      </trkpt>
      <trkpt lat="48.16477" lon="-4.10288">
        <ele>88.599998474121</ele>
        <time>2018-06-03T10:20:05.000Z</time>
      </trkpt>
      <trkpt lat="48.16489" lon="-4.10301">
        <ele>89.599998474121</ele>
        <time>2018-06-03T10:20:12.000Z</time>
      </trkpt>
      <trkpt lat="48.1649" lon="-4.10302">
        <ele>89.800003051758</ele>
        <time>2018-06-03T10:20:13.000Z</time>
      </trkpt>
      <trkpt lat="48.16498" lon="-4.10312">
        <ele>90.599998474121</ele>
        <time>2018-06-03T10:20:18.000Z</time>
      </trkpt>
      <trkpt lat="48.16507" lon="-4.10323">
        <ele>92.199996948242</ele>
        <time>2018-06-03T10:20:23.000Z</time>
      </trkpt>
      <trkpt lat="48.16513" lon="-4.1033">
        <ele>93</ele>
        <time>2018-06-03T10:20:26.000Z</time>
      </trkpt>
      <trkpt lat="48.16515" lon="-4.10331">
        <ele>93.199996948242</ele>
        <time>2018-06-03T10:20:27.000Z</time>
      </trkpt>
      <trkpt lat="48.16521" lon="-4.10332">
        <ele>94</ele>
        <time>2018-06-03T10:20:30.000Z</time>
      </trkpt>
      <trkpt lat="48.16531" lon="-4.10341">
        <ele>95</ele>
        <time>2018-06-03T10:20:37.000Z</time>
      </trkpt>
      <trkpt lat="48.16533" lon="-4.10343">
        <ele>95.199996948242</ele>
        <time>2018-06-03T10:20:38.000Z</time>
      </trkpt>
      <trkpt lat="48.16537" lon="-4.10351">
        <ele>95.800003051758</ele>
        <time>2018-06-03T10:20:41.000Z</time>
      </trkpt>
      <trkpt lat="48.1654" lon="-4.10358">
        <ele>96.800003051758</ele>
        <time>2018-06-03T10:20:44.000Z</time>
      </trkpt>
      <trkpt lat="48.16544" lon="-4.10362">
        <ele>97.800003051758</ele>
        <time>2018-06-03T10:20:47.000Z</time>
      </trkpt>
      <trkpt lat="48.1655" lon="-4.10367">
        <ele>98.800003051758</ele>
        <time>2018-06-03T10:20:51.000Z</time>
      </trkpt>
      <trkpt lat="48.1655" lon="-4.10367">
        <ele>99</ele>
        <time>2018-06-03T10:20:52.000Z</time>
      </trkpt>
      <trkpt lat="48.16551" lon="-4.10368">
        <ele>99.199996948242</ele>
        <time>2018-06-03T10:20:53.000Z</time>
      </trkpt>
      <trkpt lat="48.16553" lon="-4.1037">
        <ele>100</ele>
        <time>2018-06-03T10:20:56.000Z</time>
      </trkpt>
      <trkpt lat="48.16554" lon="-4.10372">
        <ele>101.19999694824</ele>
        <time>2018-06-03T10:20:59.000Z</time>
      </trkpt>
      <trkpt lat="48.16558" lon="-4.10375">
        <ele>101.80000305176</ele>
        <time>2018-06-03T10:21:02.000Z</time>
      </trkpt>
      <trkpt lat="48.16558" lon="-4.10376">
        <ele>101.80000305176</ele>
        <time>2018-06-03T10:21:03.000Z</time>
      </trkpt>
      <trkpt lat="48.16559" lon="-4.10378">
        <ele>102</ele>
        <time>2018-06-03T10:21:04.000Z</time>
      </trkpt>
      <trkpt lat="48.16559" lon="-4.10381">
        <ele>102</ele>
        <time>2018-06-03T10:21:06.000Z</time>
      </trkpt>
      <trkpt lat="48.16558" lon="-4.10381">
        <ele>101.80000305176</ele>
        <time>2018-06-03T10:21:12.000Z</time>
      </trkpt>
      <trkpt lat="48.16558" lon="-4.10381">
        <ele>101.59999847412</ele>
        <time>2018-06-03T10:21:14.000Z</time>
      </trkpt>
      <trkpt lat="48.16557" lon="-4.10382">
        <ele>101.59999847412</ele>
        <time>2018-06-03T10:21:15.000Z</time>
      </trkpt>
      <trkpt lat="48.16532" lon="-4.10424">
        <ele>100.40000152588</ele>
        <time>2018-06-03T10:21:28.000Z</time>
      </trkpt>
      <trkpt lat="48.16517" lon="-4.10441">
        <ele>99.400001525879</ele>
        <time>2018-06-03T10:21:33.000Z</time>
      </trkpt>
      <trkpt lat="48.16506" lon="-4.1047">
        <ele>99.400001525879</ele>
        <time>2018-06-03T10:21:40.000Z</time>
      </trkpt>
      <trkpt lat="48.16498" lon="-4.10511">
        <ele>100.59999847412</ele>
        <time>2018-06-03T10:21:48.000Z</time>
      </trkpt>
      <trkpt lat="48.16496" lon="-4.10515">
        <ele>100.80000305176</ele>
        <time>2018-06-03T10:21:49.000Z</time>
      </trkpt>
      <trkpt lat="48.16495" lon="-4.10519">
        <ele>101.19999694824</ele>
        <time>2018-06-03T10:21:50.000Z</time>
      </trkpt>
      <trkpt lat="48.16489" lon="-4.10529">
        <ele>102</ele>
        <time>2018-06-03T10:21:53.000Z</time>
      </trkpt>
      <trkpt lat="48.1648" lon="-4.10541">
        <ele>103.19999694824</ele>
        <time>2018-06-03T10:21:56.000Z</time>
      </trkpt>
      <trkpt lat="48.16477" lon="-4.10545">
        <ele>103.59999847412</ele>
        <time>2018-06-03T10:21:57.000Z</time>
      </trkpt>
      <trkpt lat="48.16471" lon="-4.10553">
        <ele>104</ele>
        <time>2018-06-03T10:21:59.000Z</time>
      </trkpt>
      <trkpt lat="48.16467" lon="-4.10557">
        <ele>104.19999694824</ele>
        <time>2018-06-03T10:22:00.000Z</time>
      </trkpt>
      <trkpt lat="48.16454" lon="-4.1057">
        <ele>105</ele>
        <time>2018-06-03T10:22:03.000Z</time>
      </trkpt>
      <trkpt lat="48.16449" lon="-4.10575">
        <ele>105.19999694824</ele>
        <time>2018-06-03T10:22:04.000Z</time>
      </trkpt>
      <trkpt lat="48.16438" lon="-4.10587">
        <ele>106.59999847412</ele>
        <time>2018-06-03T10:22:07.000Z</time>
      </trkpt>
      <trkpt lat="48.1643" lon="-4.10598">
        <ele>107.59999847412</ele>
        <time>2018-06-03T10:22:10.000Z</time>
      </trkpt>
      <trkpt lat="48.16427" lon="-4.1061">
        <ele>109</ele>
        <time>2018-06-03T10:22:14.000Z</time>
      </trkpt>
      <trkpt lat="48.16428" lon="-4.10614">
        <ele>110.19999694824</ele>
        <time>2018-06-03T10:22:17.000Z</time>
      </trkpt>
      <trkpt lat="48.1643" lon="-4.10618">
        <ele>111.19999694824</ele>
        <time>2018-06-03T10:22:20.000Z</time>
      </trkpt>
      <trkpt lat="48.16433" lon="-4.10622">
        <ele>112.40000152588</ele>
        <time>2018-06-03T10:22:23.000Z</time>
      </trkpt>
      <trkpt lat="48.16442" lon="-4.10629">
        <ele>113.59999847412</ele>
        <time>2018-06-03T10:22:27.000Z</time>
      </trkpt>
      <trkpt lat="48.16444" lon="-4.10632">
        <ele>113.80000305176</ele>
        <time>2018-06-03T10:22:28.000Z</time>
      </trkpt>
      <trkpt lat="48.1645" lon="-4.10637">
        <ele>114.80000305176</ele>
        <time>2018-06-03T10:22:31.000Z</time>
      </trkpt>
      <trkpt lat="48.16457" lon="-4.10644">
        <ele>116</ele>
        <time>2018-06-03T10:22:35.000Z</time>
      </trkpt>
      <trkpt lat="48.16469" lon="-4.10654">
        <ele>117.19999694824</ele>
        <time>2018-06-03T10:22:40.000Z</time>
      </trkpt>
      <trkpt lat="48.16477" lon="-4.10659">
        <ele>118.19999694824</ele>
        <time>2018-06-03T10:22:44.000Z</time>
      </trkpt>
      <trkpt lat="48.16484" lon="-4.10659">
        <ele>119.40000152588</ele>
        <time>2018-06-03T10:22:49.000Z</time>
      </trkpt>
      <trkpt lat="48.16495" lon="-4.10665">
        <ele>120.59999847412</ele>
        <time>2018-06-03T10:22:56.000Z</time>
      </trkpt>
      <trkpt lat="48.16508" lon="-4.10671">
        <ele>121.80000305176</ele>
        <time>2018-06-03T10:23:02.000Z</time>
      </trkpt>
      <trkpt lat="48.16523" lon="-4.10675">
        <ele>123</ele>
        <time>2018-06-03T10:23:10.000Z</time>
      </trkpt>
      <trkpt lat="48.16529" lon="-4.10677">
        <ele>123.40000152588</ele>
        <time>2018-06-03T10:23:14.000Z</time>
      </trkpt>
      <trkpt lat="48.16543" lon="-4.10686">
        <ele>124.19999694824</ele>
        <time>2018-06-03T10:23:22.000Z</time>
      </trkpt>
      <trkpt lat="48.16554" lon="-4.10697">
        <ele>125.19999694824</ele>
        <time>2018-06-03T10:23:28.000Z</time>
      </trkpt>
      <trkpt lat="48.16571" lon="-4.10715">
        <ele>126.40000152588</ele>
        <time>2018-06-03T10:23:38.000Z</time>
      </trkpt>
      <trkpt lat="48.16584" lon="-4.10727">
        <ele>127.40000152588</ele>
        <time>2018-06-03T10:23:44.000Z</time>
      </trkpt>
      <trkpt lat="48.16592" lon="-4.10739">
        <ele>128.39999389648</ele>
        <time>2018-06-03T10:23:49.000Z</time>
      </trkpt>
      <trkpt lat="48.16608" lon="-4.10782">
        <ele>129.60000610352</ele>
        <time>2018-06-03T10:24:00.000Z</time>
      </trkpt>
      <trkpt lat="48.16617" lon="-4.10811">
        <ele>130.60000610352</ele>
        <time>2018-06-03T10:24:06.000Z</time>
      </trkpt>
      <trkpt lat="48.16624" lon="-4.10837">
        <ele>131.80000305176</ele>
        <time>2018-06-03T10:24:11.000Z</time>
      </trkpt>
      <trkpt lat="48.16629" lon="-4.10857">
        <ele>133</ele>
        <time>2018-06-03T10:24:15.000Z</time>
      </trkpt>
      <trkpt lat="48.16632" lon="-4.10878">
        <ele>134.19999694824</ele>
        <time>2018-06-03T10:24:20.000Z</time>
      </trkpt>
      <trkpt lat="48.16637" lon="-4.10893">
        <ele>135.39999389648</ele>
        <time>2018-06-03T10:24:24.000Z</time>
      </trkpt>
      <trkpt lat="48.16647" lon="-4.10915">
        <ele>136.60000610352</ele>
        <time>2018-06-03T10:24:29.000Z</time>
      </trkpt>
      <trkpt lat="48.16648" lon="-4.1092">
        <ele>136.80000305176</ele>
        <time>2018-06-03T10:24:30.000Z</time>
      </trkpt>
      <trkpt lat="48.16655" lon="-4.10936">
        <ele>137.60000610352</ele>
        <time>2018-06-03T10:24:34.000Z</time>
      </trkpt>
      <trkpt lat="48.16656" lon="-4.1094">
        <ele>137.80000305176</ele>
        <time>2018-06-03T10:24:35.000Z</time>
      </trkpt>
      <trkpt lat="48.16661" lon="-4.10964">
        <ele>138.60000610352</ele>
        <time>2018-06-03T10:24:41.000Z</time>
      </trkpt>
      <trkpt lat="48.16663" lon="-4.1099">
        <ele>139.80000305176</ele>
        <time>2018-06-03T10:24:48.000Z</time>
      </trkpt>
      <trkpt lat="48.16661" lon="-4.11021">
        <ele>141</ele>
        <time>2018-06-03T10:24:55.000Z</time>
      </trkpt>
      <trkpt lat="48.16654" lon="-4.11065">
        <ele>142</ele>
        <time>2018-06-03T10:25:03.000Z</time>
      </trkpt>
      <trkpt lat="48.16645" lon="-4.11093">
        <ele>143</ele>
        <time>2018-06-03T10:25:09.000Z</time>
      </trkpt>
      <trkpt lat="48.16629" lon="-4.11126">
        <ele>144</ele>
        <time>2018-06-03T10:25:16.000Z</time>
      </trkpt>
      <trkpt lat="48.16619" lon="-4.11171">
        <ele>145.19999694824</ele>
        <time>2018-06-03T10:25:23.000Z</time>
      </trkpt>
      <trkpt lat="48.16616" lon="-4.11183">
        <ele>145.39999389648</ele>
        <time>2018-06-03T10:25:25.000Z</time>
      </trkpt>
      <trkpt lat="48.16611" lon="-4.11215">
        <ele>145.80000305176</ele>
        <time>2018-06-03T10:25:30.000Z</time>
      </trkpt>
      <trkpt lat="48.16608" lon="-4.11225">
        <ele>146.39999389648</ele>
        <time>2018-06-03T10:25:32.000Z</time>
      </trkpt>
      <trkpt lat="48.16606" lon="-4.11265">
        <ele>147.60000610352</ele>
        <time>2018-06-03T10:25:39.000Z</time>
      </trkpt>
      <trkpt lat="48.16606" lon="-4.11298">
        <ele>148.80000305176</ele>
        <time>2018-06-03T10:25:46.000Z</time>
      </trkpt>
      <trkpt lat="48.16605" lon="-4.11305">
        <ele>149</ele>
        <time>2018-06-03T10:25:48.000Z</time>
      </trkpt>
      <trkpt lat="48.16596" lon="-4.11352">
        <ele>150</ele>
        <time>2018-06-03T10:25:57.000Z</time>
      </trkpt>
      <trkpt lat="48.16588" lon="-4.11416">
        <ele>151.39999389648</ele>
        <time>2018-06-03T10:26:09.000Z</time>
      </trkpt>
      <trkpt lat="48.16586" lon="-4.11436">
        <ele>151.39999389648</ele>
        <time>2018-06-03T10:26:13.000Z</time>
      </trkpt>
      <trkpt lat="48.16586" lon="-4.11446">
        <ele>152</ele>
        <time>2018-06-03T10:26:15.000Z</time>
      </trkpt>
      <trkpt lat="48.16586" lon="-4.11468">
        <ele>152.39999389648</ele>
        <time>2018-06-03T10:26:19.000Z</time>
      </trkpt>
      <trkpt lat="48.16584" lon="-4.11489">
        <ele>152.60000610352</ele>
        <time>2018-06-03T10:26:23.000Z</time>
      </trkpt>
      <trkpt lat="48.16577" lon="-4.11558">
        <ele>154.19999694824</ele>
        <time>2018-06-03T10:26:36.000Z</time>
      </trkpt>
      <trkpt lat="48.16577" lon="-4.11573">
        <ele>154.39999389648</ele>
        <time>2018-06-03T10:26:39.000Z</time>
      </trkpt>
      <trkpt lat="48.16577" lon="-4.116">
        <ele>155.19999694824</ele>
        <time>2018-06-03T10:26:44.000Z</time>
      </trkpt>
      <trkpt lat="48.16574" lon="-4.11608">
        <ele>155.60000610352</ele>
        <time>2018-06-03T10:26:46.000Z</time>
      </trkpt>
      <trkpt lat="48.16566" lon="-4.11609">
        <ele>155.60000610352</ele>
        <time>2018-06-03T10:26:51.000Z</time>
      </trkpt>
      <trkpt lat="48.16531" lon="-4.11601">
        <ele>155</ele>
        <time>2018-06-03T10:27:01.000Z</time>
      </trkpt>
      <trkpt lat="48.16502" lon="-4.11608">
        <ele>154</ele>
        <time>2018-06-03T10:27:07.000Z</time>
      </trkpt>
      <trkpt lat="48.16466" lon="-4.1162">
        <ele>153</ele>
        <time>2018-06-03T10:27:14.000Z</time>
      </trkpt>
      <trkpt lat="48.16452" lon="-4.11628">
        <ele>151.80000305176</ele>
        <time>2018-06-03T10:27:17.000Z</time>
      </trkpt>
      <trkpt lat="48.16433" lon="-4.1164">
        <ele>150.80000305176</ele>
        <time>2018-06-03T10:27:21.000Z</time>
      </trkpt>
      <trkpt lat="48.16396" lon="-4.11675">
        <ele>150</ele>
        <time>2018-06-03T10:27:30.000Z</time>
      </trkpt>
      <trkpt lat="48.16377" lon="-4.11689">
        <ele>149.19999694824</ele>
        <time>2018-06-03T10:27:36.000Z</time>
      </trkpt>
      <trkpt lat="48.16362" lon="-4.11703">
        <ele>148</ele>
        <time>2018-06-03T10:27:41.000Z</time>
      </trkpt>
      <trkpt lat="48.16348" lon="-4.1172">
        <ele>147.19999694824</ele>
        <time>2018-06-03T10:27:47.000Z</time>
      </trkpt>
      <trkpt lat="48.1634" lon="-4.11727">
        <ele>146</ele>
        <time>2018-06-03T10:27:50.000Z</time>
      </trkpt>
      <trkpt lat="48.16332" lon="-4.11731">
        <ele>145</ele>
        <time>2018-06-03T10:27:53.000Z</time>
      </trkpt>
      <trkpt lat="48.16324" lon="-4.11738">
        <ele>143.60000610352</ele>
        <time>2018-06-03T10:27:57.000Z</time>
      </trkpt>
      <trkpt lat="48.1632" lon="-4.11748">
        <ele>143</ele>
        <time>2018-06-03T10:28:03.000Z</time>
      </trkpt>
      <trkpt lat="48.16313" lon="-4.11748">
        <ele>142.80000305176</ele>
        <time>2018-06-03T10:28:07.000Z</time>
      </trkpt>
      <trkpt lat="48.16307" lon="-4.11752">
        <ele>142.80000305176</ele>
        <time>2018-06-03T10:28:10.000Z</time>
      </trkpt>
      <trkpt lat="48.16299" lon="-4.11756">
        <ele>142.60000610352</ele>
        <time>2018-06-03T10:28:15.000Z</time>
      </trkpt>
      <trkpt lat="48.16255" lon="-4.11778">
        <ele>142.39999389648</ele>
        <time>2018-06-03T10:28:30.000Z</time>
      </trkpt>
      <trkpt lat="48.16209" lon="-4.11795">
        <ele>141.39999389648</ele>
        <time>2018-06-03T10:28:41.000Z</time>
      </trkpt>
      <trkpt lat="48.16168" lon="-4.11807">
        <ele>140.19999694824</ele>
        <time>2018-06-03T10:28:48.000Z</time>
      </trkpt>
      <trkpt lat="48.16137" lon="-4.11816">
        <ele>139.19999694824</ele>
        <time>2018-06-03T10:28:53.000Z</time>
      </trkpt>
      <trkpt lat="48.1612" lon="-4.11821">
        <ele>138.19999694824</ele>
        <time>2018-06-03T10:28:56.000Z</time>
      </trkpt>
      <trkpt lat="48.16072" lon="-4.11836">
        <ele>137.19999694824</ele>
        <time>2018-06-03T10:29:06.000Z</time>
      </trkpt>
      <trkpt lat="48.16056" lon="-4.11831">
        <ele>136.60000610352</ele>
        <time>2018-06-03T10:29:11.000Z</time>
      </trkpt>
      <trkpt lat="48.16056" lon="-4.1183">
        <ele>135.80000305176</ele>
        <time>2018-06-03T10:29:14.000Z</time>
      </trkpt>
      <trkpt lat="48.16054" lon="-4.11827">
        <ele>135</ele>
        <time>2018-06-03T10:29:17.000Z</time>
      </trkpt>
      <trkpt lat="48.16043" lon="-4.11795">
        <ele>134.19999694824</ele>
        <time>2018-06-03T10:29:24.000Z</time>
      </trkpt>
      <trkpt lat="48.16034" lon="-4.11775">
        <ele>133</ele>
        <time>2018-06-03T10:29:28.000Z</time>
      </trkpt>
      <trkpt lat="48.1603" lon="-4.11765">
        <ele>132.39999389648</ele>
        <time>2018-06-03T10:29:30.000Z</time>
      </trkpt>
      <trkpt lat="48.16028" lon="-4.11758">
        <ele>131.80000305176</ele>
        <time>2018-06-03T10:29:31.000Z</time>
      </trkpt>
      <trkpt lat="48.16017" lon="-4.1173">
        <ele>131.60000610352</ele>
        <time>2018-06-03T10:29:36.000Z</time>
      </trkpt>
      <trkpt lat="48.15998" lon="-4.11686">
        <ele>131.80000305176</ele>
        <time>2018-06-03T10:29:42.000Z</time>
      </trkpt>
      <trkpt lat="48.15984" lon="-4.11643">
        <ele>132.39999389648</ele>
        <time>2018-06-03T10:29:48.000Z</time>
      </trkpt>
      <trkpt lat="48.15981" lon="-4.11634">
        <ele>132.39999389648</ele>
        <time>2018-06-03T10:29:49.000Z</time>
      </trkpt>
      <trkpt lat="48.15976" lon="-4.11597">
        <ele>132.80000305176</ele>
        <time>2018-06-03T10:29:53.000Z</time>
      </trkpt>
      <trkpt lat="48.15989" lon="-4.11509">
        <ele>132.60000610352</ele>
        <time>2018-06-03T10:30:08.000Z</time>
      </trkpt>
      <trkpt lat="48.16008" lon="-4.1148">
        <ele>132.19999694824</ele>
        <time>2018-06-03T10:30:16.000Z</time>
      </trkpt>
      <trkpt lat="48.16029" lon="-4.11466">
        <ele>131.39999389648</ele>
        <time>2018-06-03T10:30:23.000Z</time>
      </trkpt>
      <trkpt lat="48.16054" lon="-4.11455">
        <ele>130.60000610352</ele>
        <time>2018-06-03T10:30:33.000Z</time>
      </trkpt>
      <trkpt lat="48.1607" lon="-4.11449">
        <ele>130</ele>
        <time>2018-06-03T10:30:41.000Z</time>
      </trkpt>
      <trkpt lat="48.16093" lon="-4.1145">
        <ele>129</ele>
        <time>2018-06-03T10:30:53.000Z</time>
      </trkpt>
      <trkpt lat="48.16109" lon="-4.11458">
        <ele>128.19999694824</ele>
        <time>2018-06-03T10:31:03.000Z</time>
      </trkpt>
      <trkpt lat="48.16115" lon="-4.11462">
        <ele>127.40000152588</ele>
        <time>2018-06-03T10:31:07.000Z</time>
      </trkpt>
      <trkpt lat="48.16124" lon="-4.1147">
        <ele>126.40000152588</ele>
        <time>2018-06-03T10:31:14.000Z</time>
      </trkpt>
      <trkpt lat="48.16135" lon="-4.11477">
        <ele>125.59999847412</ele>
        <time>2018-06-03T10:31:22.000Z</time>
      </trkpt>
      <trkpt lat="48.16139" lon="-4.11477">
        <ele>125</ele>
        <time>2018-06-03T10:31:25.000Z</time>
      </trkpt>
      <trkpt lat="48.16144" lon="-4.11478">
        <ele>124.59999847412</ele>
        <time>2018-06-03T10:31:28.000Z</time>
      </trkpt>
      <trkpt lat="48.16154" lon="-4.11476">
        <ele>123.59999847412</ele>
        <time>2018-06-03T10:31:34.000Z</time>
      </trkpt>
      <trkpt lat="48.1616" lon="-4.11476">
        <ele>122.40000152588</ele>
        <time>2018-06-03T10:31:38.000Z</time>
      </trkpt>
      <trkpt lat="48.1617" lon="-4.11475">
        <ele>121.40000152588</ele>
        <time>2018-06-03T10:31:44.000Z</time>
      </trkpt>
      <trkpt lat="48.16179" lon="-4.11476">
        <ele>120.40000152588</ele>
        <time>2018-06-03T10:31:50.000Z</time>
      </trkpt>
      <trkpt lat="48.16186" lon="-4.11475">
        <ele>119.40000152588</ele>
        <time>2018-06-03T10:31:55.000Z</time>
      </trkpt>
      <trkpt lat="48.16195" lon="-4.11474">
        <ele>118.40000152588</ele>
        <time>2018-06-03T10:32:01.000Z</time>
      </trkpt>
      <trkpt lat="48.16218" lon="-4.11476">
        <ele>117.59999847412</ele>
        <time>2018-06-03T10:32:16.000Z</time>
      </trkpt>
      <trkpt lat="48.16227" lon="-4.11475">
        <ele>117</ele>
        <time>2018-06-03T10:32:22.000Z</time>
      </trkpt>
      <trkpt lat="48.1623" lon="-4.11466">
        <ele>116.59999847412</ele>
        <time>2018-06-03T10:32:26.000Z</time>
      </trkpt>
      <trkpt lat="48.16232" lon="-4.11438">
        <ele>115.59999847412</ele>
        <time>2018-06-03T10:32:33.000Z</time>
      </trkpt>
      <trkpt lat="48.16233" lon="-4.11413">
        <ele>114.59999847412</ele>
        <time>2018-06-03T10:32:39.000Z</time>
      </trkpt>
      <trkpt lat="48.16235" lon="-4.11383">
        <ele>113.59999847412</ele>
        <time>2018-06-03T10:32:45.000Z</time>
      </trkpt>
      <trkpt lat="48.16233" lon="-4.1133">
        <ele>112.40000152588</ele>
        <time>2018-06-03T10:32:53.000Z</time>
      </trkpt>
      <trkpt lat="48.16232" lon="-4.11291">
        <ele>111.40000152588</ele>
        <time>2018-06-03T10:32:58.000Z</time>
      </trkpt>
      <trkpt lat="48.16232" lon="-4.11285">
        <ele>111.40000152588</ele>
        <time>2018-06-03T10:32:59.000Z</time>
      </trkpt>
      <trkpt lat="48.16234" lon="-4.11268">
        <ele>111.40000152588</ele>
        <time>2018-06-03T10:33:03.000Z</time>
      </trkpt>
      <trkpt lat="48.16234" lon="-4.11267">
        <ele>111.40000152588</ele>
        <time>2018-06-03T10:33:05.000Z</time>
      </trkpt>
      <trkpt lat="48.16234" lon="-4.11266">
        <ele>112.59999847412</ele>
        <time>2018-06-03T10:33:10.000Z</time>
      </trkpt>
      <trkpt lat="48.16234" lon="-4.11266">
        <ele>113.19999694824</ele>
        <time>2018-06-03T10:33:11.000Z</time>
      </trkpt>
      <trkpt lat="48.16234" lon="-4.11266">
        <ele>113.59999847412</ele>
        <time>2018-06-03T10:33:12.000Z</time>
      </trkpt>
      <trkpt lat="48.16234" lon="-4.11266">
        <ele>114.19999694824</ele>
        <time>2018-06-03T10:33:13.000Z</time>
      </trkpt>
      <trkpt lat="48.16234" lon="-4.11266">
        <ele>115</ele>
        <time>2018-06-03T10:33:16.000Z</time>
      </trkpt>
      <trkpt lat="48.16234" lon="-4.11266">
        <ele>115.19999694824</ele>
        <time>2018-06-03T10:33:19.000Z</time>
      </trkpt>
      <trkpt lat="48.16235" lon="-4.11265">
        <ele>115.40000152588</ele>
        <time>2018-06-03T10:33:32.000Z</time>
      </trkpt>
      <trkpt lat="48.16251" lon="-4.11265">
        <ele>115.40000152588</ele>
        <time>2018-06-03T10:33:43.000Z</time>
      </trkpt>
      <trkpt lat="48.16253" lon="-4.11265">
        <ele>115.40000152588</ele>
        <time>2018-06-03T10:33:44.000Z</time>
      </trkpt>
      <trkpt lat="48.16256" lon="-4.11266">
        <ele>115.80000305176</ele>
        <time>2018-06-03T10:33:50.000Z</time>
      </trkpt>
      <trkpt lat="48.16259" lon="-4.11267">
        <ele>116.40000152588</ele>
        <time>2018-06-03T10:33:55.000Z</time>
      </trkpt>
      <trkpt lat="48.16275" lon="-4.11265">
        <ele>116.80000305176</ele>
        <time>2018-06-03T10:34:07.000Z</time>
      </trkpt>
      <trkpt lat="48.16287" lon="-4.11265">
        <ele>117.19999694824</ele>
        <time>2018-06-03T10:34:14.000Z</time>
      </trkpt>
      <trkpt lat="48.16303" lon="-4.11271">
        <ele>117.59999847412</ele>
        <time>2018-06-03T10:34:22.000Z</time>
      </trkpt>
      <trkpt lat="48.16306" lon="-4.11271">
        <ele>118</ele>
        <time>2018-06-03T10:34:25.000Z</time>
      </trkpt>
      <trkpt lat="48.16308" lon="-4.11271">
        <ele>118.59999847412</ele>
        <time>2018-06-03T10:34:27.000Z</time>
      </trkpt>
      <trkpt lat="48.16308" lon="-4.11267">
        <ele>119.80000305176</ele>
        <time>2018-06-03T10:34:32.000Z</time>
      </trkpt>
      <trkpt lat="48.16303" lon="-4.11263">
        <ele>120.40000152588</ele>
        <time>2018-06-03T10:34:38.000Z</time>
      </trkpt>
      <trkpt lat="48.16296" lon="-4.11259">
        <ele>120.59999847412</ele>
        <time>2018-06-03T10:34:44.000Z</time>
      </trkpt>
      <trkpt lat="48.16293" lon="-4.11256">
        <ele>121</ele>
        <time>2018-06-03T10:34:49.000Z</time>
      </trkpt>
      <trkpt lat="48.16291" lon="-4.11254">
        <ele>122.19999694824</ele>
        <time>2018-06-03T10:34:54.000Z</time>
      </trkpt>
      <trkpt lat="48.16287" lon="-4.1125">
        <ele>123.19999694824</ele>
        <time>2018-06-03T10:34:59.000Z</time>
      </trkpt>
      <trkpt lat="48.16283" lon="-4.11249">
        <ele>123.80000305176</ele>
        <time>2018-06-03T10:35:03.000Z</time>
      </trkpt>
      <trkpt lat="48.16281" lon="-4.11247">
        <ele>124</ele>
        <time>2018-06-03T10:35:06.000Z</time>
      </trkpt>
      <trkpt lat="48.16278" lon="-4.11245">
        <ele>124.59999847412</ele>
        <time>2018-06-03T10:35:11.000Z</time>
      </trkpt>
      <trkpt lat="48.16275" lon="-4.11242">
        <ele>125</ele>
        <time>2018-06-03T10:35:14.000Z</time>
      </trkpt>
      <trkpt lat="48.16274" lon="-4.11236">
        <ele>125.19999694824</ele>
        <time>2018-06-03T10:35:18.000Z</time>
      </trkpt>
      <trkpt lat="48.16273" lon="-4.11231">
        <ele>125.40000152588</ele>
        <time>2018-06-03T10:35:22.000Z</time>
      </trkpt>
      <trkpt lat="48.16275" lon="-4.11224">
        <ele>125.59999847412</ele>
        <time>2018-06-03T10:35:28.000Z</time>
      </trkpt>
      <trkpt lat="48.16277" lon="-4.11223">
        <ele>125.59999847412</ele>
        <time>2018-06-03T10:35:30.000Z</time>
      </trkpt>
      <trkpt lat="48.16281" lon="-4.11217">
        <ele>125.80000305176</ele>
        <time>2018-06-03T10:35:35.000Z</time>
      </trkpt>
      <trkpt lat="48.16285" lon="-4.11206">
        <ele>126.19999694824</ele>
        <time>2018-06-03T10:35:41.000Z</time>
      </trkpt>
      <trkpt lat="48.16286" lon="-4.11204">
        <ele>126.19999694824</ele>
        <time>2018-06-03T10:35:42.000Z</time>
      </trkpt>
      <trkpt lat="48.1629" lon="-4.11198">
        <ele>126.59999847412</ele>
        <time>2018-06-03T10:35:49.000Z</time>
      </trkpt>
      <trkpt lat="48.16295" lon="-4.11195">
        <ele>127.19999694824</ele>
        <time>2018-06-03T10:35:55.000Z</time>
      </trkpt>
      <trkpt lat="48.16297" lon="-4.11196">
        <ele>127.59999847412</ele>
        <time>2018-06-03T10:36:01.000Z</time>
      </trkpt>
      <trkpt lat="48.16297" lon="-4.11197">
        <ele>127.80000305176</ele>
        <time>2018-06-03T10:36:02.000Z</time>
      </trkpt>
      <trkpt lat="48.16298" lon="-4.11197">
        <ele>127.80000305176</ele>
        <time>2018-06-03T10:36:03.000Z</time>
      </trkpt>
      <trkpt lat="48.16298" lon="-4.11197">
        <ele>128</ele>
        <time>2018-06-03T10:36:04.000Z</time>
      </trkpt>
      <trkpt lat="48.16312" lon="-4.11186">
        <ele>128.19999694824</ele>
        <time>2018-06-03T10:36:15.000Z</time>
      </trkpt>
      <trkpt lat="48.16345" lon="-4.11152">
        <ele>129.39999389648</ele>
        <time>2018-06-03T10:36:47.000Z</time>
      </trkpt>
      <trkpt lat="48.16349" lon="-4.1115">
        <ele>130</ele>
        <time>2018-06-03T10:36:51.000Z</time>
      </trkpt>
      <trkpt lat="48.16354" lon="-4.11146">
        <ele>130.80000305176</ele>
        <time>2018-06-03T10:36:58.000Z</time>
      </trkpt>
      <trkpt lat="48.16362" lon="-4.11138">
        <ele>132</ele>
        <time>2018-06-03T10:37:08.000Z</time>
      </trkpt>
      <trkpt lat="48.16364" lon="-4.11136">
        <ele>132.39999389648</ele>
        <time>2018-06-03T10:37:10.000Z</time>
      </trkpt>
      <trkpt lat="48.16365" lon="-4.11134">
        <ele>132.39999389648</ele>
        <time>2018-06-03T10:37:12.000Z</time>
      </trkpt>
      <trkpt lat="48.16365" lon="-4.1113">
        <ele>132.60000610352</ele>
        <time>2018-06-03T10:37:16.000Z</time>
      </trkpt>
      <trkpt lat="48.16363" lon="-4.11128">
        <ele>133.19999694824</ele>
        <time>2018-06-03T10:37:21.000Z</time>
      </trkpt>
      <trkpt lat="48.16362" lon="-4.11128">
        <ele>133.19999694824</ele>
        <time>2018-06-03T10:37:22.000Z</time>
      </trkpt>
      <trkpt lat="48.16356" lon="-4.1113">
        <ele>133.39999389648</ele>
        <time>2018-06-03T10:37:26.000Z</time>
      </trkpt>
      <trkpt lat="48.16354" lon="-4.1112">
        <ele>133.60000610352</ele>
        <time>2018-06-03T10:37:33.000Z</time>
      </trkpt>
      <trkpt lat="48.16348" lon="-4.11103">
        <ele>133.19999694824</ele>
        <time>2018-06-03T10:37:41.000Z</time>
      </trkpt>
      <trkpt lat="48.16348" lon="-4.111">
        <ele>132.80000305176</ele>
        <time>2018-06-03T10:37:44.000Z</time>
      </trkpt>
      <trkpt lat="48.16347" lon="-4.111">
        <ele>132.80000305176</ele>
        <time>2018-06-03T10:37:45.000Z</time>
      </trkpt>
      <trkpt lat="48.16344" lon="-4.11094">
        <ele>132.60000610352</ele>
        <time>2018-06-03T10:37:53.000Z</time>
      </trkpt>
      <trkpt lat="48.1634" lon="-4.1108">
        <ele>131.80000305176</ele>
        <time>2018-06-03T10:38:04.000Z</time>
      </trkpt>
      <trkpt lat="48.16332" lon="-4.11053">
        <ele>131</ele>
        <time>2018-06-03T10:38:17.000Z</time>
      </trkpt>
      <trkpt lat="48.16328" lon="-4.11037">
        <ele>130.60000610352</ele>
        <time>2018-06-03T10:38:24.000Z</time>
      </trkpt>
      <trkpt lat="48.16324" lon="-4.11025">
        <ele>130.19999694824</ele>
        <time>2018-06-03T10:38:30.000Z</time>
      </trkpt>
      <trkpt lat="48.16317" lon="-4.11">
        <ele>129.39999389648</ele>
        <time>2018-06-03T10:38:43.000Z</time>
      </trkpt>
      <trkpt lat="48.16307" lon="-4.10987">
        <ele>129.39999389648</ele>
        <time>2018-06-03T10:38:57.000Z</time>
      </trkpt>
      <trkpt lat="48.16277" lon="-4.11005">
        <ele>129</ele>
        <time>2018-06-03T10:39:12.000Z</time>
      </trkpt>
      <trkpt lat="48.16278" lon="-4.11014">
        <ele>128.60000610352</ele>
        <time>2018-06-03T10:39:15.000Z</time>
      </trkpt>
      <trkpt lat="48.16283" lon="-4.11049">
        <ele>127.80000305176</ele>
        <time>2018-06-03T10:39:23.000Z</time>
      </trkpt>
      <trkpt lat="48.16284" lon="-4.11097">
        <ele>126.80000305176</ele>
        <time>2018-06-03T10:39:34.000Z</time>
      </trkpt>
      <trkpt lat="48.16281" lon="-4.11119">
        <ele>125.80000305176</ele>
        <time>2018-06-03T10:39:38.000Z</time>
      </trkpt>
      <trkpt lat="48.16279" lon="-4.11126">
        <ele>125</ele>
        <time>2018-06-03T10:39:40.000Z</time>
      </trkpt>
      <trkpt lat="48.16277" lon="-4.11127">
        <ele>124.59999847412</ele>
        <time>2018-06-03T10:39:41.000Z</time>
      </trkpt>
      <trkpt lat="48.16273" lon="-4.11124">
        <ele>123.80000305176</ele>
        <time>2018-06-03T10:39:44.000Z</time>
      </trkpt>
      <trkpt lat="48.16273" lon="-4.11122">
        <ele>123.80000305176</ele>
        <time>2018-06-03T10:39:45.000Z</time>
      </trkpt>
      <trkpt lat="48.16271" lon="-4.11117">
        <ele>123.40000152588</ele>
        <time>2018-06-03T10:39:48.000Z</time>
      </trkpt>
      <trkpt lat="48.16261" lon="-4.11087">
        <ele>122.80000305176</ele>
        <time>2018-06-03T10:40:05.000Z</time>
      </trkpt>
      <trkpt lat="48.16253" lon="-4.11068">
        <ele>121.59999847412</ele>
        <time>2018-06-03T10:40:15.000Z</time>
      </trkpt>
      <trkpt lat="48.16242" lon="-4.11062">
        <ele>120.59999847412</ele>
        <time>2018-06-03T10:40:22.000Z</time>
      </trkpt>
      <trkpt lat="48.1623" lon="-4.11065">
        <ele>119.40000152588</ele>
        <time>2018-06-03T10:40:29.000Z</time>
      </trkpt>
      <trkpt lat="48.16219" lon="-4.11062">
        <ele>119.40000152588</ele>
        <time>2018-06-03T10:40:36.000Z</time>
      </trkpt>
      <trkpt lat="48.16204" lon="-4.11011">
        <ele>118.19999694824</ele>
        <time>2018-06-03T10:40:59.000Z</time>
      </trkpt>
      <trkpt lat="48.162" lon="-4.10997">
        <ele>117.19999694824</ele>
        <time>2018-06-03T10:41:05.000Z</time>
      </trkpt>
      <trkpt lat="48.16196" lon="-4.10982">
        <ele>116</ele>
        <time>2018-06-03T10:41:11.000Z</time>
      </trkpt>
      <trkpt lat="48.16194" lon="-4.10969">
        <ele>114.80000305176</ele>
        <time>2018-06-03T10:41:17.000Z</time>
      </trkpt>
      <trkpt lat="48.16191" lon="-4.1096">
        <ele>114</ele>
        <time>2018-06-03T10:41:22.000Z</time>
      </trkpt>
      <trkpt lat="48.1619" lon="-4.10959">
        <ele>113.59999847412</ele>
        <time>2018-06-03T10:41:23.000Z</time>
      </trkpt>
      <trkpt lat="48.16184" lon="-4.10958">
        <ele>112.59999847412</ele>
        <time>2018-06-03T10:41:27.000Z</time>
      </trkpt>
      <trkpt lat="48.16182" lon="-4.10958">
        <ele>112.40000152588</ele>
        <time>2018-06-03T10:41:28.000Z</time>
      </trkpt>
      <trkpt lat="48.16134" lon="-4.10939">
        <ele>113.59999847412</ele>
        <time>2018-06-03T10:41:58.000Z</time>
      </trkpt>
      <trkpt lat="48.16133" lon="-4.10938">
        <ele>113.59999847412</ele>
        <time>2018-06-03T10:41:59.000Z</time>
      </trkpt>
      <trkpt lat="48.16128" lon="-4.10935">
        <ele>114</ele>
        <time>2018-06-03T10:42:02.000Z</time>
      </trkpt>
      <trkpt lat="48.16119" lon="-4.10925">
        <ele>114.80000305176</ele>
        <time>2018-06-03T10:42:08.000Z</time>
      </trkpt>
      <trkpt lat="48.16112" lon="-4.10918">
        <ele>115.19999694824</ele>
        <time>2018-06-03T10:42:12.000Z</time>
      </trkpt>
      <trkpt lat="48.16107" lon="-4.10908">
        <ele>116</ele>
        <time>2018-06-03T10:42:17.000Z</time>
      </trkpt>
      <trkpt lat="48.16107" lon="-4.10906">
        <ele>116</ele>
        <time>2018-06-03T10:42:18.000Z</time>
      </trkpt>
      <trkpt lat="48.16103" lon="-4.10882">
        <ele>117.19999694824</ele>
        <time>2018-06-03T10:42:27.000Z</time>
      </trkpt>
      <trkpt lat="48.16099" lon="-4.10862">
        <ele>118.19999694824</ele>
        <time>2018-06-03T10:42:35.000Z</time>
      </trkpt>
      <trkpt lat="48.16097" lon="-4.10842">
        <ele>119.19999694824</ele>
        <time>2018-06-03T10:42:43.000Z</time>
      </trkpt>
      <trkpt lat="48.16095" lon="-4.10827">
        <ele>120.19999694824</ele>
        <time>2018-06-03T10:42:49.000Z</time>
      </trkpt>
      <trkpt lat="48.16091" lon="-4.10793">
        <ele>121.59999847412</ele>
        <time>2018-06-03T10:43:00.000Z</time>
      </trkpt>
      <trkpt lat="48.16068" lon="-4.1071">
        <ele>122.80000305176</ele>
        <time>2018-06-03T10:43:24.000Z</time>
      </trkpt>
      <trkpt lat="48.16036" lon="-4.1064">
        <ele>122.59999847412</ele>
        <time>2018-06-03T10:43:42.000Z</time>
      </trkpt>
      <trkpt lat="48.16011" lon="-4.10594">
        <ele>122.80000305176</ele>
        <time>2018-06-03T10:43:57.000Z</time>
      </trkpt>
      <trkpt lat="48.15997" lon="-4.10601">
        <ele>122.59999847412</ele>
        <time>2018-06-03T10:44:01.000Z</time>
      </trkpt>
      <trkpt lat="48.15975" lon="-4.1061">
        <ele>122.59999847412</ele>
        <time>2018-06-03T10:44:06.000Z</time>
      </trkpt>
      <trkpt lat="48.15958" lon="-4.10612">
        <ele>122.59999847412</ele>
        <time>2018-06-03T10:44:09.000Z</time>
      </trkpt>
      <trkpt lat="48.15929" lon="-4.10608">
        <ele>121</ele>
        <time>2018-06-03T10:44:24.000Z</time>
      </trkpt>
      <trkpt lat="48.15931" lon="-4.10608">
        <ele>121</ele>
        <time>2018-06-03T10:44:25.000Z</time>
      </trkpt>
      <trkpt lat="48.1594" lon="-4.10607">
        <ele>120.40000152588</ele>
        <time>2018-06-03T10:44:30.000Z</time>
      </trkpt>
      <trkpt lat="48.15945" lon="-4.10607">
        <ele>120.19999694824</ele>
        <time>2018-06-03T10:44:33.000Z</time>
      </trkpt>
      <trkpt lat="48.15945" lon="-4.10609">
        <ele>119.80000305176</ele>
        <time>2018-06-03T10:44:35.000Z</time>
      </trkpt>
      <trkpt lat="48.15944" lon="-4.10609">
        <ele>119.80000305176</ele>
        <time>2018-06-03T10:44:36.000Z</time>
      </trkpt>
      <trkpt lat="48.15944" lon="-4.10602">
        <ele>119.19999694824</ele>
        <time>2018-06-03T10:44:39.000Z</time>
      </trkpt>
      <trkpt lat="48.15946" lon="-4.10602">
        <ele>119</ele>
        <time>2018-06-03T10:44:41.000Z</time>
      </trkpt>
      <trkpt lat="48.15946" lon="-4.10602">
        <ele>118.80000305176</ele>
        <time>2018-06-03T10:44:43.000Z</time>
      </trkpt>
      <trkpt lat="48.15945" lon="-4.10602">
        <ele>118.59999847412</ele>
        <time>2018-06-03T10:44:44.000Z</time>
      </trkpt>
      <trkpt lat="48.15945" lon="-4.10602">
        <ele>118.59999847412</ele>
        <time>2018-06-03T10:44:45.000Z</time>
      </trkpt>
      <trkpt lat="48.15945" lon="-4.10602">
        <ele>118.40000152588</ele>
        <time>2018-06-03T10:44:46.000Z</time>
      </trkpt>
      <trkpt lat="48.15945" lon="-4.10603">
        <ele>118</ele>
        <time>2018-06-03T10:44:51.000Z</time>
      </trkpt>
      <trkpt lat="48.15945" lon="-4.10603">
        <ele>117.80000305176</ele>
        <time>2018-06-03T10:44:52.000Z</time>
      </trkpt>
      <trkpt lat="48.15944" lon="-4.10603">
        <ele>117.80000305176</ele>
        <time>2018-06-03T10:44:53.000Z</time>
      </trkpt>
      <trkpt lat="48.15925" lon="-4.10607">
        <ele>116.40000152588</ele>
        <time>2018-06-03T10:44:59.000Z</time>
      </trkpt>
      <trkpt lat="48.15911" lon="-4.10605">
        <ele>115.40000152588</ele>
        <time>2018-06-03T10:45:02.000Z</time>
      </trkpt>
      <trkpt lat="48.15895" lon="-4.10604">
        <ele>114.40000152588</ele>
        <time>2018-06-03T10:45:05.000Z</time>
      </trkpt>
      <trkpt lat="48.15878" lon="-4.10604">
        <ele>113.19999694824</ele>
        <time>2018-06-03T10:45:08.000Z</time>
      </trkpt>
      <trkpt lat="48.15853" lon="-4.10602">
        <ele>112</ele>
        <time>2018-06-03T10:45:12.000Z</time>
      </trkpt>
      <trkpt lat="48.15815" lon="-4.10599">
        <ele>110.80000305176</ele>
        <time>2018-06-03T10:45:18.000Z</time>
      </trkpt>
      <trkpt lat="48.15785" lon="-4.10597">
        <ele>109.80000305176</ele>
        <time>2018-06-03T10:45:23.000Z</time>
      </trkpt>
      <trkpt lat="48.15736" lon="-4.10596">
        <ele>109.19999694824</ele>
        <time>2018-06-03T10:45:33.000Z</time>
      </trkpt>
      <trkpt lat="48.15713" lon="-4.10634">
        <ele>109.19999694824</ele>
        <time>2018-06-03T10:45:41.000Z</time>
      </trkpt>
      <trkpt lat="48.15703" lon="-4.10705">
        <ele>109</ele>
        <time>2018-06-03T10:45:48.000Z</time>
      </trkpt>
      <trkpt lat="48.15692" lon="-4.10775">
        <ele>108</ele>
        <time>2018-06-03T10:45:54.000Z</time>
      </trkpt>
      <trkpt lat="48.15679" lon="-4.1086">
        <ele>107</ele>
        <time>2018-06-03T10:46:01.000Z</time>
      </trkpt>
      <trkpt lat="48.15677" lon="-4.10872">
        <ele>107</ele>
        <time>2018-06-03T10:46:02.000Z</time>
      </trkpt>
      <trkpt lat="48.15664" lon="-4.10965">
        <ele>106.59999847412</ele>
        <time>2018-06-03T10:46:11.000Z</time>
      </trkpt>
      <trkpt lat="48.15653" lon="-4.11036">
        <ele>106.19999694824</ele>
        <time>2018-06-03T10:46:18.000Z</time>
      </trkpt>
      <trkpt lat="48.15641" lon="-4.11117">
        <ele>105.19999694824</ele>
        <time>2018-06-03T10:46:25.000Z</time>
      </trkpt>
      <trkpt lat="48.15639" lon="-4.1113">
        <ele>105.19999694824</ele>
        <time>2018-06-03T10:46:26.000Z</time>
      </trkpt>
      <trkpt lat="48.1563" lon="-4.1119">
        <ele>104.19999694824</ele>
        <time>2018-06-03T10:46:32.000Z</time>
      </trkpt>
      <trkpt lat="48.15618" lon="-4.11275">
        <ele>103.59999847412</ele>
        <time>2018-06-03T10:46:40.000Z</time>
      </trkpt>
      <trkpt lat="48.15614" lon="-4.11299">
        <ele>103.40000152588</ele>
        <time>2018-06-03T10:46:42.000Z</time>
      </trkpt>
      <trkpt lat="48.15603" lon="-4.11367">
        <ele>102.59999847412</ele>
        <time>2018-06-03T10:46:48.000Z</time>
      </trkpt>
      <trkpt lat="48.15596" lon="-4.11418">
        <ele>101.59999847412</ele>
        <time>2018-06-03T10:46:54.000Z</time>
      </trkpt>
      <trkpt lat="48.15594" lon="-4.11423">
        <ele>101.40000152588</ele>
        <time>2018-06-03T10:46:55.000Z</time>
      </trkpt>
      <trkpt lat="48.15579" lon="-4.11434">
        <ele>101</ele>
        <time>2018-06-03T10:47:00.000Z</time>
      </trkpt>
      <trkpt lat="48.15528" lon="-4.1145">
        <ele>101</ele>
        <time>2018-06-03T10:47:12.000Z</time>
      </trkpt>
      <trkpt lat="48.15524" lon="-4.11451">
        <ele>101</ele>
        <time>2018-06-03T10:47:13.000Z</time>
      </trkpt>
      <trkpt lat="48.1551" lon="-4.11453">
        <ele>101.40000152588</ele>
        <time>2018-06-03T10:47:16.000Z</time>
      </trkpt>
      <trkpt lat="48.15495" lon="-4.11458">
        <ele>102</ele>
        <time>2018-06-03T10:47:20.000Z</time>
      </trkpt>
      <trkpt lat="48.15494" lon="-4.11457">
        <ele>96.800003051758</ele>
        <time>2018-06-03T10:48:15.000Z</time>
      </trkpt>
      <trkpt lat="48.15493" lon="-4.11457">
        <ele>96</ele>
        <time>2018-06-03T10:48:23.000Z</time>
      </trkpt>
      <trkpt lat="48.15493" lon="-4.11457">
        <ele>95.599998474121</ele>
        <time>2018-06-03T10:48:28.000Z</time>
      </trkpt>
      <trkpt lat="48.15493" lon="-4.11457">
        <ele>95.199996948242</ele>
        <time>2018-06-03T10:48:30.000Z</time>
      </trkpt>
      <trkpt lat="48.15493" lon="-4.11456">
        <ele>95.199996948242</ele>
        <time>2018-06-03T10:48:33.000Z</time>
      </trkpt>
      <trkpt lat="48.15492" lon="-4.11456">
        <ele>94.599998474121</ele>
        <time>2018-06-03T10:48:42.000Z</time>
      </trkpt>
      <trkpt lat="48.15492" lon="-4.11456">
        <ele>94.599998474121</ele>
        <time>2018-06-03T10:48:46.000Z</time>
      </trkpt>
      <trkpt lat="48.15492" lon="-4.11456">
        <ele>94.599998474121</ele>
        <time>2018-06-03T10:48:49.000Z</time>
      </trkpt>
      <trkpt lat="48.15491" lon="-4.11455">
        <ele>94.599998474121</ele>
        <time>2018-06-03T10:48:50.000Z</time>
      </trkpt>
      <trkpt lat="48.15468" lon="-4.11447">
        <ele>94.199996948242</ele>
        <time>2018-06-03T10:48:58.000Z</time>
      </trkpt>
      <trkpt lat="48.15457" lon="-4.11441">
        <ele>93.800003051758</ele>
        <time>2018-06-03T10:49:03.000Z</time>
      </trkpt>
      <trkpt lat="48.15453" lon="-4.1144">
        <ele>93.800003051758</ele>
        <time>2018-06-03T10:49:05.000Z</time>
      </trkpt>
      <trkpt lat="48.15431" lon="-4.11438">
        <ele>93.599998474121</ele>
        <time>2018-06-03T10:49:13.000Z</time>
      </trkpt>
      <trkpt lat="48.15405" lon="-4.11437">
        <ele>94.400001525879</ele>
        <time>2018-06-03T10:49:34.000Z</time>
      </trkpt>
      <trkpt lat="48.15402" lon="-4.11437">
        <ele>94.599998474121</ele>
        <time>2018-06-03T10:49:47.000Z</time>
      </trkpt>
      <trkpt lat="48.15398" lon="-4.11438">
        <ele>94.199996948242</ele>
        <time>2018-06-03T10:49:50.000Z</time>
      </trkpt>
      <trkpt lat="48.15392" lon="-4.11437">
        <ele>93.800003051758</ele>
        <time>2018-06-03T10:49:54.000Z</time>
      </trkpt>
      <trkpt lat="48.15383" lon="-4.11434">
        <ele>94.199996948242</ele>
        <time>2018-06-03T10:50:02.000Z</time>
      </trkpt>
      <trkpt lat="48.15382" lon="-4.11434">
        <ele>94.199996948242</ele>
        <time>2018-06-03T10:50:03.000Z</time>
      </trkpt>
      <trkpt lat="48.15382" lon="-4.11434">
        <ele>94.199996948242</ele>
        <time>2018-06-03T10:50:04.000Z</time>
      </trkpt>
      <trkpt lat="48.15381" lon="-4.11436">
        <ele>95.400001525879</ele>
        <time>2018-06-03T10:50:11.000Z</time>
      </trkpt>
      <trkpt lat="48.15381" lon="-4.11437">
        <ele>95.800003051758</ele>
        <time>2018-06-03T10:50:12.000Z</time>
      </trkpt>
      <trkpt lat="48.1538" lon="-4.1144">
        <ele>96.199996948242</ele>
        <time>2018-06-03T10:50:14.000Z</time>
      </trkpt>
      <trkpt lat="48.15375" lon="-4.11463">
        <ele>97</ele>
        <time>2018-06-03T10:50:23.000Z</time>
      </trkpt>
      <trkpt lat="48.15373" lon="-4.11471">
        <ele>97</ele>
        <time>2018-06-03T10:50:26.000Z</time>
      </trkpt>
      <trkpt lat="48.15367" lon="-4.11485">
        <ele>97.199996948242</ele>
        <time>2018-06-03T10:50:30.000Z</time>
      </trkpt>
      <trkpt lat="48.15346" lon="-4.1151">
        <ele>98.599998474121</ele>
        <time>2018-06-03T10:50:41.000Z</time>
      </trkpt>
      <trkpt lat="48.15345" lon="-4.11511">
        <ele>98.800003051758</ele>
        <time>2018-06-03T10:50:42.000Z</time>
      </trkpt>
      <trkpt lat="48.15332" lon="-4.11523">
        <ele>100</ele>
        <time>2018-06-03T10:50:49.000Z</time>
      </trkpt>
      <trkpt lat="48.15318" lon="-4.11534">
        <ele>101.19999694824</ele>
        <time>2018-06-03T10:50:56.000Z</time>
      </trkpt>
      <trkpt lat="48.15311" lon="-4.1154">
        <ele>101.80000305176</ele>
        <time>2018-06-03T10:50:59.000Z</time>
      </trkpt>
      <trkpt lat="48.15309" lon="-4.11541">
        <ele>101.80000305176</ele>
        <time>2018-06-03T10:51:00.000Z</time>
      </trkpt>
      <trkpt lat="48.15296" lon="-4.1155">
        <ele>102.59999847412</ele>
        <time>2018-06-03T10:51:07.000Z</time>
      </trkpt>
      <trkpt lat="48.15295" lon="-4.11551">
        <ele>102.59999847412</ele>
        <time>2018-06-03T10:51:08.000Z</time>
      </trkpt>
      <trkpt lat="48.15284" lon="-4.1156">
        <ele>103.80000305176</ele>
        <time>2018-06-03T10:51:16.000Z</time>
      </trkpt>
      <trkpt lat="48.1528" lon="-4.11565">
        <ele>104.40000152588</ele>
        <time>2018-06-03T10:51:19.000Z</time>
      </trkpt>
      <trkpt lat="48.15235" lon="-4.1161">
        <ele>104.19999694824</ele>
        <time>2018-06-03T10:51:37.000Z</time>
      </trkpt>
      <trkpt lat="48.1521" lon="-4.1163">
        <ele>103.59999847412</ele>
        <time>2018-06-03T10:51:45.000Z</time>
      </trkpt>
      <trkpt lat="48.15195" lon="-4.11642">
        <ele>102.59999847412</ele>
        <time>2018-06-03T10:51:50.000Z</time>
      </trkpt>
      <trkpt lat="48.15181" lon="-4.11688">
        <ele>101.80000305176</ele>
        <time>2018-06-03T10:52:00.000Z</time>
      </trkpt>
      <trkpt lat="48.15179" lon="-4.11722">
        <ele>100.80000305176</ele>
        <time>2018-06-03T10:52:06.000Z</time>
      </trkpt>
      <trkpt lat="48.15176" lon="-4.11743">
        <ele>100.19999694824</ele>
        <time>2018-06-03T10:52:11.000Z</time>
      </trkpt>
      <trkpt lat="48.15174" lon="-4.11746">
        <ele>99.800003051758</ele>
        <time>2018-06-03T10:52:15.000Z</time>
      </trkpt>
      <trkpt lat="48.15173" lon="-4.11748">
        <ele>99.599998474121</ele>
        <time>2018-06-03T10:52:24.000Z</time>
      </trkpt>
      <trkpt lat="48.15173" lon="-4.11748">
        <ele>99.599998474121</ele>
        <time>2018-06-03T10:52:25.000Z</time>
      </trkpt>
      <trkpt lat="48.15173" lon="-4.11748">
        <ele>99.599998474121</ele>
        <time>2018-06-03T10:52:29.000Z</time>
      </trkpt>
      <trkpt lat="48.15172" lon="-4.11749">
        <ele>99.400001525879</ele>
        <time>2018-06-03T10:52:34.000Z</time>
      </trkpt>
      <trkpt lat="48.15171" lon="-4.1175">
        <ele>99.199996948242</ele>
        <time>2018-06-03T10:52:37.000Z</time>
      </trkpt>
      <trkpt lat="48.15171" lon="-4.1175">
        <ele>99</ele>
        <time>2018-06-03T10:52:40.000Z</time>
      </trkpt>
      <trkpt lat="48.15166" lon="-4.11767">
        <ele>98.199996948242</ele>
        <time>2018-06-03T10:52:47.000Z</time>
      </trkpt>
      <trkpt lat="48.15159" lon="-4.11788">
        <ele>97</ele>
        <time>2018-06-03T10:52:52.000Z</time>
      </trkpt>
      <trkpt lat="48.15147" lon="-4.11816">
        <ele>96.199996948242</ele>
        <time>2018-06-03T10:52:58.000Z</time>
      </trkpt>
      <trkpt lat="48.1511" lon="-4.11882">
        <ele>95.199996948242</ele>
        <time>2018-06-03T10:53:12.000Z</time>
      </trkpt>
      <trkpt lat="48.15109" lon="-4.11886">
        <ele>95.199996948242</ele>
        <time>2018-06-03T10:53:13.000Z</time>
      </trkpt>
      <trkpt lat="48.15108" lon="-4.11901">
        <ele>95.599998474121</ele>
        <time>2018-06-03T10:53:18.000Z</time>
      </trkpt>
      <trkpt lat="48.15108" lon="-4.11903">
        <ele>95.599998474121</ele>
        <time>2018-06-03T10:53:20.000Z</time>
      </trkpt>
      <trkpt lat="48.15108" lon="-4.11905">
        <ele>95.599998474121</ele>
        <time>2018-06-03T10:53:22.000Z</time>
      </trkpt>
      <trkpt lat="48.15107" lon="-4.11906">
        <ele>96</ele>
        <time>2018-06-03T10:53:23.000Z</time>
      </trkpt>
      <trkpt lat="48.15107" lon="-4.11908">
        <ele>96.599998474121</ele>
        <time>2018-06-03T10:53:29.000Z</time>
      </trkpt>
      <trkpt lat="48.15106" lon="-4.11909">
        <ele>97</ele>
        <time>2018-06-03T10:53:34.000Z</time>
      </trkpt>
      <trkpt lat="48.15106" lon="-4.11909">
        <ele>97.199996948242</ele>
        <time>2018-06-03T10:53:39.000Z</time>
      </trkpt>
      <trkpt lat="48.15099" lon="-4.11928">
        <ele>97</ele>
        <time>2018-06-03T10:53:50.000Z</time>
      </trkpt>
      <trkpt lat="48.15075" lon="-4.11983">
        <ele>97.599998474121</ele>
        <time>2018-06-03T10:54:08.000Z</time>
      </trkpt>
      <trkpt lat="48.1507" lon="-4.11991">
        <ele>97.800003051758</ele>
        <time>2018-06-03T10:54:12.000Z</time>
      </trkpt>
      <trkpt lat="48.1506" lon="-4.12013">
        <ele>99</ele>
        <time>2018-06-03T10:54:19.000Z</time>
      </trkpt>
      <trkpt lat="48.15055" lon="-4.12017">
        <ele>99.199996948242</ele>
        <time>2018-06-03T10:54:21.000Z</time>
      </trkpt>
      <trkpt lat="48.15053" lon="-4.12018">
        <ele>99.599998474121</ele>
        <time>2018-06-03T10:54:23.000Z</time>
      </trkpt>
      <trkpt lat="48.15051" lon="-4.12019">
        <ele>99.599998474121</ele>
        <time>2018-06-03T10:54:24.000Z</time>
      </trkpt>
      <trkpt lat="48.15048" lon="-4.12021">
        <ele>99.800003051758</ele>
        <time>2018-06-03T10:54:27.000Z</time>
      </trkpt>
      <trkpt lat="48.15045" lon="-4.12024">
        <ele>100.40000152588</ele>
        <time>2018-06-03T10:54:31.000Z</time>
      </trkpt>
      <trkpt lat="48.15045" lon="-4.12027">
        <ele>100.59999847412</ele>
        <time>2018-06-03T10:54:32.000Z</time>
      </trkpt>
      <trkpt lat="48.15047" lon="-4.12042">
        <ele>100.59999847412</ele>
        <time>2018-06-03T10:54:39.000Z</time>
      </trkpt>
      <trkpt lat="48.15074" lon="-4.12066">
        <ele>99.800003051758</ele>
        <time>2018-06-03T10:54:50.000Z</time>
      </trkpt>
      <trkpt lat="48.15096" lon="-4.12085">
        <ele>99.199996948242</ele>
        <time>2018-06-03T10:54:58.000Z</time>
      </trkpt>
      <trkpt lat="48.15139" lon="-4.12138">
        <ele>98.800003051758</ele>
        <time>2018-06-03T10:55:18.000Z</time>
      </trkpt>
      <trkpt lat="48.1514" lon="-4.12147">
        <ele>98.800003051758</ele>
        <time>2018-06-03T10:55:21.000Z</time>
      </trkpt>
      <trkpt lat="48.1514" lon="-4.12147">
        <ele>98.800003051758</ele>
        <time>2018-06-03T10:55:22.000Z</time>
      </trkpt>
      <trkpt lat="48.1514" lon="-4.1214">
        <ele>98.800003051758</ele>
        <time>2018-06-03T10:55:27.000Z</time>
      </trkpt>
      <trkpt lat="48.15139" lon="-4.12128">
        <ele>98.800003051758</ele>
        <time>2018-06-03T10:55:32.000Z</time>
      </trkpt>
      <trkpt lat="48.1514" lon="-4.12134">
        <ele>98.800003051758</ele>
        <time>2018-06-03T10:55:35.000Z</time>
      </trkpt>
      <trkpt lat="48.1514" lon="-4.12137">
        <ele>98.800003051758</ele>
        <time>2018-06-03T10:55:36.000Z</time>
      </trkpt>
      <trkpt lat="48.15139" lon="-4.12175">
        <ele>97.800003051758</ele>
        <time>2018-06-03T10:55:46.000Z</time>
      </trkpt>
      <trkpt lat="48.1513" lon="-4.12257">
        <ele>97.199996948242</ele>
        <time>2018-06-03T10:56:04.000Z</time>
      </trkpt>
      <trkpt lat="48.15126" lon="-4.12287">
        <ele>96.400001525879</ele>
        <time>2018-06-03T10:56:11.000Z</time>
      </trkpt>
      <trkpt lat="48.15122" lon="-4.12311">
        <ele>95.400001525879</ele>
        <time>2018-06-03T10:56:17.000Z</time>
      </trkpt>
      <trkpt lat="48.15122" lon="-4.12324">
        <ele>94.599998474121</ele>
        <time>2018-06-03T10:56:21.000Z</time>
      </trkpt>
      <trkpt lat="48.15126" lon="-4.12328">
        <ele>94.599998474121</ele>
        <time>2018-06-03T10:56:23.000Z</time>
      </trkpt>
      <trkpt lat="48.15133" lon="-4.12327">
        <ele>94.199996948242</ele>
        <time>2018-06-03T10:56:26.000Z</time>
      </trkpt>
      <trkpt lat="48.15145" lon="-4.12323">
        <ele>93.400001525879</ele>
        <time>2018-06-03T10:56:31.000Z</time>
      </trkpt>
      <trkpt lat="48.15166" lon="-4.12318">
        <ele>92.599998474121</ele>
        <time>2018-06-03T10:56:40.000Z</time>
      </trkpt>
      <trkpt lat="48.15198" lon="-4.12311">
        <ele>91.800003051758</ele>
        <time>2018-06-03T10:56:52.000Z</time>
      </trkpt>
      <trkpt lat="48.15224" lon="-4.12305">
        <ele>90.800003051758</ele>
        <time>2018-06-03T10:57:03.000Z</time>
      </trkpt>
      <trkpt lat="48.15276" lon="-4.12293">
        <ele>90.199996948242</ele>
        <time>2018-06-03T10:57:26.000Z</time>
      </trkpt>
      <trkpt lat="48.15329" lon="-4.12283">
        <ele>90</ele>
        <time>2018-06-03T10:57:51.000Z</time>
      </trkpt>
      <trkpt lat="48.15332" lon="-4.12299">
        <ele>91.400001525879</ele>
        <time>2018-06-03T10:58:02.000Z</time>
      </trkpt>
      <trkpt lat="48.15333" lon="-4.1231">
        <ele>91.599998474121</ele>
        <time>2018-06-03T10:58:05.000Z</time>
      </trkpt>
      <trkpt lat="48.15334" lon="-4.1232">
        <ele>91.800003051758</ele>
        <time>2018-06-03T10:58:09.000Z</time>
      </trkpt>
      <trkpt lat="48.15334" lon="-4.12326">
        <ele>92</ele>
        <time>2018-06-03T10:58:11.000Z</time>
      </trkpt>
      <trkpt lat="48.15333" lon="-4.12333">
        <ele>92.400001525879</ele>
        <time>2018-06-03T10:58:14.000Z</time>
      </trkpt>
      <trkpt lat="48.15334" lon="-4.12338">
        <ele>92.599998474121</ele>
        <time>2018-06-03T10:58:16.000Z</time>
      </trkpt>
      <trkpt lat="48.15335" lon="-4.12341">
        <ele>92.599998474121</ele>
        <time>2018-06-03T10:58:17.000Z</time>
      </trkpt>
      <trkpt lat="48.15336" lon="-4.12346">
        <ele>93.199996948242</ele>
        <time>2018-06-03T10:58:21.000Z</time>
      </trkpt>
      <trkpt lat="48.15336" lon="-4.12348">
        <ele>93.400001525879</ele>
        <time>2018-06-03T10:58:22.000Z</time>
      </trkpt>
      <trkpt lat="48.15339" lon="-4.12364">
        <ele>94.599998474121</ele>
        <time>2018-06-03T10:58:31.000Z</time>
      </trkpt>
      <trkpt lat="48.1534" lon="-4.12366">
        <ele>95</ele>
        <time>2018-06-03T10:58:35.000Z</time>
      </trkpt>
      <trkpt lat="48.15341" lon="-4.12368">
        <ele>95</ele>
        <time>2018-06-03T10:58:37.000Z</time>
      </trkpt>
      <trkpt lat="48.15342" lon="-4.12369">
        <ele>95.599998474121</ele>
        <time>2018-06-03T10:58:43.000Z</time>
      </trkpt>
      <trkpt lat="48.15346" lon="-4.12371">
        <ele>96</ele>
        <time>2018-06-03T10:58:47.000Z</time>
      </trkpt>
      <trkpt lat="48.15351" lon="-4.1237">
        <ele>96</ele>
        <time>2018-06-03T10:58:51.000Z</time>
      </trkpt>
      <trkpt lat="48.15352" lon="-4.1237">
        <ele>96</ele>
        <time>2018-06-03T10:58:52.000Z</time>
      </trkpt>
      <trkpt lat="48.15357" lon="-4.12375">
        <ele>96.400001525879</ele>
        <time>2018-06-03T10:58:58.000Z</time>
      </trkpt>
      <trkpt lat="48.15364" lon="-4.124">
        <ele>97</ele>
        <time>2018-06-03T10:59:10.000Z</time>
      </trkpt>
      <trkpt lat="48.15361" lon="-4.12404">
        <ele>97.400001525879</ele>
        <time>2018-06-03T10:59:14.000Z</time>
      </trkpt>
      <trkpt lat="48.15358" lon="-4.12408">
        <ele>97.400001525879</ele>
        <time>2018-06-03T10:59:18.000Z</time>
      </trkpt>
      <trkpt lat="48.15355" lon="-4.12414">
        <ele>97.599998474121</ele>
        <time>2018-06-03T10:59:21.000Z</time>
      </trkpt>
      <trkpt lat="48.15345" lon="-4.12422">
        <ele>98.599998474121</ele>
        <time>2018-06-03T10:59:32.000Z</time>
      </trkpt>
      <trkpt lat="48.15343" lon="-4.12425">
        <ele>99.199996948242</ele>
        <time>2018-06-03T10:59:34.000Z</time>
      </trkpt>
      <trkpt lat="48.15324" lon="-4.12436">
        <ele>99.400001525879</ele>
        <time>2018-06-03T10:59:43.000Z</time>
      </trkpt>
      <trkpt lat="48.15273" lon="-4.12451">
        <ele>99.800003051758</ele>
        <time>2018-06-03T11:00:08.000Z</time>
      </trkpt>
      <trkpt lat="48.1527" lon="-4.12451">
        <ele>100</ele>
        <time>2018-06-03T11:00:10.000Z</time>
      </trkpt>
      <trkpt lat="48.15259" lon="-4.12453">
        <ele>100</ele>
        <time>2018-06-03T11:00:14.000Z</time>
      </trkpt>
      <trkpt lat="48.15219" lon="-4.12468">
        <ele>100</ele>
        <time>2018-06-03T11:00:34.000Z</time>
      </trkpt>
      <trkpt lat="48.1522" lon="-4.12477">
        <ele>99.800003051758</ele>
        <time>2018-06-03T11:00:39.000Z</time>
      </trkpt>
      <trkpt lat="48.15218" lon="-4.12484">
        <ele>99.599998474121</ele>
        <time>2018-06-03T11:00:43.000Z</time>
      </trkpt>
      <trkpt lat="48.15217" lon="-4.12485">
        <ele>99.599998474121</ele>
        <time>2018-06-03T11:00:44.000Z</time>
      </trkpt>
      <trkpt lat="48.15205" lon="-4.12496">
        <ele>99.400001525879</ele>
        <time>2018-06-03T11:00:51.000Z</time>
      </trkpt>
      <trkpt lat="48.1519" lon="-4.12509">
        <ele>99.199996948242</ele>
        <time>2018-06-03T11:01:04.000Z</time>
      </trkpt>
      <trkpt lat="48.15189" lon="-4.12521">
        <ele>99.199996948242</ele>
        <time>2018-06-03T11:01:11.000Z</time>
      </trkpt>
      <trkpt lat="48.15168" lon="-4.12535">
        <ele>99</ele>
        <time>2018-06-03T11:01:35.000Z</time>
      </trkpt>
      <trkpt lat="48.15162" lon="-4.12535">
        <ele>98.800003051758</ele>
        <time>2018-06-03T11:01:39.000Z</time>
      </trkpt>
      <trkpt lat="48.15161" lon="-4.12534">
        <ele>99</ele>
        <time>2018-06-03T11:01:40.000Z</time>
      </trkpt>
      <trkpt lat="48.15128" lon="-4.12544">
        <ele>98.400001525879</ele>
        <time>2018-06-03T11:01:59.000Z</time>
      </trkpt>
      <trkpt lat="48.15122" lon="-4.12561">
        <ele>98.199996948242</ele>
        <time>2018-06-03T11:02:11.000Z</time>
      </trkpt>
      <trkpt lat="48.15124" lon="-4.12565">
        <ele>98.400001525879</ele>
        <time>2018-06-03T11:02:16.000Z</time>
      </trkpt>
      <trkpt lat="48.15128" lon="-4.12572">
        <ele>98</ele>
        <time>2018-06-03T11:02:24.000Z</time>
      </trkpt>
      <trkpt lat="48.1513" lon="-4.12572">
        <ele>97.800003051758</ele>
        <time>2018-06-03T11:02:26.000Z</time>
      </trkpt>
      <trkpt lat="48.15137" lon="-4.12576">
        <ele>97</ele>
        <time>2018-06-03T11:02:32.000Z</time>
      </trkpt>
      <trkpt lat="48.15147" lon="-4.12594">
        <ele>96.199996948242</ele>
        <time>2018-06-03T11:02:44.000Z</time>
      </trkpt>
      <trkpt lat="48.15156" lon="-4.12626">
        <ele>95.400001525879</ele>
        <time>2018-06-03T11:03:02.000Z</time>
      </trkpt>
      <trkpt lat="48.15163" lon="-4.12646">
        <ele>94.400001525879</ele>
        <time>2018-06-03T11:03:15.000Z</time>
      </trkpt>
      <trkpt lat="48.15174" lon="-4.12679">
        <ele>93.800003051758</ele>
        <time>2018-06-03T11:03:31.000Z</time>
      </trkpt>
      <trkpt lat="48.15191" lon="-4.12708">
        <ele>93</ele>
        <time>2018-06-03T11:03:45.000Z</time>
      </trkpt>
      <trkpt lat="48.15191" lon="-4.12711">
        <ele>92.800003051758</ele>
        <time>2018-06-03T11:03:47.000Z</time>
      </trkpt>
      <trkpt lat="48.15191" lon="-4.12713">
        <ele>92.800003051758</ele>
        <time>2018-06-03T11:03:48.000Z</time>
      </trkpt>
      <trkpt lat="48.15193" lon="-4.12716">
        <ele>92.599998474121</ele>
        <time>2018-06-03T11:03:50.000Z</time>
      </trkpt>
      <trkpt lat="48.15192" lon="-4.1272">
        <ele>92.400001525879</ele>
        <time>2018-06-03T11:03:54.000Z</time>
      </trkpt>
      <trkpt lat="48.1519" lon="-4.12727">
        <ele>92.199996948242</ele>
        <time>2018-06-03T11:04:00.000Z</time>
      </trkpt>
      <trkpt lat="48.15187" lon="-4.12734">
        <ele>89.400001525879</ele>
        <time>2018-06-03T11:04:25.000Z</time>
      </trkpt>
      <trkpt lat="48.15185" lon="-4.12736">
        <ele>89</ele>
        <time>2018-06-03T11:04:27.000Z</time>
      </trkpt>
      <trkpt lat="48.15177" lon="-4.12752">
        <ele>88.599998474121</ele>
        <time>2018-06-03T11:04:35.000Z</time>
      </trkpt>
      <trkpt lat="48.15166" lon="-4.1277">
        <ele>87.400001525879</ele>
        <time>2018-06-03T11:04:44.000Z</time>
      </trkpt>
      <trkpt lat="48.15132" lon="-4.12831">
        <ele>87.199996948242</ele>
        <time>2018-06-03T11:05:13.000Z</time>
      </trkpt>
      <trkpt lat="48.1513" lon="-4.12834">
        <ele>87.199996948242</ele>
        <time>2018-06-03T11:05:15.000Z</time>
      </trkpt>
      <trkpt lat="48.15125" lon="-4.12842">
        <ele>87.199996948242</ele>
        <time>2018-06-03T11:05:19.000Z</time>
      </trkpt>
      <trkpt lat="48.15119" lon="-4.12845">
        <ele>87.199996948242</ele>
        <time>2018-06-03T11:05:22.000Z</time>
      </trkpt>
      <trkpt lat="48.15109" lon="-4.12842">
        <ele>87.199996948242</ele>
        <time>2018-06-03T11:05:27.000Z</time>
      </trkpt>
      <trkpt lat="48.15106" lon="-4.1284">
        <ele>87</ele>
        <time>2018-06-03T11:05:29.000Z</time>
      </trkpt>
      <trkpt lat="48.15102" lon="-4.12838">
        <ele>86.800003051758</ele>
        <time>2018-06-03T11:05:31.000Z</time>
      </trkpt>
      <trkpt lat="48.15094" lon="-4.12832">
        <ele>86.800003051758</ele>
        <time>2018-06-03T11:05:35.000Z</time>
      </trkpt>
      <trkpt lat="48.15086" lon="-4.12827">
        <ele>86.400001525879</ele>
        <time>2018-06-03T11:05:39.000Z</time>
      </trkpt>
      <trkpt lat="48.15084" lon="-4.12825">
        <ele>86.199996948242</ele>
        <time>2018-06-03T11:05:40.000Z</time>
      </trkpt>
      <trkpt lat="48.15067" lon="-4.12812">
        <ele>85.199996948242</ele>
        <time>2018-06-03T11:05:48.000Z</time>
      </trkpt>
      <trkpt lat="48.15013" lon="-4.1278">
        <ele>85.400001525879</ele>
        <time>2018-06-03T11:06:12.000Z</time>
      </trkpt>
      <trkpt lat="48.1498" lon="-4.12785">
        <ele>84.599998474121</ele>
        <time>2018-06-03T11:06:26.000Z</time>
      </trkpt>
      <trkpt lat="48.14973" lon="-4.12786">
        <ele>83.599998474121</ele>
        <time>2018-06-03T11:06:29.000Z</time>
      </trkpt>
      <trkpt lat="48.14947" lon="-4.12789">
        <ele>82.800003051758</ele>
        <time>2018-06-03T11:06:40.000Z</time>
      </trkpt>
      <trkpt lat="48.14912" lon="-4.12795">
        <ele>81.800003051758</ele>
        <time>2018-06-03T11:06:55.000Z</time>
      </trkpt>
      <trkpt lat="48.14875" lon="-4.12801">
        <ele>80.800003051758</ele>
        <time>2018-06-03T11:07:09.000Z</time>
      </trkpt>
      <trkpt lat="48.1482" lon="-4.12815">
        <ele>80.800003051758</ele>
        <time>2018-06-03T11:07:28.000Z</time>
      </trkpt>
      <trkpt lat="48.14815" lon="-4.12823">
        <ele>81</ele>
        <time>2018-06-03T11:07:31.000Z</time>
      </trkpt>
      <trkpt lat="48.14814" lon="-4.12866">
        <ele>82</ele>
        <time>2018-06-03T11:07:43.000Z</time>
      </trkpt>
      <trkpt lat="48.14815" lon="-4.12898">
        <ele>83.199996948242</ele>
        <time>2018-06-03T11:07:53.000Z</time>
      </trkpt>
      <trkpt lat="48.14817" lon="-4.12979">
        <ele>84.400001525879</ele>
        <time>2018-06-03T11:08:19.000Z</time>
      </trkpt>
      <trkpt lat="48.14817" lon="-4.13009">
        <ele>85.400001525879</ele>
        <time>2018-06-03T11:08:29.000Z</time>
      </trkpt>
      <trkpt lat="48.14817" lon="-4.13025">
        <ele>86.599998474121</ele>
        <time>2018-06-03T11:08:34.000Z</time>
      </trkpt>
      <trkpt lat="48.14818" lon="-4.13059">
        <ele>87.599998474121</ele>
        <time>2018-06-03T11:08:45.000Z</time>
      </trkpt>
      <trkpt lat="48.14818" lon="-4.1308">
        <ele>88.800003051758</ele>
        <time>2018-06-03T11:08:52.000Z</time>
      </trkpt>
      <trkpt lat="48.14818" lon="-4.13107">
        <ele>89.800003051758</ele>
        <time>2018-06-03T11:09:00.000Z</time>
      </trkpt>
      <trkpt lat="48.14819" lon="-4.13152">
        <ele>91</ele>
        <time>2018-06-03T11:09:12.000Z</time>
      </trkpt>
      <trkpt lat="48.14821" lon="-4.13185">
        <ele>92.199996948242</ele>
        <time>2018-06-03T11:09:20.000Z</time>
      </trkpt>
      <trkpt lat="48.14873" lon="-4.13193">
        <ele>93.199996948242</ele>
        <time>2018-06-03T11:09:38.000Z</time>
      </trkpt>
      <trkpt lat="48.14928" lon="-4.13197">
        <ele>93</ele>
        <time>2018-06-03T11:09:51.000Z</time>
      </trkpt>
      <trkpt lat="48.14983" lon="-4.13203">
        <ele>92.800003051758</ele>
        <time>2018-06-03T11:10:03.000Z</time>
      </trkpt>
      <trkpt lat="48.15036" lon="-4.13207">
        <ele>91.599998474121</ele>
        <time>2018-06-03T11:10:14.000Z</time>
      </trkpt>
      <trkpt lat="48.15095" lon="-4.13218">
        <ele>92</ele>
        <time>2018-06-03T11:10:27.000Z</time>
      </trkpt>
      <trkpt lat="48.15116" lon="-4.1324">
        <ele>91.400001525879</ele>
        <time>2018-06-03T11:10:33.000Z</time>
      </trkpt>
      <trkpt lat="48.1516" lon="-4.13291">
        <ele>91</ele>
        <time>2018-06-03T11:10:45.000Z</time>
      </trkpt>
      <trkpt lat="48.15207" lon="-4.13336">
        <ele>91</ele>
        <time>2018-06-03T11:10:57.000Z</time>
      </trkpt>
      <trkpt lat="48.15255" lon="-4.13378">
        <ele>91.400001525879</ele>
        <time>2018-06-03T11:11:10.000Z</time>
      </trkpt>
      <trkpt lat="48.15279" lon="-4.13403">
        <ele>92.800003051758</ele>
        <time>2018-06-03T11:11:18.000Z</time>
      </trkpt>
      <trkpt lat="48.15297" lon="-4.13422">
        <ele>93.800003051758</ele>
        <time>2018-06-03T11:11:24.000Z</time>
      </trkpt>
      <trkpt lat="48.15322" lon="-4.1349">
        <ele>94.599998474121</ele>
        <time>2018-06-03T11:11:40.000Z</time>
      </trkpt>
      <trkpt lat="48.15322" lon="-4.135">
        <ele>94.800003051758</ele>
        <time>2018-06-03T11:11:42.000Z</time>
      </trkpt>
      <trkpt lat="48.15318" lon="-4.13562">
        <ele>96</ele>
        <time>2018-06-03T11:11:55.000Z</time>
      </trkpt>
      <trkpt lat="48.15315" lon="-4.13609">
        <ele>96.800003051758</ele>
        <time>2018-06-03T11:12:05.000Z</time>
      </trkpt>
      <trkpt lat="48.15314" lon="-4.13634">
        <ele>97.199996948242</ele>
        <time>2018-06-03T11:12:10.000Z</time>
      </trkpt>
      <trkpt lat="48.15311" lon="-4.13719">
        <ele>98.400001525879</ele>
        <time>2018-06-03T11:12:27.000Z</time>
      </trkpt>
      <trkpt lat="48.15311" lon="-4.13723">
        <ele>98.400001525879</ele>
        <time>2018-06-03T11:12:28.000Z</time>
      </trkpt>
      <trkpt lat="48.15314" lon="-4.13737">
        <ele>98.400001525879</ele>
        <time>2018-06-03T11:12:31.000Z</time>
      </trkpt>
      <trkpt lat="48.1533" lon="-4.13743">
        <ele>98.599998474121</ele>
        <time>2018-06-03T11:12:36.000Z</time>
      </trkpt>
      <trkpt lat="48.15378" lon="-4.13749">
        <ele>99.400001525879</ele>
        <time>2018-06-03T11:12:51.000Z</time>
      </trkpt>
      <trkpt lat="48.15433" lon="-4.13757">
        <ele>100.59999847412</ele>
        <time>2018-06-03T11:13:08.000Z</time>
      </trkpt>
      <trkpt lat="48.15436" lon="-4.13758">
        <ele>100.59999847412</ele>
        <time>2018-06-03T11:13:09.000Z</time>
      </trkpt>
      <trkpt lat="48.15481" lon="-4.13772">
        <ele>101.80000305176</ele>
        <time>2018-06-03T11:13:23.000Z</time>
      </trkpt>
      <trkpt lat="48.15536" lon="-4.13796">
        <ele>102.80000305176</ele>
        <time>2018-06-03T11:13:41.000Z</time>
      </trkpt>
      <trkpt lat="48.15543" lon="-4.13798">
        <ele>103</ele>
        <time>2018-06-03T11:13:43.000Z</time>
      </trkpt>
      <trkpt lat="48.15597" lon="-4.13819">
        <ele>103.80000305176</ele>
        <time>2018-06-03T11:14:02.000Z</time>
      </trkpt>
      <trkpt lat="48.15605" lon="-4.13822">
        <ele>104.19999694824</ele>
        <time>2018-06-03T11:14:05.000Z</time>
      </trkpt>
      <trkpt lat="48.15644" lon="-4.13839">
        <ele>104.59999847412</ele>
        <time>2018-06-03T11:14:20.000Z</time>
      </trkpt>
      <trkpt lat="48.15642" lon="-4.13858">
        <ele>104.59999847412</ele>
        <time>2018-06-03T11:14:24.000Z</time>
      </trkpt>
      <trkpt lat="48.15634" lon="-4.1392">
        <ele>104</ele>
        <time>2018-06-03T11:14:35.000Z</time>
      </trkpt>
      <trkpt lat="48.15652" lon="-4.13925">
        <ele>104</ele>
        <time>2018-06-03T11:14:40.000Z</time>
      </trkpt>
      <trkpt lat="48.15671" lon="-4.13924">
        <ele>103.80000305176</ele>
        <time>2018-06-03T11:14:46.000Z</time>
      </trkpt>
      <trkpt lat="48.15672" lon="-4.13948">
        <ele>103.80000305176</ele>
        <time>2018-06-03T11:14:51.000Z</time>
      </trkpt>
      <trkpt lat="48.15658" lon="-4.14033">
        <ele>103.80000305176</ele>
        <time>2018-06-03T11:15:05.000Z</time>
      </trkpt>
      <trkpt lat="48.1565" lon="-4.14075">
        <ele>103.59999847412</ele>
        <time>2018-06-03T11:15:14.000Z</time>
      </trkpt>
      <trkpt lat="48.15651" lon="-4.14087">
        <ele>103.40000152588</ele>
        <time>2018-06-03T11:15:16.000Z</time>
      </trkpt>
      <trkpt lat="48.15654" lon="-4.14126">
        <ele>102.40000152588</ele>
        <time>2018-06-03T11:15:23.000Z</time>
      </trkpt>
      <trkpt lat="48.15652" lon="-4.14131">
        <ele>102.40000152588</ele>
        <time>2018-06-03T11:15:24.000Z</time>
      </trkpt>
      <trkpt lat="48.15644" lon="-4.14171">
        <ele>101.40000152588</ele>
        <time>2018-06-03T11:15:31.000Z</time>
      </trkpt>
      <trkpt lat="48.15641" lon="-4.14198">
        <ele>101.40000152588</ele>
        <time>2018-06-03T11:15:36.000Z</time>
      </trkpt>
      <trkpt lat="48.1564" lon="-4.14201">
        <ele>101.40000152588</ele>
        <time>2018-06-03T11:15:42.000Z</time>
      </trkpt>
      <trkpt lat="48.15641" lon="-4.14201">
        <ele>101.40000152588</ele>
        <time>2018-06-03T11:15:44.000Z</time>
      </trkpt>
      <trkpt lat="48.1564" lon="-4.14167">
        <ele>103.40000152588</ele>
        <time>2018-06-03T05:38:19.000Z</time>
      </trkpt>
      <trkpt lat="48.1564" lon="-4.14167">
        <ele>103.40000152588</ele>
        <time>2018-06-03T05:38:19.000Z</time>
      </trkpt>
      <trkpt lat="48.1564" lon="-4.1417">
        <ele>103.40000152588</ele>
        <time>2018-06-03T05:38:20.000Z</time>
      </trkpt>
      <trkpt lat="48.15639" lon="-4.14173">
        <ele>103.19999694824</ele>
        <time>2018-06-03T05:38:21.000Z</time>
      </trkpt>
      <trkpt lat="48.15631" lon="-4.1421">
        <ele>102.40000152588</ele>
        <time>2018-06-03T05:38:28.000Z</time>
      </trkpt>
      <trkpt lat="48.15621" lon="-4.1426">
        <ele>101.19999694824</ele>
        <time>2018-06-03T05:38:35.000Z</time>
      </trkpt>
      <trkpt lat="48.15624" lon="-4.14328">
        <ele>101.19999694824</ele>
        <time>2018-06-03T05:38:50.000Z</time>
      </trkpt>
      <trkpt lat="48.15664" lon="-4.14343">
        <ele>100.40000152588</ele>
        <time>2018-06-03T05:39:00.000Z</time>
      </trkpt>
      <trkpt lat="48.15672" lon="-4.14347">
        <ele>100.40000152588</ele>
        <time>2018-06-03T05:39:02.000Z</time>
      </trkpt>
      <trkpt lat="48.1572" lon="-4.14376">
        <ele>100</ele>
        <time>2018-06-03T05:39:12.000Z</time>
      </trkpt>
      <trkpt lat="48.15748" lon="-4.14392">
        <ele>99.400001525879</ele>
        <time>2018-06-03T05:39:17.000Z</time>
      </trkpt>
      <trkpt lat="48.15782" lon="-4.14412">
        <ele>98.199996948242</ele>
        <time>2018-06-03T05:39:23.000Z</time>
      </trkpt>
      <trkpt lat="48.15804" lon="-4.14424">
        <ele>97</ele>
        <time>2018-06-03T05:39:28.000Z</time>
      </trkpt>
      <trkpt lat="48.1581" lon="-4.14454">
        <ele>96.599998474121</ele>
        <time>2018-06-03T05:39:33.000Z</time>
      </trkpt>
      <trkpt lat="48.15805" lon="-4.14509">
        <ele>96</ele>
        <time>2018-06-03T05:39:40.000Z</time>
      </trkpt>
      <trkpt lat="48.15789" lon="-4.14594">
        <ele>95</ele>
        <time>2018-06-03T05:39:50.000Z</time>
      </trkpt>
      <trkpt lat="48.1577" lon="-4.1468">
        <ele>94.400001525879</ele>
        <time>2018-06-03T05:40:00.000Z</time>
      </trkpt>
      <trkpt lat="48.15787" lon="-4.14712">
        <ele>94</ele>
        <time>2018-06-03T05:40:07.000Z</time>
      </trkpt>
      <trkpt lat="48.15791" lon="-4.14714">
        <ele>94</ele>
        <time>2018-06-03T05:40:08.000Z</time>
      </trkpt>
      <trkpt lat="48.158" lon="-4.14719">
        <ele>94</ele>
        <time>2018-06-03T05:40:10.000Z</time>
      </trkpt>
      <trkpt lat="48.15826" lon="-4.14736">
        <ele>93.199996948242</ele>
        <time>2018-06-03T05:40:16.000Z</time>
      </trkpt>
      <trkpt lat="48.1583" lon="-4.14739">
        <ele>93</ele>
        <time>2018-06-03T05:40:17.000Z</time>
      </trkpt>
      <trkpt lat="48.15834" lon="-4.14741">
        <ele>92.800003051758</ele>
        <time>2018-06-03T05:40:18.000Z</time>
      </trkpt>
      <trkpt lat="48.1585" lon="-4.14763">
        <ele>92</ele>
        <time>2018-06-03T05:40:24.000Z</time>
      </trkpt>
      <trkpt lat="48.15852" lon="-4.14779">
        <ele>91.400001525879</ele>
        <time>2018-06-03T05:40:27.000Z</time>
      </trkpt>
      <trkpt lat="48.15852" lon="-4.14796">
        <ele>90.800003051758</ele>
        <time>2018-06-03T05:40:30.000Z</time>
      </trkpt>
      <trkpt lat="48.15852" lon="-4.14807">
        <ele>90.599998474121</ele>
        <time>2018-06-03T05:40:32.000Z</time>
      </trkpt>
      <trkpt lat="48.15858" lon="-4.1486">
        <ele>90.400001525879</ele>
        <time>2018-06-03T05:40:42.000Z</time>
      </trkpt>
      <trkpt lat="48.15894" lon="-4.14895">
        <ele>90</ele>
        <time>2018-06-03T05:40:50.000Z</time>
      </trkpt>
      <trkpt lat="48.15923" lon="-4.14918">
        <ele>88.199996948242</ele>
        <time>2018-06-03T05:40:54.000Z</time>
      </trkpt>
      <trkpt lat="48.1594" lon="-4.1493">
        <ele>86.800003051758</ele>
        <time>2018-06-03T05:40:56.000Z</time>
      </trkpt>
      <trkpt lat="48.15957" lon="-4.14942">
        <ele>84.800003051758</ele>
        <time>2018-06-03T05:40:58.000Z</time>
      </trkpt>
      <trkpt lat="48.15971" lon="-4.14954">
        <ele>82.800003051758</ele>
        <time>2018-06-03T05:41:00.000Z</time>
      </trkpt>
      <trkpt lat="48.15978" lon="-4.1496">
        <ele>81.800003051758</ele>
        <time>2018-06-03T05:41:01.000Z</time>
      </trkpt>
      <trkpt lat="48.15983" lon="-4.14965">
        <ele>80.800003051758</ele>
        <time>2018-06-03T05:41:02.000Z</time>
      </trkpt>
      <trkpt lat="48.15992" lon="-4.14974">
        <ele>79</ele>
        <time>2018-06-03T05:41:04.000Z</time>
      </trkpt>
      <trkpt lat="48.15996" lon="-4.14985">
        <ele>78</ele>
        <time>2018-06-03T05:41:06.000Z</time>
      </trkpt>
      <trkpt lat="48.16007" lon="-4.15008">
        <ele>77.599998474121</ele>
        <time>2018-06-03T05:41:12.000Z</time>
      </trkpt>
      <trkpt lat="48.1605" lon="-4.15066">
        <ele>77</ele>
        <time>2018-06-03T05:41:28.000Z</time>
      </trkpt>
      <trkpt lat="48.16085" lon="-4.15092">
        <ele>76</ele>
        <time>2018-06-03T05:41:40.000Z</time>
      </trkpt>
      <trkpt lat="48.16116" lon="-4.15117">
        <ele>75.199996948242</ele>
        <time>2018-06-03T05:41:52.000Z</time>
      </trkpt>
      <trkpt lat="48.16127" lon="-4.15125">
        <ele>75.199996948242</ele>
        <time>2018-06-03T05:41:58.000Z</time>
      </trkpt>
      <trkpt lat="48.16131" lon="-4.15127">
        <ele>75.199996948242</ele>
        <time>2018-06-03T05:42:03.000Z</time>
      </trkpt>
      <trkpt lat="48.16138" lon="-4.15143">
        <ele>74</ele>
        <time>2018-06-03T05:42:10.000Z</time>
      </trkpt>
      <trkpt lat="48.1614" lon="-4.15163">
        <ele>74</ele>
        <time>2018-06-03T05:42:18.000Z</time>
      </trkpt>
      <trkpt lat="48.16141" lon="-4.15167">
        <ele>74</ele>
        <time>2018-06-03T05:42:20.000Z</time>
      </trkpt>
      <trkpt lat="48.16141" lon="-4.15172">
        <ele>74.400001525879</ele>
        <time>2018-06-03T05:42:23.000Z</time>
      </trkpt>
      <trkpt lat="48.16143" lon="-4.1518">
        <ele>75.400001525879</ele>
        <time>2018-06-03T05:42:29.000Z</time>
      </trkpt>
      <trkpt lat="48.16148" lon="-4.15217">
        <ele>75.599998474121</ele>
        <time>2018-06-03T05:42:41.000Z</time>
      </trkpt>
      <trkpt lat="48.16157" lon="-4.15236">
        <ele>75.199996948242</ele>
        <time>2018-06-03T05:42:48.000Z</time>
      </trkpt>
      <trkpt lat="48.1616" lon="-4.15253">
        <ele>75</ele>
        <time>2018-06-03T05:42:57.000Z</time>
      </trkpt>
      <trkpt lat="48.1616" lon="-4.15254">
        <ele>75</ele>
        <time>2018-06-03T05:42:58.000Z</time>
      </trkpt>
      <trkpt lat="48.16161" lon="-4.15255">
        <ele>75</ele>
        <time>2018-06-03T05:43:00.000Z</time>
      </trkpt>
      <trkpt lat="48.16169" lon="-4.1526">
        <ele>71.400001525879</ele>
        <time>2018-06-03T05:43:22.000Z</time>
      </trkpt>
      <trkpt lat="48.16175" lon="-4.15268">
        <ele>70.599998474121</ele>
        <time>2018-06-03T05:43:29.000Z</time>
      </trkpt>
      <trkpt lat="48.1618" lon="-4.15275">
        <ele>69.599998474121</ele>
        <time>2018-06-03T05:43:32.000Z</time>
      </trkpt>
      <trkpt lat="48.16198" lon="-4.15288">
        <ele>68.800003051758</ele>
        <time>2018-06-03T05:43:39.000Z</time>
      </trkpt>
      <trkpt lat="48.16199" lon="-4.15287">
        <ele>68.599998474121</ele>
        <time>2018-06-03T05:43:40.000Z</time>
      </trkpt>
      <trkpt lat="48.16201" lon="-4.15285">
        <ele>67.199996948242</ele>
        <time>2018-06-03T05:43:42.000Z</time>
      </trkpt>
      <trkpt lat="48.16203" lon="-4.15282">
        <ele>66</ele>
        <time>2018-06-03T05:43:44.000Z</time>
      </trkpt>
      <trkpt lat="48.16205" lon="-4.15265">
        <ele>65.599998474121</ele>
        <time>2018-06-03T05:43:52.000Z</time>
      </trkpt>
      <trkpt lat="48.16204" lon="-4.15261">
        <ele>66</ele>
        <time>2018-06-03T05:43:56.000Z</time>
      </trkpt>
      <trkpt lat="48.16205" lon="-4.15258">
        <ele>66.199996948242</ele>
        <time>2018-06-03T05:43:58.000Z</time>
      </trkpt>
      <trkpt lat="48.16205" lon="-4.15252">
        <ele>66.400001525879</ele>
        <time>2018-06-03T05:44:01.000Z</time>
      </trkpt>
      <trkpt lat="48.16205" lon="-4.15246">
        <ele>66.599998474121</ele>
        <time>2018-06-03T05:44:04.000Z</time>
      </trkpt>
      <trkpt lat="48.16203" lon="-4.15218">
        <ele>66.800003051758</ele>
        <time>2018-06-03T05:44:14.000Z</time>
      </trkpt>
      <trkpt lat="48.16198" lon="-4.15186">
        <ele>67.400001525879</ele>
        <time>2018-06-03T05:44:26.000Z</time>
      </trkpt>
      <trkpt lat="48.16197" lon="-4.15174">
        <ele>67.800003051758</ele>
        <time>2018-06-03T05:44:30.000Z</time>
      </trkpt>
      <trkpt lat="48.16195" lon="-4.15154">
        <ele>68</ele>
        <time>2018-06-03T05:44:35.000Z</time>
      </trkpt>
      <trkpt lat="48.16196" lon="-4.15143">
        <ele>68.199996948242</ele>
        <time>2018-06-03T05:44:38.000Z</time>
      </trkpt>
      <trkpt lat="48.16196" lon="-4.15135">
        <ele>68.400001525879</ele>
        <time>2018-06-03T05:44:41.000Z</time>
      </trkpt>
      <trkpt lat="48.16193" lon="-4.15115">
        <ele>68.199996948242</ele>
        <time>2018-06-03T05:44:45.000Z</time>
      </trkpt>
      <trkpt lat="48.16203" lon="-4.15012">
        <ele>68</ele>
        <time>2018-06-03T05:45:05.000Z</time>
      </trkpt>
      <trkpt lat="48.16208" lon="-4.1495">
        <ele>68.599998474121</ele>
        <time>2018-06-03T05:45:20.000Z</time>
      </trkpt>
      <trkpt lat="48.16222" lon="-4.14881">
        <ele>69.400001525879</ele>
        <time>2018-06-03T05:45:39.000Z</time>
      </trkpt>
      <trkpt lat="48.16235" lon="-4.14863">
        <ele>70.199996948242</ele>
        <time>2018-06-03T05:45:47.000Z</time>
      </trkpt>
      <trkpt lat="48.16236" lon="-4.14862">
        <ele>70.599998474121</ele>
        <time>2018-06-03T05:45:52.000Z</time>
      </trkpt>
      <trkpt lat="48.16236" lon="-4.14862">
        <ele>70.800003051758</ele>
        <time>2018-06-03T05:45:54.000Z</time>
      </trkpt>
      <trkpt lat="48.16235" lon="-4.14861">
        <ele>71.599998474121</ele>
        <time>2018-06-03T05:45:59.000Z</time>
      </trkpt>
      <trkpt lat="48.16238" lon="-4.14829">
        <ele>71.599998474121</ele>
        <time>2018-06-03T05:46:20.000Z</time>
      </trkpt>
      <trkpt lat="48.16247" lon="-4.14811">
        <ele>71.800003051758</ele>
        <time>2018-06-03T05:46:31.000Z</time>
      </trkpt>
      <trkpt lat="48.16249" lon="-4.14809">
        <ele>71.800003051758</ele>
        <time>2018-06-03T05:46:33.000Z</time>
      </trkpt>
      <trkpt lat="48.16252" lon="-4.14806">
        <ele>72</ele>
        <time>2018-06-03T05:46:36.000Z</time>
      </trkpt>
      <trkpt lat="48.16252" lon="-4.14805">
        <ele>72</ele>
        <time>2018-06-03T05:46:37.000Z</time>
      </trkpt>
      <trkpt lat="48.16257" lon="-4.14797">
        <ele>72</ele>
        <time>2018-06-03T05:46:45.000Z</time>
      </trkpt>
      <trkpt lat="48.16259" lon="-4.14796">
        <ele>72.199996948242</ele>
        <time>2018-06-03T05:46:47.000Z</time>
      </trkpt>
      <trkpt lat="48.1626" lon="-4.14793">
        <ele>72.199996948242</ele>
        <time>2018-06-03T05:46:50.000Z</time>
      </trkpt>
      <trkpt lat="48.1626" lon="-4.14792">
        <ele>72.400001525879</ele>
        <time>2018-06-03T05:46:51.000Z</time>
      </trkpt>
      <trkpt lat="48.16261" lon="-4.14789">
        <ele>72.400001525879</ele>
        <time>2018-06-03T05:46:54.000Z</time>
      </trkpt>
      <trkpt lat="48.1626" lon="-4.14787">
        <ele>72.400001525879</ele>
        <time>2018-06-03T05:46:57.000Z</time>
      </trkpt>
      <trkpt lat="48.16257" lon="-4.14781">
        <ele>72</ele>
        <time>2018-06-03T05:47:02.000Z</time>
      </trkpt>
      <trkpt lat="48.16251" lon="-4.14773">
        <ele>72</ele>
        <time>2018-06-03T05:47:06.000Z</time>
      </trkpt>
      <trkpt lat="48.1625" lon="-4.14767">
        <ele>72.199996948242</ele>
        <time>2018-06-03T05:47:14.000Z</time>
      </trkpt>
      <trkpt lat="48.16252" lon="-4.14696">
        <ele>72.599998474121</ele>
        <time>2018-06-03T05:47:32.000Z</time>
      </trkpt>
      <trkpt lat="48.16257" lon="-4.14649">
        <ele>73.800003051758</ele>
        <time>2018-06-03T05:47:43.000Z</time>
      </trkpt>
      <trkpt lat="48.16264" lon="-4.14587">
        <ele>74.800003051758</ele>
        <time>2018-06-03T05:48:01.000Z</time>
      </trkpt>
      <trkpt lat="48.16248" lon="-4.1454">
        <ele>75.800003051758</ele>
        <time>2018-06-03T05:48:16.000Z</time>
      </trkpt>
      <trkpt lat="48.16246" lon="-4.14531">
        <ele>76</ele>
        <time>2018-06-03T05:48:19.000Z</time>
      </trkpt>
      <trkpt lat="48.16243" lon="-4.14507">
        <ele>76.199996948242</ele>
        <time>2018-06-03T05:48:24.000Z</time>
      </trkpt>
      <trkpt lat="48.1624" lon="-4.14465">
        <ele>76.800003051758</ele>
        <time>2018-06-03T05:48:33.000Z</time>
      </trkpt>
      <trkpt lat="48.16241" lon="-4.14402">
        <ele>77.800003051758</ele>
        <time>2018-06-03T05:48:47.000Z</time>
      </trkpt>
      <trkpt lat="48.16242" lon="-4.14334">
        <ele>78.800003051758</ele>
        <time>2018-06-03T05:49:01.000Z</time>
      </trkpt>
      <trkpt lat="48.16243" lon="-4.14291">
        <ele>79.800003051758</ele>
        <time>2018-06-03T05:49:10.000Z</time>
      </trkpt>
      <trkpt lat="48.16244" lon="-4.14245">
        <ele>81</ele>
        <time>2018-06-03T05:49:20.000Z</time>
      </trkpt>
      <trkpt lat="48.16246" lon="-4.14199">
        <ele>82</ele>
        <time>2018-06-03T05:49:30.000Z</time>
      </trkpt>
      <trkpt lat="48.16247" lon="-4.14172">
        <ele>83</ele>
        <time>2018-06-03T05:49:36.000Z</time>
      </trkpt>
      <trkpt lat="48.16248" lon="-4.14138">
        <ele>84.199996948242</ele>
        <time>2018-06-03T05:49:44.000Z</time>
      </trkpt>
      <trkpt lat="48.16249" lon="-4.14106">
        <ele>85.199996948242</ele>
        <time>2018-06-03T05:49:52.000Z</time>
      </trkpt>
      <trkpt lat="48.16251" lon="-4.14075">
        <ele>86.199996948242</ele>
        <time>2018-06-03T05:50:00.000Z</time>
      </trkpt>
      <trkpt lat="48.16262" lon="-4.14056">
        <ele>87.199996948242</ele>
        <time>2018-06-03T05:50:07.000Z</time>
      </trkpt>
      <trkpt lat="48.16281" lon="-4.14061">
        <ele>88.400001525879</ele>
        <time>2018-06-03T05:50:13.000Z</time>
      </trkpt>
      <trkpt lat="48.16335" lon="-4.14089">
        <ele>88.599998474121</ele>
        <time>2018-06-03T05:50:28.000Z</time>
      </trkpt>
      <trkpt lat="48.1638" lon="-4.14127">
        <ele>88.199996948242</ele>
        <time>2018-06-03T05:50:38.000Z</time>
      </trkpt>
      <trkpt lat="48.16401" lon="-4.14146">
        <ele>87.199996948242</ele>
        <time>2018-06-03T05:50:42.000Z</time>
      </trkpt>
      <trkpt lat="48.16424" lon="-4.14165">
        <ele>86.199996948242</ele>
        <time>2018-06-03T05:50:46.000Z</time>
      </trkpt>
      <trkpt lat="48.16436" lon="-4.14173">
        <ele>85.599998474121</ele>
        <time>2018-06-03T05:50:48.000Z</time>
      </trkpt>
      <trkpt lat="48.16442" lon="-4.14174">
        <ele>85.199996948242</ele>
        <time>2018-06-03T05:50:49.000Z</time>
      </trkpt>
      <trkpt lat="48.16454" lon="-4.14172">
        <ele>84.199996948242</ele>
        <time>2018-06-03T05:50:51.000Z</time>
      </trkpt>
      <trkpt lat="48.16462" lon="-4.14163">
        <ele>82.800003051758</ele>
        <time>2018-06-03T05:50:53.000Z</time>
      </trkpt>
      <trkpt lat="48.16506" lon="-4.14108">
        <ele>83</ele>
        <time>2018-06-03T05:51:07.000Z</time>
      </trkpt>
      <trkpt lat="48.16515" lon="-4.14099">
        <ele>83.800003051758</ele>
        <time>2018-06-03T05:51:10.000Z</time>
      </trkpt>
      <trkpt lat="48.16528" lon="-4.14083">
        <ele>84.800003051758</ele>
        <time>2018-06-03T05:51:15.000Z</time>
      </trkpt>
      <trkpt lat="48.16551" lon="-4.14055">
        <ele>85.800003051758</ele>
        <time>2018-06-03T05:51:24.000Z</time>
      </trkpt>
      <trkpt lat="48.16566" lon="-4.14037">
        <ele>87</ele>
        <time>2018-06-03T05:51:30.000Z</time>
      </trkpt>
      <trkpt lat="48.16585" lon="-4.14013">
        <ele>88</ele>
        <time>2018-06-03T05:51:38.000Z</time>
      </trkpt>
      <trkpt lat="48.16601" lon="-4.13992">
        <ele>89</ele>
        <time>2018-06-03T05:51:45.000Z</time>
      </trkpt>
      <trkpt lat="48.16619" lon="-4.13969">
        <ele>90.199996948242</ele>
        <time>2018-06-03T05:51:53.000Z</time>
      </trkpt>
      <trkpt lat="48.16634" lon="-4.1395">
        <ele>91.400001525879</ele>
        <time>2018-06-03T05:52:00.000Z</time>
      </trkpt>
      <trkpt lat="48.16645" lon="-4.13936">
        <ele>92.400001525879</ele>
        <time>2018-06-03T05:52:05.000Z</time>
      </trkpt>
      <trkpt lat="48.16662" lon="-4.13916">
        <ele>93.400001525879</ele>
        <time>2018-06-03T05:52:13.000Z</time>
      </trkpt>
      <trkpt lat="48.16677" lon="-4.13904">
        <ele>94.599998474121</ele>
        <time>2018-06-03T05:52:19.000Z</time>
      </trkpt>
      <trkpt lat="48.16694" lon="-4.13891">
        <ele>95.599998474121</ele>
        <time>2018-06-03T05:52:26.000Z</time>
      </trkpt>
      <trkpt lat="48.16714" lon="-4.13879">
        <ele>96.800003051758</ele>
        <time>2018-06-03T05:52:34.000Z</time>
      </trkpt>
      <trkpt lat="48.16723" lon="-4.13875">
        <ele>97.800003051758</ele>
        <time>2018-06-03T05:52:38.000Z</time>
      </trkpt>
      <trkpt lat="48.16735" lon="-4.13869">
        <ele>98.800003051758</ele>
        <time>2018-06-03T05:52:43.000Z</time>
      </trkpt>
      <trkpt lat="48.16747" lon="-4.13863">
        <ele>100</ele>
        <time>2018-06-03T05:52:48.000Z</time>
      </trkpt>
      <trkpt lat="48.16761" lon="-4.13857">
        <ele>101</ele>
        <time>2018-06-03T05:52:54.000Z</time>
      </trkpt>
      <trkpt lat="48.16772" lon="-4.13852">
        <ele>102.19999694824</ele>
        <time>2018-06-03T05:52:59.000Z</time>
      </trkpt>
      <trkpt lat="48.1678" lon="-4.13847">
        <ele>103.19999694824</ele>
        <time>2018-06-03T05:53:03.000Z</time>
      </trkpt>
      <trkpt lat="48.16792" lon="-4.13842">
        <ele>104.40000152588</ele>
        <time>2018-06-03T05:53:08.000Z</time>
      </trkpt>
      <trkpt lat="48.16804" lon="-4.13836">
        <ele>105.40000152588</ele>
        <time>2018-06-03T05:53:14.000Z</time>
      </trkpt>
      <trkpt lat="48.16817" lon="-4.1383">
        <ele>106.59999847412</ele>
        <time>2018-06-03T05:53:20.000Z</time>
      </trkpt>
      <trkpt lat="48.1683" lon="-4.13824">
        <ele>107.59999847412</ele>
        <time>2018-06-03T05:53:26.000Z</time>
      </trkpt>
      <trkpt lat="48.16844" lon="-4.13816">
        <ele>108.80000305176</ele>
        <time>2018-06-03T05:53:33.000Z</time>
      </trkpt>
      <trkpt lat="48.16855" lon="-4.13808">
        <ele>109.80000305176</ele>
        <time>2018-06-03T05:53:39.000Z</time>
      </trkpt>
      <trkpt lat="48.16862" lon="-4.13805">
        <ele>110.80000305176</ele>
        <time>2018-06-03T05:53:43.000Z</time>
      </trkpt>
      <trkpt lat="48.16869" lon="-4.13799">
        <ele>111.80000305176</ele>
        <time>2018-06-03T05:53:47.000Z</time>
      </trkpt>
      <trkpt lat="48.16877" lon="-4.13788">
        <ele>113.19999694824</ele>
        <time>2018-06-03T05:53:53.000Z</time>
      </trkpt>
      <trkpt lat="48.16885" lon="-4.13779">
        <ele>114.19999694824</ele>
        <time>2018-06-03T05:53:59.000Z</time>
      </trkpt>
      <trkpt lat="48.16891" lon="-4.13772">
        <ele>115.40000152588</ele>
        <time>2018-06-03T05:54:04.000Z</time>
      </trkpt>
      <trkpt lat="48.169" lon="-4.13763">
        <ele>116.59999847412</ele>
        <time>2018-06-03T05:54:10.000Z</time>
      </trkpt>
      <trkpt lat="48.16909" lon="-4.13755">
        <ele>117.80000305176</ele>
        <time>2018-06-03T05:54:15.000Z</time>
      </trkpt>
      <trkpt lat="48.16917" lon="-4.13748">
        <ele>119</ele>
        <time>2018-06-03T05:54:20.000Z</time>
      </trkpt>
      <trkpt lat="48.16923" lon="-4.13741">
        <ele>120</ele>
        <time>2018-06-03T05:54:25.000Z</time>
      </trkpt>
      <trkpt lat="48.16932" lon="-4.13731">
        <ele>121.40000152588</ele>
        <time>2018-06-03T05:54:32.000Z</time>
      </trkpt>
      <trkpt lat="48.16937" lon="-4.13726">
        <ele>122.40000152588</ele>
        <time>2018-06-03T05:54:36.000Z</time>
      </trkpt>
      <trkpt lat="48.16944" lon="-4.1372">
        <ele>123.40000152588</ele>
        <time>2018-06-03T05:54:41.000Z</time>
      </trkpt>
      <trkpt lat="48.16953" lon="-4.13713">
        <ele>124.59999847412</ele>
        <time>2018-06-03T05:54:48.000Z</time>
      </trkpt>
      <trkpt lat="48.16961" lon="-4.13709">
        <ele>125.80000305176</ele>
        <time>2018-06-03T05:54:53.000Z</time>
      </trkpt>
      <trkpt lat="48.16967" lon="-4.13707">
        <ele>127</ele>
        <time>2018-06-03T05:54:57.000Z</time>
      </trkpt>
      <trkpt lat="48.16978" lon="-4.13707">
        <ele>128</ele>
        <time>2018-06-03T05:55:04.000Z</time>
      </trkpt>
      <trkpt lat="48.16987" lon="-4.13709">
        <ele>129.19999694824</ele>
        <time>2018-06-03T05:55:10.000Z</time>
      </trkpt>
      <trkpt lat="48.16999" lon="-4.13713">
        <ele>130.19999694824</ele>
        <time>2018-06-03T05:55:17.000Z</time>
      </trkpt>
      <trkpt lat="48.1701" lon="-4.13717">
        <ele>131.39999389648</ele>
        <time>2018-06-03T05:55:24.000Z</time>
      </trkpt>
      <trkpt lat="48.17017" lon="-4.1372">
        <ele>132.39999389648</ele>
        <time>2018-06-03T05:55:28.000Z</time>
      </trkpt>
      <trkpt lat="48.17026" lon="-4.13724">
        <ele>133.39999389648</ele>
        <time>2018-06-03T05:55:34.000Z</time>
      </trkpt>
      <trkpt lat="48.17035" lon="-4.13728">
        <ele>134.39999389648</ele>
        <time>2018-06-03T05:55:39.000Z</time>
      </trkpt>
      <trkpt lat="48.17044" lon="-4.13732">
        <ele>135.60000610352</ele>
        <time>2018-06-03T05:55:45.000Z</time>
      </trkpt>
      <trkpt lat="48.17054" lon="-4.13737">
        <ele>136.60000610352</ele>
        <time>2018-06-03T05:55:51.000Z</time>
      </trkpt>
      <trkpt lat="48.17065" lon="-4.13743">
        <ele>137.80000305176</ele>
        <time>2018-06-03T05:55:58.000Z</time>
      </trkpt>
      <trkpt lat="48.17072" lon="-4.13746">
        <ele>138.80000305176</ele>
        <time>2018-06-03T05:56:02.000Z</time>
      </trkpt>
      <trkpt lat="48.1708" lon="-4.13751">
        <ele>139.80000305176</ele>
        <time>2018-06-03T05:56:07.000Z</time>
      </trkpt>
      <trkpt lat="48.17088" lon="-4.13755">
        <ele>140.80000305176</ele>
        <time>2018-06-03T05:56:12.000Z</time>
      </trkpt>
      <trkpt lat="48.17098" lon="-4.13762">
        <ele>141.80000305176</ele>
        <time>2018-06-03T05:56:18.000Z</time>
      </trkpt>
      <trkpt lat="48.17109" lon="-4.1377">
        <ele>143</ele>
        <time>2018-06-03T05:56:25.000Z</time>
      </trkpt>
      <trkpt lat="48.17123" lon="-4.13779">
        <ele>144</ele>
        <time>2018-06-03T05:56:33.000Z</time>
      </trkpt>
      <trkpt lat="48.17133" lon="-4.13787">
        <ele>145</ele>
        <time>2018-06-03T05:56:39.000Z</time>
      </trkpt>
      <trkpt lat="48.17147" lon="-4.13799">
        <ele>146</ele>
        <time>2018-06-03T05:56:48.000Z</time>
      </trkpt>
      <trkpt lat="48.1716" lon="-4.13807">
        <ele>147.19999694824</ele>
        <time>2018-06-03T05:56:56.000Z</time>
      </trkpt>
      <trkpt lat="48.17169" lon="-4.1381">
        <ele>147.60000610352</ele>
        <time>2018-06-03T05:57:02.000Z</time>
      </trkpt>
      <trkpt lat="48.17154" lon="-4.13807">
        <ele>148.19999694824</ele>
        <time>2018-06-03T05:57:09.000Z</time>
      </trkpt>
      <trkpt lat="48.17102" lon="-4.13768">
        <ele>145.80000305176</ele>
        <time>2018-06-03T05:57:20.000Z</time>
      </trkpt>
      <trkpt lat="48.17088" lon="-4.13758">
        <ele>144.60000610352</ele>
        <time>2018-06-03T05:57:23.000Z</time>
      </trkpt>
      <trkpt lat="48.17073" lon="-4.13749">
        <ele>143.19999694824</ele>
        <time>2018-06-03T05:57:26.000Z</time>
      </trkpt>
      <trkpt lat="48.17052" lon="-4.13739">
        <ele>142</ele>
        <time>2018-06-03T05:57:30.000Z</time>
      </trkpt>
      <trkpt lat="48.17036" lon="-4.13732">
        <ele>140.80000305176</ele>
        <time>2018-06-03T05:57:33.000Z</time>
      </trkpt>
      <trkpt lat="48.17025" lon="-4.13727">
        <ele>139.60000610352</ele>
        <time>2018-06-03T05:57:35.000Z</time>
      </trkpt>
      <trkpt lat="48.17013" lon="-4.13722">
        <ele>138.39999389648</ele>
        <time>2018-06-03T05:57:37.000Z</time>
      </trkpt>
      <trkpt lat="48.17002" lon="-4.13717">
        <ele>137</ele>
        <time>2018-06-03T05:57:39.000Z</time>
      </trkpt>
      <trkpt lat="48.16991" lon="-4.13712">
        <ele>135.19999694824</ele>
        <time>2018-06-03T05:57:41.000Z</time>
      </trkpt>
      <trkpt lat="48.16979" lon="-4.13709">
        <ele>133</ele>
        <time>2018-06-03T05:57:43.000Z</time>
      </trkpt>
      <trkpt lat="48.16967" lon="-4.13709">
        <ele>131.60000610352</ele>
        <time>2018-06-03T05:57:45.000Z</time>
      </trkpt>
      <trkpt lat="48.16955" lon="-4.13712">
        <ele>130.39999389648</ele>
        <time>2018-06-03T05:57:47.000Z</time>
      </trkpt>
      <trkpt lat="48.16939" lon="-4.13722">
        <ele>129.19999694824</ele>
        <time>2018-06-03T05:57:50.000Z</time>
      </trkpt>
      <trkpt lat="48.16933" lon="-4.13727">
        <ele>128.60000610352</ele>
        <time>2018-06-03T05:57:51.000Z</time>
      </trkpt>
      <trkpt lat="48.16928" lon="-4.13732">
        <ele>128</ele>
        <time>2018-06-03T05:57:52.000Z</time>
      </trkpt>
      <trkpt lat="48.16917" lon="-4.13743">
        <ele>126.80000305176</ele>
        <time>2018-06-03T05:57:54.000Z</time>
      </trkpt>
      <trkpt lat="48.16911" lon="-4.13749">
        <ele>125.59999847412</ele>
        <time>2018-06-03T05:57:55.000Z</time>
      </trkpt>
      <trkpt lat="48.16906" lon="-4.13755">
        <ele>124.59999847412</ele>
        <time>2018-06-03T05:57:56.000Z</time>
      </trkpt>
      <trkpt lat="48.1689" lon="-4.13773">
        <ele>123.19999694824</ele>
        <time>2018-06-03T05:57:59.000Z</time>
      </trkpt>
      <trkpt lat="48.1688" lon="-4.13784">
        <ele>122.19999694824</ele>
        <time>2018-06-03T05:58:01.000Z</time>
      </trkpt>
      <trkpt lat="48.1687" lon="-4.13795">
        <ele>121</ele>
        <time>2018-06-03T05:58:03.000Z</time>
      </trkpt>
      <trkpt lat="48.1686" lon="-4.13806">
        <ele>119</ele>
        <time>2018-06-03T05:58:05.000Z</time>
      </trkpt>
      <trkpt lat="48.16854" lon="-4.13811">
        <ele>118</ele>
        <time>2018-06-03T05:58:06.000Z</time>
      </trkpt>
      <trkpt lat="48.1684" lon="-4.13821">
        <ele>116.19999694824</ele>
        <time>2018-06-03T05:58:08.000Z</time>
      </trkpt>
      <trkpt lat="48.16824" lon="-4.13829">
        <ele>115</ele>
        <time>2018-06-03T05:58:10.000Z</time>
      </trkpt>
      <trkpt lat="48.16808" lon="-4.13837">
        <ele>113.19999694824</ele>
        <time>2018-06-03T05:58:12.000Z</time>
      </trkpt>
      <trkpt lat="48.168" lon="-4.1384">
        <ele>112.19999694824</ele>
        <time>2018-06-03T05:58:13.000Z</time>
      </trkpt>
      <trkpt lat="48.16792" lon="-4.13844">
        <ele>110.80000305176</ele>
        <time>2018-06-03T05:58:14.000Z</time>
      </trkpt>
      <trkpt lat="48.16784" lon="-4.13848">
        <ele>109.40000152588</ele>
        <time>2018-06-03T05:58:15.000Z</time>
      </trkpt>
      <trkpt lat="48.16777" lon="-4.13851">
        <ele>108</ele>
        <time>2018-06-03T05:58:16.000Z</time>
      </trkpt>
      <trkpt lat="48.16769" lon="-4.13855">
        <ele>106.80000305176</ele>
        <time>2018-06-03T05:58:17.000Z</time>
      </trkpt>
      <trkpt lat="48.16762" lon="-4.13858">
        <ele>105.40000152588</ele>
        <time>2018-06-03T05:58:18.000Z</time>
      </trkpt>
      <trkpt lat="48.16747" lon="-4.13865">
        <ele>104.19999694824</ele>
        <time>2018-06-03T05:58:20.000Z</time>
      </trkpt>
      <trkpt lat="48.16731" lon="-4.13872">
        <ele>103.19999694824</ele>
        <time>2018-06-03T05:58:22.000Z</time>
      </trkpt>
      <trkpt lat="48.16716" lon="-4.13881">
        <ele>101.59999847412</ele>
        <time>2018-06-03T05:58:24.000Z</time>
      </trkpt>
      <trkpt lat="48.16701" lon="-4.13889">
        <ele>100.40000152588</ele>
        <time>2018-06-03T05:58:26.000Z</time>
      </trkpt>
      <trkpt lat="48.16685" lon="-4.13898">
        <ele>99.199996948242</ele>
        <time>2018-06-03T05:58:28.000Z</time>
      </trkpt>
      <trkpt lat="48.16671" lon="-4.1391">
        <ele>97.800003051758</ele>
        <time>2018-06-03T05:58:30.000Z</time>
      </trkpt>
      <trkpt lat="48.16657" lon="-4.13923">
        <ele>96</ele>
        <time>2018-06-03T05:58:32.000Z</time>
      </trkpt>
      <trkpt lat="48.16644" lon="-4.13938">
        <ele>94.599998474121</ele>
        <time>2018-06-03T05:58:34.000Z</time>
      </trkpt>
      <trkpt lat="48.1663" lon="-4.13955">
        <ele>93.199996948242</ele>
        <time>2018-06-03T05:58:36.000Z</time>
      </trkpt>
      <trkpt lat="48.16617" lon="-4.13972">
        <ele>91.800003051758</ele>
        <time>2018-06-03T05:58:38.000Z</time>
      </trkpt>
      <trkpt lat="48.16604" lon="-4.13989">
        <ele>90.800003051758</ele>
        <time>2018-06-03T05:58:40.000Z</time>
      </trkpt>
      <trkpt lat="48.16576" lon="-4.14024">
        <ele>89.599998474121</ele>
        <time>2018-06-03T05:58:44.000Z</time>
      </trkpt>
      <trkpt lat="48.16562" lon="-4.14041">
        <ele>88.199996948242</ele>
        <time>2018-06-03T05:58:46.000Z</time>
      </trkpt>
      <trkpt lat="48.16549" lon="-4.14058">
        <ele>87.199996948242</ele>
        <time>2018-06-03T05:58:48.000Z</time>
      </trkpt>
      <trkpt lat="48.16536" lon="-4.14074">
        <ele>86.199996948242</ele>
        <time>2018-06-03T05:58:50.000Z</time>
      </trkpt>
      <trkpt lat="48.16524" lon="-4.14089">
        <ele>84.800003051758</ele>
        <time>2018-06-03T05:58:52.000Z</time>
      </trkpt>
      <trkpt lat="48.16502" lon="-4.14115">
        <ele>83.800003051758</ele>
        <time>2018-06-03T05:58:56.000Z</time>
      </trkpt>
      <trkpt lat="48.16469" lon="-4.14156">
        <ele>82.599998474121</ele>
        <time>2018-06-03T05:59:03.000Z</time>
      </trkpt>
      <trkpt lat="48.16449" lon="-4.14191">
        <ele>82</ele>
        <time>2018-06-03T05:59:12.000Z</time>
      </trkpt>
      <trkpt lat="48.16443" lon="-4.14185">
        <ele>81.599998474121</ele>
        <time>2018-06-03T05:59:16.000Z</time>
      </trkpt>
      <trkpt lat="48.16434" lon="-4.14174">
        <ele>81.800003051758</ele>
        <time>2018-06-03T05:59:21.000Z</time>
      </trkpt>
      <trkpt lat="48.16433" lon="-4.1417">
        <ele>81.800003051758</ele>
        <time>2018-06-03T05:59:23.000Z</time>
      </trkpt>
      <trkpt lat="48.16434" lon="-4.14163">
        <ele>82.400001525879</ele>
        <time>2018-06-03T05:59:31.000Z</time>
      </trkpt>
      <trkpt lat="48.16434" lon="-4.14163">
        <ele>83</ele>
        <time>2018-06-03T05:59:36.000Z</time>
      </trkpt>
      <trkpt lat="48.16434" lon="-4.14158">
        <ele>83.199996948242</ele>
        <time>2018-06-03T05:59:40.000Z</time>
      </trkpt>
      <trkpt lat="48.16442" lon="-4.14136">
        <ele>83.199996948242</ele>
        <time>2018-06-03T05:59:48.000Z</time>
      </trkpt>
      <trkpt lat="48.16448" lon="-4.14059">
        <ele>84.199996948242</ele>
        <time>2018-06-03T06:00:08.000Z</time>
      </trkpt>
      <trkpt lat="48.16451" lon="-4.14042">
        <ele>85.199996948242</ele>
        <time>2018-06-03T06:00:13.000Z</time>
      </trkpt>
      <trkpt lat="48.16455" lon="-4.13972">
        <ele>86.400001525879</ele>
        <time>2018-06-03T06:00:30.000Z</time>
      </trkpt>
      <trkpt lat="48.16485" lon="-4.13892">
        <ele>87.199996948242</ele>
        <time>2018-06-03T06:00:47.000Z</time>
      </trkpt>
      <trkpt lat="48.16494" lon="-4.13863">
        <ele>87.400001525879</ele>
        <time>2018-06-03T06:00:54.000Z</time>
      </trkpt>
      <trkpt lat="48.165" lon="-4.13825">
        <ele>88.800003051758</ele>
        <time>2018-06-03T06:01:06.000Z</time>
      </trkpt>
      <trkpt lat="48.16501" lon="-4.13808">
        <ele>89.800003051758</ele>
        <time>2018-06-03T06:01:12.000Z</time>
      </trkpt>
      <trkpt lat="48.165" lon="-4.13791">
        <ele>91</ele>
        <time>2018-06-03T06:01:19.000Z</time>
      </trkpt>
      <trkpt lat="48.16498" lon="-4.1378">
        <ele>92</ele>
        <time>2018-06-03T06:01:23.000Z</time>
      </trkpt>
      <trkpt lat="48.16496" lon="-4.13765">
        <ele>93.199996948242</ele>
        <time>2018-06-03T06:01:28.000Z</time>
      </trkpt>
      <trkpt lat="48.16497" lon="-4.13753">
        <ele>94.199996948242</ele>
        <time>2018-06-03T06:01:32.000Z</time>
      </trkpt>
      <trkpt lat="48.16502" lon="-4.13738">
        <ele>95.199996948242</ele>
        <time>2018-06-03T06:01:40.000Z</time>
      </trkpt>
      <trkpt lat="48.16508" lon="-4.13739">
        <ele>95.400001525879</ele>
        <time>2018-06-03T06:01:46.000Z</time>
      </trkpt>
      <trkpt lat="48.16528" lon="-4.13771">
        <ele>94.199996948242</ele>
        <time>2018-06-03T06:01:57.000Z</time>
      </trkpt>
      <trkpt lat="48.16533" lon="-4.13775">
        <ele>93.199996948242</ele>
        <time>2018-06-03T06:02:00.000Z</time>
      </trkpt>
      <trkpt lat="48.16534" lon="-4.13775">
        <ele>92.800003051758</ele>
        <time>2018-06-03T06:02:01.000Z</time>
      </trkpt>
      <trkpt lat="48.16538" lon="-4.13775">
        <ele>91.800003051758</ele>
        <time>2018-06-03T06:02:05.000Z</time>
      </trkpt>
      <trkpt lat="48.16539" lon="-4.13774">
        <ele>91.800003051758</ele>
        <time>2018-06-03T06:02:07.000Z</time>
      </trkpt>
      <trkpt lat="48.16539" lon="-4.13775">
        <ele>91.599998474121</ele>
        <time>2018-06-03T06:02:08.000Z</time>
      </trkpt>
      <trkpt lat="48.16539" lon="-4.13775">
        <ele>91.599998474121</ele>
        <time>2018-06-03T06:02:10.000Z</time>
      </trkpt>
      <trkpt lat="48.16539" lon="-4.13775">
        <ele>91.599998474121</ele>
        <time>2018-06-03T06:02:12.000Z</time>
      </trkpt>
      <trkpt lat="48.16539" lon="-4.13775">
        <ele>91.800003051758</ele>
        <time>2018-06-03T06:02:15.000Z</time>
      </trkpt>
      <trkpt lat="48.1654" lon="-4.13774">
        <ele>91.800003051758</ele>
        <time>2018-06-03T06:02:20.000Z</time>
      </trkpt>
      <trkpt lat="48.16542" lon="-4.13772">
        <ele>92</ele>
        <time>2018-06-03T06:02:31.000Z</time>
      </trkpt>
      <trkpt lat="48.16542" lon="-4.13772">
        <ele>92.199996948242</ele>
        <time>2018-06-03T06:02:32.000Z</time>
      </trkpt>
      <trkpt lat="48.16542" lon="-4.13771">
        <ele>92.199996948242</ele>
        <time>2018-06-03T06:02:37.000Z</time>
      </trkpt>
      <trkpt lat="48.16542" lon="-4.13771">
        <ele>92.400001525879</ele>
        <time>2018-06-03T06:02:42.000Z</time>
      </trkpt>
      <trkpt lat="48.16544" lon="-4.13765">
        <ele>92.400001525879</ele>
        <time>2018-06-03T06:02:50.000Z</time>
      </trkpt>
      <trkpt lat="48.16569" lon="-4.1371">
        <ele>92.800003051758</ele>
        <time>2018-06-03T06:03:05.000Z</time>
      </trkpt>
      <trkpt lat="48.1659" lon="-4.13693">
        <ele>93.800003051758</ele>
        <time>2018-06-03T06:03:14.000Z</time>
      </trkpt>
      <trkpt lat="48.16592" lon="-4.13686">
        <ele>94</ele>
        <time>2018-06-03T06:03:18.000Z</time>
      </trkpt>
      <trkpt lat="48.16592" lon="-4.13685">
        <ele>94</ele>
        <time>2018-06-03T06:03:19.000Z</time>
      </trkpt>
      <trkpt lat="48.16596" lon="-4.13678">
        <ele>94.800003051758</ele>
        <time>2018-06-03T06:03:27.000Z</time>
      </trkpt>
      <trkpt lat="48.16596" lon="-4.13677">
        <ele>95</ele>
        <time>2018-06-03T06:03:28.000Z</time>
      </trkpt>
      <trkpt lat="48.16596" lon="-4.13675">
        <ele>95</ele>
        <time>2018-06-03T06:03:29.000Z</time>
      </trkpt>
      <trkpt lat="48.16595" lon="-4.13668">
        <ele>95</ele>
        <time>2018-06-03T06:03:34.000Z</time>
      </trkpt>
      <trkpt lat="48.16598" lon="-4.13649">
        <ele>95</ele>
        <time>2018-06-03T06:03:42.000Z</time>
      </trkpt>
      <trkpt lat="48.1661" lon="-4.13628">
        <ele>95.199996948242</ele>
        <time>2018-06-03T06:03:52.000Z</time>
      </trkpt>
      <trkpt lat="48.16611" lon="-4.13624">
        <ele>95.800003051758</ele>
        <time>2018-06-03T06:03:57.000Z</time>
      </trkpt>
      <trkpt lat="48.16611" lon="-4.13624">
        <ele>95.800003051758</ele>
        <time>2018-06-03T06:03:58.000Z</time>
      </trkpt>
      <trkpt lat="48.16612" lon="-4.13621">
        <ele>96.400001525879</ele>
        <time>2018-06-03T06:04:04.000Z</time>
      </trkpt>
      <trkpt lat="48.16612" lon="-4.1362">
        <ele>96.400001525879</ele>
        <time>2018-06-03T06:04:05.000Z</time>
      </trkpt>
      <trkpt lat="48.16613" lon="-4.13618">
        <ele>97</ele>
        <time>2018-06-03T06:04:13.000Z</time>
      </trkpt>
      <trkpt lat="48.16613" lon="-4.13618">
        <ele>97</ele>
        <time>2018-06-03T06:04:14.000Z</time>
      </trkpt>
      <trkpt lat="48.16614" lon="-4.13617">
        <ele>97</ele>
        <time>2018-06-03T06:04:16.000Z</time>
      </trkpt>
      <trkpt lat="48.16613" lon="-4.1361">
        <ele>97</ele>
        <time>2018-06-03T06:04:20.000Z</time>
      </trkpt>
      <trkpt lat="48.16611" lon="-4.13599">
        <ele>97</ele>
        <time>2018-06-03T06:04:24.000Z</time>
      </trkpt>
      <trkpt lat="48.16615" lon="-4.13589">
        <ele>97</ele>
        <time>2018-06-03T06:05:27.000Z</time>
      </trkpt>
      <trkpt lat="48.16643" lon="-4.1354">
        <ele>97.800003051758</ele>
        <time>2018-06-03T06:05:43.000Z</time>
      </trkpt>
      <trkpt lat="48.16649" lon="-4.13501">
        <ele>99</ele>
        <time>2018-06-03T06:05:53.000Z</time>
      </trkpt>
      <trkpt lat="48.1665" lon="-4.13476">
        <ele>100</ele>
        <time>2018-06-03T06:05:59.000Z</time>
      </trkpt>
      <trkpt lat="48.16651" lon="-4.13451">
        <ele>101</ele>
        <time>2018-06-03T06:06:06.000Z</time>
      </trkpt>
      <trkpt lat="48.16663" lon="-4.13413">
        <ele>101.59999847412</ele>
        <time>2018-06-03T06:06:20.000Z</time>
      </trkpt>
      <trkpt lat="48.16663" lon="-4.13412">
        <ele>101.80000305176</ele>
        <time>2018-06-03T06:06:21.000Z</time>
      </trkpt>
      <trkpt lat="48.16664" lon="-4.13409">
        <ele>102.19999694824</ele>
        <time>2018-06-03T06:06:23.000Z</time>
      </trkpt>
      <trkpt lat="48.16672" lon="-4.13403">
        <ele>102.40000152588</ele>
        <time>2018-06-03T06:06:29.000Z</time>
      </trkpt>
      <trkpt lat="48.16681" lon="-4.13388">
        <ele>102.80000305176</ele>
        <time>2018-06-03T06:06:35.000Z</time>
      </trkpt>
      <trkpt lat="48.16684" lon="-4.13381">
        <ele>102.80000305176</ele>
        <time>2018-06-03T06:06:38.000Z</time>
      </trkpt>
      <trkpt lat="48.16689" lon="-4.1337">
        <ele>103.19999694824</ele>
        <time>2018-06-03T06:06:42.000Z</time>
      </trkpt>
      <trkpt lat="48.16692" lon="-4.13356">
        <ele>103.80000305176</ele>
        <time>2018-06-03T06:06:47.000Z</time>
      </trkpt>
      <trkpt lat="48.16695" lon="-4.13348">
        <ele>103.80000305176</ele>
        <time>2018-06-03T06:06:50.000Z</time>
      </trkpt>
      <trkpt lat="48.16697" lon="-4.13342">
        <ele>104.19999694824</ele>
        <time>2018-06-03T06:06:52.000Z</time>
      </trkpt>
      <trkpt lat="48.16703" lon="-4.13316">
        <ele>105.40000152588</ele>
        <time>2018-06-03T06:07:01.000Z</time>
      </trkpt>
      <trkpt lat="48.16706" lon="-4.13304">
        <ele>105.80000305176</ele>
        <time>2018-06-03T06:07:05.000Z</time>
      </trkpt>
      <trkpt lat="48.16714" lon="-4.13282">
        <ele>106.40000152588</ele>
        <time>2018-06-03T06:07:12.000Z</time>
      </trkpt>
      <trkpt lat="48.16715" lon="-4.13279">
        <ele>106.59999847412</ele>
        <time>2018-06-03T06:07:13.000Z</time>
      </trkpt>
      <trkpt lat="48.16714" lon="-4.13271">
        <ele>106.80000305176</ele>
        <time>2018-06-03T06:07:16.000Z</time>
      </trkpt>
      <trkpt lat="48.16709" lon="-4.13263">
        <ele>107.40000152588</ele>
        <time>2018-06-03T06:07:20.000Z</time>
      </trkpt>
      <trkpt lat="48.16707" lon="-4.1326">
        <ele>107.59999847412</ele>
        <time>2018-06-03T06:07:22.000Z</time>
      </trkpt>
      <trkpt lat="48.16702" lon="-4.13259">
        <ele>107.80000305176</ele>
        <time>2018-06-03T06:07:26.000Z</time>
      </trkpt>
      <trkpt lat="48.16689" lon="-4.13246">
        <ele>108.19999694824</ele>
        <time>2018-06-03T06:07:36.000Z</time>
      </trkpt>
      <trkpt lat="48.16689" lon="-4.13232">
        <ele>108.40000152588</ele>
        <time>2018-06-03T06:07:41.000Z</time>
      </trkpt>
      <trkpt lat="48.16685" lon="-4.13211">
        <ele>108.80000305176</ele>
        <time>2018-06-03T06:07:47.000Z</time>
      </trkpt>
      <trkpt lat="48.16684" lon="-4.13209">
        <ele>108.80000305176</ele>
        <time>2018-06-03T06:07:48.000Z</time>
      </trkpt>
      <trkpt lat="48.16679" lon="-4.13189">
        <ele>109.80000305176</ele>
        <time>2018-06-03T06:07:55.000Z</time>
      </trkpt>
      <trkpt lat="48.16674" lon="-4.13179">
        <ele>110.59999847412</ele>
        <time>2018-06-03T06:07:59.000Z</time>
      </trkpt>
      <trkpt lat="48.16672" lon="-4.13173">
        <ele>110.80000305176</ele>
        <time>2018-06-03T06:08:01.000Z</time>
      </trkpt>
      <trkpt lat="48.16666" lon="-4.13163">
        <ele>111.40000152588</ele>
        <time>2018-06-03T06:08:06.000Z</time>
      </trkpt>
      <trkpt lat="48.16663" lon="-4.13152">
        <ele>111.80000305176</ele>
        <time>2018-06-03T06:08:11.000Z</time>
      </trkpt>
      <trkpt lat="48.16659" lon="-4.13139">
        <ele>112.80000305176</ele>
        <time>2018-06-03T06:08:17.000Z</time>
      </trkpt>
      <trkpt lat="48.16658" lon="-4.13132">
        <ele>113</ele>
        <time>2018-06-03T06:08:19.000Z</time>
      </trkpt>
      <trkpt lat="48.16657" lon="-4.13129">
        <ele>113.19999694824</ele>
        <time>2018-06-03T06:08:20.000Z</time>
      </trkpt>
      <trkpt lat="48.16655" lon="-4.13112">
        <ele>114</ele>
        <time>2018-06-03T06:08:25.000Z</time>
      </trkpt>
      <trkpt lat="48.16655" lon="-4.13106">
        <ele>114.19999694824</ele>
        <time>2018-06-03T06:08:27.000Z</time>
      </trkpt>
      <trkpt lat="48.16653" lon="-4.13083">
        <ele>115</ele>
        <time>2018-06-03T06:08:33.000Z</time>
      </trkpt>
      <trkpt lat="48.16652" lon="-4.1306">
        <ele>116</ele>
        <time>2018-06-03T06:08:41.000Z</time>
      </trkpt>
      <trkpt lat="48.16654" lon="-4.13047">
        <ele>116.80000305176</ele>
        <time>2018-06-03T06:08:46.000Z</time>
      </trkpt>
      <trkpt lat="48.16656" lon="-4.13043">
        <ele>117</ele>
        <time>2018-06-03T06:08:48.000Z</time>
      </trkpt>
      <trkpt lat="48.16657" lon="-4.13041">
        <ele>117</ele>
        <time>2018-06-03T06:08:49.000Z</time>
      </trkpt>
      <trkpt lat="48.16663" lon="-4.13036">
        <ele>118.19999694824</ele>
        <time>2018-06-03T06:08:54.000Z</time>
      </trkpt>
      <trkpt lat="48.16672" lon="-4.13028">
        <ele>119.19999694824</ele>
        <time>2018-06-03T06:08:59.000Z</time>
      </trkpt>
      <trkpt lat="48.1668" lon="-4.13021">
        <ele>120.19999694824</ele>
        <time>2018-06-03T06:09:05.000Z</time>
      </trkpt>
      <trkpt lat="48.16687" lon="-4.13017">
        <ele>121.59999847412</ele>
        <time>2018-06-03T06:09:10.000Z</time>
      </trkpt>
      <trkpt lat="48.16693" lon="-4.13012">
        <ele>122.80000305176</ele>
        <time>2018-06-03T06:09:14.000Z</time>
      </trkpt>
      <trkpt lat="48.16699" lon="-4.13004">
        <ele>123.80000305176</ele>
        <time>2018-06-03T06:09:19.000Z</time>
      </trkpt>
      <trkpt lat="48.16703" lon="-4.12997">
        <ele>125</ele>
        <time>2018-06-03T06:09:23.000Z</time>
      </trkpt>
      <trkpt lat="48.16706" lon="-4.12985">
        <ele>126</ele>
        <time>2018-06-03T06:09:29.000Z</time>
      </trkpt>
      <trkpt lat="48.16711" lon="-4.12975">
        <ele>127.19999694824</ele>
        <time>2018-06-03T06:09:34.000Z</time>
      </trkpt>
      <trkpt lat="48.16713" lon="-4.12967">
        <ele>128.19999694824</ele>
        <time>2018-06-03T06:09:38.000Z</time>
      </trkpt>
      <trkpt lat="48.16715" lon="-4.1296">
        <ele>129.39999389648</ele>
        <time>2018-06-03T06:09:42.000Z</time>
      </trkpt>
      <trkpt lat="48.16715" lon="-4.12956">
        <ele>130</ele>
        <time>2018-06-03T06:09:44.000Z</time>
      </trkpt>
      <trkpt lat="48.16716" lon="-4.12952">
        <ele>130.60000610352</ele>
        <time>2018-06-03T06:09:46.000Z</time>
      </trkpt>
      <trkpt lat="48.16718" lon="-4.12943">
        <ele>131.60000610352</ele>
        <time>2018-06-03T06:09:51.000Z</time>
      </trkpt>
      <trkpt lat="48.1672" lon="-4.12933">
        <ele>133</ele>
        <time>2018-06-03T06:09:56.000Z</time>
      </trkpt>
      <trkpt lat="48.16722" lon="-4.12924">
        <ele>134</ele>
        <time>2018-06-03T06:10:01.000Z</time>
      </trkpt>
      <trkpt lat="48.16725" lon="-4.1291">
        <ele>135</ele>
        <time>2018-06-03T06:10:08.000Z</time>
      </trkpt>
      <trkpt lat="48.16728" lon="-4.12899">
        <ele>136.19999694824</ele>
        <time>2018-06-03T06:10:13.000Z</time>
      </trkpt>
      <trkpt lat="48.16733" lon="-4.12889">
        <ele>137.19999694824</ele>
        <time>2018-06-03T06:10:18.000Z</time>
      </trkpt>
      <trkpt lat="48.16739" lon="-4.12884">
        <ele>138.39999389648</ele>
        <time>2018-06-03T06:10:23.000Z</time>
      </trkpt>
      <trkpt lat="48.16746" lon="-4.12879">
        <ele>139.39999389648</ele>
        <time>2018-06-03T06:10:29.000Z</time>
      </trkpt>
      <trkpt lat="48.16752" lon="-4.12881">
        <ele>140</ele>
        <time>2018-06-03T06:10:33.000Z</time>
      </trkpt>
      <trkpt lat="48.16753" lon="-4.12883">
        <ele>140.39999389648</ele>
        <time>2018-06-03T06:10:34.000Z</time>
      </trkpt>
      <trkpt lat="48.16755" lon="-4.12888">
        <ele>140.80000305176</ele>
        <time>2018-06-03T06:10:36.000Z</time>
      </trkpt>
      <trkpt lat="48.16757" lon="-4.12895">
        <ele>141.39999389648</ele>
        <time>2018-06-03T06:10:39.000Z</time>
      </trkpt>
      <trkpt lat="48.16772" lon="-4.12943">
        <ele>141.39999389648</ele>
        <time>2018-06-03T06:10:54.000Z</time>
      </trkpt>
      <trkpt lat="48.16778" lon="-4.12968">
        <ele>140.39999389648</ele>
        <time>2018-06-03T06:11:02.000Z</time>
      </trkpt>
      <trkpt lat="48.16784" lon="-4.12998">
        <ele>139.39999389648</ele>
        <time>2018-06-03T06:11:07.000Z</time>
      </trkpt>
      <trkpt lat="48.16786" lon="-4.13005">
        <ele>139.19999694824</ele>
        <time>2018-06-03T06:11:08.000Z</time>
      </trkpt>
      <trkpt lat="48.16797" lon="-4.13034">
        <ele>138</ele>
        <time>2018-06-03T06:11:12.000Z</time>
      </trkpt>
      <trkpt lat="48.16804" lon="-4.13049">
        <ele>136.80000305176</ele>
        <time>2018-06-03T06:11:14.000Z</time>
      </trkpt>
      <trkpt lat="48.16809" lon="-4.13062">
        <ele>135.19999694824</ele>
        <time>2018-06-03T06:11:16.000Z</time>
      </trkpt>
      <trkpt lat="48.16815" lon="-4.13071">
        <ele>133.60000610352</ele>
        <time>2018-06-03T06:11:18.000Z</time>
      </trkpt>
      <trkpt lat="48.16822" lon="-4.13075">
        <ele>132.60000610352</ele>
        <time>2018-06-03T06:11:20.000Z</time>
      </trkpt>
      <trkpt lat="48.16825" lon="-4.13077">
        <ele>132.19999694824</ele>
        <time>2018-06-03T06:11:21.000Z</time>
      </trkpt>
      <trkpt lat="48.16856" lon="-4.13092">
        <ele>133.80000305176</ele>
        <time>2018-06-03T06:11:34.000Z</time>
      </trkpt>
      <trkpt lat="48.1688" lon="-4.13094">
        <ele>135</ele>
        <time>2018-06-03T06:11:41.000Z</time>
      </trkpt>
      <trkpt lat="48.16895" lon="-4.1309">
        <ele>135.39999389648</ele>
        <time>2018-06-03T06:11:50.000Z</time>
      </trkpt>
      <trkpt lat="48.16897" lon="-4.13089">
        <ele>135.39999389648</ele>
        <time>2018-06-03T06:11:51.000Z</time>
      </trkpt>
      <trkpt lat="48.169" lon="-4.13087">
        <ele>136.19999694824</ele>
        <time>2018-06-03T06:11:58.000Z</time>
      </trkpt>
      <trkpt lat="48.169" lon="-4.13087">
        <ele>136.60000610352</ele>
        <time>2018-06-03T06:12:01.000Z</time>
      </trkpt>
      <trkpt lat="48.169" lon="-4.13087">
        <ele>137</ele>
        <time>2018-06-03T06:12:02.000Z</time>
      </trkpt>
      <trkpt lat="48.169" lon="-4.13087">
        <ele>137.19999694824</ele>
        <time>2018-06-03T06:12:03.000Z</time>
      </trkpt>
      <trkpt lat="48.169" lon="-4.13087">
        <ele>138.39999389648</ele>
        <time>2018-06-03T06:12:08.000Z</time>
      </trkpt>
      <trkpt lat="48.169" lon="-4.13087">
        <ele>139.39999389648</ele>
        <time>2018-06-03T06:12:14.000Z</time>
      </trkpt>
      <trkpt lat="48.16901" lon="-4.13086">
        <ele>140.39999389648</ele>
        <time>2018-06-03T06:12:19.000Z</time>
      </trkpt>
      <trkpt lat="48.16901" lon="-4.13085">
        <ele>141.60000610352</ele>
        <time>2018-06-03T06:12:26.000Z</time>
      </trkpt>
      <trkpt lat="48.16902" lon="-4.13084">
        <ele>142.60000610352</ele>
        <time>2018-06-03T06:12:30.000Z</time>
      </trkpt>
      <trkpt lat="48.16902" lon="-4.13083">
        <ele>144</ele>
        <time>2018-06-03T06:12:36.000Z</time>
      </trkpt>
      <trkpt lat="48.16902" lon="-4.13082">
        <ele>144.39999389648</ele>
        <time>2018-06-03T06:12:38.000Z</time>
      </trkpt>
      <trkpt lat="48.16904" lon="-4.13083">
        <ele>146.19999694824</ele>
        <time>2018-06-03T06:13:08.000Z</time>
      </trkpt>
      <trkpt lat="48.16942" lon="-4.13082">
        <ele>145.60000610352</ele>
        <time>2018-06-03T06:13:19.000Z</time>
      </trkpt>
      <trkpt lat="48.16946" lon="-4.13084">
        <ele>145.39999389648</ele>
        <time>2018-06-03T06:13:21.000Z</time>
      </trkpt>
      <trkpt lat="48.16958" lon="-4.1308">
        <ele>144.80000305176</ele>
        <time>2018-06-03T06:13:27.000Z</time>
      </trkpt>
      <trkpt lat="48.16962" lon="-4.13075">
        <ele>144.80000305176</ele>
        <time>2018-06-03T06:13:29.000Z</time>
      </trkpt>
      <trkpt lat="48.1698" lon="-4.13051">
        <ele>146.60000610352</ele>
        <time>2018-06-03T06:13:41.000Z</time>
      </trkpt>
      <trkpt lat="48.17" lon="-4.1302">
        <ele>147</ele>
        <time>2018-06-03T06:13:53.000Z</time>
      </trkpt>
      <trkpt lat="48.17008" lon="-4.13006">
        <ele>147.39999389648</ele>
        <time>2018-06-03T06:13:58.000Z</time>
      </trkpt>
      <trkpt lat="48.17012" lon="-4.12996">
        <ele>147.80000305176</ele>
        <time>2018-06-03T06:14:02.000Z</time>
      </trkpt>
      <trkpt lat="48.17014" lon="-4.12992">
        <ele>147.80000305176</ele>
        <time>2018-06-03T06:14:03.000Z</time>
      </trkpt>
      <trkpt lat="48.17019" lon="-4.12978">
        <ele>148.19999694824</ele>
        <time>2018-06-03T06:14:07.000Z</time>
      </trkpt>
      <trkpt lat="48.17026" lon="-4.12948">
        <ele>148.39999389648</ele>
        <time>2018-06-03T06:14:16.000Z</time>
      </trkpt>
      <trkpt lat="48.17029" lon="-4.12931">
        <ele>148.80000305176</ele>
        <time>2018-06-03T06:14:21.000Z</time>
      </trkpt>
      <trkpt lat="48.17036" lon="-4.12908">
        <ele>149.39999389648</ele>
        <time>2018-06-03T06:14:29.000Z</time>
      </trkpt>
      <trkpt lat="48.17043" lon="-4.12894">
        <ele>149.60000610352</ele>
        <time>2018-06-03T06:14:35.000Z</time>
      </trkpt>
      <trkpt lat="48.17047" lon="-4.12887">
        <ele>150</ele>
        <time>2018-06-03T06:14:38.000Z</time>
      </trkpt>
      <trkpt lat="48.17049" lon="-4.12882">
        <ele>150.19999694824</ele>
        <time>2018-06-03T06:14:40.000Z</time>
      </trkpt>
      <trkpt lat="48.17054" lon="-4.12874">
        <ele>150.60000610352</ele>
        <time>2018-06-03T06:14:44.000Z</time>
      </trkpt>
      <trkpt lat="48.17055" lon="-4.12873">
        <ele>150.60000610352</ele>
        <time>2018-06-03T06:14:45.000Z</time>
      </trkpt>
      <trkpt lat="48.17069" lon="-4.12851">
        <ele>151.19999694824</ele>
        <time>2018-06-03T06:14:57.000Z</time>
      </trkpt>
      <trkpt lat="48.17073" lon="-4.12841">
        <ele>152</ele>
        <time>2018-06-03T06:15:01.000Z</time>
      </trkpt>
      <trkpt lat="48.17076" lon="-4.12832">
        <ele>152.39999389648</ele>
        <time>2018-06-03T06:15:06.000Z</time>
      </trkpt>
      <trkpt lat="48.17076" lon="-4.12829">
        <ele>152.60000610352</ele>
        <time>2018-06-03T06:15:07.000Z</time>
      </trkpt>
      <trkpt lat="48.17077" lon="-4.12806">
        <ele>153</ele>
        <time>2018-06-03T06:15:15.000Z</time>
      </trkpt>
      <trkpt lat="48.17076" lon="-4.12777">
        <ele>153.19999694824</ele>
        <time>2018-06-03T06:15:23.000Z</time>
      </trkpt>
      <trkpt lat="48.17075" lon="-4.12757">
        <ele>153.60000610352</ele>
        <time>2018-06-03T06:15:30.000Z</time>
      </trkpt>
      <trkpt lat="48.17073" lon="-4.1273">
        <ele>154.60000610352</ele>
        <time>2018-06-03T06:15:39.000Z</time>
      </trkpt>
      <trkpt lat="48.17073" lon="-4.127">
        <ele>155.60000610352</ele>
        <time>2018-06-03T06:15:49.000Z</time>
      </trkpt>
      <trkpt lat="48.17073" lon="-4.12665">
        <ele>156.80000305176</ele>
        <time>2018-06-03T06:16:01.000Z</time>
      </trkpt>
      <trkpt lat="48.17073" lon="-4.12651">
        <ele>157.19999694824</ele>
        <time>2018-06-03T06:16:05.000Z</time>
      </trkpt>
      <trkpt lat="48.17071" lon="-4.1264">
        <ele>157.80000305176</ele>
        <time>2018-06-03T06:16:09.000Z</time>
      </trkpt>
      <trkpt lat="48.17052" lon="-4.12583">
        <ele>158.80000305176</ele>
        <time>2018-06-03T06:16:25.000Z</time>
      </trkpt>
      <trkpt lat="48.17021" lon="-4.1253">
        <ele>159.60000610352</ele>
        <time>2018-06-03T06:16:41.000Z</time>
      </trkpt>
      <trkpt lat="48.17029" lon="-4.12499">
        <ele>159.80000305176</ele>
        <time>2018-06-03T06:16:51.000Z</time>
      </trkpt>
      <trkpt lat="48.17043" lon="-4.12472">
        <ele>160.80000305176</ele>
        <time>2018-06-03T06:17:02.000Z</time>
      </trkpt>
      <trkpt lat="48.17054" lon="-4.12452">
        <ele>162</ele>
        <time>2018-06-03T06:17:11.000Z</time>
      </trkpt>
      <trkpt lat="48.17066" lon="-4.12438">
        <ele>163</ele>
        <time>2018-06-03T06:17:21.000Z</time>
      </trkpt>
      <trkpt lat="48.17067" lon="-4.12436">
        <ele>163</ele>
        <time>2018-06-03T06:17:22.000Z</time>
      </trkpt>
      <trkpt lat="48.17072" lon="-4.12415">
        <ele>164</ele>
        <time>2018-06-03T06:17:32.000Z</time>
      </trkpt>
      <trkpt lat="48.17075" lon="-4.12408">
        <ele>164.19999694824</ele>
        <time>2018-06-03T06:17:35.000Z</time>
      </trkpt>
      <trkpt lat="48.17083" lon="-4.12387">
        <ele>165.39999389648</ele>
        <time>2018-06-03T06:17:46.000Z</time>
      </trkpt>
      <trkpt lat="48.17087" lon="-4.12374">
        <ele>166</ele>
        <time>2018-06-03T06:17:53.000Z</time>
      </trkpt>
      <trkpt lat="48.17088" lon="-4.12362">
        <ele>166.19999694824</ele>
        <time>2018-06-03T06:17:59.000Z</time>
      </trkpt>
      <trkpt lat="48.17087" lon="-4.12356">
        <ele>166.39999389648</ele>
        <time>2018-06-03T06:18:02.000Z</time>
      </trkpt>
      <trkpt lat="48.17083" lon="-4.12347">
        <ele>167</ele>
        <time>2018-06-03T06:18:08.000Z</time>
      </trkpt>
      <trkpt lat="48.17081" lon="-4.12345">
        <ele>167.60000610352</ele>
        <time>2018-06-03T06:18:34.000Z</time>
      </trkpt>
      <trkpt lat="48.171" lon="-4.12352">
        <ele>168.19999694824</ele>
        <time>2018-06-03T06:18:59.000Z</time>
      </trkpt>
      <trkpt lat="48.17112" lon="-4.12357">
        <ele>168.60000610352</ele>
        <time>2018-06-03T06:19:05.000Z</time>
      </trkpt>
      <trkpt lat="48.17116" lon="-4.12359">
        <ele>168.60000610352</ele>
        <time>2018-06-03T06:19:07.000Z</time>
      </trkpt>
      <trkpt lat="48.17159" lon="-4.12389">
        <ele>169.60000610352</ele>
        <time>2018-06-03T06:19:28.000Z</time>
      </trkpt>
      <trkpt lat="48.17161" lon="-4.12389">
        <ele>169.60000610352</ele>
        <time>2018-06-03T06:19:29.000Z</time>
      </trkpt>
      <trkpt lat="48.17176" lon="-4.12377">
        <ele>170.39999389648</ele>
        <time>2018-06-03T06:19:41.000Z</time>
      </trkpt>
      <trkpt lat="48.17177" lon="-4.12377">
        <ele>171</ele>
        <time>2018-06-03T06:19:43.000Z</time>
      </trkpt>
      <trkpt lat="48.1718" lon="-4.12379">
        <ele>171.39999389648</ele>
        <time>2018-06-03T06:19:45.000Z</time>
      </trkpt>
      <trkpt lat="48.17185" lon="-4.12379">
        <ele>172</ele>
        <time>2018-06-03T06:19:49.000Z</time>
      </trkpt>
      <trkpt lat="48.17191" lon="-4.1238">
        <ele>172.19999694824</ele>
        <time>2018-06-03T06:19:52.000Z</time>
      </trkpt>
      <trkpt lat="48.17198" lon="-4.12387">
        <ele>172.60000610352</ele>
        <time>2018-06-03T06:19:57.000Z</time>
      </trkpt>
      <trkpt lat="48.17215" lon="-4.12402">
        <ele>173</ele>
        <time>2018-06-03T06:20:07.000Z</time>
      </trkpt>
      <trkpt lat="48.17216" lon="-4.12402">
        <ele>173</ele>
        <time>2018-06-03T06:20:08.000Z</time>
      </trkpt>
      <trkpt lat="48.17223" lon="-4.12403">
        <ele>173</ele>
        <time>2018-06-03T06:20:12.000Z</time>
      </trkpt>
      <trkpt lat="48.17232" lon="-4.12407">
        <ele>173.39999389648</ele>
        <time>2018-06-03T06:20:19.000Z</time>
      </trkpt>
      <trkpt lat="48.17239" lon="-4.12413">
        <ele>174.39999389648</ele>
        <time>2018-06-03T06:20:35.000Z</time>
      </trkpt>
      <trkpt lat="48.17243" lon="-4.12418">
        <ele>174.39999389648</ele>
        <time>2018-06-03T06:20:40.000Z</time>
      </trkpt>
      <trkpt lat="48.17254" lon="-4.12415">
        <ele>174.39999389648</ele>
        <time>2018-06-03T06:20:50.000Z</time>
      </trkpt>
      <trkpt lat="48.17261" lon="-4.124">
        <ele>175.60000610352</ele>
        <time>2018-06-03T06:21:00.000Z</time>
      </trkpt>
      <trkpt lat="48.17268" lon="-4.12401">
        <ele>176.60000610352</ele>
        <time>2018-06-03T06:21:08.000Z</time>
      </trkpt>
      <trkpt lat="48.17286" lon="-4.12396">
        <ele>177.39999389648</ele>
        <time>2018-06-03T06:21:19.000Z</time>
      </trkpt>
      <trkpt lat="48.17299" lon="-4.12401">
        <ele>178.39999389648</ele>
        <time>2018-06-03T06:21:28.000Z</time>
      </trkpt>
      <trkpt lat="48.173" lon="-4.12402">
        <ele>178.60000610352</ele>
        <time>2018-06-03T06:21:29.000Z</time>
      </trkpt>
      <trkpt lat="48.17301" lon="-4.12403">
        <ele>178.60000610352</ele>
        <time>2018-06-03T06:21:30.000Z</time>
      </trkpt>
      <trkpt lat="48.17304" lon="-4.12402">
        <ele>178.60000610352</ele>
        <time>2018-06-03T06:21:33.000Z</time>
      </trkpt>
      <trkpt lat="48.17314" lon="-4.12402">
        <ele>178.80000305176</ele>
        <time>2018-06-03T06:21:40.000Z</time>
      </trkpt>
      <trkpt lat="48.17328" lon="-4.12417">
        <ele>179.60000610352</ele>
        <time>2018-06-03T06:21:51.000Z</time>
      </trkpt>
      <trkpt lat="48.17332" lon="-4.1243">
        <ele>179.60000610352</ele>
        <time>2018-06-03T06:22:01.000Z</time>
      </trkpt>
      <trkpt lat="48.17335" lon="-4.12434">
        <ele>179.60000610352</ele>
        <time>2018-06-03T06:22:15.000Z</time>
      </trkpt>
      <trkpt lat="48.17362" lon="-4.1245">
        <ele>180.39999389648</ele>
        <time>2018-06-03T06:22:37.000Z</time>
      </trkpt>
      <trkpt lat="48.17386" lon="-4.12479">
        <ele>181.39999389648</ele>
        <time>2018-06-03T06:22:54.000Z</time>
      </trkpt>
      <trkpt lat="48.17388" lon="-4.12481">
        <ele>181.39999389648</ele>
        <time>2018-06-03T06:22:56.000Z</time>
      </trkpt>
      <trkpt lat="48.17392" lon="-4.12481">
        <ele>181.60000610352</ele>
        <time>2018-06-03T06:23:57.000Z</time>
      </trkpt>
      <trkpt lat="48.17401" lon="-4.12453">
        <ele>182.19999694824</ele>
        <time>2018-06-03T06:24:10.000Z</time>
      </trkpt>
      <trkpt lat="48.17401" lon="-4.12451">
        <ele>182.39999389648</ele>
        <time>2018-06-03T06:24:11.000Z</time>
      </trkpt>
      <trkpt lat="48.17407" lon="-4.12432">
        <ele>183.19999694824</ele>
        <time>2018-06-03T06:24:18.000Z</time>
      </trkpt>
      <trkpt lat="48.17409" lon="-4.12426">
        <ele>183.39999389648</ele>
        <time>2018-06-03T06:24:20.000Z</time>
      </trkpt>
      <trkpt lat="48.17412" lon="-4.12421">
        <ele>184</ele>
        <time>2018-06-03T06:24:22.000Z</time>
      </trkpt>
      <trkpt lat="48.17416" lon="-4.12415">
        <ele>184.39999389648</ele>
        <time>2018-06-03T06:24:25.000Z</time>
      </trkpt>
      <trkpt lat="48.17422" lon="-4.12399">
        <ele>185.60000610352</ele>
        <time>2018-06-03T06:24:32.000Z</time>
      </trkpt>
      <trkpt lat="48.17422" lon="-4.12398">
        <ele>185.60000610352</ele>
        <time>2018-06-03T06:24:33.000Z</time>
      </trkpt>
      <trkpt lat="48.17422" lon="-4.12394">
        <ele>185.80000305176</ele>
        <time>2018-06-03T06:24:35.000Z</time>
      </trkpt>
      <trkpt lat="48.17436" lon="-4.12355">
        <ele>186.80000305176</ele>
        <time>2018-06-03T06:24:49.000Z</time>
      </trkpt>
      <trkpt lat="48.17443" lon="-4.12326">
        <ele>187.80000305176</ele>
        <time>2018-06-03T06:24:59.000Z</time>
      </trkpt>
      <trkpt lat="48.17444" lon="-4.12323">
        <ele>188</ele>
        <time>2018-06-03T06:25:00.000Z</time>
      </trkpt>
      <trkpt lat="48.17453" lon="-4.12291">
        <ele>189</ele>
        <time>2018-06-03T06:25:10.000Z</time>
      </trkpt>
      <trkpt lat="48.17462" lon="-4.12259">
        <ele>190.19999694824</ele>
        <time>2018-06-03T06:25:21.000Z</time>
      </trkpt>
      <trkpt lat="48.17473" lon="-4.12222">
        <ele>191.19999694824</ele>
        <time>2018-06-03T06:25:34.000Z</time>
      </trkpt>
      <trkpt lat="48.17484" lon="-4.1217">
        <ele>192.19999694824</ele>
        <time>2018-06-03T06:25:50.000Z</time>
      </trkpt>
      <trkpt lat="48.17485" lon="-4.12166">
        <ele>192.19999694824</ele>
        <time>2018-06-03T06:25:51.000Z</time>
      </trkpt>
      <trkpt lat="48.1749" lon="-4.12151">
        <ele>192.60000610352</ele>
        <time>2018-06-03T06:25:56.000Z</time>
      </trkpt>
      <trkpt lat="48.17508" lon="-4.12078">
        <ele>192.39999389648</ele>
        <time>2018-06-03T06:26:18.000Z</time>
      </trkpt>
      <trkpt lat="48.17515" lon="-4.12063">
        <ele>192.39999389648</ele>
        <time>2018-06-03T06:26:26.000Z</time>
      </trkpt>
      <trkpt lat="48.1752" lon="-4.12067">
        <ele>192.60000610352</ele>
        <time>2018-06-03T06:26:29.000Z</time>
      </trkpt>
      <trkpt lat="48.17534" lon="-4.12088">
        <ele>192.60000610352</ele>
        <time>2018-06-03T06:26:41.000Z</time>
      </trkpt>
      <trkpt lat="48.17537" lon="-4.12094">
        <ele>192.60000610352</ele>
        <time>2018-06-03T06:26:45.000Z</time>
      </trkpt>
      <trkpt lat="48.17551" lon="-4.12122">
        <ele>192.39999389648</ele>
        <time>2018-06-03T06:26:53.000Z</time>
      </trkpt>
      <trkpt lat="48.17574" lon="-4.12185">
        <ele>192</ele>
        <time>2018-06-03T06:27:09.000Z</time>
      </trkpt>
      <trkpt lat="48.17594" lon="-4.1226">
        <ele>192.19999694824</ele>
        <time>2018-06-03T06:27:26.000Z</time>
      </trkpt>
      <trkpt lat="48.17615" lon="-4.12346">
        <ele>192.60000610352</ele>
        <time>2018-06-03T06:27:43.000Z</time>
      </trkpt>
      <trkpt lat="48.17635" lon="-4.12391">
        <ele>192.80000305176</ele>
        <time>2018-06-03T06:27:55.000Z</time>
      </trkpt>
      <trkpt lat="48.17642" lon="-4.1239">
        <ele>192.80000305176</ele>
        <time>2018-06-03T06:27:59.000Z</time>
      </trkpt>
      <trkpt lat="48.17647" lon="-4.12392">
        <ele>193</ele>
        <time>2018-06-03T06:28:02.000Z</time>
      </trkpt>
      <trkpt lat="48.17692" lon="-4.12429">
        <ele>193.19999694824</ele>
        <time>2018-06-03T06:28:19.000Z</time>
      </trkpt>
      <trkpt lat="48.17707" lon="-4.12435">
        <ele>193.19999694824</ele>
        <time>2018-06-03T06:28:24.000Z</time>
      </trkpt>
      <trkpt lat="48.17756" lon="-4.12407">
        <ele>192.80000305176</ele>
        <time>2018-06-03T06:28:40.000Z</time>
      </trkpt>
      <trkpt lat="48.17767" lon="-4.12398">
        <ele>192.39999389648</ele>
        <time>2018-06-03T06:28:45.000Z</time>
      </trkpt>
      <trkpt lat="48.17771" lon="-4.12393">
        <ele>192</ele>
        <time>2018-06-03T06:28:47.000Z</time>
      </trkpt>
      <trkpt lat="48.17771" lon="-4.12389">
        <ele>192</ele>
        <time>2018-06-03T06:28:48.000Z</time>
      </trkpt>
      <trkpt lat="48.17766" lon="-4.12377">
        <ele>191.80000305176</ele>
        <time>2018-06-03T06:28:52.000Z</time>
      </trkpt>
      <trkpt lat="48.17736" lon="-4.1232">
        <ele>191</ele>
        <time>2018-06-03T06:29:09.000Z</time>
      </trkpt>
      <trkpt lat="48.17731" lon="-4.12312">
        <ele>191</ele>
        <time>2018-06-03T06:29:11.000Z</time>
      </trkpt>
      <trkpt lat="48.17696" lon="-4.12264">
        <ele>190.19999694824</ele>
        <time>2018-06-03T06:29:27.000Z</time>
      </trkpt>
      <trkpt lat="48.17655" lon="-4.12213">
        <ele>189.80000305176</ele>
        <time>2018-06-03T06:29:43.000Z</time>
      </trkpt>
      <trkpt lat="48.17617" lon="-4.12157">
        <ele>190</ele>
        <time>2018-06-03T06:30:00.000Z</time>
      </trkpt>
      <trkpt lat="48.17575" lon="-4.12099">
        <ele>190.19999694824</ele>
        <time>2018-06-03T06:30:17.000Z</time>
      </trkpt>
      <trkpt lat="48.17555" lon="-4.1206">
        <ele>190.39999389648</ele>
        <time>2018-06-03T06:30:28.000Z</time>
      </trkpt>
      <trkpt lat="48.17559" lon="-4.12035">
        <ele>190.19999694824</ele>
        <time>2018-06-03T06:30:33.000Z</time>
      </trkpt>
      <trkpt lat="48.17553" lon="-4.1202">
        <ele>190.19999694824</ele>
        <time>2018-06-03T06:30:37.000Z</time>
      </trkpt>
      <trkpt lat="48.17548" lon="-4.12015">
        <ele>190.19999694824</ele>
        <time>2018-06-03T06:30:40.000Z</time>
      </trkpt>
      <trkpt lat="48.17547" lon="-4.11996">
        <ele>190.19999694824</ele>
        <time>2018-06-03T06:30:46.000Z</time>
      </trkpt>
      <trkpt lat="48.17551" lon="-4.11963">
        <ele>189.60000610352</ele>
        <time>2018-06-03T06:30:55.000Z</time>
      </trkpt>
      <trkpt lat="48.17557" lon="-4.11947">
        <ele>188.80000305176</ele>
        <time>2018-06-03T06:31:01.000Z</time>
      </trkpt>
      <trkpt lat="48.17557" lon="-4.11942">
        <ele>188.60000610352</ele>
        <time>2018-06-03T06:31:03.000Z</time>
      </trkpt>
      <trkpt lat="48.17566" lon="-4.11909">
        <ele>187.60000610352</ele>
        <time>2018-06-03T06:31:15.000Z</time>
      </trkpt>
      <trkpt lat="48.17567" lon="-4.11906">
        <ele>187.39999389648</ele>
        <time>2018-06-03T06:31:16.000Z</time>
      </trkpt>
      <trkpt lat="48.17571" lon="-4.11897">
        <ele>186.80000305176</ele>
        <time>2018-06-03T06:31:19.000Z</time>
      </trkpt>
      <trkpt lat="48.17579" lon="-4.11884">
        <ele>186.19999694824</ele>
        <time>2018-06-03T06:31:24.000Z</time>
      </trkpt>
      <trkpt lat="48.17583" lon="-4.11856">
        <ele>184.80000305176</ele>
        <time>2018-06-03T06:31:30.000Z</time>
      </trkpt>
      <trkpt lat="48.17587" lon="-4.11847">
        <ele>184.19999694824</ele>
        <time>2018-06-03T06:31:33.000Z</time>
      </trkpt>
      <trkpt lat="48.17587" lon="-4.11837">
        <ele>183.80000305176</ele>
        <time>2018-06-03T06:31:35.000Z</time>
      </trkpt>
      <trkpt lat="48.17584" lon="-4.11825">
        <ele>183.39999389648</ele>
        <time>2018-06-03T06:31:37.000Z</time>
      </trkpt>
      <trkpt lat="48.17572" lon="-4.11793">
        <ele>182.60000610352</ele>
        <time>2018-06-03T06:31:42.000Z</time>
      </trkpt>
      <trkpt lat="48.17565" lon="-4.11773">
        <ele>181.39999389648</ele>
        <time>2018-06-03T06:31:45.000Z</time>
      </trkpt>
      <trkpt lat="48.17561" lon="-4.1176">
        <ele>181</ele>
        <time>2018-06-03T06:31:47.000Z</time>
      </trkpt>
      <trkpt lat="48.17558" lon="-4.11747">
        <ele>180.39999389648</ele>
        <time>2018-06-03T06:31:49.000Z</time>
      </trkpt>
      <trkpt lat="48.17541" lon="-4.11684">
        <ele>179.19999694824</ele>
        <time>2018-06-03T06:31:58.000Z</time>
      </trkpt>
      <trkpt lat="48.17538" lon="-4.11679">
        <ele>179</ele>
        <time>2018-06-03T06:31:59.000Z</time>
      </trkpt>
      <trkpt lat="48.17534" lon="-4.11669">
        <ele>178.80000305176</ele>
        <time>2018-06-03T06:32:01.000Z</time>
      </trkpt>
      <trkpt lat="48.17529" lon="-4.11651">
        <ele>178.60000610352</ele>
        <time>2018-06-03T06:32:04.000Z</time>
      </trkpt>
      <trkpt lat="48.1752" lon="-4.11585">
        <ele>177.80000305176</ele>
        <time>2018-06-03T06:32:12.000Z</time>
      </trkpt>
      <trkpt lat="48.17516" lon="-4.11536">
        <ele>176.80000305176</ele>
        <time>2018-06-03T06:32:18.000Z</time>
      </trkpt>
      <trkpt lat="48.17513" lon="-4.11498">
        <ele>176.39999389648</ele>
        <time>2018-06-03T06:32:23.000Z</time>
      </trkpt>
      <trkpt lat="48.17508" lon="-4.11482">
        <ele>175.80000305176</ele>
        <time>2018-06-03T06:32:26.000Z</time>
      </trkpt>
      <trkpt lat="48.17503" lon="-4.11474">
        <ele>175.60000610352</ele>
        <time>2018-06-03T06:32:30.000Z</time>
      </trkpt>
      <trkpt lat="48.17501" lon="-4.11483">
        <ele>176.39999389648</ele>
        <time>2018-06-03T06:32:37.000Z</time>
      </trkpt>
      <trkpt lat="48.175" lon="-4.11489">
        <ele>176.80000305176</ele>
        <time>2018-06-03T06:32:39.000Z</time>
      </trkpt>
      <trkpt lat="48.17497" lon="-4.11514">
        <ele>177.80000305176</ele>
        <time>2018-06-03T06:32:47.000Z</time>
      </trkpt>
      <trkpt lat="48.17497" lon="-4.11531">
        <ele>178.80000305176</ele>
        <time>2018-06-03T06:32:53.000Z</time>
      </trkpt>
      <trkpt lat="48.17497" lon="-4.11535">
        <ele>179</ele>
        <time>2018-06-03T06:32:54.000Z</time>
      </trkpt>
      <trkpt lat="48.17495" lon="-4.11564">
        <ele>179.80000305176</ele>
        <time>2018-06-03T06:33:02.000Z</time>
      </trkpt>
      <trkpt lat="48.17495" lon="-4.11567">
        <ele>179.80000305176</ele>
        <time>2018-06-03T06:33:03.000Z</time>
      </trkpt>
      <trkpt lat="48.17495" lon="-4.11569">
        <ele>180</ele>
        <time>2018-06-03T06:33:04.000Z</time>
      </trkpt>
      <trkpt lat="48.17492" lon="-4.11584">
        <ele>181.19999694824</ele>
        <time>2018-06-03T06:33:08.000Z</time>
      </trkpt>
      <trkpt lat="48.1749" lon="-4.11602">
        <ele>182.19999694824</ele>
        <time>2018-06-03T06:33:14.000Z</time>
      </trkpt>
      <trkpt lat="48.17487" lon="-4.11623">
        <ele>183</ele>
        <time>2018-06-03T06:33:19.000Z</time>
      </trkpt>
      <trkpt lat="48.17484" lon="-4.11634">
        <ele>183.19999694824</ele>
        <time>2018-06-03T06:33:22.000Z</time>
      </trkpt>
      <trkpt lat="48.17479" lon="-4.11665">
        <ele>184.39999389648</ele>
        <time>2018-06-03T06:33:31.000Z</time>
      </trkpt>
      <trkpt lat="48.17475" lon="-4.11688">
        <ele>185.39999389648</ele>
        <time>2018-06-03T06:33:39.000Z</time>
      </trkpt>
      <trkpt lat="48.17472" lon="-4.11709">
        <ele>186.60000610352</ele>
        <time>2018-06-03T06:33:46.000Z</time>
      </trkpt>
      <trkpt lat="48.17465" lon="-4.11735">
        <ele>187.60000610352</ele>
        <time>2018-06-03T06:33:56.000Z</time>
      </trkpt>
      <trkpt lat="48.17458" lon="-4.11748">
        <ele>188.60000610352</ele>
        <time>2018-06-03T06:34:02.000Z</time>
      </trkpt>
      <trkpt lat="48.17447" lon="-4.11768">
        <ele>189.60000610352</ele>
        <time>2018-06-03T06:34:10.000Z</time>
      </trkpt>
      <trkpt lat="48.17433" lon="-4.11793">
        <ele>190.80000305176</ele>
        <time>2018-06-03T06:34:19.000Z</time>
      </trkpt>
      <trkpt lat="48.1742" lon="-4.11818">
        <ele>191.80000305176</ele>
        <time>2018-06-03T06:34:28.000Z</time>
      </trkpt>
      <trkpt lat="48.17412" lon="-4.11835">
        <ele>192.60000610352</ele>
        <time>2018-06-03T06:34:35.000Z</time>
      </trkpt>
      <trkpt lat="48.17408" lon="-4.11835">
        <ele>192.80000305176</ele>
        <time>2018-06-03T06:34:38.000Z</time>
      </trkpt>
      <trkpt lat="48.17407" lon="-4.11834">
        <ele>192.80000305176</ele>
        <time>2018-06-03T06:34:39.000Z</time>
      </trkpt>
      <trkpt lat="48.1738" lon="-4.11783">
        <ele>193.60000610352</ele>
        <time>2018-06-03T06:35:00.000Z</time>
      </trkpt>
      <trkpt lat="48.17376" lon="-4.11778">
        <ele>193.60000610352</ele>
        <time>2018-06-03T06:35:02.000Z</time>
      </trkpt>
      <trkpt lat="48.17358" lon="-4.11747">
        <ele>194.39999389648</ele>
        <time>2018-06-03T06:35:13.000Z</time>
      </trkpt>
      <trkpt lat="48.17353" lon="-4.1174">
        <ele>194.60000610352</ele>
        <time>2018-06-03T06:35:16.000Z</time>
      </trkpt>
      <trkpt lat="48.17342" lon="-4.11717">
        <ele>195.19999694824</ele>
        <time>2018-06-03T06:35:23.000Z</time>
      </trkpt>
      <trkpt lat="48.17332" lon="-4.11704">
        <ele>195.60000610352</ele>
        <time>2018-06-03T06:35:28.000Z</time>
      </trkpt>
      <trkpt lat="48.17312" lon="-4.11679">
        <ele>196.80000305176</ele>
        <time>2018-06-03T06:35:38.000Z</time>
      </trkpt>
      <trkpt lat="48.17303" lon="-4.11659">
        <ele>197.39999389648</ele>
        <time>2018-06-03T06:35:43.000Z</time>
      </trkpt>
      <trkpt lat="48.17316" lon="-4.11644">
        <ele>197.39999389648</ele>
        <time>2018-06-03T06:35:51.000Z</time>
      </trkpt>
      <trkpt lat="48.17323" lon="-4.11642">
        <ele>197.39999389648</ele>
        <time>2018-06-03T06:35:54.000Z</time>
      </trkpt>
      <trkpt lat="48.17337" lon="-4.11639">
        <ele>197</ele>
        <time>2018-06-03T06:35:58.000Z</time>
      </trkpt>
      <trkpt lat="48.17341" lon="-4.11636">
        <ele>196.80000305176</ele>
        <time>2018-06-03T06:35:59.000Z</time>
      </trkpt>
      <trkpt lat="48.1735" lon="-4.11626">
        <ele>195.39999389648</ele>
        <time>2018-06-03T06:36:02.000Z</time>
      </trkpt>
      <trkpt lat="48.17358" lon="-4.11612">
        <ele>194.19999694824</ele>
        <time>2018-06-03T06:36:06.000Z</time>
      </trkpt>
      <trkpt lat="48.17359" lon="-4.1161">
        <ele>193.80000305176</ele>
        <time>2018-06-03T06:36:07.000Z</time>
      </trkpt>
      <trkpt lat="48.17361" lon="-4.11607">
        <ele>193.19999694824</ele>
        <time>2018-06-03T06:36:09.000Z</time>
      </trkpt>
      <trkpt lat="48.17374" lon="-4.11585">
        <ele>192.39999389648</ele>
        <time>2018-06-03T06:36:18.000Z</time>
      </trkpt>
      <trkpt lat="48.17377" lon="-4.11584">
        <ele>192.19999694824</ele>
        <time>2018-06-03T06:36:19.000Z</time>
      </trkpt>
      <trkpt lat="48.17388" lon="-4.11583">
        <ele>191.60000610352</ele>
        <time>2018-06-03T06:36:23.000Z</time>
      </trkpt>
      <trkpt lat="48.17397" lon="-4.11575">
        <ele>191.39999389648</ele>
        <time>2018-06-03T06:36:26.000Z</time>
      </trkpt>
      <trkpt lat="48.17401" lon="-4.1156">
        <ele>190</ele>
        <time>2018-06-03T06:36:31.000Z</time>
      </trkpt>
      <trkpt lat="48.17402" lon="-4.11557">
        <ele>189.80000305176</ele>
        <time>2018-06-03T06:36:32.000Z</time>
      </trkpt>
      <trkpt lat="48.17405" lon="-4.11533">
        <ele>188.80000305176</ele>
        <time>2018-06-03T06:36:37.000Z</time>
      </trkpt>
      <trkpt lat="48.17411" lon="-4.1151">
        <ele>187.80000305176</ele>
        <time>2018-06-03T06:36:42.000Z</time>
      </trkpt>
      <trkpt lat="48.17422" lon="-4.11502">
        <ele>187.19999694824</ele>
        <time>2018-06-03T06:36:45.000Z</time>
      </trkpt>
      <trkpt lat="48.17428" lon="-4.11497">
        <ele>186.80000305176</ele>
        <time>2018-06-03T06:36:47.000Z</time>
      </trkpt>
      <trkpt lat="48.1743" lon="-4.11494">
        <ele>186.60000610352</ele>
        <time>2018-06-03T06:36:48.000Z</time>
      </trkpt>
      <trkpt lat="48.17436" lon="-4.11486">
        <ele>185.19999694824</ele>
        <time>2018-06-03T06:36:51.000Z</time>
      </trkpt>
      <trkpt lat="48.17437" lon="-4.11483">
        <ele>184.80000305176</ele>
        <time>2018-06-03T06:36:52.000Z</time>
      </trkpt>
      <trkpt lat="48.17442" lon="-4.11477">
        <ele>184.19999694824</ele>
        <time>2018-06-03T06:36:54.000Z</time>
      </trkpt>
      <trkpt lat="48.17453" lon="-4.11467">
        <ele>183.39999389648</ele>
        <time>2018-06-03T06:36:58.000Z</time>
      </trkpt>
      <trkpt lat="48.17456" lon="-4.11464">
        <ele>183</ele>
        <time>2018-06-03T06:36:59.000Z</time>
      </trkpt>
      <trkpt lat="48.17459" lon="-4.1146">
        <ele>182.80000305176</ele>
        <time>2018-06-03T06:37:00.000Z</time>
      </trkpt>
      <trkpt lat="48.17464" lon="-4.11448">
        <ele>181.80000305176</ele>
        <time>2018-06-03T06:37:03.000Z</time>
      </trkpt>
      <trkpt lat="48.17472" lon="-4.11435">
        <ele>180.60000610352</ele>
        <time>2018-06-03T06:37:06.000Z</time>
      </trkpt>
      <trkpt lat="48.17476" lon="-4.11431">
        <ele>179.39999389648</ele>
        <time>2018-06-03T06:37:08.000Z</time>
      </trkpt>
      <trkpt lat="48.17479" lon="-4.1143">
        <ele>178.39999389648</ele>
        <time>2018-06-03T06:37:10.000Z</time>
      </trkpt>
      <trkpt lat="48.1748" lon="-4.11429">
        <ele>177.19999694824</ele>
        <time>2018-06-03T06:37:11.000Z</time>
      </trkpt>
      <trkpt lat="48.17485" lon="-4.11426">
        <ele>176.19999694824</ele>
        <time>2018-06-03T06:37:13.000Z</time>
      </trkpt>
      <trkpt lat="48.17487" lon="-4.11424">
        <ele>176</ele>
        <time>2018-06-03T06:37:14.000Z</time>
      </trkpt>
      <trkpt lat="48.17491" lon="-4.11402">
        <ele>175</ele>
        <time>2018-06-03T06:37:19.000Z</time>
      </trkpt>
      <trkpt lat="48.17494" lon="-4.11382">
        <ele>173.80000305176</ele>
        <time>2018-06-03T06:37:22.000Z</time>
      </trkpt>
      <trkpt lat="48.17494" lon="-4.11366">
        <ele>173.19999694824</ele>
        <time>2018-06-03T06:37:24.000Z</time>
      </trkpt>
      <trkpt lat="48.17494" lon="-4.11343">
        <ele>172.39999389648</ele>
        <time>2018-06-03T06:37:27.000Z</time>
      </trkpt>
      <trkpt lat="48.17495" lon="-4.11325">
        <ele>170.39999389648</ele>
        <time>2018-06-03T06:37:29.000Z</time>
      </trkpt>
      <trkpt lat="48.17495" lon="-4.11308">
        <ele>168.80000305176</ele>
        <time>2018-06-03T06:37:31.000Z</time>
      </trkpt>
      <trkpt lat="48.17496" lon="-4.11292">
        <ele>167.39999389648</ele>
        <time>2018-06-03T06:37:33.000Z</time>
      </trkpt>
      <trkpt lat="48.17495" lon="-4.11276">
        <ele>165.60000610352</ele>
        <time>2018-06-03T06:37:35.000Z</time>
      </trkpt>
      <trkpt lat="48.17495" lon="-4.11262">
        <ele>163.80000305176</ele>
        <time>2018-06-03T06:37:37.000Z</time>
      </trkpt>
      <trkpt lat="48.17496" lon="-4.11253">
        <ele>162.39999389648</ele>
        <time>2018-06-03T06:37:39.000Z</time>
      </trkpt>
      <trkpt lat="48.17501" lon="-4.11246">
        <ele>161.19999694824</ele>
        <time>2018-06-03T06:37:41.000Z</time>
      </trkpt>
      <trkpt lat="48.17517" lon="-4.11238">
        <ele>160.19999694824</ele>
        <time>2018-06-03T06:37:45.000Z</time>
      </trkpt>
      <trkpt lat="48.17521" lon="-4.11237">
        <ele>160</ele>
        <time>2018-06-03T06:37:46.000Z</time>
      </trkpt>
      <trkpt lat="48.17535" lon="-4.11234">
        <ele>158.39999389648</ele>
        <time>2018-06-03T06:37:49.000Z</time>
      </trkpt>
      <trkpt lat="48.17545" lon="-4.11234">
        <ele>157</ele>
        <time>2018-06-03T06:37:51.000Z</time>
      </trkpt>
      <trkpt lat="48.17549" lon="-4.11234">
        <ele>156.19999694824</ele>
        <time>2018-06-03T06:37:52.000Z</time>
      </trkpt>
      <trkpt lat="48.17554" lon="-4.11233">
        <ele>155.60000610352</ele>
        <time>2018-06-03T06:37:53.000Z</time>
      </trkpt>
      <trkpt lat="48.17566" lon="-4.1123">
        <ele>154.39999389648</ele>
        <time>2018-06-03T06:37:55.000Z</time>
      </trkpt>
      <trkpt lat="48.17578" lon="-4.11227">
        <ele>153.39999389648</ele>
        <time>2018-06-03T06:37:57.000Z</time>
      </trkpt>
      <trkpt lat="48.17591" lon="-4.11224">
        <ele>152.19999694824</ele>
        <time>2018-06-03T06:37:59.000Z</time>
      </trkpt>
      <trkpt lat="48.17604" lon="-4.11222">
        <ele>151</ele>
        <time>2018-06-03T06:38:01.000Z</time>
      </trkpt>
      <trkpt lat="48.17617" lon="-4.11219">
        <ele>149</ele>
        <time>2018-06-03T06:38:03.000Z</time>
      </trkpt>
      <trkpt lat="48.17623" lon="-4.11217">
        <ele>148</ele>
        <time>2018-06-03T06:38:04.000Z</time>
      </trkpt>
      <trkpt lat="48.17636" lon="-4.11214">
        <ele>146.19999694824</ele>
        <time>2018-06-03T06:38:06.000Z</time>
      </trkpt>
      <trkpt lat="48.17649" lon="-4.1121">
        <ele>145</ele>
        <time>2018-06-03T06:38:08.000Z</time>
      </trkpt>
      <trkpt lat="48.17662" lon="-4.11205">
        <ele>143</ele>
        <time>2018-06-03T06:38:10.000Z</time>
      </trkpt>
      <trkpt lat="48.17674" lon="-4.11201">
        <ele>141.60000610352</ele>
        <time>2018-06-03T06:38:12.000Z</time>
      </trkpt>
      <trkpt lat="48.17684" lon="-4.11198">
        <ele>140.19999694824</ele>
        <time>2018-06-03T06:38:14.000Z</time>
      </trkpt>
      <trkpt lat="48.17691" lon="-4.11193">
        <ele>138.80000305176</ele>
        <time>2018-06-03T06:38:16.000Z</time>
      </trkpt>
      <trkpt lat="48.17695" lon="-4.11183">
        <ele>137.19999694824</ele>
        <time>2018-06-03T06:38:18.000Z</time>
      </trkpt>
      <trkpt lat="48.17696" lon="-4.11169">
        <ele>136.19999694824</ele>
        <time>2018-06-03T06:38:20.000Z</time>
      </trkpt>
      <trkpt lat="48.17695" lon="-4.11154">
        <ele>135.80000305176</ele>
        <time>2018-06-03T06:38:22.000Z</time>
      </trkpt>
      <trkpt lat="48.17694" lon="-4.11133">
        <ele>135</ele>
        <time>2018-06-03T06:38:25.000Z</time>
      </trkpt>
      <trkpt lat="48.17701" lon="-4.11115">
        <ele>133.80000305176</ele>
        <time>2018-06-03T06:38:28.000Z</time>
      </trkpt>
      <trkpt lat="48.17708" lon="-4.11101">
        <ele>133</ele>
        <time>2018-06-03T06:38:30.000Z</time>
      </trkpt>
      <trkpt lat="48.17711" lon="-4.11094">
        <ele>132.60000610352</ele>
        <time>2018-06-03T06:38:31.000Z</time>
      </trkpt>
      <trkpt lat="48.1772" lon="-4.1107">
        <ele>131.60000610352</ele>
        <time>2018-06-03T06:38:34.000Z</time>
      </trkpt>
      <trkpt lat="48.17726" lon="-4.11054">
        <ele>130.60000610352</ele>
        <time>2018-06-03T06:38:36.000Z</time>
      </trkpt>
      <trkpt lat="48.17732" lon="-4.11038">
        <ele>129.19999694824</ele>
        <time>2018-06-03T06:38:38.000Z</time>
      </trkpt>
      <trkpt lat="48.17741" lon="-4.11013">
        <ele>127.80000305176</ele>
        <time>2018-06-03T06:38:41.000Z</time>
      </trkpt>
      <trkpt lat="48.17754" lon="-4.10976">
        <ele>126.59999847412</ele>
        <time>2018-06-03T06:38:45.000Z</time>
      </trkpt>
      <trkpt lat="48.17765" lon="-4.10947">
        <ele>125.59999847412</ele>
        <time>2018-06-03T06:38:48.000Z</time>
      </trkpt>
      <trkpt lat="48.17775" lon="-4.1092">
        <ele>124.19999694824</ele>
        <time>2018-06-03T06:38:51.000Z</time>
      </trkpt>
      <trkpt lat="48.17781" lon="-4.10904">
        <ele>122.80000305176</ele>
        <time>2018-06-03T06:38:53.000Z</time>
      </trkpt>
      <trkpt lat="48.17787" lon="-4.10888">
        <ele>121.59999847412</ele>
        <time>2018-06-03T06:38:55.000Z</time>
      </trkpt>
      <trkpt lat="48.17796" lon="-4.10864">
        <ele>120.59999847412</ele>
        <time>2018-06-03T06:38:58.000Z</time>
      </trkpt>
      <trkpt lat="48.17802" lon="-4.10847">
        <ele>120.19999694824</ele>
        <time>2018-06-03T06:39:00.000Z</time>
      </trkpt>
      <trkpt lat="48.17825" lon="-4.10806">
        <ele>120</ele>
        <time>2018-06-03T06:39:07.000Z</time>
      </trkpt>
      <trkpt lat="48.17838" lon="-4.10785">
        <ele>119.80000305176</ele>
        <time>2018-06-03T06:39:12.000Z</time>
      </trkpt>
      <trkpt lat="48.17841" lon="-4.10783">
        <ele>119.80000305176</ele>
        <time>2018-06-03T06:39:13.000Z</time>
      </trkpt>
      <trkpt lat="48.17859" lon="-4.10773">
        <ele>119.80000305176</ele>
        <time>2018-06-03T06:39:17.000Z</time>
      </trkpt>
      <trkpt lat="48.17922" lon="-4.10749">
        <ele>119.59999847412</ele>
        <time>2018-06-03T06:39:32.000Z</time>
      </trkpt>
      <trkpt lat="48.17928" lon="-4.10748">
        <ele>119.40000152588</ele>
        <time>2018-06-03T06:39:34.000Z</time>
      </trkpt>
      <trkpt lat="48.17932" lon="-4.10748">
        <ele>119.40000152588</ele>
        <time>2018-06-03T06:39:36.000Z</time>
      </trkpt>
      <trkpt lat="48.17946" lon="-4.10718">
        <ele>119</ele>
        <time>2018-06-03T06:39:44.000Z</time>
      </trkpt>
      <trkpt lat="48.17961" lon="-4.10675">
        <ele>118.59999847412</ele>
        <time>2018-06-03T06:39:51.000Z</time>
      </trkpt>
      <trkpt lat="48.17964" lon="-4.10669">
        <ele>118.59999847412</ele>
        <time>2018-06-03T06:39:52.000Z</time>
      </trkpt>
      <trkpt lat="48.17966" lon="-4.10663">
        <ele>118.40000152588</ele>
        <time>2018-06-03T06:39:53.000Z</time>
      </trkpt>
      <trkpt lat="48.17976" lon="-4.10606">
        <ele>117.80000305176</ele>
        <time>2018-06-03T06:40:02.000Z</time>
      </trkpt>
      <trkpt lat="48.17974" lon="-4.10586">
        <ele>117</ele>
        <time>2018-06-03T06:40:05.000Z</time>
      </trkpt>
      <trkpt lat="48.1797" lon="-4.10557">
        <ele>116.80000305176</ele>
        <time>2018-06-03T06:40:09.000Z</time>
      </trkpt>
      <trkpt lat="48.17963" lon="-4.10509">
        <ele>115.59999847412</ele>
        <time>2018-06-03T06:40:18.000Z</time>
      </trkpt>
      <trkpt lat="48.17954" lon="-4.10428">
        <ele>115</ele>
        <time>2018-06-03T06:40:28.000Z</time>
      </trkpt>
      <trkpt lat="48.17953" lon="-4.10418">
        <ele>114.80000305176</ele>
        <time>2018-06-03T06:40:29.000Z</time>
      </trkpt>
      <trkpt lat="48.17935" lon="-4.10351">
        <ele>113.59999847412</ele>
        <time>2018-06-03T06:40:36.000Z</time>
      </trkpt>
      <trkpt lat="48.17924" lon="-4.10326">
        <ele>112.80000305176</ele>
        <time>2018-06-03T06:40:39.000Z</time>
      </trkpt>
      <trkpt lat="48.17919" lon="-4.10318">
        <ele>109.40000152588</ele>
        <time>2018-06-03T06:40:40.000Z</time>
      </trkpt>
      <trkpt lat="48.17913" lon="-4.10311">
        <ele>103.59999847412</ele>
        <time>2018-06-03T06:40:41.000Z</time>
      </trkpt>
      <trkpt lat="48.17906" lon="-4.10304">
        <ele>97.599998474121</ele>
        <time>2018-06-03T06:40:42.000Z</time>
      </trkpt>
      <trkpt lat="48.179" lon="-4.10297">
        <ele>92.199996948242</ele>
        <time>2018-06-03T06:40:43.000Z</time>
      </trkpt>
      <trkpt lat="48.17893" lon="-4.1029">
        <ele>87.800003051758</ele>
        <time>2018-06-03T06:40:44.000Z</time>
      </trkpt>
      <trkpt lat="48.17887" lon="-4.10282">
        <ele>84.400001525879</ele>
        <time>2018-06-03T06:40:45.000Z</time>
      </trkpt>
      <trkpt lat="48.17881" lon="-4.10274">
        <ele>81.800003051758</ele>
        <time>2018-06-03T06:40:46.000Z</time>
      </trkpt>
      <trkpt lat="48.17875" lon="-4.10266">
        <ele>79.599998474121</ele>
        <time>2018-06-03T06:40:47.000Z</time>
      </trkpt>
      <trkpt lat="48.17871" lon="-4.10256">
        <ele>77.800003051758</ele>
        <time>2018-06-03T06:40:48.000Z</time>
      </trkpt>
      <trkpt lat="48.17868" lon="-4.10245">
        <ele>76.199996948242</ele>
        <time>2018-06-03T06:40:49.000Z</time>
      </trkpt>
      <trkpt lat="48.17866" lon="-4.10234">
        <ele>74.800003051758</ele>
        <time>2018-06-03T06:40:50.000Z</time>
      </trkpt>
      <trkpt lat="48.17866" lon="-4.10223">
        <ele>73.800003051758</ele>
        <time>2018-06-03T06:40:51.000Z</time>
      </trkpt>
      <trkpt lat="48.17868" lon="-4.10204">
        <ele>72.199996948242</ele>
        <time>2018-06-03T06:40:53.000Z</time>
      </trkpt>
      <trkpt lat="48.17878" lon="-4.10178">
        <ele>71.599998474121</ele>
        <time>2018-06-03T06:40:58.000Z</time>
      </trkpt>
      <trkpt lat="48.17889" lon="-4.10165">
        <ele>71.599998474121</ele>
        <time>2018-06-03T06:41:02.000Z</time>
      </trkpt>
      <trkpt lat="48.17906" lon="-4.10155">
        <ele>73.599998474121</ele>
        <time>2018-06-03T06:41:06.000Z</time>
      </trkpt>
      <trkpt lat="48.17952" lon="-4.10125">
        <ele>74</ele>
        <time>2018-06-03T06:41:13.000Z</time>
      </trkpt>
      <trkpt lat="48.17959" lon="-4.10118">
        <ele>74</ele>
        <time>2018-06-03T06:41:14.000Z</time>
      </trkpt>
      <trkpt lat="48.17984" lon="-4.10076">
        <ele>72.400001525879</ele>
        <time>2018-06-03T06:41:18.000Z</time>
      </trkpt>
      <trkpt lat="48.17995" lon="-4.1005">
        <ele>71</ele>
        <time>2018-06-03T06:41:20.000Z</time>
      </trkpt>
      <trkpt lat="48.18006" lon="-4.10023">
        <ele>69.199996948242</ele>
        <time>2018-06-03T06:41:22.000Z</time>
      </trkpt>
      <trkpt lat="48.18014" lon="-4.09995">
        <ele>67.400001525879</ele>
        <time>2018-06-03T06:41:24.000Z</time>
      </trkpt>
      <trkpt lat="48.1802" lon="-4.09969">
        <ele>65.400001525879</ele>
        <time>2018-06-03T06:41:26.000Z</time>
      </trkpt>
      <trkpt lat="48.18025" lon="-4.09948">
        <ele>63.599998474121</ele>
        <time>2018-06-03T06:41:28.000Z</time>
      </trkpt>
      <trkpt lat="48.18025" lon="-4.09938">
        <ele>62.799999237061</ele>
        <time>2018-06-03T06:41:29.000Z</time>
      </trkpt>
      <trkpt lat="48.18025" lon="-4.09928">
        <ele>61.799999237061</ele>
        <time>2018-06-03T06:41:30.000Z</time>
      </trkpt>
      <trkpt lat="48.18021" lon="-4.09907">
        <ele>60.400001525879</ele>
        <time>2018-06-03T06:41:32.000Z</time>
      </trkpt>
      <trkpt lat="48.18018" lon="-4.09896">
        <ele>60</ele>
        <time>2018-06-03T06:41:33.000Z</time>
      </trkpt>
      <trkpt lat="48.18009" lon="-4.09862">
        <ele>59.200000762939</ele>
        <time>2018-06-03T06:41:36.000Z</time>
      </trkpt>
      <trkpt lat="48.18012" lon="-4.0983">
        <ele>58.200000762939</ele>
        <time>2018-06-03T06:41:39.000Z</time>
      </trkpt>
      <trkpt lat="48.18018" lon="-4.09812">
        <ele>56.799999237061</ele>
        <time>2018-06-03T06:41:41.000Z</time>
      </trkpt>
      <trkpt lat="48.18024" lon="-4.09796">
        <ele>55.400001525879</ele>
        <time>2018-06-03T06:41:43.000Z</time>
      </trkpt>
      <trkpt lat="48.18048" lon="-4.09738">
        <ele>55</ele>
        <time>2018-06-03T06:41:51.000Z</time>
      </trkpt>
      <trkpt lat="48.18039" lon="-4.09713">
        <ele>56</ele>
        <time>2018-06-03T06:41:57.000Z</time>
      </trkpt>
      <trkpt lat="48.18031" lon="-4.09711">
        <ele>56.400001525879</ele>
        <time>2018-06-03T06:42:00.000Z</time>
      </trkpt>
      <trkpt lat="48.18023" lon="-4.09709">
        <ele>57.599998474121</ele>
        <time>2018-06-03T06:42:03.000Z</time>
      </trkpt>
      <trkpt lat="48.18015" lon="-4.09707">
        <ele>58.799999237061</ele>
        <time>2018-06-03T06:42:06.000Z</time>
      </trkpt>
      <trkpt lat="48.18003" lon="-4.09703">
        <ele>60</ele>
        <time>2018-06-03T06:42:11.000Z</time>
      </trkpt>
      <trkpt lat="48.17993" lon="-4.097">
        <ele>61</ele>
        <time>2018-06-03T06:42:15.000Z</time>
      </trkpt>
      <trkpt lat="48.17979" lon="-4.09696">
        <ele>62.200000762939</ele>
        <time>2018-06-03T06:42:21.000Z</time>
      </trkpt>
      <trkpt lat="48.1797" lon="-4.09693">
        <ele>63.200000762939</ele>
        <time>2018-06-03T06:42:25.000Z</time>
      </trkpt>
      <trkpt lat="48.17959" lon="-4.09689">
        <ele>64.199996948242</ele>
        <time>2018-06-03T06:42:30.000Z</time>
      </trkpt>
      <trkpt lat="48.17946" lon="-4.09684">
        <ele>65.400001525879</ele>
        <time>2018-06-03T06:42:36.000Z</time>
      </trkpt>
      <trkpt lat="48.17933" lon="-4.09678">
        <ele>66.599998474121</ele>
        <time>2018-06-03T06:42:42.000Z</time>
      </trkpt>
      <trkpt lat="48.17922" lon="-4.09673">
        <ele>67.599998474121</ele>
        <time>2018-06-03T06:42:47.000Z</time>
      </trkpt>
      <trkpt lat="48.17909" lon="-4.09668">
        <ele>68.599998474121</ele>
        <time>2018-06-03T06:42:53.000Z</time>
      </trkpt>
      <trkpt lat="48.17899" lon="-4.09662">
        <ele>69.800003051758</ele>
        <time>2018-06-03T06:42:58.000Z</time>
      </trkpt>
      <trkpt lat="48.17888" lon="-4.09657">
        <ele>70.800003051758</ele>
        <time>2018-06-03T06:43:03.000Z</time>
      </trkpt>
      <trkpt lat="48.17876" lon="-4.09653">
        <ele>72</ele>
        <time>2018-06-03T06:43:09.000Z</time>
      </trkpt>
      <trkpt lat="48.17863" lon="-4.09647">
        <ele>73</ele>
        <time>2018-06-03T06:43:15.000Z</time>
      </trkpt>
      <trkpt lat="48.17853" lon="-4.09641">
        <ele>74</ele>
        <time>2018-06-03T06:43:20.000Z</time>
      </trkpt>
      <trkpt lat="48.1784" lon="-4.09631">
        <ele>74.800003051758</ele>
        <time>2018-06-03T06:43:28.000Z</time>
      </trkpt>
      <trkpt lat="48.1783" lon="-4.09626">
        <ele>76</ele>
        <time>2018-06-03T06:43:33.000Z</time>
      </trkpt>
      <trkpt lat="48.17819" lon="-4.0962">
        <ele>77</ele>
        <time>2018-06-03T06:43:39.000Z</time>
      </trkpt>
      <trkpt lat="48.1781" lon="-4.09614">
        <ele>78.199996948242</ele>
        <time>2018-06-03T06:43:44.000Z</time>
      </trkpt>
      <trkpt lat="48.17802" lon="-4.09607">
        <ele>79.199996948242</ele>
        <time>2018-06-03T06:43:49.000Z</time>
      </trkpt>
      <trkpt lat="48.17794" lon="-4.09593">
        <ele>80.400001525879</ele>
        <time>2018-06-03T06:43:55.000Z</time>
      </trkpt>
      <trkpt lat="48.17789" lon="-4.09573">
        <ele>81.599998474121</ele>
        <time>2018-06-03T06:44:01.000Z</time>
      </trkpt>
      <trkpt lat="48.17778" lon="-4.09539">
        <ele>82.599998474121</ele>
        <time>2018-06-03T06:44:10.000Z</time>
      </trkpt>
      <trkpt lat="48.17754" lon="-4.09472">
        <ele>83.199996948242</ele>
        <time>2018-06-03T06:44:25.000Z</time>
      </trkpt>
      <trkpt lat="48.17742" lon="-4.09429">
        <ele>83</ele>
        <time>2018-06-03T06:44:33.000Z</time>
      </trkpt>
      <trkpt lat="48.17753" lon="-4.09417">
        <ele>82.599998474121</ele>
        <time>2018-06-03T06:44:37.000Z</time>
      </trkpt>
      <trkpt lat="48.17756" lon="-4.09414">
        <ele>82.400001525879</ele>
        <time>2018-06-03T06:44:38.000Z</time>
      </trkpt>
      <trkpt lat="48.17773" lon="-4.09405">
        <ele>81.400001525879</ele>
        <time>2018-06-03T06:44:43.000Z</time>
      </trkpt>
      <trkpt lat="48.17781" lon="-4.09401">
        <ele>80.400001525879</ele>
        <time>2018-06-03T06:44:45.000Z</time>
      </trkpt>
      <trkpt lat="48.17791" lon="-4.09397">
        <ele>80</ele>
        <time>2018-06-03T06:44:47.000Z</time>
      </trkpt>
      <trkpt lat="48.17816" lon="-4.09385">
        <ele>79.800003051758</ele>
        <time>2018-06-03T06:44:52.000Z</time>
      </trkpt>
      <trkpt lat="48.17837" lon="-4.09377">
        <ele>79.800003051758</ele>
        <time>2018-06-03T06:44:56.000Z</time>
      </trkpt>
      <trkpt lat="48.17848" lon="-4.09373">
        <ele>79.800003051758</ele>
        <time>2018-06-03T06:44:58.000Z</time>
      </trkpt>
      <trkpt lat="48.17866" lon="-4.09365">
        <ele>79.800003051758</ele>
        <time>2018-06-03T06:45:02.000Z</time>
      </trkpt>
      <trkpt lat="48.17883" lon="-4.09358">
        <ele>79.599998474121</ele>
        <time>2018-06-03T06:45:06.000Z</time>
      </trkpt>
      <trkpt lat="48.17897" lon="-4.09354">
        <ele>79.599998474121</ele>
        <time>2018-06-03T06:45:09.000Z</time>
      </trkpt>
      <trkpt lat="48.17928" lon="-4.09349">
        <ele>79.400001525879</ele>
        <time>2018-06-03T06:45:17.000Z</time>
      </trkpt>
      <trkpt lat="48.17985" lon="-4.09329">
        <ele>78.800003051758</ele>
        <time>2018-06-03T06:45:34.000Z</time>
      </trkpt>
      <trkpt lat="48.18015" lon="-4.09297">
        <ele>78.599998474121</ele>
        <time>2018-06-03T06:45:44.000Z</time>
      </trkpt>
      <trkpt lat="48.18071" lon="-4.09285">
        <ele>77.599998474121</ele>
        <time>2018-06-03T06:46:00.000Z</time>
      </trkpt>
      <trkpt lat="48.18078" lon="-4.09287">
        <ele>77.400001525879</ele>
        <time>2018-06-03T06:46:02.000Z</time>
      </trkpt>
      <trkpt lat="48.18096" lon="-4.09294">
        <ele>77</ele>
        <time>2018-06-03T06:46:07.000Z</time>
      </trkpt>
      <trkpt lat="48.18147" lon="-4.09285">
        <ele>76.400001525879</ele>
        <time>2018-06-03T06:46:19.000Z</time>
      </trkpt>
      <trkpt lat="48.18202" lon="-4.09286">
        <ele>75.800003051758</ele>
        <time>2018-06-03T06:46:30.000Z</time>
      </trkpt>
      <trkpt lat="48.18207" lon="-4.09285">
        <ele>75.400001525879</ele>
        <time>2018-06-03T06:46:31.000Z</time>
      </trkpt>
      <trkpt lat="48.18211" lon="-4.09282">
        <ele>75.400001525879</ele>
        <time>2018-06-03T06:46:32.000Z</time>
      </trkpt>
      <trkpt lat="48.18222" lon="-4.0925">
        <ele>74.800003051758</ele>
        <time>2018-06-03T06:46:38.000Z</time>
      </trkpt>
      <trkpt lat="48.18232" lon="-4.09221">
        <ele>74.400001525879</ele>
        <time>2018-06-03T06:46:43.000Z</time>
      </trkpt>
      <trkpt lat="48.18274" lon="-4.09163">
        <ele>73.800003051758</ele>
        <time>2018-06-03T06:46:56.000Z</time>
      </trkpt>
      <trkpt lat="48.18306" lon="-4.09129">
        <ele>73.400001525879</ele>
        <time>2018-06-03T06:47:04.000Z</time>
      </trkpt>
      <trkpt lat="48.1835" lon="-4.09071">
        <ele>72.599998474121</ele>
        <time>2018-06-03T06:47:13.000Z</time>
      </trkpt>
      <trkpt lat="48.1837" lon="-4.09044">
        <ele>72.199996948242</ele>
        <time>2018-06-03T06:47:17.000Z</time>
      </trkpt>
      <trkpt lat="48.18402" lon="-4.09012">
        <ele>71.400001525879</ele>
        <time>2018-06-03T06:47:23.000Z</time>
      </trkpt>
      <trkpt lat="48.18433" lon="-4.08979">
        <ele>70.599998474121</ele>
        <time>2018-06-03T06:47:29.000Z</time>
      </trkpt>
      <trkpt lat="48.18446" lon="-4.08961">
        <ele>70.199996948242</ele>
        <time>2018-06-03T06:47:32.000Z</time>
      </trkpt>
      <trkpt lat="48.18465" lon="-4.08938">
        <ele>70</ele>
        <time>2018-06-03T06:47:36.000Z</time>
      </trkpt>
      <trkpt lat="48.18491" lon="-4.08905">
        <ele>69.599998474121</ele>
        <time>2018-06-03T06:47:41.000Z</time>
      </trkpt>
      <trkpt lat="48.18508" lon="-4.08873">
        <ele>69.400001525879</ele>
        <time>2018-06-03T06:47:45.000Z</time>
      </trkpt>
      <trkpt lat="48.18533" lon="-4.0882">
        <ele>68.400001525879</ele>
        <time>2018-06-03T06:47:54.000Z</time>
      </trkpt>
      <trkpt lat="48.18537" lon="-4.08812">
        <ele>68.400001525879</ele>
        <time>2018-06-03T06:47:56.000Z</time>
      </trkpt>
      <trkpt lat="48.18551" lon="-4.08783">
        <ele>68</ele>
        <time>2018-06-03T06:48:05.000Z</time>
      </trkpt>
      <trkpt lat="48.18564" lon="-4.08752">
        <ele>67.599998474121</ele>
        <time>2018-06-03T06:48:13.000Z</time>
      </trkpt>
      <trkpt lat="48.18584" lon="-4.0871">
        <ele>67.199996948242</ele>
        <time>2018-06-03T06:48:25.000Z</time>
      </trkpt>
    </trkseg>
  </trk>
</gpx>